<?xml version="1.0" encoding="UTF-8" standalone="no" ?>
<gpx xmlns="http://www.topografix.com/GPX/1/1" xmlns:xsi="http://www.w3.org/2001/XMLSchema-instance" xsi:schemaLocation="http://www.topografix.com/GPX/1/1 http://www.topografix.com/GPX/1/1/gpx.xsd" version="1.1" creator="VisuGPX - https://www.visugpx.com">
  <metadata>
    <name>022SG75-8096611</name>
    <desc><![CDATA[
02]]></desc>
  </metadata>
  <trk>
    <name><![CDATA[022SG75-8096611]]></name>
    <trkseg>
      <trkpt lat="46.69879" lon="-1.9339">
        <ele>5</ele>
        <time>2018-03-07T22:10:02Z</time>
      </trkpt>
      <trkpt lat="46.69892" lon="-1.93385">
        <ele>5</ele>
        <time>2018-03-07T22:11:02Z</time>
      </trkpt>
      <trkpt lat="46.69898" lon="-1.93383">
        <ele>5</ele>
        <time>2018-03-07T22:12:02Z</time>
      </trkpt>
      <trkpt lat="46.69901" lon="-1.93383">
        <ele>5</ele>
        <time>2018-03-07T22:13:02Z</time>
      </trkpt>
      <trkpt lat="46.69908" lon="-1.93383">
        <ele>4</ele>
        <time>2018-03-07T22:14:02Z</time>
      </trkpt>
      <trkpt lat="46.69907" lon="-1.93379">
        <ele>5</ele>
        <time>2018-03-07T22:15:02Z</time>
      </trkpt>
      <trkpt lat="46.69908" lon="-1.93377">
        <ele>5</ele>
        <time>2018-03-07T22:16:02Z</time>
      </trkpt>
      <trkpt lat="46.69908" lon="-1.93376">
        <ele>5</ele>
        <time>2018-03-07T22:17:02Z</time>
      </trkpt>
      <trkpt lat="46.69909" lon="-1.93375">
        <ele>5</ele>
        <time>2018-03-07T22:18:02Z</time>
      </trkpt>
      <trkpt lat="46.69911" lon="-1.93375">
        <ele>5</ele>
        <time>2018-03-07T22:19:02Z</time>
      </trkpt>
      <trkpt lat="46.69912" lon="-1.93375">
        <ele>5</ele>
        <time>2018-03-07T22:20:02Z</time>
      </trkpt>
      <trkpt lat="46.69914" lon="-1.93375">
        <ele>5</ele>
        <time>2018-03-07T22:21:02Z</time>
      </trkpt>
      <trkpt lat="46.69915" lon="-1.93376">
        <ele>5</ele>
        <time>2018-03-07T22:22:02Z</time>
      </trkpt>
      <trkpt lat="46.69915" lon="-1.93377">
        <ele>4</ele>
        <time>2018-03-07T22:23:02Z</time>
      </trkpt>
      <trkpt lat="46.69916" lon="-1.93379">
        <ele>4</ele>
        <time>2018-03-07T22:24:02Z</time>
      </trkpt>
      <trkpt lat="46.69916" lon="-1.93382">
        <ele>4</ele>
        <time>2018-03-07T22:25:02Z</time>
      </trkpt>
      <trkpt lat="46.69915" lon="-1.93383">
        <ele>4</ele>
        <time>2018-03-07T22:26:02Z</time>
      </trkpt>
      <trkpt lat="46.69922" lon="-1.93383">
        <ele>4</ele>
        <time>2018-03-07T22:27:02Z</time>
      </trkpt>
      <trkpt lat="46.69925" lon="-1.93383">
        <ele>4</ele>
        <time>2018-03-07T22:28:02Z</time>
      </trkpt>
      <trkpt lat="46.69935" lon="-1.93382">
        <ele>4</ele>
        <time>2018-03-07T22:29:02Z</time>
      </trkpt>
      <trkpt lat="46.69944" lon="-1.93381">
        <ele>4</ele>
        <time>2018-03-07T22:30:02Z</time>
      </trkpt>
      <trkpt lat="46.69949" lon="-1.93379">
        <ele>4</ele>
        <time>2018-03-07T22:31:02Z</time>
      </trkpt>
      <trkpt lat="46.69953" lon="-1.93377">
        <ele>4</ele>
        <time>2018-03-07T22:32:02Z</time>
      </trkpt>
      <trkpt lat="46.69958" lon="-1.93375">
        <ele>4</ele>
        <time>2018-03-07T22:33:02Z</time>
      </trkpt>
      <trkpt lat="46.69963" lon="-1.93373">
        <ele>4</ele>
        <time>2018-03-07T22:34:02Z</time>
      </trkpt>
      <trkpt lat="46.69969" lon="-1.9337">
        <ele>4</ele>
        <time>2018-03-07T22:35:02Z</time>
      </trkpt>
      <trkpt lat="46.69973" lon="-1.93367">
        <ele>4</ele>
        <time>2018-03-07T22:36:02Z</time>
      </trkpt>
      <trkpt lat="46.69976" lon="-1.93367">
        <ele>4</ele>
        <time>2018-03-07T22:37:02Z</time>
      </trkpt>
      <trkpt lat="46.69978" lon="-1.93366">
        <ele>3</ele>
        <time>2018-03-07T22:38:02Z</time>
      </trkpt>
      <trkpt lat="46.69979" lon="-1.93366">
        <ele>3</ele>
        <time>2018-03-07T22:39:02Z</time>
      </trkpt>
      <trkpt lat="46.69982" lon="-1.93367">
        <ele>3</ele>
        <time>2018-03-07T22:40:02Z</time>
      </trkpt>
      <trkpt lat="46.69987" lon="-1.93369">
        <ele>3</ele>
        <time>2018-03-07T22:41:02Z</time>
      </trkpt>
      <trkpt lat="46.70002" lon="-1.93375">
        <ele>3</ele>
        <time>2018-03-07T22:42:02Z</time>
      </trkpt>
      <trkpt lat="46.70015" lon="-1.9338">
        <ele>3</ele>
        <time>2018-03-07T22:43:02Z</time>
      </trkpt>
      <trkpt lat="46.7002" lon="-1.93382">
        <ele>3</ele>
        <time>2018-03-07T22:44:02Z</time>
      </trkpt>
      <trkpt lat="46.70023" lon="-1.93384">
        <ele>3</ele>
        <time>2018-03-07T22:45:02Z</time>
      </trkpt>
      <trkpt lat="46.70025" lon="-1.93386">
        <ele>3</ele>
        <time>2018-03-07T22:46:02Z</time>
      </trkpt>
      <trkpt lat="46.70028" lon="-1.93388">
        <ele>3</ele>
        <time>2018-03-07T22:47:02Z</time>
      </trkpt>
      <trkpt lat="46.7003" lon="-1.93391">
        <ele>3</ele>
        <time>2018-03-07T22:48:02Z</time>
      </trkpt>
      <trkpt lat="46.70033" lon="-1.93394">
        <ele>2</ele>
        <time>2018-03-07T22:49:02Z</time>
      </trkpt>
      <trkpt lat="46.70036" lon="-1.93397">
        <ele>2</ele>
        <time>2018-03-07T22:50:02Z</time>
      </trkpt>
      <trkpt lat="46.70038" lon="-1.93398">
        <ele>2</ele>
        <time>2018-03-07T22:51:02Z</time>
      </trkpt>
      <trkpt lat="46.70041" lon="-1.934">
        <ele>2</ele>
        <time>2018-03-07T22:52:02Z</time>
      </trkpt>
      <trkpt lat="46.70043" lon="-1.93401">
        <ele>2</ele>
        <time>2018-03-07T22:53:02Z</time>
      </trkpt>
      <trkpt lat="46.70046" lon="-1.93402">
        <ele>2</ele>
        <time>2018-03-07T22:54:02Z</time>
      </trkpt>
      <trkpt lat="46.70052" lon="-1.93405">
        <ele>2</ele>
        <time>2018-03-07T22:55:02Z</time>
      </trkpt>
      <trkpt lat="46.70052" lon="-1.93404">
        <ele>2</ele>
        <time>2018-03-07T22:56:02Z</time>
      </trkpt>
      <trkpt lat="46.70052" lon="-1.93403">
        <ele>2</ele>
        <time>2018-03-07T22:57:02Z</time>
      </trkpt>
      <trkpt lat="46.70052" lon="-1.93402">
        <ele>2</ele>
        <time>2018-03-07T22:58:02Z</time>
      </trkpt>
      <trkpt lat="46.70052" lon="-1.93401">
        <ele>2</ele>
        <time>2018-03-07T22:59:02Z</time>
      </trkpt>
      <trkpt lat="46.70053" lon="-1.93401">
        <ele>2</ele>
        <time>2018-03-07T23:00:02Z</time>
      </trkpt>
      <trkpt lat="46.70053" lon="-1.934">
        <ele>2</ele>
        <time>2018-03-07T23:01:02Z</time>
      </trkpt>
      <trkpt lat="46.70053" lon="-1.93399">
        <ele>2</ele>
        <time>2018-03-07T23:02:02Z</time>
      </trkpt>
      <trkpt lat="46.70054" lon="-1.93399">
        <ele>2</ele>
        <time>2018-03-07T23:03:02Z</time>
      </trkpt>
      <trkpt lat="46.70054" lon="-1.93398">
        <ele>2</ele>
        <time>2018-03-07T23:04:02Z</time>
      </trkpt>
      <trkpt lat="46.70055" lon="-1.93398">
        <ele>2</ele>
        <time>2018-03-07T23:05:02Z</time>
      </trkpt>
      <trkpt lat="46.70056" lon="-1.93398">
        <ele>2</ele>
        <time>2018-03-07T23:06:02Z</time>
      </trkpt>
      <trkpt lat="46.70056" lon="-1.93397">
        <ele>2</ele>
        <time>2018-03-07T23:07:02Z</time>
      </trkpt>
      <trkpt lat="46.70057" lon="-1.93397">
        <ele>2</ele>
        <time>2018-03-07T23:08:02Z</time>
      </trkpt>
      <trkpt lat="46.70058" lon="-1.93397">
        <ele>2</ele>
        <time>2018-03-07T23:09:02Z</time>
      </trkpt>
      <trkpt lat="46.70059" lon="-1.93398">
        <ele>2</ele>
        <time>2018-03-07T23:10:02Z</time>
      </trkpt>
      <trkpt lat="46.7006" lon="-1.93398">
        <ele>2</ele>
        <time>2018-03-07T23:11:02Z</time>
      </trkpt>
      <trkpt lat="46.7006" lon="-1.93399">
        <ele>2</ele>
        <time>2018-03-07T23:12:02Z</time>
      </trkpt>
      <trkpt lat="46.70061" lon="-1.93399">
        <ele>2</ele>
        <time>2018-03-07T23:13:02Z</time>
      </trkpt>
      <trkpt lat="46.70061" lon="-1.934">
        <ele>2</ele>
        <time>2018-03-07T23:14:02Z</time>
      </trkpt>
      <trkpt lat="46.70061" lon="-1.93401">
        <ele>2</ele>
        <time>2018-03-07T23:15:02Z</time>
      </trkpt>
      <trkpt lat="46.70062" lon="-1.93401">
        <ele>2</ele>
        <time>2018-03-07T23:16:02Z</time>
      </trkpt>
      <trkpt lat="46.70062" lon="-1.93402">
        <ele>2</ele>
        <time>2018-03-07T23:17:02Z</time>
      </trkpt>
      <trkpt lat="46.70062" lon="-1.93403">
        <ele>2</ele>
        <time>2018-03-07T23:18:02Z</time>
      </trkpt>
      <trkpt lat="46.70062" lon="-1.93404">
        <ele>2</ele>
        <time>2018-03-07T23:19:02Z</time>
      </trkpt>
      <trkpt lat="46.70062" lon="-1.93405">
        <ele>2</ele>
        <time>2018-03-07T23:20:02Z</time>
      </trkpt>
      <trkpt lat="46.70083" lon="-1.93405">
        <ele>2</ele>
        <time>2018-03-07T23:21:02Z</time>
      </trkpt>
      <trkpt lat="46.70093" lon="-1.934">
        <ele>2</ele>
        <time>2018-03-07T23:22:02Z</time>
      </trkpt>
      <trkpt lat="46.70098" lon="-1.93397">
        <ele>2</ele>
        <time>2018-03-07T23:23:02Z</time>
      </trkpt>
      <trkpt lat="46.70102" lon="-1.93395">
        <ele>2</ele>
        <time>2018-03-07T23:24:02Z</time>
      </trkpt>
      <trkpt lat="46.70107" lon="-1.93391">
        <ele>2</ele>
        <time>2018-03-07T23:25:02Z</time>
      </trkpt>
      <trkpt lat="46.70111" lon="-1.93388">
        <ele>2</ele>
        <time>2018-03-07T23:26:02Z</time>
      </trkpt>
      <trkpt lat="46.70114" lon="-1.93384">
        <ele>2</ele>
        <time>2018-03-07T23:27:02Z</time>
      </trkpt>
      <trkpt lat="46.70114" lon="-1.93384">
        <ele>2</ele>
        <time>2018-03-07T23:28:02Z</time>
      </trkpt>
      <trkpt lat="46.70115" lon="-1.93383">
        <ele>2</ele>
        <time>2018-03-07T23:29:02Z</time>
      </trkpt>
      <trkpt lat="46.70115" lon="-1.93382">
        <ele>2</ele>
        <time>2018-03-07T23:30:02Z</time>
      </trkpt>
      <trkpt lat="46.70115" lon="-1.93381">
        <ele>2</ele>
        <time>2018-03-07T23:31:02Z</time>
      </trkpt>
      <trkpt lat="46.70116" lon="-1.9338">
        <ele>2</ele>
        <time>2018-03-07T23:32:02Z</time>
      </trkpt>
      <trkpt lat="46.70116" lon="-1.93378">
        <ele>2</ele>
        <time>2018-03-07T23:33:02Z</time>
      </trkpt>
      <trkpt lat="46.70116" lon="-1.93377">
        <ele>2</ele>
        <time>2018-03-07T23:34:02Z</time>
      </trkpt>
      <trkpt lat="46.70117" lon="-1.93376">
        <ele>2</ele>
        <time>2018-03-07T23:35:02Z</time>
      </trkpt>
      <trkpt lat="46.70117" lon="-1.93375">
        <ele>2</ele>
        <time>2018-03-07T23:36:02Z</time>
      </trkpt>
      <trkpt lat="46.70118" lon="-1.93374">
        <ele>1</ele>
        <time>2018-03-07T23:37:02Z</time>
      </trkpt>
      <trkpt lat="46.70119" lon="-1.93373">
        <ele>1</ele>
        <time>2018-03-07T23:38:02Z</time>
      </trkpt>
      <trkpt lat="46.70119" lon="-1.93372">
        <ele>1</ele>
        <time>2018-03-07T23:39:02Z</time>
      </trkpt>
      <trkpt lat="46.7012" lon="-1.93372">
        <ele>1</ele>
        <time>2018-03-07T23:40:02Z</time>
      </trkpt>
      <trkpt lat="46.70121" lon="-1.93371">
        <ele>1</ele>
        <time>2018-03-07T23:41:02Z</time>
      </trkpt>
      <trkpt lat="46.70122" lon="-1.9337">
        <ele>1</ele>
        <time>2018-03-07T23:42:02Z</time>
      </trkpt>
      <trkpt lat="46.70123" lon="-1.93369">
        <ele>1</ele>
        <time>2018-03-07T23:43:02Z</time>
      </trkpt>
      <trkpt lat="46.70124" lon="-1.93369">
        <ele>1</ele>
        <time>2018-03-07T23:44:02Z</time>
      </trkpt>
      <trkpt lat="46.70125" lon="-1.93368">
        <ele>2</ele>
        <time>2018-03-07T23:45:02Z</time>
      </trkpt>
      <trkpt lat="46.70126" lon="-1.93368">
        <ele>2</ele>
        <time>2018-03-07T23:46:02Z</time>
      </trkpt>
      <trkpt lat="46.70127" lon="-1.93368">
        <ele>2</ele>
        <time>2018-03-07T23:47:02Z</time>
      </trkpt>
      <trkpt lat="46.70128" lon="-1.93368">
        <ele>2</ele>
        <time>2018-03-07T23:48:02Z</time>
      </trkpt>
      <trkpt lat="46.70129" lon="-1.93368">
        <ele>2</ele>
        <time>2018-03-07T23:49:02Z</time>
      </trkpt>
      <trkpt lat="46.7013" lon="-1.93368">
        <ele>2</ele>
        <time>2018-03-07T23:50:02Z</time>
      </trkpt>
      <trkpt lat="46.70131" lon="-1.93369">
        <ele>2</ele>
        <time>2018-03-07T23:51:02Z</time>
      </trkpt>
      <trkpt lat="46.70132" lon="-1.93369">
        <ele>2</ele>
        <time>2018-03-07T23:52:02Z</time>
      </trkpt>
      <trkpt lat="46.70132" lon="-1.9337">
        <ele>2</ele>
        <time>2018-03-07T23:53:02Z</time>
      </trkpt>
      <trkpt lat="46.70133" lon="-1.9337">
        <ele>2</ele>
        <time>2018-03-07T23:54:02Z</time>
      </trkpt>
      <trkpt lat="46.70134" lon="-1.93371">
        <ele>2</ele>
        <time>2018-03-07T23:55:02Z</time>
      </trkpt>
      <trkpt lat="46.70135" lon="-1.93372">
        <ele>2</ele>
        <time>2018-03-07T23:56:02Z</time>
      </trkpt>
      <trkpt lat="46.70136" lon="-1.93373">
        <ele>2</ele>
        <time>2018-03-07T23:57:02Z</time>
      </trkpt>
      <trkpt lat="46.70136" lon="-1.93374">
        <ele>2</ele>
        <time>2018-03-07T23:58:02Z</time>
      </trkpt>
      <trkpt lat="46.70137" lon="-1.93374">
        <ele>2</ele>
        <time>2018-03-07T23:59:02Z</time>
      </trkpt>
      <trkpt lat="46.70137" lon="-1.93375">
        <ele>1</ele>
        <time>2018-03-08T00:00:02Z</time>
      </trkpt>
      <trkpt lat="46.70138" lon="-1.93376">
        <ele>1</ele>
        <time>2018-03-08T00:01:02Z</time>
      </trkpt>
      <trkpt lat="46.70138" lon="-1.93377">
        <ele>1</ele>
        <time>2018-03-08T00:02:02Z</time>
      </trkpt>
      <trkpt lat="46.70138" lon="-1.93378">
        <ele>1</ele>
        <time>2018-03-08T00:03:02Z</time>
      </trkpt>
      <trkpt lat="46.70165" lon="-1.93375">
        <ele>1</ele>
        <time>2018-03-08T00:04:02Z</time>
      </trkpt>
      <trkpt lat="46.7017" lon="-1.93374">
        <ele>1</ele>
        <time>2018-03-08T00:05:02Z</time>
      </trkpt>
      <trkpt lat="46.70173" lon="-1.93372">
        <ele>1</ele>
        <time>2018-03-08T00:06:02Z</time>
      </trkpt>
      <trkpt lat="46.70181" lon="-1.93366">
        <ele>2</ele>
        <time>2018-03-08T00:07:02Z</time>
      </trkpt>
      <trkpt lat="46.70194" lon="-1.93356">
        <ele>1</ele>
        <time>2018-03-08T00:08:02Z</time>
      </trkpt>
      <trkpt lat="46.70205" lon="-1.93347">
        <ele>1</ele>
        <time>2018-03-08T00:09:02Z</time>
      </trkpt>
      <trkpt lat="46.70211" lon="-1.9334">
        <ele>1</ele>
        <time>2018-03-08T00:10:02Z</time>
      </trkpt>
      <trkpt lat="46.70216" lon="-1.93332">
        <ele>1</ele>
        <time>2018-03-08T00:11:02Z</time>
      </trkpt>
      <trkpt lat="46.70224" lon="-1.9332">
        <ele>1</ele>
        <time>2018-03-08T00:12:02Z</time>
      </trkpt>
      <trkpt lat="46.70239" lon="-1.93295">
        <ele>2</ele>
        <time>2018-03-08T00:13:02Z</time>
      </trkpt>
      <trkpt lat="46.70251" lon="-1.9328">
        <ele>2</ele>
        <time>2018-03-08T00:14:02Z</time>
      </trkpt>
      <trkpt lat="46.70263" lon="-1.93271">
        <ele>2</ele>
        <time>2018-03-08T00:15:02Z</time>
      </trkpt>
      <trkpt lat="46.70276" lon="-1.93263">
        <ele>2</ele>
        <time>2018-03-08T00:16:02Z</time>
      </trkpt>
      <trkpt lat="46.7028" lon="-1.9326">
        <ele>2</ele>
        <time>2018-03-08T00:17:02Z</time>
      </trkpt>
      <trkpt lat="46.70288" lon="-1.93253">
        <ele>2</ele>
        <time>2018-03-08T00:18:02Z</time>
      </trkpt>
      <trkpt lat="46.70295" lon="-1.93245">
        <ele>2</ele>
        <time>2018-03-08T00:19:02Z</time>
      </trkpt>
      <trkpt lat="46.70304" lon="-1.9323">
        <ele>2</ele>
        <time>2018-03-08T00:20:02Z</time>
      </trkpt>
      <trkpt lat="46.70304" lon="-1.9323">
        <ele>2</ele>
        <time>2018-03-08T00:21:02Z</time>
      </trkpt>
      <trkpt lat="46.70328" lon="-1.93232">
        <ele>2</ele>
        <time>2018-03-08T00:22:02Z</time>
      </trkpt>
      <trkpt lat="46.70362" lon="-1.9324">
        <ele>2</ele>
        <time>2018-03-08T00:23:02Z</time>
      </trkpt>
      <trkpt lat="46.70398" lon="-1.93249">
        <ele>3</ele>
        <time>2018-03-08T00:24:02Z</time>
      </trkpt>
      <trkpt lat="46.70419" lon="-1.93258">
        <ele>3</ele>
        <time>2018-03-08T00:25:02Z</time>
      </trkpt>
      <trkpt lat="46.70429" lon="-1.93262">
        <ele>3</ele>
        <time>2018-03-08T00:26:02Z</time>
      </trkpt>
      <trkpt lat="46.70439" lon="-1.93265">
        <ele>3</ele>
        <time>2018-03-08T00:27:02Z</time>
      </trkpt>
      <trkpt lat="46.70449" lon="-1.93267">
        <ele>3</ele>
        <time>2018-03-08T00:28:02Z</time>
      </trkpt>
      <trkpt lat="46.70458" lon="-1.93268">
        <ele>3</ele>
        <time>2018-03-08T00:29:02Z</time>
      </trkpt>
      <trkpt lat="46.70465" lon="-1.93267">
        <ele>3</ele>
        <time>2018-03-08T00:30:02Z</time>
      </trkpt>
      <trkpt lat="46.70472" lon="-1.93265">
        <ele>3</ele>
        <time>2018-03-08T00:31:02Z</time>
      </trkpt>
      <trkpt lat="46.7048" lon="-1.9326">
        <ele>4</ele>
        <time>2018-03-08T00:32:02Z</time>
      </trkpt>
      <trkpt lat="46.70489" lon="-1.93253">
        <ele>4</ele>
        <time>2018-03-08T00:33:02Z</time>
      </trkpt>
      <trkpt lat="46.70503" lon="-1.93244">
        <ele>4</ele>
        <time>2018-03-08T00:34:02Z</time>
      </trkpt>
      <trkpt lat="46.7052" lon="-1.93232">
        <ele>5</ele>
        <time>2018-03-08T00:35:02Z</time>
      </trkpt>
      <trkpt lat="46.70533" lon="-1.93223">
        <ele>5</ele>
        <time>2018-03-08T00:36:02Z</time>
      </trkpt>
      <trkpt lat="46.70548" lon="-1.93216">
        <ele>5</ele>
        <time>2018-03-08T00:37:02Z</time>
      </trkpt>
      <trkpt lat="46.70566" lon="-1.93211">
        <ele>6</ele>
        <time>2018-03-08T00:38:02Z</time>
      </trkpt>
      <trkpt lat="46.70588" lon="-1.93206">
        <ele>6</ele>
        <time>2018-03-08T00:39:02Z</time>
      </trkpt>
      <trkpt lat="46.7061" lon="-1.93202">
        <ele>7</ele>
        <time>2018-03-08T00:40:02Z</time>
      </trkpt>
      <trkpt lat="46.7063" lon="-1.93198">
        <ele>7</ele>
        <time>2018-03-08T00:41:02Z</time>
      </trkpt>
      <trkpt lat="46.70648" lon="-1.93197">
        <ele>8</ele>
        <time>2018-03-08T00:42:02Z</time>
      </trkpt>
      <trkpt lat="46.70659" lon="-1.93197">
        <ele>8</ele>
        <time>2018-03-08T00:43:02Z</time>
      </trkpt>
      <trkpt lat="46.70671" lon="-1.932">
        <ele>8</ele>
        <time>2018-03-08T00:44:02Z</time>
      </trkpt>
      <trkpt lat="46.70691" lon="-1.93205">
        <ele>8</ele>
        <time>2018-03-08T00:45:02Z</time>
      </trkpt>
      <trkpt lat="46.7071" lon="-1.93211">
        <ele>8</ele>
        <time>2018-03-08T00:46:02Z</time>
      </trkpt>
      <trkpt lat="46.70712" lon="-1.93212">
        <ele>8</ele>
        <time>2018-03-08T00:47:02Z</time>
      </trkpt>
      <trkpt lat="46.70729" lon="-1.93213">
        <ele>8</ele>
        <time>2018-03-08T00:48:02Z</time>
      </trkpt>
      <trkpt lat="46.70745" lon="-1.93212">
        <ele>8</ele>
        <time>2018-03-08T00:49:02Z</time>
      </trkpt>
      <trkpt lat="46.70752" lon="-1.9321">
        <ele>8</ele>
        <time>2018-03-08T00:50:02Z</time>
      </trkpt>
      <trkpt lat="46.70758" lon="-1.93207">
        <ele>8</ele>
        <time>2018-03-08T00:51:02Z</time>
      </trkpt>
      <trkpt lat="46.70766" lon="-1.93202">
        <ele>8</ele>
        <time>2018-03-08T00:52:02Z</time>
      </trkpt>
      <trkpt lat="46.70772" lon="-1.93197">
        <ele>8</ele>
        <time>2018-03-08T00:53:02Z</time>
      </trkpt>
      <trkpt lat="46.70785" lon="-1.93186">
        <ele>9</ele>
        <time>2018-03-08T00:54:02Z</time>
      </trkpt>
      <trkpt lat="46.70795" lon="-1.93179">
        <ele>9</ele>
        <time>2018-03-08T00:55:02Z</time>
      </trkpt>
      <trkpt lat="46.70804" lon="-1.93173">
        <ele>9</ele>
        <time>2018-03-08T00:56:02Z</time>
      </trkpt>
      <trkpt lat="46.70813" lon="-1.9317">
        <ele>9</ele>
        <time>2018-03-08T00:57:02Z</time>
      </trkpt>
      <trkpt lat="46.70821" lon="-1.93168">
        <ele>9</ele>
        <time>2018-03-08T00:58:02Z</time>
      </trkpt>
      <trkpt lat="46.70829" lon="-1.93167">
        <ele>9</ele>
        <time>2018-03-08T00:59:02Z</time>
      </trkpt>
      <trkpt lat="46.70835" lon="-1.93168">
        <ele>9</ele>
        <time>2018-03-08T01:00:02Z</time>
      </trkpt>
      <trkpt lat="46.70844" lon="-1.93169">
        <ele>9</ele>
        <time>2018-03-08T01:01:02Z</time>
      </trkpt>
      <trkpt lat="46.70877" lon="-1.93174">
        <ele>8</ele>
        <time>2018-03-08T01:02:02Z</time>
      </trkpt>
      <trkpt lat="46.70916" lon="-1.93179">
        <ele>7</ele>
        <time>2018-03-08T01:03:02Z</time>
      </trkpt>
      <trkpt lat="46.70936" lon="-1.93181">
        <ele>7</ele>
        <time>2018-03-08T01:04:02Z</time>
      </trkpt>
      <trkpt lat="46.70956" lon="-1.93184">
        <ele>7</ele>
        <time>2018-03-08T01:05:02Z</time>
      </trkpt>
      <trkpt lat="46.70974" lon="-1.93184">
        <ele>7</ele>
        <time>2018-03-08T01:06:02Z</time>
      </trkpt>
      <trkpt lat="46.71007" lon="-1.9318">
        <ele>7</ele>
        <time>2018-03-08T01:07:02Z</time>
      </trkpt>
      <trkpt lat="46.71025" lon="-1.93175">
        <ele>7</ele>
        <time>2018-03-08T01:08:02Z</time>
      </trkpt>
      <trkpt lat="46.71038" lon="-1.93168">
        <ele>7</ele>
        <time>2018-03-08T01:09:02Z</time>
      </trkpt>
      <trkpt lat="46.71048" lon="-1.93158">
        <ele>7</ele>
        <time>2018-03-08T01:10:02Z</time>
      </trkpt>
      <trkpt lat="46.71062" lon="-1.93143">
        <ele>7</ele>
        <time>2018-03-08T01:11:02Z</time>
      </trkpt>
      <trkpt lat="46.7109" lon="-1.93111">
        <ele>7</ele>
        <time>2018-03-08T01:12:02Z</time>
      </trkpt>
      <trkpt lat="46.71123" lon="-1.93073">
        <ele>7</ele>
        <time>2018-03-08T01:13:02Z</time>
      </trkpt>
      <trkpt lat="46.71124" lon="-1.93072">
        <ele>7</ele>
        <time>2018-03-08T01:14:02Z</time>
      </trkpt>
      <trkpt lat="46.71141" lon="-1.93051">
        <ele>7</ele>
        <time>2018-03-08T01:15:02Z</time>
      </trkpt>
      <trkpt lat="46.7115" lon="-1.93042">
        <ele>7</ele>
        <time>2018-03-08T01:16:02Z</time>
      </trkpt>
      <trkpt lat="46.71159" lon="-1.93035">
        <ele>8</ele>
        <time>2018-03-08T01:17:02Z</time>
      </trkpt>
      <trkpt lat="46.71167" lon="-1.93032">
        <ele>8</ele>
        <time>2018-03-08T01:18:02Z</time>
      </trkpt>
      <trkpt lat="46.71178" lon="-1.9303">
        <ele>7</ele>
        <time>2018-03-08T01:19:02Z</time>
      </trkpt>
      <trkpt lat="46.71195" lon="-1.93028">
        <ele>7</ele>
        <time>2018-03-08T01:20:02Z</time>
      </trkpt>
      <trkpt lat="46.71215" lon="-1.93028">
        <ele>6</ele>
        <time>2018-03-08T01:21:02Z</time>
      </trkpt>
      <trkpt lat="46.71225" lon="-1.93026">
        <ele>6</ele>
        <time>2018-03-08T01:22:02Z</time>
      </trkpt>
      <trkpt lat="46.71236" lon="-1.93024">
        <ele>5</ele>
        <time>2018-03-08T01:23:02Z</time>
      </trkpt>
      <trkpt lat="46.71243" lon="-1.93018">
        <ele>5</ele>
        <time>2018-03-08T01:24:02Z</time>
      </trkpt>
      <trkpt lat="46.71246" lon="-1.93012">
        <ele>5</ele>
        <time>2018-03-08T01:25:02Z</time>
      </trkpt>
      <trkpt lat="46.71249" lon="-1.93002">
        <ele>5</ele>
        <time>2018-03-08T01:26:02Z</time>
      </trkpt>
      <trkpt lat="46.71252" lon="-1.92988">
        <ele>5</ele>
        <time>2018-03-08T01:27:02Z</time>
      </trkpt>
      <trkpt lat="46.71256" lon="-1.92969">
        <ele>5</ele>
        <time>2018-03-08T01:28:02Z</time>
      </trkpt>
      <trkpt lat="46.71259" lon="-1.92949">
        <ele>5</ele>
        <time>2018-03-08T01:29:02Z</time>
      </trkpt>
      <trkpt lat="46.71259" lon="-1.92949">
        <ele>5</ele>
        <time>2018-03-08T01:30:02Z</time>
      </trkpt>
      <trkpt lat="46.71261" lon="-1.92937">
        <ele>4</ele>
        <time>2018-03-08T01:31:02Z</time>
      </trkpt>
      <trkpt lat="46.71265" lon="-1.92901">
        <ele>3</ele>
        <time>2018-03-08T01:32:02Z</time>
      </trkpt>
      <trkpt lat="46.71269" lon="-1.9287">
        <ele>3</ele>
        <time>2018-03-08T01:33:02Z</time>
      </trkpt>
      <trkpt lat="46.71269" lon="-1.92869">
        <ele>3</ele>
        <time>2018-03-08T01:34:02Z</time>
      </trkpt>
      <trkpt lat="46.71274" lon="-1.92841">
        <ele>3</ele>
        <time>2018-03-08T01:35:02Z</time>
      </trkpt>
      <trkpt lat="46.71281" lon="-1.92808">
        <ele>4</ele>
        <time>2018-03-08T01:36:02Z</time>
      </trkpt>
      <trkpt lat="46.71289" lon="-1.92771">
        <ele>4</ele>
        <time>2018-03-08T01:37:02Z</time>
      </trkpt>
      <trkpt lat="46.71299" lon="-1.92726">
        <ele>5</ele>
        <time>2018-03-08T01:38:02Z</time>
      </trkpt>
      <trkpt lat="46.71299" lon="-1.92723">
        <ele>5</ele>
        <time>2018-03-08T01:39:02Z</time>
      </trkpt>
      <trkpt lat="46.71306" lon="-1.927">
        <ele>6</ele>
        <time>2018-03-08T01:40:02Z</time>
      </trkpt>
      <trkpt lat="46.71306" lon="-1.92696">
        <ele>6</ele>
        <time>2018-03-08T01:41:02Z</time>
      </trkpt>
      <trkpt lat="46.71307" lon="-1.92691">
        <ele>6</ele>
        <time>2018-03-08T01:42:02Z</time>
      </trkpt>
      <trkpt lat="46.71308" lon="-1.92684">
        <ele>6</ele>
        <time>2018-03-08T01:43:02Z</time>
      </trkpt>
      <trkpt lat="46.71308" lon="-1.92681">
        <ele>7</ele>
        <time>2018-03-08T01:44:02Z</time>
      </trkpt>
      <trkpt lat="46.71307" lon="-1.92661">
        <ele>7</ele>
        <time>2018-03-08T01:45:02Z</time>
      </trkpt>
      <trkpt lat="46.71305" lon="-1.92644">
        <ele>8</ele>
        <time>2018-03-08T01:46:02Z</time>
      </trkpt>
      <trkpt lat="46.71305" lon="-1.9264">
        <ele>8</ele>
        <time>2018-03-08T01:47:02Z</time>
      </trkpt>
      <trkpt lat="46.71305" lon="-1.92636">
        <ele>8</ele>
        <time>2018-03-08T01:48:02Z</time>
      </trkpt>
      <trkpt lat="46.71305" lon="-1.92629">
        <ele>8</ele>
        <time>2018-03-08T01:49:02Z</time>
      </trkpt>
      <trkpt lat="46.71306" lon="-1.92623">
        <ele>8</ele>
        <time>2018-03-08T01:50:02Z</time>
      </trkpt>
      <trkpt lat="46.71307" lon="-1.92618">
        <ele>8</ele>
        <time>2018-03-08T01:51:02Z</time>
      </trkpt>
      <trkpt lat="46.71311" lon="-1.92597">
        <ele>8</ele>
        <time>2018-03-08T01:52:02Z</time>
      </trkpt>
      <trkpt lat="46.71325" lon="-1.92544">
        <ele>8</ele>
        <time>2018-03-08T01:53:02Z</time>
      </trkpt>
      <trkpt lat="46.7133" lon="-1.92521">
        <ele>8</ele>
        <time>2018-03-08T01:54:02Z</time>
      </trkpt>
      <trkpt lat="46.71331" lon="-1.92518">
        <ele>8</ele>
        <time>2018-03-08T01:55:02Z</time>
      </trkpt>
      <trkpt lat="46.71332" lon="-1.92515">
        <ele>8</ele>
        <time>2018-03-08T01:56:02Z</time>
      </trkpt>
      <trkpt lat="46.71333" lon="-1.92509">
        <ele>8</ele>
        <time>2018-03-08T01:57:02Z</time>
      </trkpt>
      <trkpt lat="46.71333" lon="-1.92502">
        <ele>8</ele>
        <time>2018-03-08T01:58:02Z</time>
      </trkpt>
      <trkpt lat="46.71332" lon="-1.92476">
        <ele>8</ele>
        <time>2018-03-08T01:59:02Z</time>
      </trkpt>
      <trkpt lat="46.7133" lon="-1.92445">
        <ele>9</ele>
        <time>2018-03-08T02:00:02Z</time>
      </trkpt>
      <trkpt lat="46.71327" lon="-1.92413">
        <ele>9</ele>
        <time>2018-03-08T02:01:02Z</time>
      </trkpt>
      <trkpt lat="46.71326" lon="-1.92402">
        <ele>9</ele>
        <time>2018-03-08T02:02:02Z</time>
      </trkpt>
      <trkpt lat="46.71323" lon="-1.92389">
        <ele>9</ele>
        <time>2018-03-08T02:03:02Z</time>
      </trkpt>
      <trkpt lat="46.71322" lon="-1.92385">
        <ele>9</ele>
        <time>2018-03-08T02:04:02Z</time>
      </trkpt>
      <trkpt lat="46.71321" lon="-1.9238">
        <ele>9</ele>
        <time>2018-03-08T02:05:02Z</time>
      </trkpt>
      <trkpt lat="46.71318" lon="-1.9237">
        <ele>9</ele>
        <time>2018-03-08T02:06:02Z</time>
      </trkpt>
      <trkpt lat="46.71315" lon="-1.92363">
        <ele>9</ele>
        <time>2018-03-08T02:07:02Z</time>
      </trkpt>
      <trkpt lat="46.71311" lon="-1.92355">
        <ele>9</ele>
        <time>2018-03-08T02:08:02Z</time>
      </trkpt>
      <trkpt lat="46.71306" lon="-1.92347">
        <ele>9</ele>
        <time>2018-03-08T02:09:02Z</time>
      </trkpt>
      <trkpt lat="46.71306" lon="-1.92347">
        <ele>9</ele>
        <time>2018-03-08T02:10:02Z</time>
      </trkpt>
      <trkpt lat="46.71322" lon="-1.92344">
        <ele>8</ele>
        <time>2018-03-08T02:11:02Z</time>
      </trkpt>
      <trkpt lat="46.71334" lon="-1.9234">
        <ele>8</ele>
        <time>2018-03-08T02:12:02Z</time>
      </trkpt>
      <trkpt lat="46.71352" lon="-1.92336">
        <ele>7</ele>
        <time>2018-03-08T02:13:02Z</time>
      </trkpt>
      <trkpt lat="46.71383" lon="-1.92327">
        <ele>6</ele>
        <time>2018-03-08T02:14:02Z</time>
      </trkpt>
      <trkpt lat="46.71414" lon="-1.92316">
        <ele>5</ele>
        <time>2018-03-08T02:15:02Z</time>
      </trkpt>
      <trkpt lat="46.71418" lon="-1.92313">
        <ele>5</ele>
        <time>2018-03-08T02:16:02Z</time>
      </trkpt>
      <trkpt lat="46.71421" lon="-1.92311">
        <ele>5</ele>
        <time>2018-03-08T02:17:02Z</time>
      </trkpt>
      <trkpt lat="46.71423" lon="-1.92308">
        <ele>5</ele>
        <time>2018-03-08T02:18:02Z</time>
      </trkpt>
      <trkpt lat="46.71426" lon="-1.92303">
        <ele>5</ele>
        <time>2018-03-08T02:19:02Z</time>
      </trkpt>
      <trkpt lat="46.71429" lon="-1.92297">
        <ele>5</ele>
        <time>2018-03-08T02:20:02Z</time>
      </trkpt>
      <trkpt lat="46.71432" lon="-1.92285">
        <ele>5</ele>
        <time>2018-03-08T02:21:02Z</time>
      </trkpt>
      <trkpt lat="46.71432" lon="-1.92282">
        <ele>5</ele>
        <time>2018-03-08T02:22:02Z</time>
      </trkpt>
      <trkpt lat="46.7144" lon="-1.92252">
        <ele>6</ele>
        <time>2018-03-08T02:23:02Z</time>
      </trkpt>
      <trkpt lat="46.71448" lon="-1.92225">
        <ele>6</ele>
        <time>2018-03-08T02:24:02Z</time>
      </trkpt>
      <trkpt lat="46.71456" lon="-1.92198">
        <ele>6</ele>
        <time>2018-03-08T02:25:02Z</time>
      </trkpt>
      <trkpt lat="46.71459" lon="-1.92185">
        <ele>6</ele>
        <time>2018-03-08T02:26:02Z</time>
      </trkpt>
      <trkpt lat="46.7146" lon="-1.92183">
        <ele>6</ele>
        <time>2018-03-08T02:27:02Z</time>
      </trkpt>
      <trkpt lat="46.71466" lon="-1.92164">
        <ele>6</ele>
        <time>2018-03-08T02:28:02Z</time>
      </trkpt>
      <trkpt lat="46.71469" lon="-1.9215">
        <ele>6</ele>
        <time>2018-03-08T02:29:02Z</time>
      </trkpt>
      <trkpt lat="46.71474" lon="-1.92129">
        <ele>6</ele>
        <time>2018-03-08T02:30:02Z</time>
      </trkpt>
      <trkpt lat="46.7148" lon="-1.92105">
        <ele>6</ele>
        <time>2018-03-08T02:31:02Z</time>
      </trkpt>
      <trkpt lat="46.71484" lon="-1.92081">
        <ele>5</ele>
        <time>2018-03-08T02:32:02Z</time>
      </trkpt>
      <trkpt lat="46.71491" lon="-1.9204">
        <ele>6</ele>
        <time>2018-03-08T02:33:02Z</time>
      </trkpt>
      <trkpt lat="46.71492" lon="-1.92037">
        <ele>6</ele>
        <time>2018-03-08T02:34:02Z</time>
      </trkpt>
      <trkpt lat="46.715" lon="-1.91985">
        <ele>7</ele>
        <time>2018-03-08T02:35:02Z</time>
      </trkpt>
      <trkpt lat="46.71504" lon="-1.91966">
        <ele>7</ele>
        <time>2018-03-08T02:36:02Z</time>
      </trkpt>
      <trkpt lat="46.71508" lon="-1.9194">
        <ele>7</ele>
        <time>2018-03-08T02:37:02Z</time>
      </trkpt>
      <trkpt lat="46.71511" lon="-1.91921">
        <ele>7</ele>
        <time>2018-03-08T02:38:02Z</time>
      </trkpt>
      <trkpt lat="46.71515" lon="-1.91902">
        <ele>7</ele>
        <time>2018-03-08T02:39:02Z</time>
      </trkpt>
      <trkpt lat="46.71518" lon="-1.91883">
        <ele>8</ele>
        <time>2018-03-08T02:40:02Z</time>
      </trkpt>
      <trkpt lat="46.71523" lon="-1.91865">
        <ele>8</ele>
        <time>2018-03-08T02:41:02Z</time>
      </trkpt>
      <trkpt lat="46.71528" lon="-1.91847">
        <ele>8</ele>
        <time>2018-03-08T02:42:02Z</time>
      </trkpt>
      <trkpt lat="46.71534" lon="-1.91828">
        <ele>8</ele>
        <time>2018-03-08T02:43:02Z</time>
      </trkpt>
      <trkpt lat="46.71548" lon="-1.91786">
        <ele>7</ele>
        <time>2018-03-08T02:44:02Z</time>
      </trkpt>
      <trkpt lat="46.71559" lon="-1.91759">
        <ele>7</ele>
        <time>2018-03-08T02:45:02Z</time>
      </trkpt>
      <trkpt lat="46.71565" lon="-1.91742">
        <ele>7</ele>
        <time>2018-03-08T02:46:02Z</time>
      </trkpt>
      <trkpt lat="46.71573" lon="-1.91722">
        <ele>7</ele>
        <time>2018-03-08T02:47:02Z</time>
      </trkpt>
      <trkpt lat="46.71589" lon="-1.91683">
        <ele>7</ele>
        <time>2018-03-08T02:48:02Z</time>
      </trkpt>
      <trkpt lat="46.71614" lon="-1.91622">
        <ele>5</ele>
        <time>2018-03-08T02:49:02Z</time>
      </trkpt>
      <trkpt lat="46.71624" lon="-1.91596">
        <ele>5</ele>
        <time>2018-03-08T02:50:02Z</time>
      </trkpt>
      <trkpt lat="46.71632" lon="-1.9158">
        <ele>4</ele>
        <time>2018-03-08T02:51:02Z</time>
      </trkpt>
      <trkpt lat="46.71641" lon="-1.9157">
        <ele>4</ele>
        <time>2018-03-08T02:52:02Z</time>
      </trkpt>
      <trkpt lat="46.71648" lon="-1.91565">
        <ele>4</ele>
        <time>2018-03-08T02:53:02Z</time>
      </trkpt>
      <trkpt lat="46.71664" lon="-1.91556">
        <ele>3</ele>
        <time>2018-03-08T02:54:02Z</time>
      </trkpt>
      <trkpt lat="46.71674" lon="-1.91552">
        <ele>3</ele>
        <time>2018-03-08T02:55:02Z</time>
      </trkpt>
      <trkpt lat="46.71699" lon="-1.9154">
        <ele>2</ele>
        <time>2018-03-08T02:56:02Z</time>
      </trkpt>
      <trkpt lat="46.71723" lon="-1.91529">
        <ele>2</ele>
        <time>2018-03-08T02:57:02Z</time>
      </trkpt>
      <trkpt lat="46.7174" lon="-1.91519">
        <ele>2</ele>
        <time>2018-03-08T02:58:02Z</time>
      </trkpt>
      <trkpt lat="46.7175" lon="-1.91512">
        <ele>2</ele>
        <time>2018-03-08T02:59:02Z</time>
      </trkpt>
      <trkpt lat="46.7176" lon="-1.91502">
        <ele>2</ele>
        <time>2018-03-08T03:00:02Z</time>
      </trkpt>
      <trkpt lat="46.71765" lon="-1.91492">
        <ele>2</ele>
        <time>2018-03-08T03:01:02Z</time>
      </trkpt>
      <trkpt lat="46.71768" lon="-1.91484">
        <ele>2</ele>
        <time>2018-03-08T03:02:02Z</time>
      </trkpt>
      <trkpt lat="46.7177" lon="-1.91473">
        <ele>2</ele>
        <time>2018-03-08T03:03:02Z</time>
      </trkpt>
      <trkpt lat="46.71777" lon="-1.91414">
        <ele>1</ele>
        <time>2018-03-08T03:04:02Z</time>
      </trkpt>
      <trkpt lat="46.7178" lon="-1.91384">
        <ele>1</ele>
        <time>2018-03-08T03:05:02Z</time>
      </trkpt>
      <trkpt lat="46.71785" lon="-1.91362">
        <ele>1</ele>
        <time>2018-03-08T03:06:02Z</time>
      </trkpt>
      <trkpt lat="46.71792" lon="-1.91336">
        <ele>1</ele>
        <time>2018-03-08T03:07:02Z</time>
      </trkpt>
      <trkpt lat="46.71809" lon="-1.91278">
        <ele>2</ele>
        <time>2018-03-08T03:08:02Z</time>
      </trkpt>
      <trkpt lat="46.71822" lon="-1.91229">
        <ele>3</ele>
        <time>2018-03-08T03:09:02Z</time>
      </trkpt>
      <trkpt lat="46.71834" lon="-1.91176">
        <ele>3</ele>
        <time>2018-03-08T03:10:02Z</time>
      </trkpt>
      <trkpt lat="46.71839" lon="-1.91152">
        <ele>3</ele>
        <time>2018-03-08T03:11:02Z</time>
      </trkpt>
      <trkpt lat="46.71847" lon="-1.91107">
        <ele>2</ele>
        <time>2018-03-08T03:12:02Z</time>
      </trkpt>
      <trkpt lat="46.71851" lon="-1.91083">
        <ele>2</ele>
        <time>2018-03-08T03:13:02Z</time>
      </trkpt>
      <trkpt lat="46.71852" lon="-1.91064">
        <ele>2</ele>
        <time>2018-03-08T03:14:02Z</time>
      </trkpt>
      <trkpt lat="46.71852" lon="-1.91047">
        <ele>2</ele>
        <time>2018-03-08T03:15:02Z</time>
      </trkpt>
      <trkpt lat="46.71851" lon="-1.9102">
        <ele>3</ele>
        <time>2018-03-08T03:16:02Z</time>
      </trkpt>
      <trkpt lat="46.71846" lon="-1.90978">
        <ele>3</ele>
        <time>2018-03-08T03:17:02Z</time>
      </trkpt>
      <trkpt lat="46.71837" lon="-1.90885">
        <ele>5</ele>
        <time>2018-03-08T03:18:02Z</time>
      </trkpt>
      <trkpt lat="46.71832" lon="-1.90833">
        <ele>6</ele>
        <time>2018-03-08T03:19:02Z</time>
      </trkpt>
      <trkpt lat="46.71827" lon="-1.90802">
        <ele>6</ele>
        <time>2018-03-08T03:20:02Z</time>
      </trkpt>
      <trkpt lat="46.71821" lon="-1.90766">
        <ele>6</ele>
        <time>2018-03-08T03:21:02Z</time>
      </trkpt>
      <trkpt lat="46.7182" lon="-1.90764">
        <ele>6</ele>
        <time>2018-03-08T03:22:02Z</time>
      </trkpt>
      <trkpt lat="46.71811" lon="-1.90722">
        <ele>6</ele>
        <time>2018-03-08T03:23:02Z</time>
      </trkpt>
      <trkpt lat="46.71801" lon="-1.90668">
        <ele>5</ele>
        <time>2018-03-08T03:24:02Z</time>
      </trkpt>
      <trkpt lat="46.71797" lon="-1.90646">
        <ele>5</ele>
        <time>2018-03-08T03:25:02Z</time>
      </trkpt>
      <trkpt lat="46.71795" lon="-1.90616">
        <ele>6</ele>
        <time>2018-03-08T03:26:02Z</time>
      </trkpt>
      <trkpt lat="46.71795" lon="-1.90597">
        <ele>7</ele>
        <time>2018-03-08T03:27:02Z</time>
      </trkpt>
      <trkpt lat="46.71795" lon="-1.90578">
        <ele>7</ele>
        <time>2018-03-08T03:28:02Z</time>
      </trkpt>
      <trkpt lat="46.71798" lon="-1.90553">
        <ele>7</ele>
        <time>2018-03-08T03:29:02Z</time>
      </trkpt>
      <trkpt lat="46.71806" lon="-1.90529">
        <ele>7</ele>
        <time>2018-03-08T03:30:02Z</time>
      </trkpt>
      <trkpt lat="46.71818" lon="-1.90502">
        <ele>6</ele>
        <time>2018-03-08T03:31:02Z</time>
      </trkpt>
      <trkpt lat="46.71819" lon="-1.90499">
        <ele>6</ele>
        <time>2018-03-08T03:32:02Z</time>
      </trkpt>
      <trkpt lat="46.7183" lon="-1.90473">
        <ele>5</ele>
        <time>2018-03-08T03:33:02Z</time>
      </trkpt>
      <trkpt lat="46.71842" lon="-1.90449">
        <ele>5</ele>
        <time>2018-03-08T03:34:02Z</time>
      </trkpt>
      <trkpt lat="46.71845" lon="-1.90439">
        <ele>4</ele>
        <time>2018-03-08T03:35:02Z</time>
      </trkpt>
      <trkpt lat="46.71846" lon="-1.90435">
        <ele>4</ele>
        <time>2018-03-08T03:36:02Z</time>
      </trkpt>
      <trkpt lat="46.71847" lon="-1.90431">
        <ele>4</ele>
        <time>2018-03-08T03:37:02Z</time>
      </trkpt>
      <trkpt lat="46.71848" lon="-1.90421">
        <ele>4</ele>
        <time>2018-03-08T03:38:02Z</time>
      </trkpt>
      <trkpt lat="46.71851" lon="-1.90389">
        <ele>5</ele>
        <time>2018-03-08T03:39:02Z</time>
      </trkpt>
      <trkpt lat="46.71852" lon="-1.90384">
        <ele>5</ele>
        <time>2018-03-08T03:40:02Z</time>
      </trkpt>
      <trkpt lat="46.71852" lon="-1.9038">
        <ele>5</ele>
        <time>2018-03-08T03:41:02Z</time>
      </trkpt>
      <trkpt lat="46.71851" lon="-1.90377">
        <ele>5</ele>
        <time>2018-03-08T03:42:02Z</time>
      </trkpt>
      <trkpt lat="46.71851" lon="-1.90375">
        <ele>5</ele>
        <time>2018-03-08T03:43:02Z</time>
      </trkpt>
      <trkpt lat="46.7185" lon="-1.90372">
        <ele>5</ele>
        <time>2018-03-08T03:44:02Z</time>
      </trkpt>
      <trkpt lat="46.7185" lon="-1.9037">
        <ele>5</ele>
        <time>2018-03-08T03:45:02Z</time>
      </trkpt>
      <trkpt lat="46.71848" lon="-1.90366">
        <ele>5</ele>
        <time>2018-03-08T03:46:02Z</time>
      </trkpt>
      <trkpt lat="46.71844" lon="-1.90358">
        <ele>6</ele>
        <time>2018-03-08T03:47:02Z</time>
      </trkpt>
      <trkpt lat="46.71839" lon="-1.90349">
        <ele>6</ele>
        <time>2018-03-08T03:48:02Z</time>
      </trkpt>
      <trkpt lat="46.71839" lon="-1.90349">
        <ele>6</ele>
        <time>2018-03-08T03:49:02Z</time>
      </trkpt>
      <trkpt lat="46.71865" lon="-1.90316">
        <ele>6</ele>
        <time>2018-03-08T03:50:02Z</time>
      </trkpt>
      <trkpt lat="46.71869" lon="-1.90308">
        <ele>6</ele>
        <time>2018-03-08T03:51:02Z</time>
      </trkpt>
      <trkpt lat="46.71872" lon="-1.90301">
        <ele>6</ele>
        <time>2018-03-08T03:52:02Z</time>
      </trkpt>
      <trkpt lat="46.71876" lon="-1.90283">
        <ele>7</ele>
        <time>2018-03-08T03:53:02Z</time>
      </trkpt>
      <trkpt lat="46.71879" lon="-1.90274">
        <ele>7</ele>
        <time>2018-03-08T03:54:02Z</time>
      </trkpt>
      <trkpt lat="46.71883" lon="-1.90267">
        <ele>7</ele>
        <time>2018-03-08T03:55:02Z</time>
      </trkpt>
      <trkpt lat="46.71886" lon="-1.90263">
        <ele>7</ele>
        <time>2018-03-08T03:56:02Z</time>
      </trkpt>
      <trkpt lat="46.7189" lon="-1.9026">
        <ele>7</ele>
        <time>2018-03-08T03:57:02Z</time>
      </trkpt>
      <trkpt lat="46.71896" lon="-1.90256">
        <ele>7</ele>
        <time>2018-03-08T03:58:02Z</time>
      </trkpt>
      <trkpt lat="46.719" lon="-1.90254">
        <ele>7</ele>
        <time>2018-03-08T03:59:02Z</time>
      </trkpt>
      <trkpt lat="46.71914" lon="-1.90248">
        <ele>6</ele>
        <time>2018-03-08T04:00:02Z</time>
      </trkpt>
      <trkpt lat="46.71927" lon="-1.9024">
        <ele>6</ele>
        <time>2018-03-08T04:01:02Z</time>
      </trkpt>
      <trkpt lat="46.71934" lon="-1.90235">
        <ele>6</ele>
        <time>2018-03-08T04:02:02Z</time>
      </trkpt>
      <trkpt lat="46.71941" lon="-1.90227">
        <ele>6</ele>
        <time>2018-03-08T04:03:02Z</time>
      </trkpt>
      <trkpt lat="46.71946" lon="-1.90218">
        <ele>6</ele>
        <time>2018-03-08T04:04:02Z</time>
      </trkpt>
      <trkpt lat="46.71949" lon="-1.90211">
        <ele>6</ele>
        <time>2018-03-08T04:05:02Z</time>
      </trkpt>
      <trkpt lat="46.71953" lon="-1.90203">
        <ele>6</ele>
        <time>2018-03-08T04:06:02Z</time>
      </trkpt>
      <trkpt lat="46.71953" lon="-1.90201">
        <ele>6</ele>
        <time>2018-03-08T04:07:02Z</time>
      </trkpt>
      <trkpt lat="46.71956" lon="-1.90191">
        <ele>6</ele>
        <time>2018-03-08T04:08:02Z</time>
      </trkpt>
      <trkpt lat="46.71958" lon="-1.90176">
        <ele>6</ele>
        <time>2018-03-08T04:09:02Z</time>
      </trkpt>
      <trkpt lat="46.71959" lon="-1.90153">
        <ele>6</ele>
        <time>2018-03-08T04:10:02Z</time>
      </trkpt>
      <trkpt lat="46.71962" lon="-1.90125">
        <ele>6</ele>
        <time>2018-03-08T04:11:02Z</time>
      </trkpt>
      <trkpt lat="46.71965" lon="-1.90106">
        <ele>6</ele>
        <time>2018-03-08T04:12:02Z</time>
      </trkpt>
      <trkpt lat="46.71968" lon="-1.9008">
        <ele>6</ele>
        <time>2018-03-08T04:13:02Z</time>
      </trkpt>
      <trkpt lat="46.71973" lon="-1.90062">
        <ele>6</ele>
        <time>2018-03-08T04:14:02Z</time>
      </trkpt>
      <trkpt lat="46.71979" lon="-1.9005">
        <ele>6</ele>
        <time>2018-03-08T04:15:02Z</time>
      </trkpt>
      <trkpt lat="46.7199" lon="-1.90031">
        <ele>6</ele>
        <time>2018-03-08T04:16:02Z</time>
      </trkpt>
      <trkpt lat="46.72002" lon="-1.90007">
        <ele>6</ele>
        <time>2018-03-08T04:17:02Z</time>
      </trkpt>
      <trkpt lat="46.72013" lon="-1.89987">
        <ele>6</ele>
        <time>2018-03-08T04:18:02Z</time>
      </trkpt>
      <trkpt lat="46.7202" lon="-1.89975">
        <ele>7</ele>
        <time>2018-03-08T04:19:02Z</time>
      </trkpt>
      <trkpt lat="46.72029" lon="-1.8996">
        <ele>7</ele>
        <time>2018-03-08T04:20:02Z</time>
      </trkpt>
      <trkpt lat="46.72037" lon="-1.89948">
        <ele>7</ele>
        <time>2018-03-08T04:21:02Z</time>
      </trkpt>
      <trkpt lat="46.72042" lon="-1.89942">
        <ele>7</ele>
        <time>2018-03-08T04:22:02Z</time>
      </trkpt>
      <trkpt lat="46.72056" lon="-1.8993">
        <ele>7</ele>
        <time>2018-03-08T04:23:02Z</time>
      </trkpt>
      <trkpt lat="46.72084" lon="-1.89908">
        <ele>7</ele>
        <time>2018-03-08T04:24:02Z</time>
      </trkpt>
      <trkpt lat="46.72119" lon="-1.89878">
        <ele>8</ele>
        <time>2018-03-08T04:25:02Z</time>
      </trkpt>
      <trkpt lat="46.72143" lon="-1.89859">
        <ele>9</ele>
        <time>2018-03-08T04:26:02Z</time>
      </trkpt>
      <trkpt lat="46.72178" lon="-1.8983">
        <ele>9</ele>
        <time>2018-03-08T04:27:02Z</time>
      </trkpt>
      <trkpt lat="46.72203" lon="-1.89809">
        <ele>8</ele>
        <time>2018-03-08T04:28:02Z</time>
      </trkpt>
      <trkpt lat="46.72225" lon="-1.89792">
        <ele>7</ele>
        <time>2018-03-08T04:29:02Z</time>
      </trkpt>
      <trkpt lat="46.72253" lon="-1.8977">
        <ele>7</ele>
        <time>2018-03-08T04:30:02Z</time>
      </trkpt>
      <trkpt lat="46.72253" lon="-1.8977">
        <ele>7</ele>
        <time>2018-03-08T04:31:02Z</time>
      </trkpt>
      <trkpt lat="46.72261" lon="-1.89791">
        <ele>7</ele>
        <time>2018-03-08T04:32:02Z</time>
      </trkpt>
      <trkpt lat="46.72271" lon="-1.89821">
        <ele>6</ele>
        <time>2018-03-08T04:33:02Z</time>
      </trkpt>
      <trkpt lat="46.72283" lon="-1.89855">
        <ele>6</ele>
        <time>2018-03-08T04:34:02Z</time>
      </trkpt>
      <trkpt lat="46.72292" lon="-1.8988">
        <ele>6</ele>
        <time>2018-03-08T04:35:02Z</time>
      </trkpt>
      <trkpt lat="46.723" lon="-1.89904">
        <ele>6</ele>
        <time>2018-03-08T04:36:02Z</time>
      </trkpt>
      <trkpt lat="46.72307" lon="-1.89925">
        <ele>6</ele>
        <time>2018-03-08T04:37:02Z</time>
      </trkpt>
      <trkpt lat="46.72315" lon="-1.89944">
        <ele>6</ele>
        <time>2018-03-08T04:38:02Z</time>
      </trkpt>
      <trkpt lat="46.72323" lon="-1.8996">
        <ele>6</ele>
        <time>2018-03-08T04:39:02Z</time>
      </trkpt>
      <trkpt lat="46.72329" lon="-1.89969">
        <ele>6</ele>
        <time>2018-03-08T04:40:02Z</time>
      </trkpt>
      <trkpt lat="46.72336" lon="-1.89977">
        <ele>6</ele>
        <time>2018-03-08T04:41:02Z</time>
      </trkpt>
      <trkpt lat="46.72348" lon="-1.89995">
        <ele>5</ele>
        <time>2018-03-08T04:42:02Z</time>
      </trkpt>
      <trkpt lat="46.72358" lon="-1.90013">
        <ele>5</ele>
        <time>2018-03-08T04:43:02Z</time>
      </trkpt>
      <trkpt lat="46.72372" lon="-1.90041">
        <ele>4</ele>
        <time>2018-03-08T04:44:02Z</time>
      </trkpt>
      <trkpt lat="46.72388" lon="-1.90076">
        <ele>3</ele>
        <time>2018-03-08T04:45:02Z</time>
      </trkpt>
      <trkpt lat="46.72403" lon="-1.90108">
        <ele>3</ele>
        <time>2018-03-08T04:46:02Z</time>
      </trkpt>
      <trkpt lat="46.72412" lon="-1.90128">
        <ele>2</ele>
        <time>2018-03-08T04:47:02Z</time>
      </trkpt>
      <trkpt lat="46.7243" lon="-1.90169">
        <ele>2</ele>
        <time>2018-03-08T04:48:02Z</time>
      </trkpt>
      <trkpt lat="46.7244" lon="-1.9019">
        <ele>2</ele>
        <time>2018-03-08T04:49:02Z</time>
      </trkpt>
      <trkpt lat="46.7245" lon="-1.90213">
        <ele>2</ele>
        <time>2018-03-08T04:50:02Z</time>
      </trkpt>
      <trkpt lat="46.72458" lon="-1.90226">
        <ele>2</ele>
        <time>2018-03-08T04:51:02Z</time>
      </trkpt>
      <trkpt lat="46.72468" lon="-1.90239">
        <ele>2</ele>
        <time>2018-03-08T04:52:02Z</time>
      </trkpt>
      <trkpt lat="46.72485" lon="-1.90257">
        <ele>2</ele>
        <time>2018-03-08T04:53:02Z</time>
      </trkpt>
      <trkpt lat="46.72506" lon="-1.90278">
        <ele>2</ele>
        <time>2018-03-08T04:54:02Z</time>
      </trkpt>
      <trkpt lat="46.7254" lon="-1.90311">
        <ele>1</ele>
        <time>2018-03-08T04:55:02Z</time>
      </trkpt>
      <trkpt lat="46.72573" lon="-1.90343">
        <ele>1</ele>
        <time>2018-03-08T04:56:02Z</time>
      </trkpt>
      <trkpt lat="46.72603" lon="-1.90372">
        <ele>3.5</ele>
        <time>2018-03-08T04:57:02Z</time>
      </trkpt>
      <trkpt lat="46.72643" lon="-1.90413">
        <ele>3.7</ele>
        <time>2018-03-08T04:58:02Z</time>
      </trkpt>
      <trkpt lat="46.72671" lon="-1.9044">
        <ele>3.8</ele>
        <time>2018-03-08T04:59:02Z</time>
      </trkpt>
      <trkpt lat="46.72682" lon="-1.90451">
        <ele>3.5</ele>
        <time>2018-03-08T05:00:02Z</time>
      </trkpt>
      <trkpt lat="46.72693" lon="-1.90461">
        <ele>2.3</ele>
        <time>2018-03-08T05:01:02Z</time>
      </trkpt>
      <trkpt lat="46.72699" lon="-1.90466">
        <ele>1.7</ele>
        <time>2018-03-08T05:02:02Z</time>
      </trkpt>
      <trkpt lat="46.72704" lon="-1.90472">
        <ele>1.4</ele>
        <time>2018-03-08T05:03:02Z</time>
      </trkpt>
      <trkpt lat="46.72704" lon="-1.90472">
        <ele>1.4</ele>
        <time>2018-03-08T05:04:02Z</time>
      </trkpt>
      <trkpt lat="46.72712" lon="-1.9048">
        <ele>2.3</ele>
        <time>2018-03-08T05:05:02Z</time>
      </trkpt>
      <trkpt lat="46.7272" lon="-1.90488">
        <ele>3.1</ele>
        <time>2018-03-08T05:06:02Z</time>
      </trkpt>
      <trkpt lat="46.72728" lon="-1.90494">
        <ele>3.2</ele>
        <time>2018-03-08T05:07:02Z</time>
      </trkpt>
      <trkpt lat="46.72749" lon="-1.90513">
        <ele>3</ele>
        <time>2018-03-08T05:08:02Z</time>
      </trkpt>
      <trkpt lat="46.7276" lon="-1.90525">
        <ele>3.2</ele>
        <time>2018-03-08T05:09:02Z</time>
      </trkpt>
      <trkpt lat="46.72781" lon="-1.90543">
        <ele>1</ele>
        <time>2018-03-08T05:10:02Z</time>
      </trkpt>
      <trkpt lat="46.72794" lon="-1.90558">
        <ele>2.5</ele>
        <time>2018-03-08T05:11:02Z</time>
      </trkpt>
      <trkpt lat="46.72812" lon="-1.9058">
        <ele>3.4</ele>
        <time>2018-03-08T05:12:02Z</time>
      </trkpt>
      <trkpt lat="46.72831" lon="-1.90608">
        <ele>2.9</ele>
        <time>2018-03-08T05:13:02Z</time>
      </trkpt>
      <trkpt lat="46.72851" lon="-1.9064">
        <ele>3</ele>
        <time>2018-03-08T05:14:02Z</time>
      </trkpt>
      <trkpt lat="46.7288" lon="-1.90681">
        <ele>1</ele>
        <time>2018-03-08T05:15:02Z</time>
      </trkpt>
      <trkpt lat="46.72909" lon="-1.90728">
        <ele>2.6</ele>
        <time>2018-03-08T05:16:02Z</time>
      </trkpt>
      <trkpt lat="46.72951" lon="-1.90792">
        <ele>3.2</ele>
        <time>2018-03-08T05:17:02Z</time>
      </trkpt>
      <trkpt lat="46.72986" lon="-1.90845">
        <ele>1</ele>
        <time>2018-03-08T05:18:02Z</time>
      </trkpt>
      <trkpt lat="46.73019" lon="-1.90898">
        <ele>2.8</ele>
        <time>2018-03-08T05:19:02Z</time>
      </trkpt>
      <trkpt lat="46.73057" lon="-1.90954">
        <ele>1</ele>
        <time>2018-03-08T05:20:02Z</time>
      </trkpt>
      <trkpt lat="46.73098" lon="-1.91017">
        <ele>2</ele>
        <time>2018-03-08T05:21:02Z</time>
      </trkpt>
      <trkpt lat="46.7313" lon="-1.91067">
        <ele>4</ele>
        <time>2018-03-08T05:22:02Z</time>
      </trkpt>
      <trkpt lat="46.73137" lon="-1.91077">
        <ele>4</ele>
        <time>2018-03-08T05:23:02Z</time>
      </trkpt>
      <trkpt lat="46.73148" lon="-1.91095">
        <ele>4</ele>
        <time>2018-03-08T05:24:02Z</time>
      </trkpt>
      <trkpt lat="46.73151" lon="-1.91102">
        <ele>4</ele>
        <time>2018-03-08T05:25:02Z</time>
      </trkpt>
      <trkpt lat="46.73163" lon="-1.91117">
        <ele>5</ele>
        <time>2018-03-08T05:26:02Z</time>
      </trkpt>
      <trkpt lat="46.73169" lon="-1.91126">
        <ele>5</ele>
        <time>2018-03-08T05:27:02Z</time>
      </trkpt>
      <trkpt lat="46.73174" lon="-1.91134">
        <ele>6</ele>
        <time>2018-03-08T05:28:02Z</time>
      </trkpt>
      <trkpt lat="46.73184" lon="-1.91155">
        <ele>7</ele>
        <time>2018-03-08T05:29:02Z</time>
      </trkpt>
      <trkpt lat="46.73197" lon="-1.91182">
        <ele>8</ele>
        <time>2018-03-08T05:30:02Z</time>
      </trkpt>
      <trkpt lat="46.73208" lon="-1.91204">
        <ele>8</ele>
        <time>2018-03-08T05:31:02Z</time>
      </trkpt>
      <trkpt lat="46.73223" lon="-1.91238">
        <ele>9</ele>
        <time>2018-03-08T05:32:02Z</time>
      </trkpt>
      <trkpt lat="46.73227" lon="-1.91249">
        <ele>9</ele>
        <time>2018-03-08T05:33:02Z</time>
      </trkpt>
      <trkpt lat="46.73239" lon="-1.91274">
        <ele>10</ele>
        <time>2018-03-08T05:34:02Z</time>
      </trkpt>
      <trkpt lat="46.7325" lon="-1.91296">
        <ele>12</ele>
        <time>2018-03-08T05:35:02Z</time>
      </trkpt>
      <trkpt lat="46.73264" lon="-1.91328">
        <ele>13</ele>
        <time>2018-03-08T05:36:02Z</time>
      </trkpt>
      <trkpt lat="46.7328" lon="-1.91361">
        <ele>13</ele>
        <time>2018-03-08T05:37:02Z</time>
      </trkpt>
      <trkpt lat="46.73298" lon="-1.91401">
        <ele>13</ele>
        <time>2018-03-08T05:38:02Z</time>
      </trkpt>
      <trkpt lat="46.73304" lon="-1.91414">
        <ele>13</ele>
        <time>2018-03-08T05:39:02Z</time>
      </trkpt>
      <trkpt lat="46.73312" lon="-1.91432">
        <ele>13</ele>
        <time>2018-03-08T05:40:02Z</time>
      </trkpt>
      <trkpt lat="46.73321" lon="-1.91454">
        <ele>14</ele>
        <time>2018-03-08T05:41:02Z</time>
      </trkpt>
      <trkpt lat="46.73327" lon="-1.91472">
        <ele>14</ele>
        <time>2018-03-08T05:42:02Z</time>
      </trkpt>
      <trkpt lat="46.73331" lon="-1.9149">
        <ele>14</ele>
        <time>2018-03-08T05:43:02Z</time>
      </trkpt>
      <trkpt lat="46.73331" lon="-1.9149">
        <ele>14</ele>
        <time>2018-03-08T05:44:02Z</time>
      </trkpt>
      <trkpt lat="46.73335" lon="-1.91484">
        <ele>14</ele>
        <time>2018-03-08T05:45:02Z</time>
      </trkpt>
      <trkpt lat="46.73337" lon="-1.9148">
        <ele>14</ele>
        <time>2018-03-08T05:46:02Z</time>
      </trkpt>
      <trkpt lat="46.73339" lon="-1.91474">
        <ele>14</ele>
        <time>2018-03-08T05:47:02Z</time>
      </trkpt>
      <trkpt lat="46.7334" lon="-1.91469">
        <ele>13</ele>
        <time>2018-03-08T05:48:02Z</time>
      </trkpt>
      <trkpt lat="46.73344" lon="-1.91455">
        <ele>13</ele>
        <time>2018-03-08T05:49:02Z</time>
      </trkpt>
      <trkpt lat="46.73349" lon="-1.91432">
        <ele>13</ele>
        <time>2018-03-08T05:50:02Z</time>
      </trkpt>
      <trkpt lat="46.73355" lon="-1.91413">
        <ele>13</ele>
        <time>2018-03-08T05:51:02Z</time>
      </trkpt>
      <trkpt lat="46.73357" lon="-1.91405">
        <ele>13</ele>
        <time>2018-03-08T05:52:02Z</time>
      </trkpt>
      <trkpt lat="46.7336" lon="-1.91399">
        <ele>12</ele>
        <time>2018-03-08T05:53:02Z</time>
      </trkpt>
      <trkpt lat="46.73368" lon="-1.91384">
        <ele>12</ele>
        <time>2018-03-08T05:54:02Z</time>
      </trkpt>
      <trkpt lat="46.73392" lon="-1.91347">
        <ele>11</ele>
        <time>2018-03-08T05:55:02Z</time>
      </trkpt>
      <trkpt lat="46.73421" lon="-1.91295">
        <ele>11</ele>
        <time>2018-03-08T05:56:02Z</time>
      </trkpt>
      <trkpt lat="46.73442" lon="-1.91257">
        <ele>11</ele>
        <time>2018-03-08T05:57:02Z</time>
      </trkpt>
      <trkpt lat="46.73456" lon="-1.91235">
        <ele>10</ele>
        <time>2018-03-08T05:58:02Z</time>
      </trkpt>
      <trkpt lat="46.73456" lon="-1.91235">
        <ele>10</ele>
        <time>2018-03-08T05:59:02Z</time>
      </trkpt>
      <trkpt lat="46.73481" lon="-1.91256">
        <ele>9</ele>
        <time>2018-03-08T06:00:02Z</time>
      </trkpt>
      <trkpt lat="46.73522" lon="-1.91298">
        <ele>8</ele>
        <time>2018-03-08T06:01:02Z</time>
      </trkpt>
      <trkpt lat="46.73546" lon="-1.91323">
        <ele>8</ele>
        <time>2018-03-08T06:02:02Z</time>
      </trkpt>
      <trkpt lat="46.73558" lon="-1.91337">
        <ele>8</ele>
        <time>2018-03-08T06:03:02Z</time>
      </trkpt>
      <trkpt lat="46.73569" lon="-1.91351">
        <ele>7</ele>
        <time>2018-03-08T06:04:02Z</time>
      </trkpt>
      <trkpt lat="46.73578" lon="-1.91364">
        <ele>7</ele>
        <time>2018-03-08T06:05:02Z</time>
      </trkpt>
      <trkpt lat="46.73615" lon="-1.91424">
        <ele>6</ele>
        <time>2018-03-08T06:06:02Z</time>
      </trkpt>
      <trkpt lat="46.73651" lon="-1.91488">
        <ele>5</ele>
        <time>2018-03-08T06:07:02Z</time>
      </trkpt>
      <trkpt lat="46.73685" lon="-1.91548">
        <ele>6</ele>
        <time>2018-03-08T06:08:02Z</time>
      </trkpt>
      <trkpt lat="46.73728" lon="-1.91632">
        <ele>7</ele>
        <time>2018-03-08T06:09:02Z</time>
      </trkpt>
      <trkpt lat="46.73752" lon="-1.91678">
        <ele>5</ele>
        <time>2018-03-08T06:10:02Z</time>
      </trkpt>
      <trkpt lat="46.73761" lon="-1.91698">
        <ele>5</ele>
        <time>2018-03-08T06:11:02Z</time>
      </trkpt>
      <trkpt lat="46.73767" lon="-1.91714">
        <ele>5</ele>
        <time>2018-03-08T06:12:02Z</time>
      </trkpt>
      <trkpt lat="46.73771" lon="-1.91727">
        <ele>5</ele>
        <time>2018-03-08T06:13:02Z</time>
      </trkpt>
      <trkpt lat="46.73775" lon="-1.9174">
        <ele>5</ele>
        <time>2018-03-08T06:14:02Z</time>
      </trkpt>
      <trkpt lat="46.73777" lon="-1.9175">
        <ele>5</ele>
        <time>2018-03-08T06:15:02Z</time>
      </trkpt>
      <trkpt lat="46.73779" lon="-1.91762">
        <ele>5</ele>
        <time>2018-03-08T06:16:02Z</time>
      </trkpt>
      <trkpt lat="46.7378" lon="-1.91777">
        <ele>5</ele>
        <time>2018-03-08T06:17:02Z</time>
      </trkpt>
      <trkpt lat="46.73781" lon="-1.91794">
        <ele>5</ele>
        <time>2018-03-08T06:18:02Z</time>
      </trkpt>
      <trkpt lat="46.73781" lon="-1.91846">
        <ele>5</ele>
        <time>2018-03-08T06:19:02Z</time>
      </trkpt>
      <trkpt lat="46.73781" lon="-1.91858">
        <ele>5</ele>
        <time>2018-03-08T06:20:02Z</time>
      </trkpt>
      <trkpt lat="46.73781" lon="-1.91872">
        <ele>5</ele>
        <time>2018-03-08T06:21:02Z</time>
      </trkpt>
      <trkpt lat="46.73782" lon="-1.91884">
        <ele>5</ele>
        <time>2018-03-08T06:22:02Z</time>
      </trkpt>
      <trkpt lat="46.73784" lon="-1.91895">
        <ele>5</ele>
        <time>2018-03-08T06:23:02Z</time>
      </trkpt>
      <trkpt lat="46.73787" lon="-1.91904">
        <ele>5</ele>
        <time>2018-03-08T06:24:02Z</time>
      </trkpt>
      <trkpt lat="46.73787" lon="-1.91904">
        <ele>5</ele>
        <time>2018-03-08T06:25:02Z</time>
      </trkpt>
      <trkpt lat="46.73793" lon="-1.91895">
        <ele>5</ele>
        <time>2018-03-08T06:26:02Z</time>
      </trkpt>
      <trkpt lat="46.738" lon="-1.91886">
        <ele>5</ele>
        <time>2018-03-08T06:27:02Z</time>
      </trkpt>
      <trkpt lat="46.73813" lon="-1.91873">
        <ele>5</ele>
        <time>2018-03-08T06:28:02Z</time>
      </trkpt>
      <trkpt lat="46.73863" lon="-1.91828">
        <ele>4</ele>
        <time>2018-03-08T06:29:02Z</time>
      </trkpt>
      <trkpt lat="46.73918" lon="-1.91773">
        <ele>4</ele>
        <time>2018-03-08T06:30:02Z</time>
      </trkpt>
      <trkpt lat="46.73929" lon="-1.91762">
        <ele>4</ele>
        <time>2018-03-08T06:31:02Z</time>
      </trkpt>
      <trkpt lat="46.73946" lon="-1.91744">
        <ele>4</ele>
        <time>2018-03-08T06:32:02Z</time>
      </trkpt>
      <trkpt lat="46.73954" lon="-1.91736">
        <ele>5</ele>
        <time>2018-03-08T06:33:02Z</time>
      </trkpt>
      <trkpt lat="46.73966" lon="-1.91725">
        <ele>5</ele>
        <time>2018-03-08T06:34:02Z</time>
      </trkpt>
      <trkpt lat="46.73966" lon="-1.91725">
        <ele>5</ele>
        <time>2018-03-08T06:35:02Z</time>
      </trkpt>
      <trkpt lat="46.73994" lon="-1.91701">
        <ele>5</ele>
        <time>2018-03-08T06:36:02Z</time>
      </trkpt>
      <trkpt lat="46.74036" lon="-1.91667">
        <ele>6</ele>
        <time>2018-03-08T06:37:02Z</time>
      </trkpt>
      <trkpt lat="46.74089" lon="-1.91626">
        <ele>5</ele>
        <time>2018-03-08T06:38:02Z</time>
      </trkpt>
      <trkpt lat="46.74117" lon="-1.91604">
        <ele>5</ele>
        <time>2018-03-08T06:39:02Z</time>
      </trkpt>
      <trkpt lat="46.74143" lon="-1.91582">
        <ele>5</ele>
        <time>2018-03-08T06:40:02Z</time>
      </trkpt>
      <trkpt lat="46.74156" lon="-1.9157">
        <ele>5</ele>
        <time>2018-03-08T06:41:02Z</time>
      </trkpt>
      <trkpt lat="46.74172" lon="-1.91555">
        <ele>5</ele>
        <time>2018-03-08T06:42:02Z</time>
      </trkpt>
      <trkpt lat="46.74174" lon="-1.91553">
        <ele>5</ele>
        <time>2018-03-08T06:43:02Z</time>
      </trkpt>
      <trkpt lat="46.74192" lon="-1.91535">
        <ele>5</ele>
        <time>2018-03-08T06:44:02Z</time>
      </trkpt>
      <trkpt lat="46.74235" lon="-1.91492">
        <ele>5</ele>
        <time>2018-03-08T06:45:02Z</time>
      </trkpt>
      <trkpt lat="46.74245" lon="-1.91482">
        <ele>5</ele>
        <time>2018-03-08T06:46:02Z</time>
      </trkpt>
      <trkpt lat="46.74283" lon="-1.91443">
        <ele>4</ele>
        <time>2018-03-08T06:47:02Z</time>
      </trkpt>
      <trkpt lat="46.74292" lon="-1.91432">
        <ele>4</ele>
        <time>2018-03-08T06:48:02Z</time>
      </trkpt>
      <trkpt lat="46.74294" lon="-1.91432">
        <ele>4</ele>
        <time>2018-03-08T06:49:02Z</time>
      </trkpt>
      <trkpt lat="46.74297" lon="-1.91431">
        <ele>4</ele>
        <time>2018-03-08T06:50:02Z</time>
      </trkpt>
      <trkpt lat="46.74311" lon="-1.91431">
        <ele>4</ele>
        <time>2018-03-08T06:51:02Z</time>
      </trkpt>
      <trkpt lat="46.74311" lon="-1.91431">
        <ele>4</ele>
        <time>2018-03-08T06:52:02Z</time>
      </trkpt>
      <trkpt lat="46.74317" lon="-1.91418">
        <ele>4</ele>
        <time>2018-03-08T06:53:02Z</time>
      </trkpt>
      <trkpt lat="46.74324" lon="-1.91402">
        <ele>4</ele>
        <time>2018-03-08T06:54:02Z</time>
      </trkpt>
      <trkpt lat="46.74333" lon="-1.91384">
        <ele>4</ele>
        <time>2018-03-08T06:55:02Z</time>
      </trkpt>
      <trkpt lat="46.74344" lon="-1.9136">
        <ele>4</ele>
        <time>2018-03-08T06:56:02Z</time>
      </trkpt>
      <trkpt lat="46.74351" lon="-1.91346">
        <ele>4</ele>
        <time>2018-03-08T06:57:02Z</time>
      </trkpt>
      <trkpt lat="46.74358" lon="-1.91334">
        <ele>4</ele>
        <time>2018-03-08T06:58:02Z</time>
      </trkpt>
      <trkpt lat="46.74367" lon="-1.91321">
        <ele>4</ele>
        <time>2018-03-08T06:59:02Z</time>
      </trkpt>
      <trkpt lat="46.74375" lon="-1.91309">
        <ele>3</ele>
        <time>2018-03-08T07:00:02Z</time>
      </trkpt>
      <trkpt lat="46.74385" lon="-1.91297">
        <ele>3</ele>
        <time>2018-03-08T07:01:02Z</time>
      </trkpt>
      <trkpt lat="46.74388" lon="-1.91293">
        <ele>3</ele>
        <time>2018-03-08T07:02:02Z</time>
      </trkpt>
      <trkpt lat="46.74418" lon="-1.91257">
        <ele>3</ele>
        <time>2018-03-08T07:03:02Z</time>
      </trkpt>
      <trkpt lat="46.74469" lon="-1.91194">
        <ele>4</ele>
        <time>2018-03-08T07:04:02Z</time>
      </trkpt>
      <trkpt lat="46.74477" lon="-1.91184">
        <ele>4</ele>
        <time>2018-03-08T07:05:02Z</time>
      </trkpt>
      <trkpt lat="46.74534" lon="-1.91117">
        <ele>3</ele>
        <time>2018-03-08T07:06:02Z</time>
      </trkpt>
      <trkpt lat="46.74563" lon="-1.91079">
        <ele>3</ele>
        <time>2018-03-08T07:07:02Z</time>
      </trkpt>
      <trkpt lat="46.74569" lon="-1.91072">
        <ele>2</ele>
        <time>2018-03-08T07:08:02Z</time>
      </trkpt>
      <trkpt lat="46.74573" lon="-1.91066">
        <ele>2</ele>
        <time>2018-03-08T07:09:02Z</time>
      </trkpt>
      <trkpt lat="46.74576" lon="-1.9106">
        <ele>2</ele>
        <time>2018-03-08T07:10:02Z</time>
      </trkpt>
      <trkpt lat="46.74584" lon="-1.91045">
        <ele>2</ele>
        <time>2018-03-08T07:11:02Z</time>
      </trkpt>
      <trkpt lat="46.74581" lon="-1.91042">
        <ele>3</ele>
        <time>2018-03-08T07:12:02Z</time>
      </trkpt>
      <trkpt lat="46.7458" lon="-1.91039">
        <ele>3</ele>
        <time>2018-03-08T07:13:02Z</time>
      </trkpt>
      <trkpt lat="46.74579" lon="-1.91036">
        <ele>3</ele>
        <time>2018-03-08T07:14:02Z</time>
      </trkpt>
      <trkpt lat="46.74579" lon="-1.91033">
        <ele>3</ele>
        <time>2018-03-08T07:15:02Z</time>
      </trkpt>
      <trkpt lat="46.7458" lon="-1.9103">
        <ele>3</ele>
        <time>2018-03-08T07:16:02Z</time>
      </trkpt>
      <trkpt lat="46.74583" lon="-1.91026">
        <ele>3</ele>
        <time>2018-03-08T07:17:02Z</time>
      </trkpt>
      <trkpt lat="46.74586" lon="-1.91024">
        <ele>3</ele>
        <time>2018-03-08T07:18:02Z</time>
      </trkpt>
      <trkpt lat="46.74589" lon="-1.91025">
        <ele>3</ele>
        <time>2018-03-08T07:19:02Z</time>
      </trkpt>
      <trkpt lat="46.74591" lon="-1.91026">
        <ele>3</ele>
        <time>2018-03-08T07:20:02Z</time>
      </trkpt>
      <trkpt lat="46.74596" lon="-1.91019">
        <ele>3</ele>
        <time>2018-03-08T07:21:02Z</time>
      </trkpt>
      <trkpt lat="46.74597" lon="-1.91017">
        <ele>3</ele>
        <time>2018-03-08T07:22:02Z</time>
      </trkpt>
      <trkpt lat="46.74598" lon="-1.91015">
        <ele>3</ele>
        <time>2018-03-08T07:23:02Z</time>
      </trkpt>
      <trkpt lat="46.746" lon="-1.91009">
        <ele>3</ele>
        <time>2018-03-08T07:24:02Z</time>
      </trkpt>
      <trkpt lat="46.74602" lon="-1.91001">
        <ele>3</ele>
        <time>2018-03-08T07:25:02Z</time>
      </trkpt>
      <trkpt lat="46.74603" lon="-1.9099">
        <ele>3</ele>
        <time>2018-03-08T07:26:02Z</time>
      </trkpt>
      <trkpt lat="46.74603" lon="-1.9098">
        <ele>3</ele>
        <time>2018-03-08T07:27:02Z</time>
      </trkpt>
      <trkpt lat="46.74602" lon="-1.9097">
        <ele>3</ele>
        <time>2018-03-08T07:28:02Z</time>
      </trkpt>
      <trkpt lat="46.74599" lon="-1.9096">
        <ele>3</ele>
        <time>2018-03-08T07:29:02Z</time>
      </trkpt>
      <trkpt lat="46.74594" lon="-1.90947">
        <ele>3</ele>
        <time>2018-03-08T07:30:02Z</time>
      </trkpt>
      <trkpt lat="46.74591" lon="-1.9094">
        <ele>3</ele>
        <time>2018-03-08T07:31:02Z</time>
      </trkpt>
      <trkpt lat="46.74581" lon="-1.90912">
        <ele>3</ele>
        <time>2018-03-08T07:32:02Z</time>
      </trkpt>
      <trkpt lat="46.7458" lon="-1.90911">
        <ele>3</ele>
        <time>2018-03-08T07:33:02Z</time>
      </trkpt>
      <trkpt lat="46.74576" lon="-1.90901">
        <ele>3</ele>
        <time>2018-03-08T07:34:02Z</time>
      </trkpt>
      <trkpt lat="46.74572" lon="-1.90893">
        <ele>4</ele>
        <time>2018-03-08T07:35:02Z</time>
      </trkpt>
      <trkpt lat="46.74566" lon="-1.9088">
        <ele>4</ele>
        <time>2018-03-08T07:36:02Z</time>
      </trkpt>
      <trkpt lat="46.74566" lon="-1.9088">
        <ele>4</ele>
        <time>2018-03-08T07:37:02Z</time>
      </trkpt>
      <trkpt lat="46.74564" lon="-1.90876">
        <ele>4</ele>
        <time>2018-03-08T07:38:02Z</time>
      </trkpt>
      <trkpt lat="46.74554" lon="-1.90862">
        <ele>4</ele>
        <time>2018-03-08T07:39:02Z</time>
      </trkpt>
      <trkpt lat="46.74534" lon="-1.90836">
        <ele>5</ele>
        <time>2018-03-08T07:40:02Z</time>
      </trkpt>
      <trkpt lat="46.74528" lon="-1.90828">
        <ele>5</ele>
        <time>2018-03-08T07:41:02Z</time>
      </trkpt>
      <trkpt lat="46.74523" lon="-1.90822">
        <ele>5</ele>
        <time>2018-03-08T07:42:02Z</time>
      </trkpt>
      <trkpt lat="46.74511" lon="-1.90805">
        <ele>5</ele>
        <time>2018-03-08T07:43:02Z</time>
      </trkpt>
      <trkpt lat="46.74508" lon="-1.90798">
        <ele>5</ele>
        <time>2018-03-08T07:44:02Z</time>
      </trkpt>
      <trkpt lat="46.74503" lon="-1.90787">
        <ele>5</ele>
        <time>2018-03-08T07:45:02Z</time>
      </trkpt>
      <trkpt lat="46.74496" lon="-1.90771">
        <ele>5</ele>
        <time>2018-03-08T07:46:02Z</time>
      </trkpt>
      <trkpt lat="46.74491" lon="-1.90757">
        <ele>5</ele>
        <time>2018-03-08T07:47:02Z</time>
      </trkpt>
      <trkpt lat="46.74487" lon="-1.90744">
        <ele>5</ele>
        <time>2018-03-08T07:48:02Z</time>
      </trkpt>
      <trkpt lat="46.74486" lon="-1.90734">
        <ele>5</ele>
        <time>2018-03-08T07:49:02Z</time>
      </trkpt>
      <trkpt lat="46.74485" lon="-1.90722">
        <ele>5</ele>
        <time>2018-03-08T07:50:02Z</time>
      </trkpt>
      <trkpt lat="46.74486" lon="-1.90716">
        <ele>5</ele>
        <time>2018-03-08T07:51:02Z</time>
      </trkpt>
      <trkpt lat="46.74487" lon="-1.90711">
        <ele>5</ele>
        <time>2018-03-08T07:52:02Z</time>
      </trkpt>
      <trkpt lat="46.74489" lon="-1.90704">
        <ele>5</ele>
        <time>2018-03-08T07:53:02Z</time>
      </trkpt>
      <trkpt lat="46.74493" lon="-1.90698">
        <ele>4</ele>
        <time>2018-03-08T07:54:02Z</time>
      </trkpt>
      <trkpt lat="46.74497" lon="-1.9069">
        <ele>4</ele>
        <time>2018-03-08T07:55:02Z</time>
      </trkpt>
      <trkpt lat="46.74502" lon="-1.90684">
        <ele>4</ele>
        <time>2018-03-08T07:56:02Z</time>
      </trkpt>
      <trkpt lat="46.74506" lon="-1.90678">
        <ele>4</ele>
        <time>2018-03-08T07:57:02Z</time>
      </trkpt>
      <trkpt lat="46.74512" lon="-1.90668">
        <ele>4</ele>
        <time>2018-03-08T07:58:02Z</time>
      </trkpt>
      <trkpt lat="46.74519" lon="-1.90656">
        <ele>4</ele>
        <time>2018-03-08T07:59:02Z</time>
      </trkpt>
      <trkpt lat="46.74519" lon="-1.90656">
        <ele>4</ele>
        <time>2018-03-08T08:00:02Z</time>
      </trkpt>
      <trkpt lat="46.74523" lon="-1.90646">
        <ele>4</ele>
        <time>2018-03-08T08:01:02Z</time>
      </trkpt>
      <trkpt lat="46.74529" lon="-1.90639">
        <ele>4</ele>
        <time>2018-03-08T08:02:02Z</time>
      </trkpt>
      <trkpt lat="46.74538" lon="-1.90629">
        <ele>4</ele>
        <time>2018-03-08T08:03:02Z</time>
      </trkpt>
      <trkpt lat="46.74549" lon="-1.90627">
        <ele>3</ele>
        <time>2018-03-08T08:04:02Z</time>
      </trkpt>
      <trkpt lat="46.74552" lon="-1.90625">
        <ele>3</ele>
        <time>2018-03-08T08:05:02Z</time>
      </trkpt>
      <trkpt lat="46.74567" lon="-1.90615">
        <ele>3</ele>
        <time>2018-03-08T08:06:02Z</time>
      </trkpt>
      <trkpt lat="46.74573" lon="-1.9061">
        <ele>3</ele>
        <time>2018-03-08T08:07:02Z</time>
      </trkpt>
      <trkpt lat="46.74591" lon="-1.90595">
        <ele>2</ele>
        <time>2018-03-08T08:08:02Z</time>
      </trkpt>
      <trkpt lat="46.74603" lon="-1.90586">
        <ele>2</ele>
        <time>2018-03-08T08:09:02Z</time>
      </trkpt>
      <trkpt lat="46.74612" lon="-1.90578">
        <ele>2</ele>
        <time>2018-03-08T08:10:02Z</time>
      </trkpt>
      <trkpt lat="46.74618" lon="-1.90573">
        <ele>2</ele>
        <time>2018-03-08T08:11:02Z</time>
      </trkpt>
      <trkpt lat="46.74672" lon="-1.90525">
        <ele>3</ele>
        <time>2018-03-08T08:12:02Z</time>
      </trkpt>
      <trkpt lat="46.74727" lon="-1.90479">
        <ele>4</ele>
        <time>2018-03-08T08:13:02Z</time>
      </trkpt>
      <trkpt lat="46.7473" lon="-1.90477">
        <ele>4</ele>
        <time>2018-03-08T08:14:02Z</time>
      </trkpt>
      <trkpt lat="46.74758" lon="-1.90455">
        <ele>4</ele>
        <time>2018-03-08T08:15:02Z</time>
      </trkpt>
      <trkpt lat="46.74812" lon="-1.90415">
        <ele>4</ele>
        <time>2018-03-08T08:16:02Z</time>
      </trkpt>
      <trkpt lat="46.74824" lon="-1.90396">
        <ele>4</ele>
        <time>2018-03-08T08:17:02Z</time>
      </trkpt>
      <trkpt lat="46.74826" lon="-1.90393">
        <ele>4</ele>
        <time>2018-03-08T08:18:02Z</time>
      </trkpt>
      <trkpt lat="46.74827" lon="-1.9039">
        <ele>4</ele>
        <time>2018-03-08T08:19:02Z</time>
      </trkpt>
      <trkpt lat="46.74828" lon="-1.90387">
        <ele>4</ele>
        <time>2018-03-08T08:20:02Z</time>
      </trkpt>
      <trkpt lat="46.74833" lon="-1.90376">
        <ele>4</ele>
        <time>2018-03-08T08:21:02Z</time>
      </trkpt>
      <trkpt lat="46.74837" lon="-1.90359">
        <ele>5</ele>
        <time>2018-03-08T08:22:02Z</time>
      </trkpt>
      <trkpt lat="46.74841" lon="-1.9034">
        <ele>5</ele>
        <time>2018-03-08T08:23:02Z</time>
      </trkpt>
      <trkpt lat="46.74845" lon="-1.90331">
        <ele>5</ele>
        <time>2018-03-08T08:24:02Z</time>
      </trkpt>
      <trkpt lat="46.74846" lon="-1.90329">
        <ele>5</ele>
        <time>2018-03-08T08:25:02Z</time>
      </trkpt>
      <trkpt lat="46.74849" lon="-1.90315">
        <ele>5</ele>
        <time>2018-03-08T08:26:02Z</time>
      </trkpt>
      <trkpt lat="46.74851" lon="-1.90299">
        <ele>5</ele>
        <time>2018-03-08T08:27:02Z</time>
      </trkpt>
      <trkpt lat="46.74852" lon="-1.90282">
        <ele>5</ele>
        <time>2018-03-08T08:28:02Z</time>
      </trkpt>
      <trkpt lat="46.74853" lon="-1.90275">
        <ele>6</ele>
        <time>2018-03-08T08:29:02Z</time>
      </trkpt>
      <trkpt lat="46.74853" lon="-1.90266">
        <ele>6</ele>
        <time>2018-03-08T08:30:02Z</time>
      </trkpt>
      <trkpt lat="46.74855" lon="-1.90247">
        <ele>6</ele>
        <time>2018-03-08T08:31:02Z</time>
      </trkpt>
      <trkpt lat="46.74855" lon="-1.90226">
        <ele>6</ele>
        <time>2018-03-08T08:32:02Z</time>
      </trkpt>
      <trkpt lat="46.74856" lon="-1.90215">
        <ele>6</ele>
        <time>2018-03-08T08:33:02Z</time>
      </trkpt>
      <trkpt lat="46.74857" lon="-1.90195">
        <ele>6</ele>
        <time>2018-03-08T08:34:02Z</time>
      </trkpt>
      <trkpt lat="46.74857" lon="-1.90183">
        <ele>6</ele>
        <time>2018-03-08T08:35:02Z</time>
      </trkpt>
      <trkpt lat="46.74857" lon="-1.9018">
        <ele>6</ele>
        <time>2018-03-08T08:36:02Z</time>
      </trkpt>
      <trkpt lat="46.74857" lon="-1.90159">
        <ele>6</ele>
        <time>2018-03-08T08:37:02Z</time>
      </trkpt>
      <trkpt lat="46.74856" lon="-1.90129">
        <ele>6</ele>
        <time>2018-03-08T08:38:02Z</time>
      </trkpt>
      <trkpt lat="46.74852" lon="-1.90014">
        <ele>6</ele>
        <time>2018-03-08T08:39:02Z</time>
      </trkpt>
      <trkpt lat="46.7485" lon="-1.89954">
        <ele>6</ele>
        <time>2018-03-08T08:40:02Z</time>
      </trkpt>
      <trkpt lat="46.74849" lon="-1.89943">
        <ele>6</ele>
        <time>2018-03-08T08:41:02Z</time>
      </trkpt>
      <trkpt lat="46.7485" lon="-1.89908">
        <ele>6</ele>
        <time>2018-03-08T08:42:02Z</time>
      </trkpt>
      <trkpt lat="46.7485" lon="-1.8988">
        <ele>6</ele>
        <time>2018-03-08T08:43:02Z</time>
      </trkpt>
      <trkpt lat="46.74849" lon="-1.89871">
        <ele>6</ele>
        <time>2018-03-08T08:44:02Z</time>
      </trkpt>
      <trkpt lat="46.74848" lon="-1.89861">
        <ele>6</ele>
        <time>2018-03-08T08:45:02Z</time>
      </trkpt>
      <trkpt lat="46.74848" lon="-1.89855">
        <ele>7</ele>
        <time>2018-03-08T08:46:02Z</time>
      </trkpt>
      <trkpt lat="46.74845" lon="-1.89818">
        <ele>7</ele>
        <time>2018-03-08T08:47:02Z</time>
      </trkpt>
      <trkpt lat="46.74844" lon="-1.89797">
        <ele>7</ele>
        <time>2018-03-08T08:48:02Z</time>
      </trkpt>
      <trkpt lat="46.74844" lon="-1.89793">
        <ele>7</ele>
        <time>2018-03-08T08:49:02Z</time>
      </trkpt>
      <trkpt lat="46.74844" lon="-1.89789">
        <ele>7</ele>
        <time>2018-03-08T08:50:02Z</time>
      </trkpt>
      <trkpt lat="46.74845" lon="-1.89778">
        <ele>7</ele>
        <time>2018-03-08T08:51:02Z</time>
      </trkpt>
      <trkpt lat="46.74844" lon="-1.89745">
        <ele>7</ele>
        <time>2018-03-08T08:52:02Z</time>
      </trkpt>
      <trkpt lat="46.74843" lon="-1.89721">
        <ele>8</ele>
        <time>2018-03-08T08:53:02Z</time>
      </trkpt>
      <trkpt lat="46.74843" lon="-1.89717">
        <ele>8</ele>
        <time>2018-03-08T08:54:02Z</time>
      </trkpt>
      <trkpt lat="46.74843" lon="-1.8971">
        <ele>8</ele>
        <time>2018-03-08T08:55:02Z</time>
      </trkpt>
      <trkpt lat="46.74843" lon="-1.89689">
        <ele>8</ele>
        <time>2018-03-08T08:56:02Z</time>
      </trkpt>
      <trkpt lat="46.74843" lon="-1.89675">
        <ele>9</ele>
        <time>2018-03-08T08:57:02Z</time>
      </trkpt>
      <trkpt lat="46.74843" lon="-1.89647">
        <ele>9</ele>
        <time>2018-03-08T08:58:02Z</time>
      </trkpt>
      <trkpt lat="46.74842" lon="-1.89634">
        <ele>9</ele>
        <time>2018-03-08T08:59:02Z</time>
      </trkpt>
      <trkpt lat="46.74842" lon="-1.89606">
        <ele>8</ele>
        <time>2018-03-08T09:00:02Z</time>
      </trkpt>
      <trkpt lat="46.74842" lon="-1.89571">
        <ele>8</ele>
        <time>2018-03-08T09:01:02Z</time>
      </trkpt>
      <trkpt lat="46.74842" lon="-1.8955">
        <ele>8</ele>
        <time>2018-03-08T09:02:02Z</time>
      </trkpt>
      <trkpt lat="46.74843" lon="-1.89509">
        <ele>8</ele>
        <time>2018-03-08T09:03:02Z</time>
      </trkpt>
      <trkpt lat="46.74843" lon="-1.895">
        <ele>8</ele>
        <time>2018-03-08T09:04:02Z</time>
      </trkpt>
      <trkpt lat="46.74843" lon="-1.89466">
        <ele>8</ele>
        <time>2018-03-08T09:05:02Z</time>
      </trkpt>
      <trkpt lat="46.74843" lon="-1.89447">
        <ele>8</ele>
        <time>2018-03-08T09:06:02Z</time>
      </trkpt>
      <trkpt lat="46.74843" lon="-1.89423">
        <ele>8</ele>
        <time>2018-03-08T09:07:02Z</time>
      </trkpt>
      <trkpt lat="46.74843" lon="-1.89411">
        <ele>8</ele>
        <time>2018-03-08T09:08:02Z</time>
      </trkpt>
      <trkpt lat="46.74842" lon="-1.89383">
        <ele>8</ele>
        <time>2018-03-08T09:09:02Z</time>
      </trkpt>
      <trkpt lat="46.74842" lon="-1.89372">
        <ele>8</ele>
        <time>2018-03-08T09:10:02Z</time>
      </trkpt>
      <trkpt lat="46.74842" lon="-1.89365">
        <ele>8</ele>
        <time>2018-03-08T09:11:02Z</time>
      </trkpt>
      <trkpt lat="46.74842" lon="-1.89349">
        <ele>8</ele>
        <time>2018-03-08T09:12:02Z</time>
      </trkpt>
      <trkpt lat="46.74841" lon="-1.89332">
        <ele>8</ele>
        <time>2018-03-08T09:13:02Z</time>
      </trkpt>
      <trkpt lat="46.7484" lon="-1.89315">
        <ele>8</ele>
        <time>2018-03-08T09:14:02Z</time>
      </trkpt>
      <trkpt lat="46.74838" lon="-1.89279">
        <ele>9</ele>
        <time>2018-03-08T09:15:02Z</time>
      </trkpt>
      <trkpt lat="46.74834" lon="-1.89221">
        <ele>10</ele>
        <time>2018-03-08T09:16:02Z</time>
      </trkpt>
      <trkpt lat="46.74831" lon="-1.89174">
        <ele>11</ele>
        <time>2018-03-08T09:17:02Z</time>
      </trkpt>
      <trkpt lat="46.74828" lon="-1.8912">
        <ele>11</ele>
        <time>2018-03-08T09:18:02Z</time>
      </trkpt>
      <trkpt lat="46.74826" lon="-1.89092">
        <ele>11</ele>
        <time>2018-03-08T09:19:02Z</time>
      </trkpt>
      <trkpt lat="46.74825" lon="-1.89073">
        <ele>11</ele>
        <time>2018-03-08T09:20:02Z</time>
      </trkpt>
      <trkpt lat="46.74825" lon="-1.89055">
        <ele>11</ele>
        <time>2018-03-08T09:21:02Z</time>
      </trkpt>
      <trkpt lat="46.74824" lon="-1.8904">
        <ele>11</ele>
        <time>2018-03-08T09:22:02Z</time>
      </trkpt>
      <trkpt lat="46.74824" lon="-1.89025">
        <ele>11</ele>
        <time>2018-03-08T09:23:02Z</time>
      </trkpt>
      <trkpt lat="46.74824" lon="-1.89008">
        <ele>11</ele>
        <time>2018-03-08T09:24:02Z</time>
      </trkpt>
      <trkpt lat="46.74825" lon="-1.88973">
        <ele>11</ele>
        <time>2018-03-08T09:25:02Z</time>
      </trkpt>
      <trkpt lat="46.74826" lon="-1.88934">
        <ele>12</ele>
        <time>2018-03-08T09:26:02Z</time>
      </trkpt>
      <trkpt lat="46.74826" lon="-1.88892">
        <ele>12</ele>
        <time>2018-03-08T09:27:02Z</time>
      </trkpt>
      <trkpt lat="46.74827" lon="-1.88854">
        <ele>12</ele>
        <time>2018-03-08T09:28:02Z</time>
      </trkpt>
      <trkpt lat="46.74829" lon="-1.88817">
        <ele>12</ele>
        <time>2018-03-08T09:29:02Z</time>
      </trkpt>
      <trkpt lat="46.7483" lon="-1.8879">
        <ele>12</ele>
        <time>2018-03-08T09:30:02Z</time>
      </trkpt>
      <trkpt lat="46.74832" lon="-1.8877">
        <ele>12</ele>
        <time>2018-03-08T09:31:02Z</time>
      </trkpt>
      <trkpt lat="46.74834" lon="-1.88748">
        <ele>12</ele>
        <time>2018-03-08T09:32:02Z</time>
      </trkpt>
      <trkpt lat="46.74839" lon="-1.88686">
        <ele>12</ele>
        <time>2018-03-08T09:33:02Z</time>
      </trkpt>
      <trkpt lat="46.74846" lon="-1.88622">
        <ele>12</ele>
        <time>2018-03-08T09:34:02Z</time>
      </trkpt>
      <trkpt lat="46.7485" lon="-1.88595">
        <ele>11</ele>
        <time>2018-03-08T09:35:02Z</time>
      </trkpt>
      <trkpt lat="46.74853" lon="-1.88575">
        <ele>11</ele>
        <time>2018-03-08T09:36:02Z</time>
      </trkpt>
      <trkpt lat="46.74856" lon="-1.88561">
        <ele>12</ele>
        <time>2018-03-08T09:37:02Z</time>
      </trkpt>
      <trkpt lat="46.7486" lon="-1.88545">
        <ele>12</ele>
        <time>2018-03-08T09:38:02Z</time>
      </trkpt>
      <trkpt lat="46.74881" lon="-1.88465">
        <ele>12</ele>
        <time>2018-03-08T09:39:02Z</time>
      </trkpt>
      <trkpt lat="46.74883" lon="-1.88454">
        <ele>11</ele>
        <time>2018-03-08T09:40:02Z</time>
      </trkpt>
      <trkpt lat="46.74896" lon="-1.88406">
        <ele>11</ele>
        <time>2018-03-08T09:41:02Z</time>
      </trkpt>
      <trkpt lat="46.74914" lon="-1.88342">
        <ele>13</ele>
        <time>2018-03-08T09:42:02Z</time>
      </trkpt>
      <trkpt lat="46.74925" lon="-1.883">
        <ele>13</ele>
        <time>2018-03-08T09:43:02Z</time>
      </trkpt>
      <trkpt lat="46.74934" lon="-1.88272">
        <ele>13</ele>
        <time>2018-03-08T09:44:02Z</time>
      </trkpt>
      <trkpt lat="46.74938" lon="-1.88258">
        <ele>13</ele>
        <time>2018-03-08T09:45:02Z</time>
      </trkpt>
      <trkpt lat="46.74943" lon="-1.88246">
        <ele>12</ele>
        <time>2018-03-08T09:46:02Z</time>
      </trkpt>
      <trkpt lat="46.74948" lon="-1.88233">
        <ele>12</ele>
        <time>2018-03-08T09:47:02Z</time>
      </trkpt>
      <trkpt lat="46.74954" lon="-1.88221">
        <ele>11</ele>
        <time>2018-03-08T09:48:02Z</time>
      </trkpt>
      <trkpt lat="46.7496" lon="-1.88208">
        <ele>11</ele>
        <time>2018-03-08T09:49:02Z</time>
      </trkpt>
      <trkpt lat="46.74967" lon="-1.88193">
        <ele>10</ele>
        <time>2018-03-08T09:50:02Z</time>
      </trkpt>
      <trkpt lat="46.74976" lon="-1.88179">
        <ele>10</ele>
        <time>2018-03-08T09:51:02Z</time>
      </trkpt>
      <trkpt lat="46.7499" lon="-1.88159">
        <ele>9</ele>
        <time>2018-03-08T09:52:02Z</time>
      </trkpt>
      <trkpt lat="46.75019" lon="-1.88119">
        <ele>9</ele>
        <time>2018-03-08T09:53:02Z</time>
      </trkpt>
      <trkpt lat="46.75026" lon="-1.8811">
        <ele>9</ele>
        <time>2018-03-08T09:54:02Z</time>
      </trkpt>
      <trkpt lat="46.75039" lon="-1.88095">
        <ele>9</ele>
        <time>2018-03-08T09:55:02Z</time>
      </trkpt>
      <trkpt lat="46.75058" lon="-1.8807">
        <ele>9</ele>
        <time>2018-03-08T09:56:02Z</time>
      </trkpt>
      <trkpt lat="46.75083" lon="-1.88037">
        <ele>9</ele>
        <time>2018-03-08T09:57:02Z</time>
      </trkpt>
      <trkpt lat="46.75098" lon="-1.88016">
        <ele>10</ele>
        <time>2018-03-08T09:58:02Z</time>
      </trkpt>
      <trkpt lat="46.75106" lon="-1.88003">
        <ele>10</ele>
        <time>2018-03-08T09:59:02Z</time>
      </trkpt>
      <trkpt lat="46.75111" lon="-1.87992">
        <ele>10</ele>
        <time>2018-03-08T10:00:02Z</time>
      </trkpt>
      <trkpt lat="46.75114" lon="-1.87984">
        <ele>11</ele>
        <time>2018-03-08T10:01:02Z</time>
      </trkpt>
      <trkpt lat="46.75118" lon="-1.87973">
        <ele>11</ele>
        <time>2018-03-08T10:02:02Z</time>
      </trkpt>
      <trkpt lat="46.75123" lon="-1.87957">
        <ele>11</ele>
        <time>2018-03-08T10:03:02Z</time>
      </trkpt>
      <trkpt lat="46.75126" lon="-1.87941">
        <ele>12</ele>
        <time>2018-03-08T10:04:02Z</time>
      </trkpt>
      <trkpt lat="46.75129" lon="-1.87925">
        <ele>12</ele>
        <time>2018-03-08T10:05:02Z</time>
      </trkpt>
      <trkpt lat="46.75131" lon="-1.87908">
        <ele>12</ele>
        <time>2018-03-08T10:06:02Z</time>
      </trkpt>
      <trkpt lat="46.75134" lon="-1.87889">
        <ele>12</ele>
        <time>2018-03-08T10:07:02Z</time>
      </trkpt>
      <trkpt lat="46.75136" lon="-1.87871">
        <ele>11</ele>
        <time>2018-03-08T10:08:02Z</time>
      </trkpt>
      <trkpt lat="46.75138" lon="-1.87851">
        <ele>11</ele>
        <time>2018-03-08T10:09:02Z</time>
      </trkpt>
      <trkpt lat="46.7514" lon="-1.87824">
        <ele>11</ele>
        <time>2018-03-08T10:10:02Z</time>
      </trkpt>
      <trkpt lat="46.75142" lon="-1.87797">
        <ele>11</ele>
        <time>2018-03-08T10:11:02Z</time>
      </trkpt>
      <trkpt lat="46.75144" lon="-1.87765">
        <ele>11</ele>
        <time>2018-03-08T10:12:02Z</time>
      </trkpt>
      <trkpt lat="46.75145" lon="-1.87742">
        <ele>11</ele>
        <time>2018-03-08T10:13:02Z</time>
      </trkpt>
      <trkpt lat="46.75147" lon="-1.87715">
        <ele>11</ele>
        <time>2018-03-08T10:14:02Z</time>
      </trkpt>
      <trkpt lat="46.75149" lon="-1.8768">
        <ele>11</ele>
        <time>2018-03-08T10:15:02Z</time>
      </trkpt>
      <trkpt lat="46.75149" lon="-1.87652">
        <ele>12</ele>
        <time>2018-03-08T10:16:02Z</time>
      </trkpt>
      <trkpt lat="46.7515" lon="-1.87634">
        <ele>12</ele>
        <time>2018-03-08T10:17:02Z</time>
      </trkpt>
      <trkpt lat="46.7515" lon="-1.87615">
        <ele>12</ele>
        <time>2018-03-08T10:18:02Z</time>
      </trkpt>
      <trkpt lat="46.75149" lon="-1.87581">
        <ele>12</ele>
        <time>2018-03-08T10:19:02Z</time>
      </trkpt>
      <trkpt lat="46.75149" lon="-1.87548">
        <ele>13</ele>
        <time>2018-03-08T10:20:02Z</time>
      </trkpt>
      <trkpt lat="46.75148" lon="-1.87517">
        <ele>13</ele>
        <time>2018-03-08T10:21:02Z</time>
      </trkpt>
      <trkpt lat="46.75146" lon="-1.8748">
        <ele>13</ele>
        <time>2018-03-08T10:22:02Z</time>
      </trkpt>
      <trkpt lat="46.75144" lon="-1.8744">
        <ele>13</ele>
        <time>2018-03-08T10:23:02Z</time>
      </trkpt>
      <trkpt lat="46.7514" lon="-1.87388">
        <ele>13</ele>
        <time>2018-03-08T10:24:02Z</time>
      </trkpt>
      <trkpt lat="46.75135" lon="-1.87327">
        <ele>13</ele>
        <time>2018-03-08T10:25:02Z</time>
      </trkpt>
      <trkpt lat="46.75132" lon="-1.87295">
        <ele>14</ele>
        <time>2018-03-08T10:26:02Z</time>
      </trkpt>
      <trkpt lat="46.75132" lon="-1.87281">
        <ele>14</ele>
        <time>2018-03-08T10:27:02Z</time>
      </trkpt>
      <trkpt lat="46.75131" lon="-1.87259">
        <ele>15</ele>
        <time>2018-03-08T10:28:02Z</time>
      </trkpt>
      <trkpt lat="46.75132" lon="-1.87241">
        <ele>15</ele>
        <time>2018-03-08T10:29:02Z</time>
      </trkpt>
      <trkpt lat="46.75133" lon="-1.87222">
        <ele>15</ele>
        <time>2018-03-08T10:30:02Z</time>
      </trkpt>
      <trkpt lat="46.75134" lon="-1.87212">
        <ele>16</ele>
        <time>2018-03-08T10:31:02Z</time>
      </trkpt>
      <trkpt lat="46.75136" lon="-1.87195">
        <ele>16</ele>
        <time>2018-03-08T10:32:02Z</time>
      </trkpt>
      <trkpt lat="46.75138" lon="-1.8718">
        <ele>16</ele>
        <time>2018-03-08T10:33:02Z</time>
      </trkpt>
      <trkpt lat="46.75142" lon="-1.87159">
        <ele>17</ele>
        <time>2018-03-08T10:34:02Z</time>
      </trkpt>
      <trkpt lat="46.75142" lon="-1.87151">
        <ele>17</ele>
        <time>2018-03-08T10:35:02Z</time>
      </trkpt>
      <trkpt lat="46.75143" lon="-1.87144">
        <ele>17</ele>
        <time>2018-03-08T10:36:02Z</time>
      </trkpt>
      <trkpt lat="46.75145" lon="-1.87131">
        <ele>17</ele>
        <time>2018-03-08T10:37:02Z</time>
      </trkpt>
      <trkpt lat="46.75147" lon="-1.87119">
        <ele>17</ele>
        <time>2018-03-08T10:38:02Z</time>
      </trkpt>
      <trkpt lat="46.75148" lon="-1.87108">
        <ele>17</ele>
        <time>2018-03-08T10:39:02Z</time>
      </trkpt>
      <trkpt lat="46.75148" lon="-1.87097">
        <ele>16</ele>
        <time>2018-03-08T10:40:02Z</time>
      </trkpt>
      <trkpt lat="46.75149" lon="-1.87086">
        <ele>16</ele>
        <time>2018-03-08T10:41:02Z</time>
      </trkpt>
      <trkpt lat="46.75148" lon="-1.87078">
        <ele>16</ele>
        <time>2018-03-08T10:42:02Z</time>
      </trkpt>
      <trkpt lat="46.75148" lon="-1.87072">
        <ele>16</ele>
        <time>2018-03-08T10:43:02Z</time>
      </trkpt>
      <trkpt lat="46.75147" lon="-1.87059">
        <ele>16</ele>
        <time>2018-03-08T10:44:02Z</time>
      </trkpt>
      <trkpt lat="46.75147" lon="-1.87059">
        <ele>16</ele>
        <time>2018-03-08T10:45:02Z</time>
      </trkpt>
      <trkpt lat="46.75144" lon="-1.87055">
        <ele>16</ele>
        <time>2018-03-08T10:46:02Z</time>
      </trkpt>
      <trkpt lat="46.75142" lon="-1.8705">
        <ele>16</ele>
        <time>2018-03-08T10:47:02Z</time>
      </trkpt>
      <trkpt lat="46.7514" lon="-1.87045">
        <ele>16</ele>
        <time>2018-03-08T10:48:02Z</time>
      </trkpt>
      <trkpt lat="46.75139" lon="-1.8704">
        <ele>16</ele>
        <time>2018-03-08T10:49:02Z</time>
      </trkpt>
      <trkpt lat="46.75139" lon="-1.87036">
        <ele>16</ele>
        <time>2018-03-08T10:50:02Z</time>
      </trkpt>
      <trkpt lat="46.7514" lon="-1.87028">
        <ele>16</ele>
        <time>2018-03-08T10:51:02Z</time>
      </trkpt>
      <trkpt lat="46.75143" lon="-1.87019">
        <ele>16</ele>
        <time>2018-03-08T10:52:02Z</time>
      </trkpt>
      <trkpt lat="46.75147" lon="-1.87011">
        <ele>16</ele>
        <time>2018-03-08T10:53:02Z</time>
      </trkpt>
      <trkpt lat="46.75149" lon="-1.8701">
        <ele>16</ele>
        <time>2018-03-08T10:54:02Z</time>
      </trkpt>
      <trkpt lat="46.75151" lon="-1.87007">
        <ele>16</ele>
        <time>2018-03-08T10:55:02Z</time>
      </trkpt>
      <trkpt lat="46.75153" lon="-1.87006">
        <ele>16</ele>
        <time>2018-03-08T10:56:02Z</time>
      </trkpt>
      <trkpt lat="46.75156" lon="-1.87005">
        <ele>16</ele>
        <time>2018-03-08T10:57:02Z</time>
      </trkpt>
      <trkpt lat="46.75159" lon="-1.87005">
        <ele>17</ele>
        <time>2018-03-08T10:58:02Z</time>
      </trkpt>
      <trkpt lat="46.75161" lon="-1.87006">
        <ele>17</ele>
        <time>2018-03-08T10:59:02Z</time>
      </trkpt>
      <trkpt lat="46.75164" lon="-1.87007">
        <ele>17</ele>
        <time>2018-03-08T11:00:02Z</time>
      </trkpt>
      <trkpt lat="46.75173" lon="-1.86993">
        <ele>17</ele>
        <time>2018-03-08T11:01:02Z</time>
      </trkpt>
      <trkpt lat="46.75179" lon="-1.86983">
        <ele>17</ele>
        <time>2018-03-08T11:02:02Z</time>
      </trkpt>
      <trkpt lat="46.75185" lon="-1.8697">
        <ele>17</ele>
        <time>2018-03-08T11:03:02Z</time>
      </trkpt>
      <trkpt lat="46.75193" lon="-1.86941">
        <ele>17</ele>
        <time>2018-03-08T11:04:02Z</time>
      </trkpt>
      <trkpt lat="46.75204" lon="-1.86904">
        <ele>18</ele>
        <time>2018-03-08T11:05:02Z</time>
      </trkpt>
      <trkpt lat="46.75217" lon="-1.86859">
        <ele>18</ele>
        <time>2018-03-08T11:06:02Z</time>
      </trkpt>
      <trkpt lat="46.75225" lon="-1.86832">
        <ele>18</ele>
        <time>2018-03-08T11:07:02Z</time>
      </trkpt>
      <trkpt lat="46.75233" lon="-1.86808">
        <ele>18</ele>
        <time>2018-03-08T11:08:02Z</time>
      </trkpt>
      <trkpt lat="46.75236" lon="-1.868">
        <ele>17</ele>
        <time>2018-03-08T11:09:02Z</time>
      </trkpt>
      <trkpt lat="46.75246" lon="-1.86771">
        <ele>17</ele>
        <time>2018-03-08T11:10:02Z</time>
      </trkpt>
      <trkpt lat="46.75252" lon="-1.86754">
        <ele>17</ele>
        <time>2018-03-08T11:11:02Z</time>
      </trkpt>
      <trkpt lat="46.75264" lon="-1.86722">
        <ele>17</ele>
        <time>2018-03-08T11:12:02Z</time>
      </trkpt>
      <trkpt lat="46.7528" lon="-1.86682">
        <ele>18</ele>
        <time>2018-03-08T11:13:02Z</time>
      </trkpt>
      <trkpt lat="46.75292" lon="-1.8665">
        <ele>18</ele>
        <time>2018-03-08T11:14:02Z</time>
      </trkpt>
      <trkpt lat="46.753" lon="-1.86632">
        <ele>18</ele>
        <time>2018-03-08T11:15:02Z</time>
      </trkpt>
      <trkpt lat="46.75308" lon="-1.86612">
        <ele>18</ele>
        <time>2018-03-08T11:16:02Z</time>
      </trkpt>
      <trkpt lat="46.7531" lon="-1.86608">
        <ele>18</ele>
        <time>2018-03-08T11:17:02Z</time>
      </trkpt>
      <trkpt lat="46.75316" lon="-1.86596">
        <ele>18</ele>
        <time>2018-03-08T11:18:02Z</time>
      </trkpt>
      <trkpt lat="46.75321" lon="-1.86586">
        <ele>18</ele>
        <time>2018-03-08T11:19:02Z</time>
      </trkpt>
      <trkpt lat="46.75327" lon="-1.86575">
        <ele>18</ele>
        <time>2018-03-08T11:20:02Z</time>
      </trkpt>
      <trkpt lat="46.75333" lon="-1.86564">
        <ele>18</ele>
        <time>2018-03-08T11:21:02Z</time>
      </trkpt>
      <trkpt lat="46.75335" lon="-1.8656">
        <ele>18</ele>
        <time>2018-03-08T11:22:02Z</time>
      </trkpt>
      <trkpt lat="46.75345" lon="-1.86543">
        <ele>18</ele>
        <time>2018-03-08T11:23:02Z</time>
      </trkpt>
      <trkpt lat="46.7536" lon="-1.86518">
        <ele>18</ele>
        <time>2018-03-08T11:24:02Z</time>
      </trkpt>
      <trkpt lat="46.75372" lon="-1.86496">
        <ele>18</ele>
        <time>2018-03-08T11:25:02Z</time>
      </trkpt>
      <trkpt lat="46.75386" lon="-1.86469">
        <ele>18</ele>
        <time>2018-03-08T11:26:02Z</time>
      </trkpt>
      <trkpt lat="46.75396" lon="-1.86449">
        <ele>17</ele>
        <time>2018-03-08T11:27:02Z</time>
      </trkpt>
      <trkpt lat="46.75407" lon="-1.86422">
        <ele>16</ele>
        <time>2018-03-08T11:28:02Z</time>
      </trkpt>
      <trkpt lat="46.75417" lon="-1.86395">
        <ele>16</ele>
        <time>2018-03-08T11:29:02Z</time>
      </trkpt>
      <trkpt lat="46.75424" lon="-1.86374">
        <ele>17</ele>
        <time>2018-03-08T11:30:02Z</time>
      </trkpt>
      <trkpt lat="46.75429" lon="-1.8636">
        <ele>17</ele>
        <time>2018-03-08T11:31:02Z</time>
      </trkpt>
      <trkpt lat="46.75432" lon="-1.86348">
        <ele>17</ele>
        <time>2018-03-08T11:32:02Z</time>
      </trkpt>
      <trkpt lat="46.75436" lon="-1.86334">
        <ele>17</ele>
        <time>2018-03-08T11:33:02Z</time>
      </trkpt>
      <trkpt lat="46.75438" lon="-1.86321">
        <ele>17</ele>
        <time>2018-03-08T11:34:02Z</time>
      </trkpt>
      <trkpt lat="46.75441" lon="-1.86306">
        <ele>17</ele>
        <time>2018-03-08T11:35:02Z</time>
      </trkpt>
      <trkpt lat="46.75443" lon="-1.8629">
        <ele>17</ele>
        <time>2018-03-08T11:36:02Z</time>
      </trkpt>
      <trkpt lat="46.75446" lon="-1.86272">
        <ele>17</ele>
        <time>2018-03-08T11:37:02Z</time>
      </trkpt>
      <trkpt lat="46.75452" lon="-1.8623">
        <ele>17</ele>
        <time>2018-03-08T11:38:02Z</time>
      </trkpt>
      <trkpt lat="46.75452" lon="-1.86222">
        <ele>17</ele>
        <time>2018-03-08T11:39:02Z</time>
      </trkpt>
      <trkpt lat="46.75452" lon="-1.86221">
        <ele>17</ele>
        <time>2018-03-08T11:40:02Z</time>
      </trkpt>
      <trkpt lat="46.75456" lon="-1.86188">
        <ele>17</ele>
        <time>2018-03-08T11:41:02Z</time>
      </trkpt>
      <trkpt lat="46.75464" lon="-1.8613">
        <ele>17</ele>
        <time>2018-03-08T11:42:02Z</time>
      </trkpt>
      <trkpt lat="46.75474" lon="-1.86059">
        <ele>17</ele>
        <time>2018-03-08T11:43:02Z</time>
      </trkpt>
      <trkpt lat="46.75482" lon="-1.86004">
        <ele>17</ele>
        <time>2018-03-08T11:44:02Z</time>
      </trkpt>
      <trkpt lat="46.75486" lon="-1.85986">
        <ele>18</ele>
        <time>2018-03-08T11:45:02Z</time>
      </trkpt>
      <trkpt lat="46.7549" lon="-1.85969">
        <ele>18</ele>
        <time>2018-03-08T11:46:02Z</time>
      </trkpt>
      <trkpt lat="46.75493" lon="-1.85957">
        <ele>18</ele>
        <time>2018-03-08T11:47:02Z</time>
      </trkpt>
      <trkpt lat="46.75495" lon="-1.8595">
        <ele>18</ele>
        <time>2018-03-08T11:48:02Z</time>
      </trkpt>
      <trkpt lat="46.75499" lon="-1.8593">
        <ele>18</ele>
        <time>2018-03-08T11:49:02Z</time>
      </trkpt>
      <trkpt lat="46.75506" lon="-1.85905">
        <ele>18</ele>
        <time>2018-03-08T11:50:02Z</time>
      </trkpt>
      <trkpt lat="46.75512" lon="-1.85881">
        <ele>19</ele>
        <time>2018-03-08T11:51:02Z</time>
      </trkpt>
      <trkpt lat="46.7552" lon="-1.85851">
        <ele>20</ele>
        <time>2018-03-08T11:52:02Z</time>
      </trkpt>
      <trkpt lat="46.75523" lon="-1.85839">
        <ele>20</ele>
        <time>2018-03-08T11:53:02Z</time>
      </trkpt>
      <trkpt lat="46.75531" lon="-1.85811">
        <ele>20</ele>
        <time>2018-03-08T11:54:02Z</time>
      </trkpt>
      <trkpt lat="46.75534" lon="-1.858">
        <ele>20</ele>
        <time>2018-03-08T11:55:02Z</time>
      </trkpt>
      <trkpt lat="46.75537" lon="-1.85788">
        <ele>19</ele>
        <time>2018-03-08T11:56:02Z</time>
      </trkpt>
      <trkpt lat="46.75545" lon="-1.85759">
        <ele>19</ele>
        <time>2018-03-08T11:57:02Z</time>
      </trkpt>
      <trkpt lat="46.75558" lon="-1.85712">
        <ele>19</ele>
        <time>2018-03-08T11:58:02Z</time>
      </trkpt>
      <trkpt lat="46.75568" lon="-1.85675">
        <ele>20</ele>
        <time>2018-03-08T11:59:02Z</time>
      </trkpt>
      <trkpt lat="46.75574" lon="-1.85653">
        <ele>20</ele>
        <time>2018-03-08T12:00:02Z</time>
      </trkpt>
      <trkpt lat="46.75581" lon="-1.85631">
        <ele>20</ele>
        <time>2018-03-08T12:01:02Z</time>
      </trkpt>
      <trkpt lat="46.75588" lon="-1.8561">
        <ele>21</ele>
        <time>2018-03-08T12:02:02Z</time>
      </trkpt>
      <trkpt lat="46.75594" lon="-1.85592">
        <ele>21</ele>
        <time>2018-03-08T12:03:02Z</time>
      </trkpt>
      <trkpt lat="46.756" lon="-1.85575">
        <ele>21</ele>
        <time>2018-03-08T12:04:02Z</time>
      </trkpt>
      <trkpt lat="46.75606" lon="-1.85556">
        <ele>21</ele>
        <time>2018-03-08T12:05:02Z</time>
      </trkpt>
      <trkpt lat="46.75615" lon="-1.85532">
        <ele>20</ele>
        <time>2018-03-08T12:06:02Z</time>
      </trkpt>
      <trkpt lat="46.75616" lon="-1.85529">
        <ele>20</ele>
        <time>2018-03-08T12:07:02Z</time>
      </trkpt>
      <trkpt lat="46.75624" lon="-1.85508">
        <ele>20</ele>
        <time>2018-03-08T12:08:02Z</time>
      </trkpt>
      <trkpt lat="46.75636" lon="-1.85478">
        <ele>20</ele>
        <time>2018-03-08T12:09:02Z</time>
      </trkpt>
      <trkpt lat="46.75654" lon="-1.85434">
        <ele>19</ele>
        <time>2018-03-08T12:10:02Z</time>
      </trkpt>
      <trkpt lat="46.75691" lon="-1.85347">
        <ele>21</ele>
        <time>2018-03-08T12:11:02Z</time>
      </trkpt>
      <trkpt lat="46.75711" lon="-1.85301">
        <ele>22</ele>
        <time>2018-03-08T12:12:02Z</time>
      </trkpt>
      <trkpt lat="46.75722" lon="-1.85275">
        <ele>21</ele>
        <time>2018-03-08T12:13:02Z</time>
      </trkpt>
      <trkpt lat="46.75734" lon="-1.85247">
        <ele>21</ele>
        <time>2018-03-08T12:14:02Z</time>
      </trkpt>
      <trkpt lat="46.7575" lon="-1.85209">
        <ele>21</ele>
        <time>2018-03-08T12:15:02Z</time>
      </trkpt>
      <trkpt lat="46.75767" lon="-1.8517">
        <ele>21</ele>
        <time>2018-03-08T12:16:02Z</time>
      </trkpt>
      <trkpt lat="46.75796" lon="-1.85103">
        <ele>21</ele>
        <time>2018-03-08T12:17:02Z</time>
      </trkpt>
      <trkpt lat="46.75811" lon="-1.85067">
        <ele>22</ele>
        <time>2018-03-08T12:18:02Z</time>
      </trkpt>
      <trkpt lat="46.75832" lon="-1.85019">
        <ele>21</ele>
        <time>2018-03-08T12:19:02Z</time>
      </trkpt>
      <trkpt lat="46.75832" lon="-1.85018">
        <ele>21</ele>
        <time>2018-03-08T12:20:02Z</time>
      </trkpt>
      <trkpt lat="46.75834" lon="-1.85013">
        <ele>21</ele>
        <time>2018-03-08T12:21:02Z</time>
      </trkpt>
      <trkpt lat="46.75851" lon="-1.84975">
        <ele>21</ele>
        <time>2018-03-08T12:22:02Z</time>
      </trkpt>
      <trkpt lat="46.75863" lon="-1.84948">
        <ele>20</ele>
        <time>2018-03-08T12:23:02Z</time>
      </trkpt>
      <trkpt lat="46.75872" lon="-1.84931">
        <ele>20</ele>
        <time>2018-03-08T12:24:02Z</time>
      </trkpt>
      <trkpt lat="46.75881" lon="-1.84913">
        <ele>21</ele>
        <time>2018-03-08T12:25:02Z</time>
      </trkpt>
      <trkpt lat="46.75891" lon="-1.84898">
        <ele>21</ele>
        <time>2018-03-08T12:26:02Z</time>
      </trkpt>
      <trkpt lat="46.75898" lon="-1.84887">
        <ele>21</ele>
        <time>2018-03-08T12:27:02Z</time>
      </trkpt>
      <trkpt lat="46.75899" lon="-1.84886">
        <ele>21</ele>
        <time>2018-03-08T12:28:02Z</time>
      </trkpt>
      <trkpt lat="46.75905" lon="-1.84877">
        <ele>21</ele>
        <time>2018-03-08T12:29:02Z</time>
      </trkpt>
      <trkpt lat="46.75914" lon="-1.84864">
        <ele>21</ele>
        <time>2018-03-08T12:30:02Z</time>
      </trkpt>
      <trkpt lat="46.75929" lon="-1.84845">
        <ele>21</ele>
        <time>2018-03-08T12:31:02Z</time>
      </trkpt>
      <trkpt lat="46.75935" lon="-1.84837">
        <ele>21</ele>
        <time>2018-03-08T12:32:02Z</time>
      </trkpt>
      <trkpt lat="46.75963" lon="-1.84797">
        <ele>20</ele>
        <time>2018-03-08T12:33:02Z</time>
      </trkpt>
      <trkpt lat="46.75982" lon="-1.84772">
        <ele>20</ele>
        <time>2018-03-08T12:34:02Z</time>
      </trkpt>
      <trkpt lat="46.75993" lon="-1.84756">
        <ele>20</ele>
        <time>2018-03-08T12:35:02Z</time>
      </trkpt>
      <trkpt lat="46.76011" lon="-1.8473">
        <ele>20</ele>
        <time>2018-03-08T12:36:02Z</time>
      </trkpt>
      <trkpt lat="46.76013" lon="-1.84726">
        <ele>20</ele>
        <time>2018-03-08T12:37:02Z</time>
      </trkpt>
      <trkpt lat="46.76021" lon="-1.84714">
        <ele>20</ele>
        <time>2018-03-08T12:38:02Z</time>
      </trkpt>
      <trkpt lat="46.76022" lon="-1.84712">
        <ele>20</ele>
        <time>2018-03-08T12:39:02Z</time>
      </trkpt>
      <trkpt lat="46.76029" lon="-1.847">
        <ele>20</ele>
        <time>2018-03-08T12:40:02Z</time>
      </trkpt>
      <trkpt lat="46.76031" lon="-1.84695">
        <ele>20</ele>
        <time>2018-03-08T12:41:02Z</time>
      </trkpt>
      <trkpt lat="46.76032" lon="-1.84693">
        <ele>20</ele>
        <time>2018-03-08T12:42:02Z</time>
      </trkpt>
      <trkpt lat="46.76033" lon="-1.8469">
        <ele>20</ele>
        <time>2018-03-08T12:43:02Z</time>
      </trkpt>
      <trkpt lat="46.76036" lon="-1.84683">
        <ele>20</ele>
        <time>2018-03-08T12:44:02Z</time>
      </trkpt>
      <trkpt lat="46.76038" lon="-1.84676">
        <ele>20</ele>
        <time>2018-03-08T12:45:02Z</time>
      </trkpt>
      <trkpt lat="46.7604" lon="-1.84672">
        <ele>20</ele>
        <time>2018-03-08T12:46:02Z</time>
      </trkpt>
      <trkpt lat="46.76044" lon="-1.84658">
        <ele>21</ele>
        <time>2018-03-08T12:47:02Z</time>
      </trkpt>
      <trkpt lat="46.76047" lon="-1.84646">
        <ele>21</ele>
        <time>2018-03-08T12:48:02Z</time>
      </trkpt>
      <trkpt lat="46.76049" lon="-1.84639">
        <ele>21</ele>
        <time>2018-03-08T12:49:02Z</time>
      </trkpt>
      <trkpt lat="46.7605" lon="-1.84633">
        <ele>21</ele>
        <time>2018-03-08T12:50:02Z</time>
      </trkpt>
      <trkpt lat="46.76052" lon="-1.84626">
        <ele>21</ele>
        <time>2018-03-08T12:51:02Z</time>
      </trkpt>
      <trkpt lat="46.76054" lon="-1.84612">
        <ele>21</ele>
        <time>2018-03-08T12:52:02Z</time>
      </trkpt>
      <trkpt lat="46.76061" lon="-1.84565">
        <ele>21</ele>
        <time>2018-03-08T12:53:02Z</time>
      </trkpt>
      <trkpt lat="46.76067" lon="-1.84521">
        <ele>20</ele>
        <time>2018-03-08T12:54:02Z</time>
      </trkpt>
      <trkpt lat="46.76068" lon="-1.84511">
        <ele>20</ele>
        <time>2018-03-08T12:55:02Z</time>
      </trkpt>
      <trkpt lat="46.7607" lon="-1.84493">
        <ele>20</ele>
        <time>2018-03-08T12:56:02Z</time>
      </trkpt>
      <trkpt lat="46.76072" lon="-1.84459">
        <ele>21</ele>
        <time>2018-03-08T12:57:02Z</time>
      </trkpt>
      <trkpt lat="46.76074" lon="-1.84436">
        <ele>21</ele>
        <time>2018-03-08T12:58:02Z</time>
      </trkpt>
      <trkpt lat="46.76075" lon="-1.84426">
        <ele>21</ele>
        <time>2018-03-08T12:59:02Z</time>
      </trkpt>
      <trkpt lat="46.76075" lon="-1.8442">
        <ele>21</ele>
        <time>2018-03-08T13:00:02Z</time>
      </trkpt>
      <trkpt lat="46.76075" lon="-1.84402">
        <ele>21</ele>
        <time>2018-03-08T13:01:02Z</time>
      </trkpt>
      <trkpt lat="46.76075" lon="-1.84382">
        <ele>21</ele>
        <time>2018-03-08T13:02:02Z</time>
      </trkpt>
      <trkpt lat="46.76075" lon="-1.84368">
        <ele>21</ele>
        <time>2018-03-08T13:03:02Z</time>
      </trkpt>
      <trkpt lat="46.76073" lon="-1.84343">
        <ele>21</ele>
        <time>2018-03-08T13:04:02Z</time>
      </trkpt>
      <trkpt lat="46.7607" lon="-1.84322">
        <ele>21</ele>
        <time>2018-03-08T13:05:02Z</time>
      </trkpt>
      <trkpt lat="46.76069" lon="-1.84301">
        <ele>21</ele>
        <time>2018-03-08T13:06:02Z</time>
      </trkpt>
      <trkpt lat="46.76068" lon="-1.84286">
        <ele>21</ele>
        <time>2018-03-08T13:07:02Z</time>
      </trkpt>
      <trkpt lat="46.76067" lon="-1.84269">
        <ele>21</ele>
        <time>2018-03-08T13:08:02Z</time>
      </trkpt>
      <trkpt lat="46.76066" lon="-1.84253">
        <ele>22</ele>
        <time>2018-03-08T13:09:02Z</time>
      </trkpt>
      <trkpt lat="46.76065" lon="-1.84236">
        <ele>22</ele>
        <time>2018-03-08T13:10:02Z</time>
      </trkpt>
      <trkpt lat="46.76064" lon="-1.84217">
        <ele>22</ele>
        <time>2018-03-08T13:11:02Z</time>
      </trkpt>
      <trkpt lat="46.76061" lon="-1.84195">
        <ele>22</ele>
        <time>2018-03-08T13:12:02Z</time>
      </trkpt>
      <trkpt lat="46.76058" lon="-1.84162">
        <ele>22</ele>
        <time>2018-03-08T13:13:02Z</time>
      </trkpt>
      <trkpt lat="46.76052" lon="-1.84108">
        <ele>21</ele>
        <time>2018-03-08T13:14:02Z</time>
      </trkpt>
      <trkpt lat="46.76049" lon="-1.84081">
        <ele>21</ele>
        <time>2018-03-08T13:15:02Z</time>
      </trkpt>
      <trkpt lat="46.76049" lon="-1.84068">
        <ele>21</ele>
        <time>2018-03-08T13:16:02Z</time>
      </trkpt>
      <trkpt lat="46.76048" lon="-1.84041">
        <ele>21</ele>
        <time>2018-03-08T13:17:02Z</time>
      </trkpt>
      <trkpt lat="46.76047" lon="-1.84017">
        <ele>21</ele>
        <time>2018-03-08T13:18:02Z</time>
      </trkpt>
      <trkpt lat="46.76046" lon="-1.83993">
        <ele>21</ele>
        <time>2018-03-08T13:19:02Z</time>
      </trkpt>
      <trkpt lat="46.76046" lon="-1.83973">
        <ele>21</ele>
        <time>2018-03-08T13:20:02Z</time>
      </trkpt>
      <trkpt lat="46.76047" lon="-1.83948">
        <ele>21</ele>
        <time>2018-03-08T13:21:02Z</time>
      </trkpt>
      <trkpt lat="46.76049" lon="-1.83928">
        <ele>21</ele>
        <time>2018-03-08T13:22:02Z</time>
      </trkpt>
      <trkpt lat="46.76049" lon="-1.83922">
        <ele>21</ele>
        <time>2018-03-08T13:23:02Z</time>
      </trkpt>
      <trkpt lat="46.76052" lon="-1.83903">
        <ele>21</ele>
        <time>2018-03-08T13:24:02Z</time>
      </trkpt>
      <trkpt lat="46.76054" lon="-1.83896">
        <ele>21</ele>
        <time>2018-03-08T13:25:02Z</time>
      </trkpt>
      <trkpt lat="46.76056" lon="-1.83892">
        <ele>21</ele>
        <time>2018-03-08T13:26:02Z</time>
      </trkpt>
      <trkpt lat="46.76075" lon="-1.8386">
        <ele>21</ele>
        <time>2018-03-08T13:27:02Z</time>
      </trkpt>
      <trkpt lat="46.76084" lon="-1.83843">
        <ele>21</ele>
        <time>2018-03-08T13:28:02Z</time>
      </trkpt>
      <trkpt lat="46.761" lon="-1.83814">
        <ele>21</ele>
        <time>2018-03-08T13:29:02Z</time>
      </trkpt>
      <trkpt lat="46.76119" lon="-1.8378">
        <ele>20</ele>
        <time>2018-03-08T13:30:02Z</time>
      </trkpt>
      <trkpt lat="46.76125" lon="-1.8377">
        <ele>20</ele>
        <time>2018-03-08T13:31:02Z</time>
      </trkpt>
      <trkpt lat="46.76129" lon="-1.83765">
        <ele>20</ele>
        <time>2018-03-08T13:32:02Z</time>
      </trkpt>
      <trkpt lat="46.76134" lon="-1.8376">
        <ele>20</ele>
        <time>2018-03-08T13:33:02Z</time>
      </trkpt>
      <trkpt lat="46.76139" lon="-1.83755">
        <ele>20</ele>
        <time>2018-03-08T13:34:02Z</time>
      </trkpt>
      <trkpt lat="46.76147" lon="-1.8375">
        <ele>20</ele>
        <time>2018-03-08T13:35:02Z</time>
      </trkpt>
      <trkpt lat="46.76168" lon="-1.83736">
        <ele>20</ele>
        <time>2018-03-08T13:36:02Z</time>
      </trkpt>
      <trkpt lat="46.76176" lon="-1.8373">
        <ele>20</ele>
        <time>2018-03-08T13:37:02Z</time>
      </trkpt>
      <trkpt lat="46.76182" lon="-1.83724">
        <ele>20</ele>
        <time>2018-03-08T13:38:02Z</time>
      </trkpt>
      <trkpt lat="46.76186" lon="-1.83718">
        <ele>19</ele>
        <time>2018-03-08T13:39:02Z</time>
      </trkpt>
      <trkpt lat="46.76191" lon="-1.8371">
        <ele>19</ele>
        <time>2018-03-08T13:40:02Z</time>
      </trkpt>
      <trkpt lat="46.76195" lon="-1.83703">
        <ele>19</ele>
        <time>2018-03-08T13:41:02Z</time>
      </trkpt>
      <trkpt lat="46.762" lon="-1.83696">
        <ele>19</ele>
        <time>2018-03-08T13:42:02Z</time>
      </trkpt>
      <trkpt lat="46.76207" lon="-1.83687">
        <ele>19</ele>
        <time>2018-03-08T13:43:02Z</time>
      </trkpt>
      <trkpt lat="46.7621" lon="-1.83684">
        <ele>19</ele>
        <time>2018-03-08T13:44:02Z</time>
      </trkpt>
      <trkpt lat="46.76212" lon="-1.83682">
        <ele>19</ele>
        <time>2018-03-08T13:45:02Z</time>
      </trkpt>
      <trkpt lat="46.76218" lon="-1.83677">
        <ele>19</ele>
        <time>2018-03-08T13:46:02Z</time>
      </trkpt>
      <trkpt lat="46.76226" lon="-1.83672">
        <ele>19</ele>
        <time>2018-03-08T13:47:02Z</time>
      </trkpt>
      <trkpt lat="46.76234" lon="-1.83668">
        <ele>19</ele>
        <time>2018-03-08T13:48:02Z</time>
      </trkpt>
      <trkpt lat="46.7624" lon="-1.83666">
        <ele>19</ele>
        <time>2018-03-08T13:49:02Z</time>
      </trkpt>
      <trkpt lat="46.76247" lon="-1.83667">
        <ele>19</ele>
        <time>2018-03-08T13:50:02Z</time>
      </trkpt>
      <trkpt lat="46.76247" lon="-1.83667">
        <ele>19</ele>
        <time>2018-03-08T13:51:02Z</time>
      </trkpt>
      <trkpt lat="46.76245" lon="-1.83656">
        <ele>19</ele>
        <time>2018-03-08T13:52:02Z</time>
      </trkpt>
      <trkpt lat="46.76244" lon="-1.83645">
        <ele>18</ele>
        <time>2018-03-08T13:53:02Z</time>
      </trkpt>
      <trkpt lat="46.76242" lon="-1.83635">
        <ele>18</ele>
        <time>2018-03-08T13:54:02Z</time>
      </trkpt>
      <trkpt lat="46.76241" lon="-1.83628">
        <ele>18</ele>
        <time>2018-03-08T13:55:02Z</time>
      </trkpt>
      <trkpt lat="46.76236" lon="-1.83607">
        <ele>18</ele>
        <time>2018-03-08T13:56:02Z</time>
      </trkpt>
      <trkpt lat="46.76235" lon="-1.83602">
        <ele>18</ele>
        <time>2018-03-08T13:57:02Z</time>
      </trkpt>
      <trkpt lat="46.76232" lon="-1.83593">
        <ele>17</ele>
        <time>2018-03-08T13:58:02Z</time>
      </trkpt>
      <trkpt lat="46.76229" lon="-1.83581">
        <ele>17</ele>
        <time>2018-03-08T13:59:02Z</time>
      </trkpt>
      <trkpt lat="46.76223" lon="-1.83558">
        <ele>17</ele>
        <time>2018-03-08T14:00:02Z</time>
      </trkpt>
      <trkpt lat="46.76221" lon="-1.83549">
        <ele>17</ele>
        <time>2018-03-08T14:01:02Z</time>
      </trkpt>
      <trkpt lat="46.76211" lon="-1.8351">
        <ele>17</ele>
        <time>2018-03-08T14:02:02Z</time>
      </trkpt>
      <trkpt lat="46.76199" lon="-1.83463">
        <ele>17</ele>
        <time>2018-03-08T14:03:02Z</time>
      </trkpt>
      <trkpt lat="46.76187" lon="-1.83416">
        <ele>17</ele>
        <time>2018-03-08T14:04:02Z</time>
      </trkpt>
      <trkpt lat="46.76182" lon="-1.834">
        <ele>17</ele>
        <time>2018-03-08T14:05:02Z</time>
      </trkpt>
      <trkpt lat="46.76165" lon="-1.83332">
        <ele>16</ele>
        <time>2018-03-08T14:06:02Z</time>
      </trkpt>
      <trkpt lat="46.76155" lon="-1.83296">
        <ele>15</ele>
        <time>2018-03-08T14:07:02Z</time>
      </trkpt>
      <trkpt lat="46.76147" lon="-1.83267">
        <ele>15</ele>
        <time>2018-03-08T14:08:02Z</time>
      </trkpt>
      <trkpt lat="46.76137" lon="-1.83226">
        <ele>14</ele>
        <time>2018-03-08T14:09:02Z</time>
      </trkpt>
      <trkpt lat="46.76134" lon="-1.83214">
        <ele>14</ele>
        <time>2018-03-08T14:10:02Z</time>
      </trkpt>
      <trkpt lat="46.76126" lon="-1.83183">
        <ele>13</ele>
        <time>2018-03-08T14:11:02Z</time>
      </trkpt>
      <trkpt lat="46.76113" lon="-1.83134">
        <ele>13</ele>
        <time>2018-03-08T14:12:02Z</time>
      </trkpt>
      <trkpt lat="46.76103" lon="-1.83097">
        <ele>13</ele>
        <time>2018-03-08T14:13:02Z</time>
      </trkpt>
      <trkpt lat="46.76093" lon="-1.83059">
        <ele>12</ele>
        <time>2018-03-08T14:14:02Z</time>
      </trkpt>
      <trkpt lat="46.76083" lon="-1.8302">
        <ele>11</ele>
        <time>2018-03-08T14:15:02Z</time>
      </trkpt>
      <trkpt lat="46.76069" lon="-1.82964">
        <ele>9</ele>
        <time>2018-03-08T14:16:02Z</time>
      </trkpt>
      <trkpt lat="46.76062" lon="-1.82937">
        <ele>8</ele>
        <time>2018-03-08T14:17:02Z</time>
      </trkpt>
      <trkpt lat="46.76055" lon="-1.82908">
        <ele>7</ele>
        <time>2018-03-08T14:18:02Z</time>
      </trkpt>
      <trkpt lat="46.76041" lon="-1.82855">
        <ele>8</ele>
        <time>2018-03-08T14:19:02Z</time>
      </trkpt>
      <trkpt lat="46.76032" lon="-1.82816">
        <ele>8</ele>
        <time>2018-03-08T14:20:02Z</time>
      </trkpt>
      <trkpt lat="46.76023" lon="-1.82781">
        <ele>8</ele>
        <time>2018-03-08T14:21:02Z</time>
      </trkpt>
      <trkpt lat="46.76021" lon="-1.82775">
        <ele>8</ele>
        <time>2018-03-08T14:22:02Z</time>
      </trkpt>
      <trkpt lat="46.7601" lon="-1.82731">
        <ele>8</ele>
        <time>2018-03-08T14:23:02Z</time>
      </trkpt>
      <trkpt lat="46.76007" lon="-1.8272">
        <ele>8</ele>
        <time>2018-03-08T14:24:02Z</time>
      </trkpt>
      <trkpt lat="46.75996" lon="-1.82677">
        <ele>8</ele>
        <time>2018-03-08T14:25:02Z</time>
      </trkpt>
      <trkpt lat="46.7598" lon="-1.82616">
        <ele>8</ele>
        <time>2018-03-08T14:26:02Z</time>
      </trkpt>
      <trkpt lat="46.75964" lon="-1.82552">
        <ele>8</ele>
        <time>2018-03-08T14:27:02Z</time>
      </trkpt>
      <trkpt lat="46.75946" lon="-1.82477">
        <ele>7</ele>
        <time>2018-03-08T14:28:02Z</time>
      </trkpt>
      <trkpt lat="46.75923" lon="-1.82387">
        <ele>7</ele>
        <time>2018-03-08T14:29:02Z</time>
      </trkpt>
      <trkpt lat="46.75913" lon="-1.82347">
        <ele>7</ele>
        <time>2018-03-08T14:30:02Z</time>
      </trkpt>
      <trkpt lat="46.75908" lon="-1.82329">
        <ele>7</ele>
        <time>2018-03-08T14:31:02Z</time>
      </trkpt>
      <trkpt lat="46.75905" lon="-1.82318">
        <ele>7</ele>
        <time>2018-03-08T14:32:02Z</time>
      </trkpt>
      <trkpt lat="46.759" lon="-1.82298">
        <ele>7</ele>
        <time>2018-03-08T14:33:02Z</time>
      </trkpt>
      <trkpt lat="46.75897" lon="-1.82285">
        <ele>7</ele>
        <time>2018-03-08T14:34:02Z</time>
      </trkpt>
      <trkpt lat="46.75893" lon="-1.82273">
        <ele>7</ele>
        <time>2018-03-08T14:35:02Z</time>
      </trkpt>
      <trkpt lat="46.75889" lon="-1.82262">
        <ele>7</ele>
        <time>2018-03-08T14:36:02Z</time>
      </trkpt>
      <trkpt lat="46.75886" lon="-1.82253">
        <ele>7</ele>
        <time>2018-03-08T14:37:02Z</time>
      </trkpt>
      <trkpt lat="46.75884" lon="-1.82249">
        <ele>7</ele>
        <time>2018-03-08T14:38:02Z</time>
      </trkpt>
      <trkpt lat="46.75883" lon="-1.82246">
        <ele>7</ele>
        <time>2018-03-08T14:39:02Z</time>
      </trkpt>
      <trkpt lat="46.75877" lon="-1.8223">
        <ele>7</ele>
        <time>2018-03-08T14:40:02Z</time>
      </trkpt>
      <trkpt lat="46.75867" lon="-1.82208">
        <ele>7</ele>
        <time>2018-03-08T14:41:02Z</time>
      </trkpt>
      <trkpt lat="46.75858" lon="-1.82191">
        <ele>7</ele>
        <time>2018-03-08T14:42:02Z</time>
      </trkpt>
      <trkpt lat="46.7585" lon="-1.82177">
        <ele>7</ele>
        <time>2018-03-08T14:43:02Z</time>
      </trkpt>
      <trkpt lat="46.7584" lon="-1.82159">
        <ele>7</ele>
        <time>2018-03-08T14:44:02Z</time>
      </trkpt>
      <trkpt lat="46.7583" lon="-1.82144">
        <ele>7</ele>
        <time>2018-03-08T14:45:02Z</time>
      </trkpt>
      <trkpt lat="46.75824" lon="-1.82136">
        <ele>7</ele>
        <time>2018-03-08T14:46:02Z</time>
      </trkpt>
      <trkpt lat="46.75815" lon="-1.82124">
        <ele>7</ele>
        <time>2018-03-08T14:47:02Z</time>
      </trkpt>
      <trkpt lat="46.75806" lon="-1.82114">
        <ele>7</ele>
        <time>2018-03-08T14:48:02Z</time>
      </trkpt>
      <trkpt lat="46.75796" lon="-1.82103">
        <ele>7</ele>
        <time>2018-03-08T14:49:02Z</time>
      </trkpt>
      <trkpt lat="46.75783" lon="-1.8209">
        <ele>7</ele>
        <time>2018-03-08T14:50:02Z</time>
      </trkpt>
      <trkpt lat="46.75767" lon="-1.82077">
        <ele>7</ele>
        <time>2018-03-08T14:51:02Z</time>
      </trkpt>
      <trkpt lat="46.75739" lon="-1.82054">
        <ele>7</ele>
        <time>2018-03-08T14:52:02Z</time>
      </trkpt>
      <trkpt lat="46.75704" lon="-1.82024">
        <ele>6</ele>
        <time>2018-03-08T14:53:02Z</time>
      </trkpt>
      <trkpt lat="46.75644" lon="-1.81975">
        <ele>6</ele>
        <time>2018-03-08T14:54:02Z</time>
      </trkpt>
      <trkpt lat="46.75614" lon="-1.81951">
        <ele>6</ele>
        <time>2018-03-08T14:55:02Z</time>
      </trkpt>
      <trkpt lat="46.75582" lon="-1.81925">
        <ele>7</ele>
        <time>2018-03-08T14:56:02Z</time>
      </trkpt>
      <trkpt lat="46.7555" lon="-1.81896">
        <ele>8</ele>
        <time>2018-03-08T14:57:02Z</time>
      </trkpt>
      <trkpt lat="46.75541" lon="-1.81887">
        <ele>8</ele>
        <time>2018-03-08T14:58:02Z</time>
      </trkpt>
      <trkpt lat="46.75533" lon="-1.81879">
        <ele>8</ele>
        <time>2018-03-08T14:59:02Z</time>
      </trkpt>
      <trkpt lat="46.75525" lon="-1.81869">
        <ele>8</ele>
        <time>2018-03-08T15:00:02Z</time>
      </trkpt>
      <trkpt lat="46.75516" lon="-1.81858">
        <ele>9</ele>
        <time>2018-03-08T15:01:02Z</time>
      </trkpt>
      <trkpt lat="46.75509" lon="-1.8185">
        <ele>9</ele>
        <time>2018-03-08T15:02:02Z</time>
      </trkpt>
      <trkpt lat="46.75502" lon="-1.8184">
        <ele>9</ele>
        <time>2018-03-08T15:03:02Z</time>
      </trkpt>
      <trkpt lat="46.75493" lon="-1.81829">
        <ele>9</ele>
        <time>2018-03-08T15:04:02Z</time>
      </trkpt>
      <trkpt lat="46.75484" lon="-1.81816">
        <ele>9</ele>
        <time>2018-03-08T15:05:02Z</time>
      </trkpt>
      <trkpt lat="46.75474" lon="-1.81802">
        <ele>9</ele>
        <time>2018-03-08T15:06:02Z</time>
      </trkpt>
      <trkpt lat="46.75467" lon="-1.8179">
        <ele>9</ele>
        <time>2018-03-08T15:07:02Z</time>
      </trkpt>
      <trkpt lat="46.7546" lon="-1.81778">
        <ele>9</ele>
        <time>2018-03-08T15:08:02Z</time>
      </trkpt>
      <trkpt lat="46.75456" lon="-1.81772">
        <ele>9</ele>
        <time>2018-03-08T15:09:02Z</time>
      </trkpt>
      <trkpt lat="46.75447" lon="-1.81754">
        <ele>9</ele>
        <time>2018-03-08T15:10:02Z</time>
      </trkpt>
      <trkpt lat="46.75429" lon="-1.81716">
        <ele>9</ele>
        <time>2018-03-08T15:11:02Z</time>
      </trkpt>
      <trkpt lat="46.75399" lon="-1.81648">
        <ele>9</ele>
        <time>2018-03-08T15:12:02Z</time>
      </trkpt>
      <trkpt lat="46.75378" lon="-1.81599">
        <ele>9</ele>
        <time>2018-03-08T15:13:02Z</time>
      </trkpt>
      <trkpt lat="46.75354" lon="-1.81545">
        <ele>8</ele>
        <time>2018-03-08T15:14:02Z</time>
      </trkpt>
      <trkpt lat="46.7533" lon="-1.81491">
        <ele>9</ele>
        <time>2018-03-08T15:15:02Z</time>
      </trkpt>
      <trkpt lat="46.75311" lon="-1.81446">
        <ele>9</ele>
        <time>2018-03-08T15:16:02Z</time>
      </trkpt>
      <trkpt lat="46.75278" lon="-1.81373">
        <ele>10</ele>
        <time>2018-03-08T15:17:02Z</time>
      </trkpt>
      <trkpt lat="46.75272" lon="-1.81358">
        <ele>10</ele>
        <time>2018-03-08T15:18:02Z</time>
      </trkpt>
      <trkpt lat="46.75256" lon="-1.81322">
        <ele>10</ele>
        <time>2018-03-08T15:19:02Z</time>
      </trkpt>
      <trkpt lat="46.75244" lon="-1.81293">
        <ele>10</ele>
        <time>2018-03-08T15:20:02Z</time>
      </trkpt>
      <trkpt lat="46.75226" lon="-1.81242">
        <ele>10</ele>
        <time>2018-03-08T15:21:02Z</time>
      </trkpt>
      <trkpt lat="46.7522" lon="-1.81224">
        <ele>10</ele>
        <time>2018-03-08T15:22:02Z</time>
      </trkpt>
      <trkpt lat="46.75215" lon="-1.81201">
        <ele>10</ele>
        <time>2018-03-08T15:23:02Z</time>
      </trkpt>
      <trkpt lat="46.7521" lon="-1.81184">
        <ele>10</ele>
        <time>2018-03-08T15:24:02Z</time>
      </trkpt>
      <trkpt lat="46.75207" lon="-1.81169">
        <ele>10</ele>
        <time>2018-03-08T15:25:02Z</time>
      </trkpt>
      <trkpt lat="46.75204" lon="-1.81152">
        <ele>10</ele>
        <time>2018-03-08T15:26:02Z</time>
      </trkpt>
      <trkpt lat="46.752" lon="-1.81132">
        <ele>10</ele>
        <time>2018-03-08T15:27:02Z</time>
      </trkpt>
      <trkpt lat="46.75195" lon="-1.81098">
        <ele>10</ele>
        <time>2018-03-08T15:28:02Z</time>
      </trkpt>
      <trkpt lat="46.75185" lon="-1.81037">
        <ele>10</ele>
        <time>2018-03-08T15:29:02Z</time>
      </trkpt>
      <trkpt lat="46.75169" lon="-1.80939">
        <ele>11</ele>
        <time>2018-03-08T15:30:02Z</time>
      </trkpt>
      <trkpt lat="46.75157" lon="-1.80862">
        <ele>11</ele>
        <time>2018-03-08T15:31:02Z</time>
      </trkpt>
      <trkpt lat="46.75144" lon="-1.80784">
        <ele>11</ele>
        <time>2018-03-08T15:32:02Z</time>
      </trkpt>
      <trkpt lat="46.75135" lon="-1.8073">
        <ele>11</ele>
        <time>2018-03-08T15:33:02Z</time>
      </trkpt>
      <trkpt lat="46.7513" lon="-1.80699">
        <ele>11</ele>
        <time>2018-03-08T15:34:02Z</time>
      </trkpt>
      <trkpt lat="46.75127" lon="-1.80676">
        <ele>11</ele>
        <time>2018-03-08T15:35:02Z</time>
      </trkpt>
      <trkpt lat="46.75115" lon="-1.80604">
        <ele>13</ele>
        <time>2018-03-08T15:36:02Z</time>
      </trkpt>
      <trkpt lat="46.75113" lon="-1.80589">
        <ele>14</ele>
        <time>2018-03-08T15:37:02Z</time>
      </trkpt>
      <trkpt lat="46.75102" lon="-1.80526">
        <ele>14</ele>
        <time>2018-03-08T15:38:02Z</time>
      </trkpt>
      <trkpt lat="46.75097" lon="-1.80489">
        <ele>15</ele>
        <time>2018-03-08T15:39:02Z</time>
      </trkpt>
      <trkpt lat="46.75088" lon="-1.80437">
        <ele>14</ele>
        <time>2018-03-08T15:40:02Z</time>
      </trkpt>
      <trkpt lat="46.75079" lon="-1.8038">
        <ele>15</ele>
        <time>2018-03-08T15:41:02Z</time>
      </trkpt>
      <trkpt lat="46.75066" lon="-1.803">
        <ele>16</ele>
        <time>2018-03-08T15:42:02Z</time>
      </trkpt>
      <trkpt lat="46.75066" lon="-1.80298">
        <ele>16</ele>
        <time>2018-03-08T15:43:02Z</time>
      </trkpt>
      <trkpt lat="46.75059" lon="-1.80247">
        <ele>16</ele>
        <time>2018-03-08T15:44:02Z</time>
      </trkpt>
      <trkpt lat="46.75055" lon="-1.80218">
        <ele>15</ele>
        <time>2018-03-08T15:45:02Z</time>
      </trkpt>
      <trkpt lat="46.75048" lon="-1.8018">
        <ele>13</ele>
        <time>2018-03-08T15:46:02Z</time>
      </trkpt>
      <trkpt lat="46.75039" lon="-1.80127">
        <ele>12</ele>
        <time>2018-03-08T15:47:02Z</time>
      </trkpt>
      <trkpt lat="46.75039" lon="-1.80125">
        <ele>12</ele>
        <time>2018-03-08T15:48:02Z</time>
      </trkpt>
      <trkpt lat="46.75034" lon="-1.80092">
        <ele>12</ele>
        <time>2018-03-08T15:49:02Z</time>
      </trkpt>
      <trkpt lat="46.75026" lon="-1.80044">
        <ele>13</ele>
        <time>2018-03-08T15:50:02Z</time>
      </trkpt>
      <trkpt lat="46.75021" lon="-1.80014">
        <ele>13</ele>
        <time>2018-03-08T15:51:02Z</time>
      </trkpt>
      <trkpt lat="46.75017" lon="-1.79991">
        <ele>13</ele>
        <time>2018-03-08T15:52:02Z</time>
      </trkpt>
      <trkpt lat="46.75017" lon="-1.79991">
        <ele>13</ele>
        <time>2018-03-08T15:53:02Z</time>
      </trkpt>
      <trkpt lat="46.75035" lon="-1.79982">
        <ele>13</ele>
        <time>2018-03-08T15:54:02Z</time>
      </trkpt>
      <trkpt lat="46.75064" lon="-1.79966">
        <ele>14</ele>
        <time>2018-03-08T15:55:02Z</time>
      </trkpt>
      <trkpt lat="46.75099" lon="-1.79949">
        <ele>14</ele>
        <time>2018-03-08T15:56:02Z</time>
      </trkpt>
      <trkpt lat="46.75103" lon="-1.79946">
        <ele>14</ele>
        <time>2018-03-08T15:57:02Z</time>
      </trkpt>
      <trkpt lat="46.75109" lon="-1.79943">
        <ele>14</ele>
        <time>2018-03-08T15:58:02Z</time>
      </trkpt>
      <trkpt lat="46.75115" lon="-1.79936">
        <ele>15</ele>
        <time>2018-03-08T15:59:02Z</time>
      </trkpt>
      <trkpt lat="46.7512" lon="-1.79928">
        <ele>15</ele>
        <time>2018-03-08T16:00:02Z</time>
      </trkpt>
      <trkpt lat="46.75124" lon="-1.79919">
        <ele>15</ele>
        <time>2018-03-08T16:01:02Z</time>
      </trkpt>
      <trkpt lat="46.75131" lon="-1.79902">
        <ele>15</ele>
        <time>2018-03-08T16:02:02Z</time>
      </trkpt>
      <trkpt lat="46.75142" lon="-1.79868">
        <ele>15</ele>
        <time>2018-03-08T16:03:02Z</time>
      </trkpt>
      <trkpt lat="46.7515" lon="-1.79844">
        <ele>15</ele>
        <time>2018-03-08T16:04:02Z</time>
      </trkpt>
      <trkpt lat="46.75159" lon="-1.79816">
        <ele>16</ele>
        <time>2018-03-08T16:05:02Z</time>
      </trkpt>
      <trkpt lat="46.75165" lon="-1.79795">
        <ele>16</ele>
        <time>2018-03-08T16:06:02Z</time>
      </trkpt>
      <trkpt lat="46.75169" lon="-1.79774">
        <ele>17</ele>
        <time>2018-03-08T16:07:02Z</time>
      </trkpt>
      <trkpt lat="46.75174" lon="-1.79754">
        <ele>17</ele>
        <time>2018-03-08T16:08:02Z</time>
      </trkpt>
      <trkpt lat="46.75177" lon="-1.79742">
        <ele>17</ele>
        <time>2018-03-08T16:09:02Z</time>
      </trkpt>
      <trkpt lat="46.75183" lon="-1.79729">
        <ele>17</ele>
        <time>2018-03-08T16:10:02Z</time>
      </trkpt>
      <trkpt lat="46.752" lon="-1.79697">
        <ele>17</ele>
        <time>2018-03-08T16:11:02Z</time>
      </trkpt>
      <trkpt lat="46.75209" lon="-1.79681">
        <ele>17</ele>
        <time>2018-03-08T16:12:02Z</time>
      </trkpt>
      <trkpt lat="46.75216" lon="-1.79667">
        <ele>17</ele>
        <time>2018-03-08T16:13:02Z</time>
      </trkpt>
      <trkpt lat="46.75222" lon="-1.79655">
        <ele>17</ele>
        <time>2018-03-08T16:14:02Z</time>
      </trkpt>
      <trkpt lat="46.75228" lon="-1.79642">
        <ele>16</ele>
        <time>2018-03-08T16:15:02Z</time>
      </trkpt>
      <trkpt lat="46.75232" lon="-1.79628">
        <ele>16</ele>
        <time>2018-03-08T16:16:02Z</time>
      </trkpt>
      <trkpt lat="46.75241" lon="-1.79594">
        <ele>15</ele>
        <time>2018-03-08T16:17:02Z</time>
      </trkpt>
      <trkpt lat="46.75245" lon="-1.79573">
        <ele>15</ele>
        <time>2018-03-08T16:18:02Z</time>
      </trkpt>
      <trkpt lat="46.75248" lon="-1.79559">
        <ele>14</ele>
        <time>2018-03-08T16:19:02Z</time>
      </trkpt>
      <trkpt lat="46.75251" lon="-1.79544">
        <ele>14</ele>
        <time>2018-03-08T16:20:02Z</time>
      </trkpt>
      <trkpt lat="46.75252" lon="-1.79539">
        <ele>14</ele>
        <time>2018-03-08T16:21:02Z</time>
      </trkpt>
      <trkpt lat="46.75254" lon="-1.79519">
        <ele>14</ele>
        <time>2018-03-08T16:22:02Z</time>
      </trkpt>
      <trkpt lat="46.75256" lon="-1.79494">
        <ele>13</ele>
        <time>2018-03-08T16:23:02Z</time>
      </trkpt>
      <trkpt lat="46.75259" lon="-1.79456">
        <ele>13</ele>
        <time>2018-03-08T16:24:02Z</time>
      </trkpt>
      <trkpt lat="46.75261" lon="-1.79439">
        <ele>13</ele>
        <time>2018-03-08T16:25:02Z</time>
      </trkpt>
      <trkpt lat="46.75265" lon="-1.79422">
        <ele>12</ele>
        <time>2018-03-08T16:26:02Z</time>
      </trkpt>
      <trkpt lat="46.75268" lon="-1.79409">
        <ele>12</ele>
        <time>2018-03-08T16:27:02Z</time>
      </trkpt>
      <trkpt lat="46.75275" lon="-1.79388">
        <ele>12</ele>
        <time>2018-03-08T16:28:02Z</time>
      </trkpt>
      <trkpt lat="46.75287" lon="-1.79355">
        <ele>12</ele>
        <time>2018-03-08T16:29:02Z</time>
      </trkpt>
      <trkpt lat="46.75296" lon="-1.79333">
        <ele>11</ele>
        <time>2018-03-08T16:30:02Z</time>
      </trkpt>
      <trkpt lat="46.75303" lon="-1.79321">
        <ele>11</ele>
        <time>2018-03-08T16:31:02Z</time>
      </trkpt>
      <trkpt lat="46.7531" lon="-1.79308">
        <ele>11</ele>
        <time>2018-03-08T16:32:02Z</time>
      </trkpt>
      <trkpt lat="46.75327" lon="-1.79285">
        <ele>11</ele>
        <time>2018-03-08T16:33:02Z</time>
      </trkpt>
      <trkpt lat="46.75335" lon="-1.79274">
        <ele>11</ele>
        <time>2018-03-08T16:34:02Z</time>
      </trkpt>
      <trkpt lat="46.7534" lon="-1.79264">
        <ele>12</ele>
        <time>2018-03-08T16:35:02Z</time>
      </trkpt>
      <trkpt lat="46.75345" lon="-1.79253">
        <ele>12</ele>
        <time>2018-03-08T16:36:02Z</time>
      </trkpt>
      <trkpt lat="46.75349" lon="-1.79239">
        <ele>12</ele>
        <time>2018-03-08T16:37:02Z</time>
      </trkpt>
      <trkpt lat="46.7536" lon="-1.79197">
        <ele>14</ele>
        <time>2018-03-08T16:38:02Z</time>
      </trkpt>
      <trkpt lat="46.75364" lon="-1.79181">
        <ele>15</ele>
        <time>2018-03-08T16:39:02Z</time>
      </trkpt>
      <trkpt lat="46.75365" lon="-1.79171">
        <ele>15</ele>
        <time>2018-03-08T16:40:02Z</time>
      </trkpt>
      <trkpt lat="46.75364" lon="-1.79163">
        <ele>15</ele>
        <time>2018-03-08T16:41:02Z</time>
      </trkpt>
      <trkpt lat="46.75364" lon="-1.79163">
        <ele>15</ele>
        <time>2018-03-08T16:42:02Z</time>
      </trkpt>
      <trkpt lat="46.75363" lon="-1.79154">
        <ele>15</ele>
        <time>2018-03-08T16:43:02Z</time>
      </trkpt>
      <trkpt lat="46.7536" lon="-1.79143">
        <ele>15</ele>
        <time>2018-03-08T16:44:02Z</time>
      </trkpt>
      <trkpt lat="46.75353" lon="-1.79124">
        <ele>15</ele>
        <time>2018-03-08T16:45:02Z</time>
      </trkpt>
      <trkpt lat="46.75342" lon="-1.79098">
        <ele>15</ele>
        <time>2018-03-08T16:46:02Z</time>
      </trkpt>
      <trkpt lat="46.75339" lon="-1.79089">
        <ele>15</ele>
        <time>2018-03-08T16:47:02Z</time>
      </trkpt>
      <trkpt lat="46.75321" lon="-1.79043">
        <ele>15</ele>
        <time>2018-03-08T16:48:02Z</time>
      </trkpt>
      <trkpt lat="46.75303" lon="-1.78996">
        <ele>16</ele>
        <time>2018-03-08T16:49:02Z</time>
      </trkpt>
      <trkpt lat="46.75286" lon="-1.78949">
        <ele>16</ele>
        <time>2018-03-08T16:50:02Z</time>
      </trkpt>
      <trkpt lat="46.75272" lon="-1.78914">
        <ele>16</ele>
        <time>2018-03-08T16:51:02Z</time>
      </trkpt>
      <trkpt lat="46.75262" lon="-1.78886">
        <ele>16</ele>
        <time>2018-03-08T16:52:02Z</time>
      </trkpt>
      <trkpt lat="46.75262" lon="-1.78886">
        <ele>16</ele>
        <time>2018-03-08T16:53:02Z</time>
      </trkpt>
      <trkpt lat="46.75253" lon="-1.78857">
        <ele>16</ele>
        <time>2018-03-08T16:54:02Z</time>
      </trkpt>
      <trkpt lat="46.75247" lon="-1.78833">
        <ele>15</ele>
        <time>2018-03-08T16:55:02Z</time>
      </trkpt>
      <trkpt lat="46.75241" lon="-1.78811">
        <ele>14</ele>
        <time>2018-03-08T16:56:02Z</time>
      </trkpt>
      <trkpt lat="46.75235" lon="-1.78787">
        <ele>14</ele>
        <time>2018-03-08T16:57:02Z</time>
      </trkpt>
      <trkpt lat="46.75226" lon="-1.78763">
        <ele>14</ele>
        <time>2018-03-08T16:58:02Z</time>
      </trkpt>
      <trkpt lat="46.7522" lon="-1.78743">
        <ele>13</ele>
        <time>2018-03-08T16:59:02Z</time>
      </trkpt>
      <trkpt lat="46.7521" lon="-1.78716">
        <ele>14</ele>
        <time>2018-03-08T17:00:02Z</time>
      </trkpt>
      <trkpt lat="46.75198" lon="-1.78686">
        <ele>15</ele>
        <time>2018-03-08T17:01:02Z</time>
      </trkpt>
      <trkpt lat="46.75189" lon="-1.78661">
        <ele>15</ele>
        <time>2018-03-08T17:02:02Z</time>
      </trkpt>
      <trkpt lat="46.75184" lon="-1.78651">
        <ele>15</ele>
        <time>2018-03-08T17:03:02Z</time>
      </trkpt>
      <trkpt lat="46.75177" lon="-1.78639">
        <ele>15</ele>
        <time>2018-03-08T17:04:02Z</time>
      </trkpt>
      <trkpt lat="46.75172" lon="-1.78629">
        <ele>15</ele>
        <time>2018-03-08T17:05:02Z</time>
      </trkpt>
      <trkpt lat="46.75158" lon="-1.78607">
        <ele>16</ele>
        <time>2018-03-08T17:06:02Z</time>
      </trkpt>
      <trkpt lat="46.75149" lon="-1.78589">
        <ele>16</ele>
        <time>2018-03-08T17:07:02Z</time>
      </trkpt>
      <trkpt lat="46.75147" lon="-1.78584">
        <ele>16</ele>
        <time>2018-03-08T17:08:02Z</time>
      </trkpt>
      <trkpt lat="46.75132" lon="-1.78553">
        <ele>16</ele>
        <time>2018-03-08T17:09:02Z</time>
      </trkpt>
      <trkpt lat="46.75127" lon="-1.78542">
        <ele>16</ele>
        <time>2018-03-08T17:10:02Z</time>
      </trkpt>
      <trkpt lat="46.75112" lon="-1.78508">
        <ele>16</ele>
        <time>2018-03-08T17:11:02Z</time>
      </trkpt>
      <trkpt lat="46.75094" lon="-1.78467">
        <ele>16</ele>
        <time>2018-03-08T17:12:02Z</time>
      </trkpt>
      <trkpt lat="46.75079" lon="-1.78432">
        <ele>16</ele>
        <time>2018-03-08T17:13:02Z</time>
      </trkpt>
      <trkpt lat="46.75079" lon="-1.78432">
        <ele>16</ele>
        <time>2018-03-08T17:14:02Z</time>
      </trkpt>
      <trkpt lat="46.75074" lon="-1.78419">
        <ele>16</ele>
        <time>2018-03-08T17:15:02Z</time>
      </trkpt>
      <trkpt lat="46.75067" lon="-1.784">
        <ele>16</ele>
        <time>2018-03-08T17:16:02Z</time>
      </trkpt>
      <trkpt lat="46.75055" lon="-1.78369">
        <ele>16</ele>
        <time>2018-03-08T17:17:02Z</time>
      </trkpt>
      <trkpt lat="46.75046" lon="-1.78342">
        <ele>16</ele>
        <time>2018-03-08T17:18:02Z</time>
      </trkpt>
      <trkpt lat="46.75039" lon="-1.78322">
        <ele>17</ele>
        <time>2018-03-08T17:19:02Z</time>
      </trkpt>
      <trkpt lat="46.7503" lon="-1.78289">
        <ele>17</ele>
        <time>2018-03-08T17:20:02Z</time>
      </trkpt>
      <trkpt lat="46.75021" lon="-1.78257">
        <ele>17</ele>
        <time>2018-03-08T17:21:02Z</time>
      </trkpt>
      <trkpt lat="46.75015" lon="-1.78234">
        <ele>17</ele>
        <time>2018-03-08T17:22:02Z</time>
      </trkpt>
      <trkpt lat="46.75005" lon="-1.78197">
        <ele>17</ele>
        <time>2018-03-08T17:23:02Z</time>
      </trkpt>
      <trkpt lat="46.74976" lon="-1.781">
        <ele>18</ele>
        <time>2018-03-08T17:24:02Z</time>
      </trkpt>
      <trkpt lat="46.74963" lon="-1.78056">
        <ele>19</ele>
        <time>2018-03-08T17:25:02Z</time>
      </trkpt>
      <trkpt lat="46.74949" lon="-1.78004">
        <ele>21</ele>
        <time>2018-03-08T17:26:02Z</time>
      </trkpt>
      <trkpt lat="46.74945" lon="-1.77983">
        <ele>21</ele>
        <time>2018-03-08T17:27:02Z</time>
      </trkpt>
      <trkpt lat="46.7494" lon="-1.77952">
        <ele>22</ele>
        <time>2018-03-08T17:28:02Z</time>
      </trkpt>
      <trkpt lat="46.74929" lon="-1.77876">
        <ele>23</ele>
        <time>2018-03-08T17:29:02Z</time>
      </trkpt>
      <trkpt lat="46.74921" lon="-1.77813">
        <ele>24</ele>
        <time>2018-03-08T17:30:02Z</time>
      </trkpt>
      <trkpt lat="46.74919" lon="-1.77789">
        <ele>24</ele>
        <time>2018-03-08T17:31:02Z</time>
      </trkpt>
      <trkpt lat="46.74917" lon="-1.77766">
        <ele>24</ele>
        <time>2018-03-08T17:32:02Z</time>
      </trkpt>
      <trkpt lat="46.74916" lon="-1.77737">
        <ele>24</ele>
        <time>2018-03-08T17:33:02Z</time>
      </trkpt>
      <trkpt lat="46.74916" lon="-1.77692">
        <ele>23</ele>
        <time>2018-03-08T17:34:02Z</time>
      </trkpt>
      <trkpt lat="46.74916" lon="-1.77646">
        <ele>23</ele>
        <time>2018-03-08T17:35:02Z</time>
      </trkpt>
      <trkpt lat="46.74918" lon="-1.77588">
        <ele>24</ele>
        <time>2018-03-08T17:36:02Z</time>
      </trkpt>
      <trkpt lat="46.74921" lon="-1.77541">
        <ele>24</ele>
        <time>2018-03-08T17:37:02Z</time>
      </trkpt>
      <trkpt lat="46.74922" lon="-1.775">
        <ele>25</ele>
        <time>2018-03-08T17:38:02Z</time>
      </trkpt>
      <trkpt lat="46.74922" lon="-1.7749">
        <ele>25</ele>
        <time>2018-03-08T17:39:02Z</time>
      </trkpt>
      <trkpt lat="46.74922" lon="-1.7748">
        <ele>24</ele>
        <time>2018-03-08T17:40:02Z</time>
      </trkpt>
      <trkpt lat="46.74922" lon="-1.77474">
        <ele>24</ele>
        <time>2018-03-08T17:41:02Z</time>
      </trkpt>
      <trkpt lat="46.7492" lon="-1.77451">
        <ele>24</ele>
        <time>2018-03-08T17:42:02Z</time>
      </trkpt>
      <trkpt lat="46.74916" lon="-1.77421">
        <ele>23</ele>
        <time>2018-03-08T17:43:02Z</time>
      </trkpt>
      <trkpt lat="46.74912" lon="-1.77395">
        <ele>23</ele>
        <time>2018-03-08T17:44:02Z</time>
      </trkpt>
      <trkpt lat="46.74908" lon="-1.77372">
        <ele>22</ele>
        <time>2018-03-08T17:45:02Z</time>
      </trkpt>
      <trkpt lat="46.74906" lon="-1.77348">
        <ele>22</ele>
        <time>2018-03-08T17:46:02Z</time>
      </trkpt>
      <trkpt lat="46.74905" lon="-1.77324">
        <ele>22</ele>
        <time>2018-03-08T17:47:02Z</time>
      </trkpt>
      <trkpt lat="46.74905" lon="-1.77302">
        <ele>22</ele>
        <time>2018-03-08T17:48:02Z</time>
      </trkpt>
      <trkpt lat="46.74907" lon="-1.77273">
        <ele>22</ele>
        <time>2018-03-08T17:49:02Z</time>
      </trkpt>
      <trkpt lat="46.74913" lon="-1.77212">
        <ele>23</ele>
        <time>2018-03-08T17:50:02Z</time>
      </trkpt>
      <trkpt lat="46.74919" lon="-1.7714">
        <ele>24</ele>
        <time>2018-03-08T17:51:02Z</time>
      </trkpt>
      <trkpt lat="46.74925" lon="-1.77082">
        <ele>25</ele>
        <time>2018-03-08T17:52:02Z</time>
      </trkpt>
      <trkpt lat="46.74927" lon="-1.77037">
        <ele>24</ele>
        <time>2018-03-08T17:53:02Z</time>
      </trkpt>
      <trkpt lat="46.74927" lon="-1.7701">
        <ele>23</ele>
        <time>2018-03-08T17:54:02Z</time>
      </trkpt>
      <trkpt lat="46.74928" lon="-1.76988">
        <ele>23</ele>
        <time>2018-03-08T17:55:02Z</time>
      </trkpt>
      <trkpt lat="46.74927" lon="-1.76934">
        <ele>23</ele>
        <time>2018-03-08T17:56:02Z</time>
      </trkpt>
      <trkpt lat="46.74926" lon="-1.76873">
        <ele>23</ele>
        <time>2018-03-08T17:57:02Z</time>
      </trkpt>
      <trkpt lat="46.74924" lon="-1.76821">
        <ele>24</ele>
        <time>2018-03-08T17:58:02Z</time>
      </trkpt>
      <trkpt lat="46.74924" lon="-1.76725">
        <ele>22</ele>
        <time>2018-03-08T17:59:02Z</time>
      </trkpt>
      <trkpt lat="46.74923" lon="-1.76687">
        <ele>21</ele>
        <time>2018-03-08T18:00:02Z</time>
      </trkpt>
      <trkpt lat="46.74923" lon="-1.76647">
        <ele>21</ele>
        <time>2018-03-08T18:01:02Z</time>
      </trkpt>
      <trkpt lat="46.74925" lon="-1.76613">
        <ele>20</ele>
        <time>2018-03-08T18:02:02Z</time>
      </trkpt>
      <trkpt lat="46.74929" lon="-1.76585">
        <ele>20</ele>
        <time>2018-03-08T18:03:02Z</time>
      </trkpt>
      <trkpt lat="46.74936" lon="-1.76546">
        <ele>19</ele>
        <time>2018-03-08T18:04:02Z</time>
      </trkpt>
      <trkpt lat="46.74953" lon="-1.76461">
        <ele>18</ele>
        <time>2018-03-08T18:05:02Z</time>
      </trkpt>
      <trkpt lat="46.74957" lon="-1.76436">
        <ele>18</ele>
        <time>2018-03-08T18:06:02Z</time>
      </trkpt>
      <trkpt lat="46.74962" lon="-1.76416">
        <ele>17</ele>
        <time>2018-03-08T18:07:02Z</time>
      </trkpt>
      <trkpt lat="46.74964" lon="-1.76405">
        <ele>17</ele>
        <time>2018-03-08T18:08:02Z</time>
      </trkpt>
      <trkpt lat="46.74968" lon="-1.76395">
        <ele>17</ele>
        <time>2018-03-08T18:09:02Z</time>
      </trkpt>
      <trkpt lat="46.74971" lon="-1.76384">
        <ele>17</ele>
        <time>2018-03-08T18:10:02Z</time>
      </trkpt>
      <trkpt lat="46.74978" lon="-1.76363">
        <ele>16</ele>
        <time>2018-03-08T18:11:02Z</time>
      </trkpt>
      <trkpt lat="46.7501" lon="-1.76285">
        <ele>16</ele>
        <time>2018-03-08T18:12:02Z</time>
      </trkpt>
      <trkpt lat="46.75016" lon="-1.76273">
        <ele>16</ele>
        <time>2018-03-08T18:13:02Z</time>
      </trkpt>
      <trkpt lat="46.75021" lon="-1.76262">
        <ele>16</ele>
        <time>2018-03-08T18:14:02Z</time>
      </trkpt>
      <trkpt lat="46.75057" lon="-1.76193">
        <ele>16</ele>
        <time>2018-03-08T18:15:02Z</time>
      </trkpt>
      <trkpt lat="46.75107" lon="-1.761">
        <ele>18</ele>
        <time>2018-03-08T18:16:02Z</time>
      </trkpt>
      <trkpt lat="46.75136" lon="-1.76043">
        <ele>18</ele>
        <time>2018-03-08T18:17:02Z</time>
      </trkpt>
      <trkpt lat="46.75136" lon="-1.76043">
        <ele>18</ele>
        <time>2018-03-08T18:18:02Z</time>
      </trkpt>
      <trkpt lat="46.75144" lon="-1.7603">
        <ele>18</ele>
        <time>2018-03-08T18:19:02Z</time>
      </trkpt>
      <trkpt lat="46.75158" lon="-1.76003">
        <ele>19</ele>
        <time>2018-03-08T18:20:02Z</time>
      </trkpt>
      <trkpt lat="46.75176" lon="-1.75967">
        <ele>18</ele>
        <time>2018-03-08T18:21:02Z</time>
      </trkpt>
      <trkpt lat="46.75185" lon="-1.75944">
        <ele>17</ele>
        <time>2018-03-08T18:22:02Z</time>
      </trkpt>
      <trkpt lat="46.75191" lon="-1.75928">
        <ele>16</ele>
        <time>2018-03-08T18:23:02Z</time>
      </trkpt>
      <trkpt lat="46.75195" lon="-1.75912">
        <ele>16</ele>
        <time>2018-03-08T18:24:02Z</time>
      </trkpt>
      <trkpt lat="46.75198" lon="-1.75894">
        <ele>15</ele>
        <time>2018-03-08T18:25:02Z</time>
      </trkpt>
      <trkpt lat="46.75199" lon="-1.75875">
        <ele>15</ele>
        <time>2018-03-08T18:26:02Z</time>
      </trkpt>
      <trkpt lat="46.752" lon="-1.75856">
        <ele>14</ele>
        <time>2018-03-08T18:27:02Z</time>
      </trkpt>
      <trkpt lat="46.752" lon="-1.75827">
        <ele>13</ele>
        <time>2018-03-08T18:28:02Z</time>
      </trkpt>
      <trkpt lat="46.75198" lon="-1.75796">
        <ele>14</ele>
        <time>2018-03-08T18:29:02Z</time>
      </trkpt>
      <trkpt lat="46.75197" lon="-1.75768">
        <ele>14</ele>
        <time>2018-03-08T18:30:02Z</time>
      </trkpt>
      <trkpt lat="46.75196" lon="-1.75745">
        <ele>15</ele>
        <time>2018-03-08T18:31:02Z</time>
      </trkpt>
      <trkpt lat="46.75199" lon="-1.75718">
        <ele>16</ele>
        <time>2018-03-08T18:32:02Z</time>
      </trkpt>
      <trkpt lat="46.752" lon="-1.75697">
        <ele>17</ele>
        <time>2018-03-08T18:33:02Z</time>
      </trkpt>
      <trkpt lat="46.75211" lon="-1.75626">
        <ele>20</ele>
        <time>2018-03-08T18:34:02Z</time>
      </trkpt>
      <trkpt lat="46.75217" lon="-1.75588">
        <ele>22</ele>
        <time>2018-03-08T18:35:02Z</time>
      </trkpt>
      <trkpt lat="46.75225" lon="-1.75516">
        <ele>24</ele>
        <time>2018-03-08T18:36:02Z</time>
      </trkpt>
      <trkpt lat="46.75238" lon="-1.75418">
        <ele>29</ele>
        <time>2018-03-08T18:37:02Z</time>
      </trkpt>
      <trkpt lat="46.75249" lon="-1.75356">
        <ele>30</ele>
        <time>2018-03-08T18:38:02Z</time>
      </trkpt>
      <trkpt lat="46.75258" lon="-1.75288">
        <ele>31</ele>
        <time>2018-03-08T18:39:02Z</time>
      </trkpt>
      <trkpt lat="46.75266" lon="-1.75244">
        <ele>31</ele>
        <time>2018-03-08T18:40:02Z</time>
      </trkpt>
      <trkpt lat="46.7527" lon="-1.7523">
        <ele>31</ele>
        <time>2018-03-08T18:41:02Z</time>
      </trkpt>
      <trkpt lat="46.75275" lon="-1.75212">
        <ele>31</ele>
        <time>2018-03-08T18:42:02Z</time>
      </trkpt>
      <trkpt lat="46.75277" lon="-1.75204">
        <ele>31</ele>
        <time>2018-03-08T18:43:02Z</time>
      </trkpt>
      <trkpt lat="46.75279" lon="-1.75193">
        <ele>31</ele>
        <time>2018-03-08T18:44:02Z</time>
      </trkpt>
      <trkpt lat="46.7528" lon="-1.75184">
        <ele>31</ele>
        <time>2018-03-08T18:45:02Z</time>
      </trkpt>
      <trkpt lat="46.7528" lon="-1.75176">
        <ele>31</ele>
        <time>2018-03-08T18:46:02Z</time>
      </trkpt>
      <trkpt lat="46.7528" lon="-1.75167">
        <ele>31</ele>
        <time>2018-03-08T18:47:02Z</time>
      </trkpt>
      <trkpt lat="46.7528" lon="-1.75158">
        <ele>31</ele>
        <time>2018-03-08T18:48:02Z</time>
      </trkpt>
      <trkpt lat="46.75279" lon="-1.75149">
        <ele>31</ele>
        <time>2018-03-08T18:49:02Z</time>
      </trkpt>
      <trkpt lat="46.75275" lon="-1.75121">
        <ele>31</ele>
        <time>2018-03-08T18:50:02Z</time>
      </trkpt>
      <trkpt lat="46.75269" lon="-1.75092">
        <ele>31</ele>
        <time>2018-03-08T18:51:02Z</time>
      </trkpt>
      <trkpt lat="46.75266" lon="-1.75076">
        <ele>32</ele>
        <time>2018-03-08T18:52:02Z</time>
      </trkpt>
      <trkpt lat="46.75263" lon="-1.75047">
        <ele>32</ele>
        <time>2018-03-08T18:53:02Z</time>
      </trkpt>
      <trkpt lat="46.75261" lon="-1.75016">
        <ele>33</ele>
        <time>2018-03-08T18:54:02Z</time>
      </trkpt>
      <trkpt lat="46.75258" lon="-1.74982">
        <ele>33</ele>
        <time>2018-03-08T18:55:02Z</time>
      </trkpt>
      <trkpt lat="46.75257" lon="-1.74948">
        <ele>33</ele>
        <time>2018-03-08T18:56:02Z</time>
      </trkpt>
      <trkpt lat="46.75256" lon="-1.74937">
        <ele>33</ele>
        <time>2018-03-08T18:57:02Z</time>
      </trkpt>
      <trkpt lat="46.75254" lon="-1.74915">
        <ele>33</ele>
        <time>2018-03-08T18:58:02Z</time>
      </trkpt>
      <trkpt lat="46.75252" lon="-1.74906">
        <ele>33</ele>
        <time>2018-03-08T18:59:02Z</time>
      </trkpt>
      <trkpt lat="46.7525" lon="-1.74896">
        <ele>33</ele>
        <time>2018-03-08T19:00:02Z</time>
      </trkpt>
      <trkpt lat="46.75248" lon="-1.74886">
        <ele>34</ele>
        <time>2018-03-08T19:01:02Z</time>
      </trkpt>
      <trkpt lat="46.75245" lon="-1.74867">
        <ele>34</ele>
        <time>2018-03-08T19:02:02Z</time>
      </trkpt>
      <trkpt lat="46.75242" lon="-1.74849">
        <ele>34</ele>
        <time>2018-03-08T19:03:02Z</time>
      </trkpt>
      <trkpt lat="46.7524" lon="-1.74831">
        <ele>34</ele>
        <time>2018-03-08T19:04:02Z</time>
      </trkpt>
      <trkpt lat="46.75238" lon="-1.74814">
        <ele>35</ele>
        <time>2018-03-08T19:05:02Z</time>
      </trkpt>
      <trkpt lat="46.75235" lon="-1.74806">
        <ele>35</ele>
        <time>2018-03-08T19:06:02Z</time>
      </trkpt>
      <trkpt lat="46.75232" lon="-1.74798">
        <ele>35</ele>
        <time>2018-03-08T19:07:02Z</time>
      </trkpt>
      <trkpt lat="46.75229" lon="-1.74791">
        <ele>36</ele>
        <time>2018-03-08T19:08:02Z</time>
      </trkpt>
      <trkpt lat="46.75226" lon="-1.74785">
        <ele>36</ele>
        <time>2018-03-08T19:09:02Z</time>
      </trkpt>
      <trkpt lat="46.75216" lon="-1.74772">
        <ele>36</ele>
        <time>2018-03-08T19:10:02Z</time>
      </trkpt>
      <trkpt lat="46.75207" lon="-1.74759">
        <ele>36</ele>
        <time>2018-03-08T19:11:02Z</time>
      </trkpt>
      <trkpt lat="46.75193" lon="-1.74738">
        <ele>36</ele>
        <time>2018-03-08T19:12:02Z</time>
      </trkpt>
      <trkpt lat="46.75177" lon="-1.7471">
        <ele>35</ele>
        <time>2018-03-08T19:13:02Z</time>
      </trkpt>
      <trkpt lat="46.75166" lon="-1.74688">
        <ele>35</ele>
        <time>2018-03-08T19:14:02Z</time>
      </trkpt>
      <trkpt lat="46.75166" lon="-1.74688">
        <ele>35</ele>
        <time>2018-03-08T19:15:02Z</time>
      </trkpt>
      <trkpt lat="46.75176" lon="-1.74673">
        <ele>37</ele>
        <time>2018-03-08T19:16:02Z</time>
      </trkpt>
      <trkpt lat="46.75186" lon="-1.74659">
        <ele>38</ele>
        <time>2018-03-08T19:17:02Z</time>
      </trkpt>
      <trkpt lat="46.75192" lon="-1.7465">
        <ele>39</ele>
        <time>2018-03-08T19:18:02Z</time>
      </trkpt>
      <trkpt lat="46.75202" lon="-1.74637">
        <ele>40</ele>
        <time>2018-03-08T19:19:02Z</time>
      </trkpt>
      <trkpt lat="46.75209" lon="-1.7463">
        <ele>41</ele>
        <time>2018-03-08T19:20:02Z</time>
      </trkpt>
      <trkpt lat="46.75215" lon="-1.74624">
        <ele>41</ele>
        <time>2018-03-08T19:21:02Z</time>
      </trkpt>
      <trkpt lat="46.75216" lon="-1.74624">
        <ele>42</ele>
        <time>2018-03-08T19:22:02Z</time>
      </trkpt>
      <trkpt lat="46.75231" lon="-1.7462">
        <ele>43</ele>
        <time>2018-03-08T19:23:02Z</time>
      </trkpt>
      <trkpt lat="46.75244" lon="-1.74617">
        <ele>44</ele>
        <time>2018-03-08T19:24:02Z</time>
      </trkpt>
      <trkpt lat="46.7526" lon="-1.74615">
        <ele>45</ele>
        <time>2018-03-08T19:25:02Z</time>
      </trkpt>
      <trkpt lat="46.75275" lon="-1.74612">
        <ele>46</ele>
        <time>2018-03-08T19:26:02Z</time>
      </trkpt>
      <trkpt lat="46.75291" lon="-1.74608">
        <ele>46</ele>
        <time>2018-03-08T19:27:02Z</time>
      </trkpt>
      <trkpt lat="46.75305" lon="-1.74604">
        <ele>46</ele>
        <time>2018-03-08T19:28:02Z</time>
      </trkpt>
      <trkpt lat="46.75311" lon="-1.74602">
        <ele>46</ele>
        <time>2018-03-08T19:29:02Z</time>
      </trkpt>
      <trkpt lat="46.75316" lon="-1.74599">
        <ele>47</ele>
        <time>2018-03-08T19:30:02Z</time>
      </trkpt>
      <trkpt lat="46.75323" lon="-1.74594">
        <ele>47</ele>
        <time>2018-03-08T19:31:02Z</time>
      </trkpt>
      <trkpt lat="46.75347" lon="-1.74576">
        <ele>47</ele>
        <time>2018-03-08T19:32:02Z</time>
      </trkpt>
      <trkpt lat="46.75369" lon="-1.74559">
        <ele>47</ele>
        <time>2018-03-08T19:33:02Z</time>
      </trkpt>
      <trkpt lat="46.75392" lon="-1.74546">
        <ele>47</ele>
        <time>2018-03-08T19:34:02Z</time>
      </trkpt>
      <trkpt lat="46.75405" lon="-1.7454">
        <ele>47</ele>
        <time>2018-03-08T19:35:02Z</time>
      </trkpt>
      <trkpt lat="46.75405" lon="-1.7454">
        <ele>47</ele>
        <time>2018-03-08T19:36:02Z</time>
      </trkpt>
      <trkpt lat="46.754" lon="-1.7448">
        <ele>48</ele>
        <time>2018-03-08T19:37:02Z</time>
      </trkpt>
      <trkpt lat="46.75398" lon="-1.7444">
        <ele>48</ele>
        <time>2018-03-08T19:38:02Z</time>
      </trkpt>
      <trkpt lat="46.75396" lon="-1.74398">
        <ele>49</ele>
        <time>2018-03-08T19:39:02Z</time>
      </trkpt>
      <trkpt lat="46.75397" lon="-1.74371">
        <ele>49</ele>
        <time>2018-03-08T19:40:02Z</time>
      </trkpt>
      <trkpt lat="46.75398" lon="-1.74335">
        <ele>49</ele>
        <time>2018-03-08T19:41:02Z</time>
      </trkpt>
      <trkpt lat="46.75402" lon="-1.7423">
        <ele>47</ele>
        <time>2018-03-08T19:42:02Z</time>
      </trkpt>
      <trkpt lat="46.75403" lon="-1.74216">
        <ele>47</ele>
        <time>2018-03-08T19:43:02Z</time>
      </trkpt>
      <trkpt lat="46.75405" lon="-1.74199">
        <ele>47</ele>
        <time>2018-03-08T19:44:02Z</time>
      </trkpt>
      <trkpt lat="46.75406" lon="-1.74183">
        <ele>47</ele>
        <time>2018-03-08T19:45:02Z</time>
      </trkpt>
      <trkpt lat="46.75409" lon="-1.74165">
        <ele>47</ele>
        <time>2018-03-08T19:46:02Z</time>
      </trkpt>
      <trkpt lat="46.75413" lon="-1.7414">
        <ele>47</ele>
        <time>2018-03-08T19:47:02Z</time>
      </trkpt>
      <trkpt lat="46.75416" lon="-1.74127">
        <ele>47</ele>
        <time>2018-03-08T19:48:02Z</time>
      </trkpt>
      <trkpt lat="46.75419" lon="-1.74114">
        <ele>47</ele>
        <time>2018-03-08T19:49:02Z</time>
      </trkpt>
      <trkpt lat="46.75426" lon="-1.74088">
        <ele>47</ele>
        <time>2018-03-08T19:50:02Z</time>
      </trkpt>
      <trkpt lat="46.75429" lon="-1.74078">
        <ele>48</ele>
        <time>2018-03-08T19:51:02Z</time>
      </trkpt>
      <trkpt lat="46.75439" lon="-1.74041">
        <ele>49</ele>
        <time>2018-03-08T19:52:02Z</time>
      </trkpt>
      <trkpt lat="46.75444" lon="-1.74021">
        <ele>49</ele>
        <time>2018-03-08T19:53:02Z</time>
      </trkpt>
      <trkpt lat="46.7545" lon="-1.73997">
        <ele>50</ele>
        <time>2018-03-08T19:54:02Z</time>
      </trkpt>
      <trkpt lat="46.75452" lon="-1.73986">
        <ele>50</ele>
        <time>2018-03-08T19:55:02Z</time>
      </trkpt>
      <trkpt lat="46.75453" lon="-1.73976">
        <ele>50</ele>
        <time>2018-03-08T19:56:02Z</time>
      </trkpt>
      <trkpt lat="46.75453" lon="-1.73966">
        <ele>51</ele>
        <time>2018-03-08T19:57:02Z</time>
      </trkpt>
      <trkpt lat="46.75452" lon="-1.73955">
        <ele>51</ele>
        <time>2018-03-08T19:58:02Z</time>
      </trkpt>
      <trkpt lat="46.75451" lon="-1.73946">
        <ele>51</ele>
        <time>2018-03-08T19:59:02Z</time>
      </trkpt>
      <trkpt lat="46.75449" lon="-1.73937">
        <ele>51</ele>
        <time>2018-03-08T20:00:02Z</time>
      </trkpt>
      <trkpt lat="46.75447" lon="-1.7393">
        <ele>51</ele>
        <time>2018-03-08T20:01:02Z</time>
      </trkpt>
      <trkpt lat="46.75444" lon="-1.73921">
        <ele>51</ele>
        <time>2018-03-08T20:02:02Z</time>
      </trkpt>
      <trkpt lat="46.75441" lon="-1.73914">
        <ele>51</ele>
        <time>2018-03-08T20:03:02Z</time>
      </trkpt>
      <trkpt lat="46.75437" lon="-1.73906">
        <ele>51</ele>
        <time>2018-03-08T20:04:02Z</time>
      </trkpt>
      <trkpt lat="46.75432" lon="-1.73897">
        <ele>51</ele>
        <time>2018-03-08T20:05:02Z</time>
      </trkpt>
      <trkpt lat="46.75427" lon="-1.7389">
        <ele>51</ele>
        <time>2018-03-08T20:06:02Z</time>
      </trkpt>
      <trkpt lat="46.75422" lon="-1.73885">
        <ele>51</ele>
        <time>2018-03-08T20:07:02Z</time>
      </trkpt>
      <trkpt lat="46.75417" lon="-1.73881">
        <ele>51</ele>
        <time>2018-03-08T20:08:02Z</time>
      </trkpt>
      <trkpt lat="46.75412" lon="-1.73876">
        <ele>51</ele>
        <time>2018-03-08T20:09:02Z</time>
      </trkpt>
      <trkpt lat="46.75412" lon="-1.73876">
        <ele>51</ele>
        <time>2018-03-08T20:10:02Z</time>
      </trkpt>
      <trkpt lat="46.75418" lon="-1.73868">
        <ele>52</ele>
        <time>2018-03-08T20:11:02Z</time>
      </trkpt>
      <trkpt lat="46.75426" lon="-1.73863">
        <ele>52</ele>
        <time>2018-03-08T20:12:02Z</time>
      </trkpt>
      <trkpt lat="46.75429" lon="-1.73861">
        <ele>52</ele>
        <time>2018-03-08T20:13:02Z</time>
      </trkpt>
      <trkpt lat="46.7544" lon="-1.73856">
        <ele>52</ele>
        <time>2018-03-08T20:14:02Z</time>
      </trkpt>
      <trkpt lat="46.75474" lon="-1.73845">
        <ele>53</ele>
        <time>2018-03-08T20:15:02Z</time>
      </trkpt>
      <trkpt lat="46.75474" lon="-1.73845">
        <ele>53</ele>
        <time>2018-03-08T20:16:02Z</time>
      </trkpt>
      <trkpt lat="46.7549" lon="-1.73838">
        <ele>54</ele>
        <time>2018-03-08T20:17:02Z</time>
      </trkpt>
      <trkpt lat="46.75496" lon="-1.73835">
        <ele>54</ele>
        <time>2018-03-08T20:18:02Z</time>
      </trkpt>
      <trkpt lat="46.75523" lon="-1.73822">
        <ele>54</ele>
        <time>2018-03-08T20:19:02Z</time>
      </trkpt>
      <trkpt lat="46.75544" lon="-1.73808">
        <ele>55</ele>
        <time>2018-03-08T20:20:02Z</time>
      </trkpt>
      <trkpt lat="46.75565" lon="-1.73794">
        <ele>55</ele>
        <time>2018-03-08T20:21:02Z</time>
      </trkpt>
      <trkpt lat="46.75585" lon="-1.73781">
        <ele>55</ele>
        <time>2018-03-08T20:22:02Z</time>
      </trkpt>
      <trkpt lat="46.75585" lon="-1.73781">
        <ele>55</ele>
        <time>2018-03-08T20:23:02Z</time>
      </trkpt>
      <trkpt lat="46.75582" lon="-1.73763">
        <ele>55</ele>
        <time>2018-03-08T20:24:02Z</time>
      </trkpt>
      <trkpt lat="46.75581" lon="-1.73738">
        <ele>55</ele>
        <time>2018-03-08T20:25:02Z</time>
      </trkpt>
      <trkpt lat="46.75579" lon="-1.73686">
        <ele>56</ele>
        <time>2018-03-08T20:26:02Z</time>
      </trkpt>
      <trkpt lat="46.75579" lon="-1.73686">
        <ele>56</ele>
        <time>2018-03-08T20:27:02Z</time>
      </trkpt>
      <trkpt lat="46.75579" lon="-1.73669">
        <ele>56</ele>
        <time>2018-03-08T20:28:02Z</time>
      </trkpt>
      <trkpt lat="46.75578" lon="-1.7366">
        <ele>56</ele>
        <time>2018-03-08T20:29:02Z</time>
      </trkpt>
      <trkpt lat="46.75577" lon="-1.73648">
        <ele>56</ele>
        <time>2018-03-08T20:30:02Z</time>
      </trkpt>
      <trkpt lat="46.75576" lon="-1.73638">
        <ele>56</ele>
        <time>2018-03-08T20:31:02Z</time>
      </trkpt>
      <trkpt lat="46.75573" lon="-1.7363">
        <ele>56</ele>
        <time>2018-03-08T20:32:02Z</time>
      </trkpt>
      <trkpt lat="46.75569" lon="-1.73619">
        <ele>57</ele>
        <time>2018-03-08T20:33:02Z</time>
      </trkpt>
      <trkpt lat="46.7556" lon="-1.73603">
        <ele>57</ele>
        <time>2018-03-08T20:34:02Z</time>
      </trkpt>
      <trkpt lat="46.75557" lon="-1.73597">
        <ele>57</ele>
        <time>2018-03-08T20:35:02Z</time>
      </trkpt>
      <trkpt lat="46.7555" lon="-1.73572">
        <ele>57</ele>
        <time>2018-03-08T20:36:02Z</time>
      </trkpt>
      <trkpt lat="46.75548" lon="-1.73562">
        <ele>57</ele>
        <time>2018-03-08T20:37:02Z</time>
      </trkpt>
      <trkpt lat="46.75546" lon="-1.73549">
        <ele>57</ele>
        <time>2018-03-08T20:38:02Z</time>
      </trkpt>
      <trkpt lat="46.75542" lon="-1.73505">
        <ele>57</ele>
        <time>2018-03-08T20:39:02Z</time>
      </trkpt>
      <trkpt lat="46.75541" lon="-1.7349">
        <ele>56</ele>
        <time>2018-03-08T20:40:02Z</time>
      </trkpt>
      <trkpt lat="46.7554" lon="-1.73481">
        <ele>56</ele>
        <time>2018-03-08T20:41:02Z</time>
      </trkpt>
      <trkpt lat="46.75537" lon="-1.73469">
        <ele>56</ele>
        <time>2018-03-08T20:42:02Z</time>
      </trkpt>
      <trkpt lat="46.75536" lon="-1.73464">
        <ele>56</ele>
        <time>2018-03-08T20:43:02Z</time>
      </trkpt>
      <trkpt lat="46.75534" lon="-1.73455">
        <ele>56</ele>
        <time>2018-03-08T20:44:02Z</time>
      </trkpt>
      <trkpt lat="46.75534" lon="-1.73455">
        <ele>56</ele>
        <time>2018-03-08T20:45:02Z</time>
      </trkpt>
      <trkpt lat="46.75538" lon="-1.73448">
        <ele>56</ele>
        <time>2018-03-08T20:46:02Z</time>
      </trkpt>
      <trkpt lat="46.75541" lon="-1.73445">
        <ele>56</ele>
        <time>2018-03-08T20:47:02Z</time>
      </trkpt>
      <trkpt lat="46.75544" lon="-1.73439">
        <ele>56</ele>
        <time>2018-03-08T20:48:02Z</time>
      </trkpt>
      <trkpt lat="46.75553" lon="-1.73423">
        <ele>56</ele>
        <time>2018-03-08T20:49:02Z</time>
      </trkpt>
      <trkpt lat="46.75555" lon="-1.73418">
        <ele>56</ele>
        <time>2018-03-08T20:50:02Z</time>
      </trkpt>
      <trkpt lat="46.75557" lon="-1.73412">
        <ele>56</ele>
        <time>2018-03-08T20:51:02Z</time>
      </trkpt>
      <trkpt lat="46.7556" lon="-1.73403">
        <ele>56</ele>
        <time>2018-03-08T20:52:02Z</time>
      </trkpt>
      <trkpt lat="46.75564" lon="-1.7339">
        <ele>56</ele>
        <time>2018-03-08T20:53:02Z</time>
      </trkpt>
      <trkpt lat="46.75567" lon="-1.73377">
        <ele>56</ele>
        <time>2018-03-08T20:54:02Z</time>
      </trkpt>
      <trkpt lat="46.75575" lon="-1.73341">
        <ele>57</ele>
        <time>2018-03-08T20:55:02Z</time>
      </trkpt>
      <trkpt lat="46.75589" lon="-1.73274">
        <ele>56</ele>
        <time>2018-03-08T20:56:02Z</time>
      </trkpt>
      <trkpt lat="46.75598" lon="-1.73226">
        <ele>55</ele>
        <time>2018-03-08T20:57:02Z</time>
      </trkpt>
      <trkpt lat="46.75608" lon="-1.73181">
        <ele>54</ele>
        <time>2018-03-08T20:58:02Z</time>
      </trkpt>
      <trkpt lat="46.75612" lon="-1.73156">
        <ele>54</ele>
        <time>2018-03-08T20:59:02Z</time>
      </trkpt>
      <trkpt lat="46.75617" lon="-1.73128">
        <ele>54</ele>
        <time>2018-03-08T21:00:02Z</time>
      </trkpt>
      <trkpt lat="46.75616" lon="-1.7312">
        <ele>54</ele>
        <time>2018-03-08T21:01:02Z</time>
      </trkpt>
      <trkpt lat="46.75618" lon="-1.73089">
        <ele>53</ele>
        <time>2018-03-08T21:02:02Z</time>
      </trkpt>
      <trkpt lat="46.75616" lon="-1.73087">
        <ele>53</ele>
        <time>2018-03-08T21:03:02Z</time>
      </trkpt>
      <trkpt lat="46.75615" lon="-1.73085">
        <ele>53</ele>
        <time>2018-03-08T21:04:02Z</time>
      </trkpt>
      <trkpt lat="46.75614" lon="-1.73083">
        <ele>53</ele>
        <time>2018-03-08T21:05:02Z</time>
      </trkpt>
      <trkpt lat="46.75614" lon="-1.73082">
        <ele>53</ele>
        <time>2018-03-08T21:06:02Z</time>
      </trkpt>
      <trkpt lat="46.75614" lon="-1.73081">
        <ele>53</ele>
        <time>2018-03-08T21:07:02Z</time>
      </trkpt>
      <trkpt lat="46.75613" lon="-1.73078">
        <ele>53</ele>
        <time>2018-03-08T21:08:02Z</time>
      </trkpt>
      <trkpt lat="46.75613" lon="-1.73075">
        <ele>53</ele>
        <time>2018-03-08T21:09:02Z</time>
      </trkpt>
      <trkpt lat="46.75614" lon="-1.73071">
        <ele>53</ele>
        <time>2018-03-08T21:10:02Z</time>
      </trkpt>
      <trkpt lat="46.75615" lon="-1.73066">
        <ele>53</ele>
        <time>2018-03-08T21:11:02Z</time>
      </trkpt>
      <trkpt lat="46.75619" lon="-1.73049">
        <ele>54</ele>
        <time>2018-03-08T21:12:02Z</time>
      </trkpt>
      <trkpt lat="46.75623" lon="-1.73038">
        <ele>54</ele>
        <time>2018-03-08T21:13:02Z</time>
      </trkpt>
      <trkpt lat="46.75623" lon="-1.72992">
        <ele>55</ele>
        <time>2018-03-08T21:14:02Z</time>
      </trkpt>
      <trkpt lat="46.75623" lon="-1.72916">
        <ele>55</ele>
        <time>2018-03-08T21:15:02Z</time>
      </trkpt>
      <trkpt lat="46.75623" lon="-1.72887">
        <ele>55</ele>
        <time>2018-03-08T21:16:02Z</time>
      </trkpt>
      <trkpt lat="46.75624" lon="-1.7287">
        <ele>56</ele>
        <time>2018-03-08T21:17:02Z</time>
      </trkpt>
      <trkpt lat="46.75624" lon="-1.72845">
        <ele>56</ele>
        <time>2018-03-08T21:18:02Z</time>
      </trkpt>
      <trkpt lat="46.75625" lon="-1.72834">
        <ele>56</ele>
        <time>2018-03-08T21:19:02Z</time>
      </trkpt>
      <trkpt lat="46.75626" lon="-1.7282">
        <ele>57</ele>
        <time>2018-03-08T21:20:02Z</time>
      </trkpt>
      <trkpt lat="46.75626" lon="-1.72809">
        <ele>57</ele>
        <time>2018-03-08T21:21:02Z</time>
      </trkpt>
      <trkpt lat="46.75627" lon="-1.72797">
        <ele>57</ele>
        <time>2018-03-08T21:22:02Z</time>
      </trkpt>
      <trkpt lat="46.75628" lon="-1.72787">
        <ele>57</ele>
        <time>2018-03-08T21:23:02Z</time>
      </trkpt>
      <trkpt lat="46.75633" lon="-1.72721">
        <ele>58</ele>
        <time>2018-03-08T21:24:02Z</time>
      </trkpt>
      <trkpt lat="46.75638" lon="-1.72663">
        <ele>57</ele>
        <time>2018-03-08T21:25:02Z</time>
      </trkpt>
      <trkpt lat="46.75643" lon="-1.72615">
        <ele>56</ele>
        <time>2018-03-08T21:26:02Z</time>
      </trkpt>
      <trkpt lat="46.7565" lon="-1.72542">
        <ele>56</ele>
        <time>2018-03-08T21:27:02Z</time>
      </trkpt>
      <trkpt lat="46.75656" lon="-1.72493">
        <ele>56</ele>
        <time>2018-03-08T21:28:02Z</time>
      </trkpt>
      <trkpt lat="46.75657" lon="-1.72476">
        <ele>56</ele>
        <time>2018-03-08T21:29:02Z</time>
      </trkpt>
      <trkpt lat="46.75662" lon="-1.72434">
        <ele>56</ele>
        <time>2018-03-08T21:30:02Z</time>
      </trkpt>
      <trkpt lat="46.75661" lon="-1.72416">
        <ele>56</ele>
        <time>2018-03-08T21:31:02Z</time>
      </trkpt>
      <trkpt lat="46.75662" lon="-1.72342">
        <ele>56</ele>
        <time>2018-03-08T21:32:02Z</time>
      </trkpt>
      <trkpt lat="46.7566" lon="-1.72271">
        <ele>56</ele>
        <time>2018-03-08T21:33:02Z</time>
      </trkpt>
      <trkpt lat="46.7566" lon="-1.72244">
        <ele>56</ele>
        <time>2018-03-08T21:34:02Z</time>
      </trkpt>
      <trkpt lat="46.75657" lon="-1.72178">
        <ele>58</ele>
        <time>2018-03-08T21:35:02Z</time>
      </trkpt>
      <trkpt lat="46.75657" lon="-1.72169">
        <ele>58</ele>
        <time>2018-03-08T21:36:02Z</time>
      </trkpt>
      <trkpt lat="46.75651" lon="-1.72101">
        <ele>57</ele>
        <time>2018-03-08T21:37:02Z</time>
      </trkpt>
      <trkpt lat="46.75645" lon="-1.7204">
        <ele>57</ele>
        <time>2018-03-08T21:38:02Z</time>
      </trkpt>
      <trkpt lat="46.75646" lon="-1.72036">
        <ele>57</ele>
        <time>2018-03-08T21:39:02Z</time>
      </trkpt>
      <trkpt lat="46.75633" lon="-1.71906">
        <ele>56</ele>
        <time>2018-03-08T21:40:02Z</time>
      </trkpt>
      <trkpt lat="46.75633" lon="-1.71883">
        <ele>56</ele>
        <time>2018-03-08T21:41:02Z</time>
      </trkpt>
      <trkpt lat="46.75632" lon="-1.71874">
        <ele>56</ele>
        <time>2018-03-08T21:42:02Z</time>
      </trkpt>
      <trkpt lat="46.75632" lon="-1.71858">
        <ele>56</ele>
        <time>2018-03-08T21:43:02Z</time>
      </trkpt>
      <trkpt lat="46.75631" lon="-1.71831">
        <ele>56</ele>
        <time>2018-03-08T21:44:02Z</time>
      </trkpt>
      <trkpt lat="46.75631" lon="-1.71802">
        <ele>56</ele>
        <time>2018-03-08T21:45:02Z</time>
      </trkpt>
      <trkpt lat="46.75631" lon="-1.71789">
        <ele>57</ele>
        <time>2018-03-08T21:46:02Z</time>
      </trkpt>
      <trkpt lat="46.75631" lon="-1.7178">
        <ele>57</ele>
        <time>2018-03-08T21:47:02Z</time>
      </trkpt>
      <trkpt lat="46.75631" lon="-1.71767">
        <ele>57</ele>
        <time>2018-03-08T21:48:02Z</time>
      </trkpt>
      <trkpt lat="46.75632" lon="-1.71751">
        <ele>57</ele>
        <time>2018-03-08T21:49:02Z</time>
      </trkpt>
      <trkpt lat="46.75632" lon="-1.71736">
        <ele>57</ele>
        <time>2018-03-08T21:50:02Z</time>
      </trkpt>
      <trkpt lat="46.75632" lon="-1.71721">
        <ele>57</ele>
        <time>2018-03-08T21:51:02Z</time>
      </trkpt>
      <trkpt lat="46.75633" lon="-1.71706">
        <ele>57</ele>
        <time>2018-03-08T21:52:02Z</time>
      </trkpt>
      <trkpt lat="46.75633" lon="-1.71695">
        <ele>57</ele>
        <time>2018-03-08T21:53:02Z</time>
      </trkpt>
      <trkpt lat="46.75634" lon="-1.7168">
        <ele>57</ele>
        <time>2018-03-08T21:54:02Z</time>
      </trkpt>
      <trkpt lat="46.75635" lon="-1.71651">
        <ele>57</ele>
        <time>2018-03-08T21:55:02Z</time>
      </trkpt>
      <trkpt lat="46.75637" lon="-1.71635">
        <ele>57</ele>
        <time>2018-03-08T21:56:02Z</time>
      </trkpt>
      <trkpt lat="46.75639" lon="-1.71584">
        <ele>57</ele>
        <time>2018-03-08T21:57:02Z</time>
      </trkpt>
      <trkpt lat="46.75645" lon="-1.71506">
        <ele>58</ele>
        <time>2018-03-08T21:58:02Z</time>
      </trkpt>
      <trkpt lat="46.75645" lon="-1.71503">
        <ele>58</ele>
        <time>2018-03-08T21:59:02Z</time>
      </trkpt>
      <trkpt lat="46.75649" lon="-1.71449">
        <ele>59</ele>
        <time>2018-03-08T22:00:02Z</time>
      </trkpt>
      <trkpt lat="46.75656" lon="-1.71346">
        <ele>60</ele>
        <time>2018-03-08T22:01:02Z</time>
      </trkpt>
      <trkpt lat="46.75658" lon="-1.71296">
        <ele>60</ele>
        <time>2018-03-08T22:02:02Z</time>
      </trkpt>
      <trkpt lat="46.75659" lon="-1.7126">
        <ele>60</ele>
        <time>2018-03-08T22:03:02Z</time>
      </trkpt>
      <trkpt lat="46.75659" lon="-1.71235">
        <ele>60</ele>
        <time>2018-03-08T22:04:02Z</time>
      </trkpt>
      <trkpt lat="46.7566" lon="-1.71217">
        <ele>60</ele>
        <time>2018-03-08T22:05:02Z</time>
      </trkpt>
      <trkpt lat="46.7566" lon="-1.71199">
        <ele>60</ele>
        <time>2018-03-08T22:06:02Z</time>
      </trkpt>
      <trkpt lat="46.75661" lon="-1.7118">
        <ele>60</ele>
        <time>2018-03-08T22:07:02Z</time>
      </trkpt>
      <trkpt lat="46.75662" lon="-1.71157">
        <ele>60</ele>
        <time>2018-03-08T22:08:02Z</time>
      </trkpt>
      <trkpt lat="46.75662" lon="-1.71132">
        <ele>60</ele>
        <time>2018-03-08T22:09:02Z</time>
      </trkpt>
      <trkpt lat="46.75662" lon="-1.71111">
        <ele>59</ele>
        <time>2018-03-08T22:10:02Z</time>
      </trkpt>
      <trkpt lat="46.75662" lon="-1.71091">
        <ele>59</ele>
        <time>2018-03-08T22:11:02Z</time>
      </trkpt>
      <trkpt lat="46.75662" lon="-1.71047">
        <ele>59</ele>
        <time>2018-03-08T22:12:02Z</time>
      </trkpt>
      <trkpt lat="46.75661" lon="-1.71002">
        <ele>59</ele>
        <time>2018-03-08T22:13:02Z</time>
      </trkpt>
      <trkpt lat="46.7566" lon="-1.7096">
        <ele>60</ele>
        <time>2018-03-08T22:14:02Z</time>
      </trkpt>
      <trkpt lat="46.7566" lon="-1.70953">
        <ele>60</ele>
        <time>2018-03-08T22:15:02Z</time>
      </trkpt>
      <trkpt lat="46.75657" lon="-1.70877">
        <ele>61</ele>
        <time>2018-03-08T22:16:02Z</time>
      </trkpt>
      <trkpt lat="46.75655" lon="-1.70823">
        <ele>62</ele>
        <time>2018-03-08T22:17:02Z</time>
      </trkpt>
      <trkpt lat="46.75655" lon="-1.70806">
        <ele>62</ele>
        <time>2018-03-08T22:18:02Z</time>
      </trkpt>
      <trkpt lat="46.75654" lon="-1.7079">
        <ele>61</ele>
        <time>2018-03-08T22:19:02Z</time>
      </trkpt>
      <trkpt lat="46.75654" lon="-1.70772">
        <ele>61</ele>
        <time>2018-03-08T22:20:02Z</time>
      </trkpt>
      <trkpt lat="46.75654" lon="-1.70751">
        <ele>61</ele>
        <time>2018-03-08T22:21:02Z</time>
      </trkpt>
      <trkpt lat="46.75655" lon="-1.70726">
        <ele>60</ele>
        <time>2018-03-08T22:22:02Z</time>
      </trkpt>
      <trkpt lat="46.75656" lon="-1.70671">
        <ele>59</ele>
        <time>2018-03-08T22:23:02Z</time>
      </trkpt>
      <trkpt lat="46.7566" lon="-1.70572">
        <ele>59</ele>
        <time>2018-03-08T22:24:02Z</time>
      </trkpt>
      <trkpt lat="46.75662" lon="-1.70498">
        <ele>60</ele>
        <time>2018-03-08T22:25:02Z</time>
      </trkpt>
      <trkpt lat="46.75666" lon="-1.70422">
        <ele>61</ele>
        <time>2018-03-08T22:26:02Z</time>
      </trkpt>
      <trkpt lat="46.7567" lon="-1.70352">
        <ele>61</ele>
        <time>2018-03-08T22:27:02Z</time>
      </trkpt>
      <trkpt lat="46.75672" lon="-1.70323">
        <ele>61</ele>
        <time>2018-03-08T22:28:02Z</time>
      </trkpt>
      <trkpt lat="46.75673" lon="-1.70304">
        <ele>61</ele>
        <time>2018-03-08T22:29:02Z</time>
      </trkpt>
      <trkpt lat="46.75673" lon="-1.70286">
        <ele>61</ele>
        <time>2018-03-08T22:30:02Z</time>
      </trkpt>
      <trkpt lat="46.75673" lon="-1.70266">
        <ele>61</ele>
        <time>2018-03-08T22:31:02Z</time>
      </trkpt>
      <trkpt lat="46.75672" lon="-1.70246">
        <ele>61</ele>
        <time>2018-03-08T22:32:02Z</time>
      </trkpt>
      <trkpt lat="46.75671" lon="-1.70227">
        <ele>61</ele>
        <time>2018-03-08T22:33:02Z</time>
      </trkpt>
      <trkpt lat="46.7567" lon="-1.70205">
        <ele>61</ele>
        <time>2018-03-08T22:34:02Z</time>
      </trkpt>
      <trkpt lat="46.75666" lon="-1.70153">
        <ele>62</ele>
        <time>2018-03-08T22:35:02Z</time>
      </trkpt>
      <trkpt lat="46.7566" lon="-1.70095">
        <ele>61</ele>
        <time>2018-03-08T22:36:02Z</time>
      </trkpt>
      <trkpt lat="46.75656" lon="-1.70046">
        <ele>61</ele>
        <time>2018-03-08T22:37:02Z</time>
      </trkpt>
      <trkpt lat="46.75654" lon="-1.70015">
        <ele>62</ele>
        <time>2018-03-08T22:38:02Z</time>
      </trkpt>
      <trkpt lat="46.75653" lon="-1.70008">
        <ele>62</ele>
        <time>2018-03-08T22:39:02Z</time>
      </trkpt>
      <trkpt lat="46.75651" lon="-1.69993">
        <ele>62</ele>
        <time>2018-03-08T22:40:02Z</time>
      </trkpt>
      <trkpt lat="46.75648" lon="-1.69979">
        <ele>61</ele>
        <time>2018-03-08T22:41:02Z</time>
      </trkpt>
      <trkpt lat="46.75645" lon="-1.69967">
        <ele>61</ele>
        <time>2018-03-08T22:42:02Z</time>
      </trkpt>
      <trkpt lat="46.75641" lon="-1.69956">
        <ele>61</ele>
        <time>2018-03-08T22:43:02Z</time>
      </trkpt>
      <trkpt lat="46.75632" lon="-1.69934">
        <ele>61</ele>
        <time>2018-03-08T22:44:02Z</time>
      </trkpt>
      <trkpt lat="46.75627" lon="-1.6992">
        <ele>61</ele>
        <time>2018-03-08T22:45:02Z</time>
      </trkpt>
      <trkpt lat="46.75622" lon="-1.69903">
        <ele>60</ele>
        <time>2018-03-08T22:46:02Z</time>
      </trkpt>
      <trkpt lat="46.75618" lon="-1.69878">
        <ele>60</ele>
        <time>2018-03-08T22:47:02Z</time>
      </trkpt>
      <trkpt lat="46.75611" lon="-1.69841">
        <ele>59</ele>
        <time>2018-03-08T22:48:02Z</time>
      </trkpt>
      <trkpt lat="46.75607" lon="-1.69819">
        <ele>59</ele>
        <time>2018-03-08T22:49:02Z</time>
      </trkpt>
      <trkpt lat="46.75602" lon="-1.69782">
        <ele>59</ele>
        <time>2018-03-08T22:50:02Z</time>
      </trkpt>
      <trkpt lat="46.75596" lon="-1.69746">
        <ele>59</ele>
        <time>2018-03-08T22:51:02Z</time>
      </trkpt>
      <trkpt lat="46.75596" lon="-1.69742">
        <ele>59</ele>
        <time>2018-03-08T22:52:02Z</time>
      </trkpt>
      <trkpt lat="46.7559" lon="-1.69707">
        <ele>59</ele>
        <time>2018-03-08T22:53:02Z</time>
      </trkpt>
      <trkpt lat="46.75579" lon="-1.69642">
        <ele>58</ele>
        <time>2018-03-08T22:54:02Z</time>
      </trkpt>
      <trkpt lat="46.75575" lon="-1.69614">
        <ele>58</ele>
        <time>2018-03-08T22:55:02Z</time>
      </trkpt>
      <trkpt lat="46.75572" lon="-1.69595">
        <ele>58</ele>
        <time>2018-03-08T22:56:02Z</time>
      </trkpt>
      <trkpt lat="46.75568" lon="-1.69577">
        <ele>58</ele>
        <time>2018-03-08T22:57:02Z</time>
      </trkpt>
      <trkpt lat="46.75565" lon="-1.69562">
        <ele>58</ele>
        <time>2018-03-08T22:58:02Z</time>
      </trkpt>
      <trkpt lat="46.7556" lon="-1.69542">
        <ele>57</ele>
        <time>2018-03-08T22:59:02Z</time>
      </trkpt>
      <trkpt lat="46.75556" lon="-1.69526">
        <ele>57</ele>
        <time>2018-03-08T23:00:02Z</time>
      </trkpt>
      <trkpt lat="46.75552" lon="-1.69509">
        <ele>57</ele>
        <time>2018-03-08T23:01:02Z</time>
      </trkpt>
      <trkpt lat="46.75542" lon="-1.69475">
        <ele>56</ele>
        <time>2018-03-08T23:02:02Z</time>
      </trkpt>
      <trkpt lat="46.7553" lon="-1.6944">
        <ele>55</ele>
        <time>2018-03-08T23:03:02Z</time>
      </trkpt>
      <trkpt lat="46.7552" lon="-1.69411">
        <ele>55</ele>
        <time>2018-03-08T23:04:02Z</time>
      </trkpt>
      <trkpt lat="46.75502" lon="-1.69354">
        <ele>56</ele>
        <time>2018-03-08T23:05:02Z</time>
      </trkpt>
      <trkpt lat="46.75486" lon="-1.69306">
        <ele>56</ele>
        <time>2018-03-08T23:06:02Z</time>
      </trkpt>
      <trkpt lat="46.75472" lon="-1.69263">
        <ele>55</ele>
        <time>2018-03-08T23:07:02Z</time>
      </trkpt>
      <trkpt lat="46.75455" lon="-1.69214">
        <ele>54</ele>
        <time>2018-03-08T23:08:02Z</time>
      </trkpt>
      <trkpt lat="46.75439" lon="-1.69172">
        <ele>53</ele>
        <time>2018-03-08T23:09:02Z</time>
      </trkpt>
      <trkpt lat="46.75435" lon="-1.69163">
        <ele>53</ele>
        <time>2018-03-08T23:10:02Z</time>
      </trkpt>
      <trkpt lat="46.75421" lon="-1.69127">
        <ele>52</ele>
        <time>2018-03-08T23:11:02Z</time>
      </trkpt>
      <trkpt lat="46.75408" lon="-1.69097">
        <ele>50</ele>
        <time>2018-03-08T23:12:02Z</time>
      </trkpt>
      <trkpt lat="46.75394" lon="-1.69063">
        <ele>49</ele>
        <time>2018-03-08T23:13:02Z</time>
      </trkpt>
      <trkpt lat="46.75388" lon="-1.69045">
        <ele>49</ele>
        <time>2018-03-08T23:14:02Z</time>
      </trkpt>
      <trkpt lat="46.75385" lon="-1.6903">
        <ele>49</ele>
        <time>2018-03-08T23:15:02Z</time>
      </trkpt>
      <trkpt lat="46.75382" lon="-1.69009">
        <ele>48</ele>
        <time>2018-03-08T23:16:02Z</time>
      </trkpt>
      <trkpt lat="46.75382" lon="-1.6898">
        <ele>48</ele>
        <time>2018-03-08T23:17:02Z</time>
      </trkpt>
      <trkpt lat="46.75382" lon="-1.68964">
        <ele>47</ele>
        <time>2018-03-08T23:18:02Z</time>
      </trkpt>
      <trkpt lat="46.75381" lon="-1.68964">
        <ele>47</ele>
        <time>2018-03-08T23:19:02Z</time>
      </trkpt>
      <trkpt lat="46.7538" lon="-1.68963">
        <ele>47</ele>
        <time>2018-03-08T23:20:02Z</time>
      </trkpt>
      <trkpt lat="46.75379" lon="-1.68961">
        <ele>47</ele>
        <time>2018-03-08T23:21:02Z</time>
      </trkpt>
      <trkpt lat="46.75378" lon="-1.68959">
        <ele>47</ele>
        <time>2018-03-08T23:22:02Z</time>
      </trkpt>
      <trkpt lat="46.75378" lon="-1.68957">
        <ele>47</ele>
        <time>2018-03-08T23:23:02Z</time>
      </trkpt>
      <trkpt lat="46.75378" lon="-1.68955">
        <ele>47</ele>
        <time>2018-03-08T23:24:02Z</time>
      </trkpt>
      <trkpt lat="46.75379" lon="-1.68954">
        <ele>47</ele>
        <time>2018-03-08T23:25:02Z</time>
      </trkpt>
      <trkpt lat="46.7538" lon="-1.68953">
        <ele>47</ele>
        <time>2018-03-08T23:26:02Z</time>
      </trkpt>
      <trkpt lat="46.75382" lon="-1.68952">
        <ele>47</ele>
        <time>2018-03-08T23:27:02Z</time>
      </trkpt>
      <trkpt lat="46.75383" lon="-1.68952">
        <ele>47</ele>
        <time>2018-03-08T23:28:02Z</time>
      </trkpt>
      <trkpt lat="46.75385" lon="-1.68932">
        <ele>47</ele>
        <time>2018-03-08T23:29:02Z</time>
      </trkpt>
      <trkpt lat="46.75387" lon="-1.68906">
        <ele>46</ele>
        <time>2018-03-08T23:30:02Z</time>
      </trkpt>
      <trkpt lat="46.7539" lon="-1.68863">
        <ele>46</ele>
        <time>2018-03-08T23:31:02Z</time>
      </trkpt>
      <trkpt lat="46.75392" lon="-1.68828">
        <ele>46</ele>
        <time>2018-03-08T23:32:02Z</time>
      </trkpt>
      <trkpt lat="46.75394" lon="-1.68801">
        <ele>45</ele>
        <time>2018-03-08T23:33:02Z</time>
      </trkpt>
      <trkpt lat="46.75395" lon="-1.68778">
        <ele>44</ele>
        <time>2018-03-08T23:34:02Z</time>
      </trkpt>
      <trkpt lat="46.75397" lon="-1.68756">
        <ele>43</ele>
        <time>2018-03-08T23:35:02Z</time>
      </trkpt>
      <trkpt lat="46.75398" lon="-1.68739">
        <ele>43</ele>
        <time>2018-03-08T23:36:02Z</time>
      </trkpt>
      <trkpt lat="46.75399" lon="-1.68725">
        <ele>43</ele>
        <time>2018-03-08T23:37:02Z</time>
      </trkpt>
      <trkpt lat="46.75402" lon="-1.68688">
        <ele>42</ele>
        <time>2018-03-08T23:38:02Z</time>
      </trkpt>
      <trkpt lat="46.75404" lon="-1.68657">
        <ele>41</ele>
        <time>2018-03-08T23:39:02Z</time>
      </trkpt>
      <trkpt lat="46.75405" lon="-1.68643">
        <ele>41</ele>
        <time>2018-03-08T23:40:02Z</time>
      </trkpt>
      <trkpt lat="46.75407" lon="-1.68634">
        <ele>41</ele>
        <time>2018-03-08T23:41:02Z</time>
      </trkpt>
      <trkpt lat="46.75409" lon="-1.68625">
        <ele>41</ele>
        <time>2018-03-08T23:42:02Z</time>
      </trkpt>
      <trkpt lat="46.75411" lon="-1.6862">
        <ele>41</ele>
        <time>2018-03-08T23:43:02Z</time>
      </trkpt>
      <trkpt lat="46.75416" lon="-1.68608">
        <ele>41</ele>
        <time>2018-03-08T23:44:02Z</time>
      </trkpt>
      <trkpt lat="46.75419" lon="-1.68601">
        <ele>40</ele>
        <time>2018-03-08T23:45:02Z</time>
      </trkpt>
      <trkpt lat="46.75429" lon="-1.68591">
        <ele>40</ele>
        <time>2018-03-08T23:46:02Z</time>
      </trkpt>
      <trkpt lat="46.75441" lon="-1.6858">
        <ele>41</ele>
        <time>2018-03-08T23:47:02Z</time>
      </trkpt>
      <trkpt lat="46.75453" lon="-1.68573">
        <ele>41</ele>
        <time>2018-03-08T23:48:02Z</time>
      </trkpt>
      <trkpt lat="46.75454" lon="-1.68573">
        <ele>41</ele>
        <time>2018-03-08T23:49:02Z</time>
      </trkpt>
      <trkpt lat="46.75459" lon="-1.6857">
        <ele>41</ele>
        <time>2018-03-08T23:50:02Z</time>
      </trkpt>
      <trkpt lat="46.75462" lon="-1.68569">
        <ele>41</ele>
        <time>2018-03-08T23:51:02Z</time>
      </trkpt>
      <trkpt lat="46.75466" lon="-1.68569">
        <ele>41</ele>
        <time>2018-03-08T23:52:02Z</time>
      </trkpt>
      <trkpt lat="46.75472" lon="-1.6857">
        <ele>41</ele>
        <time>2018-03-08T23:53:02Z</time>
      </trkpt>
      <trkpt lat="46.75479" lon="-1.6857">
        <ele>41</ele>
        <time>2018-03-08T23:54:02Z</time>
      </trkpt>
      <trkpt lat="46.75482" lon="-1.6857">
        <ele>42</ele>
        <time>2018-03-08T23:55:02Z</time>
      </trkpt>
      <trkpt lat="46.75501" lon="-1.68572">
        <ele>42</ele>
        <time>2018-03-08T23:56:02Z</time>
      </trkpt>
      <trkpt lat="46.75501" lon="-1.68572">
        <ele>42</ele>
        <time>2018-03-08T23:57:02Z</time>
      </trkpt>
      <trkpt lat="46.75496" lon="-1.68539">
        <ele>42</ele>
        <time>2018-03-08T23:58:02Z</time>
      </trkpt>
      <trkpt lat="46.75489" lon="-1.68483">
        <ele>41</ele>
        <time>2018-03-08T23:59:02Z</time>
      </trkpt>
      <trkpt lat="46.75481" lon="-1.6842">
        <ele>39</ele>
        <time>2018-03-09T00:00:02Z</time>
      </trkpt>
      <trkpt lat="46.75476" lon="-1.68381">
        <ele>38</ele>
        <time>2018-03-09T00:01:02Z</time>
      </trkpt>
      <trkpt lat="46.75468" lon="-1.68322">
        <ele>37</ele>
        <time>2018-03-09T00:02:02Z</time>
      </trkpt>
      <trkpt lat="46.7546" lon="-1.68262">
        <ele>36</ele>
        <time>2018-03-09T00:03:02Z</time>
      </trkpt>
      <trkpt lat="46.75459" lon="-1.6825">
        <ele>36</ele>
        <time>2018-03-09T00:04:02Z</time>
      </trkpt>
      <trkpt lat="46.7545" lon="-1.68188">
        <ele>33</ele>
        <time>2018-03-09T00:05:02Z</time>
      </trkpt>
      <trkpt lat="46.75444" lon="-1.68144">
        <ele>31</ele>
        <time>2018-03-09T00:06:02Z</time>
      </trkpt>
      <trkpt lat="46.7544" lon="-1.68116">
        <ele>30</ele>
        <time>2018-03-09T00:07:02Z</time>
      </trkpt>
      <trkpt lat="46.75436" lon="-1.68087">
        <ele>30</ele>
        <time>2018-03-09T00:08:02Z</time>
      </trkpt>
      <trkpt lat="46.75433" lon="-1.68059">
        <ele>29</ele>
        <time>2018-03-09T00:09:02Z</time>
      </trkpt>
      <trkpt lat="46.7542" lon="-1.67975">
        <ele>28</ele>
        <time>2018-03-09T00:10:02Z</time>
      </trkpt>
      <trkpt lat="46.75411" lon="-1.67909">
        <ele>26</ele>
        <time>2018-03-09T00:11:02Z</time>
      </trkpt>
      <trkpt lat="46.75404" lon="-1.67846">
        <ele>23</ele>
        <time>2018-03-09T00:12:02Z</time>
      </trkpt>
      <trkpt lat="46.75398" lon="-1.67808">
        <ele>21</ele>
        <time>2018-03-09T00:13:02Z</time>
      </trkpt>
      <trkpt lat="46.75396" lon="-1.67797">
        <ele>21</ele>
        <time>2018-03-09T00:14:02Z</time>
      </trkpt>
      <trkpt lat="46.75391" lon="-1.67772">
        <ele>19</ele>
        <time>2018-03-09T00:15:02Z</time>
      </trkpt>
      <trkpt lat="46.75384" lon="-1.67745">
        <ele>18</ele>
        <time>2018-03-09T00:16:02Z</time>
      </trkpt>
      <trkpt lat="46.75374" lon="-1.67717">
        <ele>16</ele>
        <time>2018-03-09T00:17:02Z</time>
      </trkpt>
      <trkpt lat="46.75365" lon="-1.67695">
        <ele>14</ele>
        <time>2018-03-09T00:18:02Z</time>
      </trkpt>
      <trkpt lat="46.75364" lon="-1.67692">
        <ele>14</ele>
        <time>2018-03-09T00:19:02Z</time>
      </trkpt>
      <trkpt lat="46.75358" lon="-1.67678">
        <ele>13</ele>
        <time>2018-03-09T00:20:02Z</time>
      </trkpt>
      <trkpt lat="46.75346" lon="-1.67654">
        <ele>11</ele>
        <time>2018-03-09T00:21:02Z</time>
      </trkpt>
      <trkpt lat="46.75326" lon="-1.67619">
        <ele>10</ele>
        <time>2018-03-09T00:22:02Z</time>
      </trkpt>
      <trkpt lat="46.7531" lon="-1.67589">
        <ele>10</ele>
        <time>2018-03-09T00:23:02Z</time>
      </trkpt>
      <trkpt lat="46.75308" lon="-1.67585">
        <ele>10</ele>
        <time>2018-03-09T00:24:02Z</time>
      </trkpt>
      <trkpt lat="46.75302" lon="-1.67575">
        <ele>10</ele>
        <time>2018-03-09T00:25:02Z</time>
      </trkpt>
      <trkpt lat="46.75297" lon="-1.67566">
        <ele>11</ele>
        <time>2018-03-09T00:26:02Z</time>
      </trkpt>
      <trkpt lat="46.75295" lon="-1.67562">
        <ele>11</ele>
        <time>2018-03-09T00:27:02Z</time>
      </trkpt>
      <trkpt lat="46.75288" lon="-1.6755">
        <ele>11</ele>
        <time>2018-03-09T00:28:02Z</time>
      </trkpt>
      <trkpt lat="46.7528" lon="-1.67536">
        <ele>12</ele>
        <time>2018-03-09T00:29:02Z</time>
      </trkpt>
      <trkpt lat="46.75277" lon="-1.6753">
        <ele>12</ele>
        <time>2018-03-09T00:30:02Z</time>
      </trkpt>
      <trkpt lat="46.75265" lon="-1.67509">
        <ele>14</ele>
        <time>2018-03-09T00:31:02Z</time>
      </trkpt>
      <trkpt lat="46.75261" lon="-1.67501">
        <ele>14</ele>
        <time>2018-03-09T00:32:02Z</time>
      </trkpt>
      <trkpt lat="46.75254" lon="-1.67489">
        <ele>16</ele>
        <time>2018-03-09T00:33:02Z</time>
      </trkpt>
      <trkpt lat="46.75237" lon="-1.67456">
        <ele>19</ele>
        <time>2018-03-09T00:34:02Z</time>
      </trkpt>
      <trkpt lat="46.75228" lon="-1.67441">
        <ele>20</ele>
        <time>2018-03-09T00:35:02Z</time>
      </trkpt>
      <trkpt lat="46.75215" lon="-1.6742">
        <ele>22</ele>
        <time>2018-03-09T00:36:02Z</time>
      </trkpt>
      <trkpt lat="46.75202" lon="-1.67403">
        <ele>22</ele>
        <time>2018-03-09T00:37:02Z</time>
      </trkpt>
      <trkpt lat="46.75192" lon="-1.67393">
        <ele>23</ele>
        <time>2018-03-09T00:38:02Z</time>
      </trkpt>
      <trkpt lat="46.75185" lon="-1.67387">
        <ele>23</ele>
        <time>2018-03-09T00:39:02Z</time>
      </trkpt>
      <trkpt lat="46.75173" lon="-1.6738">
        <ele>23</ele>
        <time>2018-03-09T00:40:02Z</time>
      </trkpt>
      <trkpt lat="46.75163" lon="-1.67374">
        <ele>24</ele>
        <time>2018-03-09T00:41:02Z</time>
      </trkpt>
      <trkpt lat="46.75152" lon="-1.6737">
        <ele>24</ele>
        <time>2018-03-09T00:42:02Z</time>
      </trkpt>
      <trkpt lat="46.75142" lon="-1.67368">
        <ele>24</ele>
        <time>2018-03-09T00:43:02Z</time>
      </trkpt>
      <trkpt lat="46.75132" lon="-1.67367">
        <ele>24</ele>
        <time>2018-03-09T00:44:02Z</time>
      </trkpt>
      <trkpt lat="46.75122" lon="-1.67368">
        <ele>24</ele>
        <time>2018-03-09T00:45:02Z</time>
      </trkpt>
      <trkpt lat="46.75114" lon="-1.67369">
        <ele>24</ele>
        <time>2018-03-09T00:46:02Z</time>
      </trkpt>
      <trkpt lat="46.75106" lon="-1.6737">
        <ele>24</ele>
        <time>2018-03-09T00:47:02Z</time>
      </trkpt>
      <trkpt lat="46.751" lon="-1.67373">
        <ele>24</ele>
        <time>2018-03-09T00:48:02Z</time>
      </trkpt>
      <trkpt lat="46.75094" lon="-1.67376">
        <ele>23</ele>
        <time>2018-03-09T00:49:02Z</time>
      </trkpt>
      <trkpt lat="46.75086" lon="-1.6738">
        <ele>23</ele>
        <time>2018-03-09T00:50:02Z</time>
      </trkpt>
      <trkpt lat="46.75041" lon="-1.6741">
        <ele>23</ele>
        <time>2018-03-09T00:51:02Z</time>
      </trkpt>
      <trkpt lat="46.74987" lon="-1.67446">
        <ele>21</ele>
        <time>2018-03-09T00:52:02Z</time>
      </trkpt>
      <trkpt lat="46.74936" lon="-1.6748">
        <ele>20</ele>
        <time>2018-03-09T00:53:02Z</time>
      </trkpt>
      <trkpt lat="46.7489" lon="-1.67511">
        <ele>19</ele>
        <time>2018-03-09T00:54:02Z</time>
      </trkpt>
      <trkpt lat="46.7487" lon="-1.67524">
        <ele>18</ele>
        <time>2018-03-09T00:55:02Z</time>
      </trkpt>
      <trkpt lat="46.74868" lon="-1.67525">
        <ele>18</ele>
        <time>2018-03-09T00:56:02Z</time>
      </trkpt>
      <trkpt lat="46.74866" lon="-1.67527">
        <ele>18</ele>
        <time>2018-03-09T00:57:02Z</time>
      </trkpt>
      <trkpt lat="46.74832" lon="-1.67548">
        <ele>16</ele>
        <time>2018-03-09T00:58:02Z</time>
      </trkpt>
      <trkpt lat="46.74809" lon="-1.67564">
        <ele>17</ele>
        <time>2018-03-09T00:59:02Z</time>
      </trkpt>
      <trkpt lat="46.74789" lon="-1.67577">
        <ele>18</ele>
        <time>2018-03-09T01:00:02Z</time>
      </trkpt>
      <trkpt lat="46.7476" lon="-1.67596">
        <ele>19</ele>
        <time>2018-03-09T01:01:02Z</time>
      </trkpt>
      <trkpt lat="46.74734" lon="-1.67614">
        <ele>20</ele>
        <time>2018-03-09T01:02:02Z</time>
      </trkpt>
      <trkpt lat="46.74695" lon="-1.6764">
        <ele>21</ele>
        <time>2018-03-09T01:03:02Z</time>
      </trkpt>
      <trkpt lat="46.74679" lon="-1.6765">
        <ele>22</ele>
        <time>2018-03-09T01:04:02Z</time>
      </trkpt>
      <trkpt lat="46.74655" lon="-1.67665">
        <ele>22</ele>
        <time>2018-03-09T01:05:02Z</time>
      </trkpt>
      <trkpt lat="46.74628" lon="-1.67685">
        <ele>22</ele>
        <time>2018-03-09T01:06:02Z</time>
      </trkpt>
      <trkpt lat="46.74606" lon="-1.67702">
        <ele>21</ele>
        <time>2018-03-09T01:07:02Z</time>
      </trkpt>
      <trkpt lat="46.74597" lon="-1.67709">
        <ele>21</ele>
        <time>2018-03-09T01:08:02Z</time>
      </trkpt>
      <trkpt lat="46.74591" lon="-1.67716">
        <ele>21</ele>
        <time>2018-03-09T01:09:02Z</time>
      </trkpt>
      <trkpt lat="46.74584" lon="-1.67724">
        <ele>20</ele>
        <time>2018-03-09T01:10:02Z</time>
      </trkpt>
      <trkpt lat="46.74576" lon="-1.67732">
        <ele>20</ele>
        <time>2018-03-09T01:11:02Z</time>
      </trkpt>
      <trkpt lat="46.74569" lon="-1.67742">
        <ele>20</ele>
        <time>2018-03-09T01:12:02Z</time>
      </trkpt>
      <trkpt lat="46.74562" lon="-1.67752">
        <ele>21</ele>
        <time>2018-03-09T01:13:02Z</time>
      </trkpt>
      <trkpt lat="46.74554" lon="-1.67763">
        <ele>21</ele>
        <time>2018-03-09T01:14:02Z</time>
      </trkpt>
      <trkpt lat="46.74521" lon="-1.67814">
        <ele>24</ele>
        <time>2018-03-09T01:15:02Z</time>
      </trkpt>
      <trkpt lat="46.74487" lon="-1.67865">
        <ele>26</ele>
        <time>2018-03-09T01:16:02Z</time>
      </trkpt>
      <trkpt lat="46.74454" lon="-1.67917">
        <ele>29</ele>
        <time>2018-03-09T01:17:02Z</time>
      </trkpt>
      <trkpt lat="46.74429" lon="-1.67954">
        <ele>29</ele>
        <time>2018-03-09T01:18:02Z</time>
      </trkpt>
      <trkpt lat="46.74403" lon="-1.67996">
        <ele>30</ele>
        <time>2018-03-09T01:19:02Z</time>
      </trkpt>
      <trkpt lat="46.74394" lon="-1.68011">
        <ele>30</ele>
        <time>2018-03-09T01:20:02Z</time>
      </trkpt>
      <trkpt lat="46.74387" lon="-1.68026">
        <ele>31</ele>
        <time>2018-03-09T01:21:02Z</time>
      </trkpt>
      <trkpt lat="46.7438" lon="-1.68043">
        <ele>31</ele>
        <time>2018-03-09T01:22:02Z</time>
      </trkpt>
      <trkpt lat="46.74366" lon="-1.68079">
        <ele>31</ele>
        <time>2018-03-09T01:23:02Z</time>
      </trkpt>
      <trkpt lat="46.74352" lon="-1.68119">
        <ele>32</ele>
        <time>2018-03-09T01:24:02Z</time>
      </trkpt>
      <trkpt lat="46.74346" lon="-1.68135">
        <ele>32</ele>
        <time>2018-03-09T01:25:02Z</time>
      </trkpt>
      <trkpt lat="46.7434" lon="-1.68147">
        <ele>32</ele>
        <time>2018-03-09T01:26:02Z</time>
      </trkpt>
      <trkpt lat="46.74325" lon="-1.68168">
        <ele>32</ele>
        <time>2018-03-09T01:27:02Z</time>
      </trkpt>
      <trkpt lat="46.74321" lon="-1.68171">
        <ele>32</ele>
        <time>2018-03-09T01:28:02Z</time>
      </trkpt>
      <trkpt lat="46.74315" lon="-1.68175">
        <ele>32</ele>
        <time>2018-03-09T01:29:02Z</time>
      </trkpt>
      <trkpt lat="46.74307" lon="-1.68179">
        <ele>32</ele>
        <time>2018-03-09T01:30:02Z</time>
      </trkpt>
      <trkpt lat="46.74297" lon="-1.68183">
        <ele>32</ele>
        <time>2018-03-09T01:31:02Z</time>
      </trkpt>
      <trkpt lat="46.74288" lon="-1.68185">
        <ele>32</ele>
        <time>2018-03-09T01:32:02Z</time>
      </trkpt>
      <trkpt lat="46.74263" lon="-1.6819">
        <ele>32</ele>
        <time>2018-03-09T01:33:02Z</time>
      </trkpt>
      <trkpt lat="46.74214" lon="-1.682">
        <ele>32</ele>
        <time>2018-03-09T01:34:02Z</time>
      </trkpt>
      <trkpt lat="46.74138" lon="-1.68215">
        <ele>33</ele>
        <time>2018-03-09T01:35:02Z</time>
      </trkpt>
      <trkpt lat="46.74121" lon="-1.68218">
        <ele>33</ele>
        <time>2018-03-09T01:36:02Z</time>
      </trkpt>
      <trkpt lat="46.74091" lon="-1.6822">
        <ele>34</ele>
        <time>2018-03-09T01:37:02Z</time>
      </trkpt>
      <trkpt lat="46.74068" lon="-1.68219">
        <ele>34</ele>
        <time>2018-03-09T01:38:02Z</time>
      </trkpt>
      <trkpt lat="46.7404" lon="-1.68214">
        <ele>35</ele>
        <time>2018-03-09T01:39:02Z</time>
      </trkpt>
      <trkpt lat="46.74024" lon="-1.68209">
        <ele>35</ele>
        <time>2018-03-09T01:40:02Z</time>
      </trkpt>
      <trkpt lat="46.73949" lon="-1.68185">
        <ele>36</ele>
        <time>2018-03-09T01:41:02Z</time>
      </trkpt>
      <trkpt lat="46.73919" lon="-1.68176">
        <ele>36</ele>
        <time>2018-03-09T01:42:02Z</time>
      </trkpt>
      <trkpt lat="46.73896" lon="-1.68172">
        <ele>36</ele>
        <time>2018-03-09T01:43:02Z</time>
      </trkpt>
      <trkpt lat="46.73885" lon="-1.6817">
        <ele>36</ele>
        <time>2018-03-09T01:44:02Z</time>
      </trkpt>
      <trkpt lat="46.73876" lon="-1.68171">
        <ele>37</ele>
        <time>2018-03-09T01:45:02Z</time>
      </trkpt>
      <trkpt lat="46.73866" lon="-1.68171">
        <ele>37</ele>
        <time>2018-03-09T01:46:02Z</time>
      </trkpt>
      <trkpt lat="46.73857" lon="-1.68173">
        <ele>37</ele>
        <time>2018-03-09T01:47:02Z</time>
      </trkpt>
      <trkpt lat="46.73847" lon="-1.68176">
        <ele>37</ele>
        <time>2018-03-09T01:48:02Z</time>
      </trkpt>
      <trkpt lat="46.73829" lon="-1.68183">
        <ele>37</ele>
        <time>2018-03-09T01:49:02Z</time>
      </trkpt>
      <trkpt lat="46.73786" lon="-1.682">
        <ele>38</ele>
        <time>2018-03-09T01:50:02Z</time>
      </trkpt>
      <trkpt lat="46.73765" lon="-1.68211">
        <ele>38</ele>
        <time>2018-03-09T01:51:02Z</time>
      </trkpt>
      <trkpt lat="46.73698" lon="-1.68238">
        <ele>38</ele>
        <time>2018-03-09T01:52:02Z</time>
      </trkpt>
      <trkpt lat="46.73637" lon="-1.68263">
        <ele>39</ele>
        <time>2018-03-09T01:53:02Z</time>
      </trkpt>
      <trkpt lat="46.73591" lon="-1.68281">
        <ele>40</ele>
        <time>2018-03-09T01:54:02Z</time>
      </trkpt>
      <trkpt lat="46.73557" lon="-1.68288">
        <ele>40</ele>
        <time>2018-03-09T01:55:02Z</time>
      </trkpt>
      <trkpt lat="46.73534" lon="-1.6829">
        <ele>39</ele>
        <time>2018-03-09T01:56:02Z</time>
      </trkpt>
      <trkpt lat="46.73482" lon="-1.68291">
        <ele>39</ele>
        <time>2018-03-09T01:57:02Z</time>
      </trkpt>
      <trkpt lat="46.73464" lon="-1.6829">
        <ele>39</ele>
        <time>2018-03-09T01:58:02Z</time>
      </trkpt>
      <trkpt lat="46.73418" lon="-1.68289">
        <ele>40</ele>
        <time>2018-03-09T01:59:02Z</time>
      </trkpt>
      <trkpt lat="46.73383" lon="-1.68288">
        <ele>42</ele>
        <time>2018-03-09T02:00:02Z</time>
      </trkpt>
      <trkpt lat="46.73336" lon="-1.68287">
        <ele>43</ele>
        <time>2018-03-09T02:01:02Z</time>
      </trkpt>
      <trkpt lat="46.73313" lon="-1.68287">
        <ele>43</ele>
        <time>2018-03-09T02:02:02Z</time>
      </trkpt>
      <trkpt lat="46.73266" lon="-1.68286">
        <ele>44</ele>
        <time>2018-03-09T02:03:02Z</time>
      </trkpt>
      <trkpt lat="46.7322" lon="-1.68286">
        <ele>45</ele>
        <time>2018-03-09T02:04:02Z</time>
      </trkpt>
      <trkpt lat="46.73197" lon="-1.68285">
        <ele>45</ele>
        <time>2018-03-09T02:05:02Z</time>
      </trkpt>
      <trkpt lat="46.73162" lon="-1.68286">
        <ele>46</ele>
        <time>2018-03-09T02:06:02Z</time>
      </trkpt>
      <trkpt lat="46.73151" lon="-1.68286">
        <ele>46</ele>
        <time>2018-03-09T02:07:02Z</time>
      </trkpt>
      <trkpt lat="46.73138" lon="-1.68287">
        <ele>47</ele>
        <time>2018-03-09T02:08:02Z</time>
      </trkpt>
      <trkpt lat="46.73129" lon="-1.68288">
        <ele>47</ele>
        <time>2018-03-09T02:09:02Z</time>
      </trkpt>
      <trkpt lat="46.73117" lon="-1.68289">
        <ele>47</ele>
        <time>2018-03-09T02:10:02Z</time>
      </trkpt>
      <trkpt lat="46.73095" lon="-1.68293">
        <ele>47</ele>
        <time>2018-03-09T02:11:02Z</time>
      </trkpt>
      <trkpt lat="46.73084" lon="-1.68295">
        <ele>47</ele>
        <time>2018-03-09T02:12:02Z</time>
      </trkpt>
      <trkpt lat="46.73074" lon="-1.68298">
        <ele>47</ele>
        <time>2018-03-09T02:13:02Z</time>
      </trkpt>
      <trkpt lat="46.73051" lon="-1.68303">
        <ele>47</ele>
        <time>2018-03-09T02:14:02Z</time>
      </trkpt>
      <trkpt lat="46.73029" lon="-1.68308">
        <ele>47</ele>
        <time>2018-03-09T02:15:02Z</time>
      </trkpt>
      <trkpt lat="46.73012" lon="-1.68311">
        <ele>47</ele>
        <time>2018-03-09T02:16:02Z</time>
      </trkpt>
      <trkpt lat="46.72979" lon="-1.68318">
        <ele>47</ele>
        <time>2018-03-09T02:17:02Z</time>
      </trkpt>
      <trkpt lat="46.72962" lon="-1.68322">
        <ele>47</ele>
        <time>2018-03-09T02:18:02Z</time>
      </trkpt>
      <trkpt lat="46.7294" lon="-1.68326">
        <ele>48</ele>
        <time>2018-03-09T02:19:02Z</time>
      </trkpt>
      <trkpt lat="46.72918" lon="-1.6833">
        <ele>48</ele>
        <time>2018-03-09T02:20:02Z</time>
      </trkpt>
      <trkpt lat="46.72897" lon="-1.68334">
        <ele>48</ele>
        <time>2018-03-09T02:21:02Z</time>
      </trkpt>
      <trkpt lat="46.72886" lon="-1.68335">
        <ele>48</ele>
        <time>2018-03-09T02:22:02Z</time>
      </trkpt>
      <trkpt lat="46.72875" lon="-1.68336">
        <ele>48</ele>
        <time>2018-03-09T02:23:02Z</time>
      </trkpt>
      <trkpt lat="46.72865" lon="-1.68337">
        <ele>48</ele>
        <time>2018-03-09T02:24:02Z</time>
      </trkpt>
      <trkpt lat="46.72839" lon="-1.68336">
        <ele>48</ele>
        <time>2018-03-09T02:25:02Z</time>
      </trkpt>
      <trkpt lat="46.72832" lon="-1.68335">
        <ele>48</ele>
        <time>2018-03-09T02:26:02Z</time>
      </trkpt>
      <trkpt lat="46.7282" lon="-1.68333">
        <ele>48</ele>
        <time>2018-03-09T02:27:02Z</time>
      </trkpt>
      <trkpt lat="46.72809" lon="-1.6833">
        <ele>48</ele>
        <time>2018-03-09T02:28:02Z</time>
      </trkpt>
      <trkpt lat="46.72787" lon="-1.68323">
        <ele>48</ele>
        <time>2018-03-09T02:29:02Z</time>
      </trkpt>
      <trkpt lat="46.72773" lon="-1.68318">
        <ele>48</ele>
        <time>2018-03-09T02:30:02Z</time>
      </trkpt>
      <trkpt lat="46.72755" lon="-1.68311">
        <ele>47</ele>
        <time>2018-03-09T02:31:02Z</time>
      </trkpt>
      <trkpt lat="46.72722" lon="-1.68299">
        <ele>47</ele>
        <time>2018-03-09T02:32:02Z</time>
      </trkpt>
      <trkpt lat="46.7269" lon="-1.68287">
        <ele>47</ele>
        <time>2018-03-09T02:33:02Z</time>
      </trkpt>
      <trkpt lat="46.72658" lon="-1.68275">
        <ele>48</ele>
        <time>2018-03-09T02:34:02Z</time>
      </trkpt>
      <trkpt lat="46.72626" lon="-1.68263">
        <ele>48</ele>
        <time>2018-03-09T02:35:02Z</time>
      </trkpt>
      <trkpt lat="46.72594" lon="-1.68252">
        <ele>49</ele>
        <time>2018-03-09T02:36:02Z</time>
      </trkpt>
      <trkpt lat="46.72562" lon="-1.68242">
        <ele>49</ele>
        <time>2018-03-09T02:37:02Z</time>
      </trkpt>
      <trkpt lat="46.72532" lon="-1.68236">
        <ele>50</ele>
        <time>2018-03-09T02:38:02Z</time>
      </trkpt>
      <trkpt lat="46.72481" lon="-1.68234">
        <ele>50</ele>
        <time>2018-03-09T02:39:02Z</time>
      </trkpt>
      <trkpt lat="46.72452" lon="-1.68234">
        <ele>51</ele>
        <time>2018-03-09T02:40:02Z</time>
      </trkpt>
      <trkpt lat="46.72413" lon="-1.68234">
        <ele>52</ele>
        <time>2018-03-09T02:41:02Z</time>
      </trkpt>
      <trkpt lat="46.72403" lon="-1.68234">
        <ele>52</ele>
        <time>2018-03-09T02:42:02Z</time>
      </trkpt>
      <trkpt lat="46.72395" lon="-1.68233">
        <ele>51</ele>
        <time>2018-03-09T02:43:02Z</time>
      </trkpt>
      <trkpt lat="46.72386" lon="-1.68231">
        <ele>51</ele>
        <time>2018-03-09T02:44:02Z</time>
      </trkpt>
      <trkpt lat="46.72377" lon="-1.68227">
        <ele>51</ele>
        <time>2018-03-09T02:45:02Z</time>
      </trkpt>
      <trkpt lat="46.72369" lon="-1.68222">
        <ele>51</ele>
        <time>2018-03-09T02:46:02Z</time>
      </trkpt>
      <trkpt lat="46.7236" lon="-1.68216">
        <ele>51</ele>
        <time>2018-03-09T02:47:02Z</time>
      </trkpt>
      <trkpt lat="46.72341" lon="-1.68197">
        <ele>50</ele>
        <time>2018-03-09T02:48:02Z</time>
      </trkpt>
      <trkpt lat="46.72336" lon="-1.68189">
        <ele>50</ele>
        <time>2018-03-09T02:49:02Z</time>
      </trkpt>
      <trkpt lat="46.72329" lon="-1.6818">
        <ele>49</ele>
        <time>2018-03-09T02:50:02Z</time>
      </trkpt>
      <trkpt lat="46.72303" lon="-1.68134">
        <ele>49</ele>
        <time>2018-03-09T02:51:02Z</time>
      </trkpt>
      <trkpt lat="46.72246" lon="-1.68033">
        <ele>49</ele>
        <time>2018-03-09T02:52:02Z</time>
      </trkpt>
      <trkpt lat="46.72226" lon="-1.67998">
        <ele>49</ele>
        <time>2018-03-09T02:53:02Z</time>
      </trkpt>
      <trkpt lat="46.722" lon="-1.67951">
        <ele>49</ele>
        <time>2018-03-09T02:54:02Z</time>
      </trkpt>
      <trkpt lat="46.72154" lon="-1.67871">
        <ele>49</ele>
        <time>2018-03-09T02:55:02Z</time>
      </trkpt>
      <trkpt lat="46.7214" lon="-1.67846">
        <ele>49</ele>
        <time>2018-03-09T02:56:02Z</time>
      </trkpt>
      <trkpt lat="46.72122" lon="-1.67813">
        <ele>50</ele>
        <time>2018-03-09T02:57:02Z</time>
      </trkpt>
      <trkpt lat="46.72089" lon="-1.67756">
        <ele>50</ele>
        <time>2018-03-09T02:58:02Z</time>
      </trkpt>
      <trkpt lat="46.72058" lon="-1.67702">
        <ele>50</ele>
        <time>2018-03-09T02:59:02Z</time>
      </trkpt>
      <trkpt lat="46.71981" lon="-1.67568">
        <ele>50</ele>
        <time>2018-03-09T03:00:02Z</time>
      </trkpt>
      <trkpt lat="46.71966" lon="-1.67541">
        <ele>51</ele>
        <time>2018-03-09T03:01:02Z</time>
      </trkpt>
      <trkpt lat="46.71938" lon="-1.67492">
        <ele>51</ele>
        <time>2018-03-09T03:02:02Z</time>
      </trkpt>
      <trkpt lat="46.71922" lon="-1.67463">
        <ele>52</ele>
        <time>2018-03-09T03:03:02Z</time>
      </trkpt>
      <trkpt lat="46.71909" lon="-1.6744">
        <ele>52</ele>
        <time>2018-03-09T03:04:02Z</time>
      </trkpt>
      <trkpt lat="46.71891" lon="-1.6742">
        <ele>52</ele>
        <time>2018-03-09T03:05:02Z</time>
      </trkpt>
      <trkpt lat="46.71893" lon="-1.67412">
        <ele>52</ele>
        <time>2018-03-09T03:06:02Z</time>
      </trkpt>
      <trkpt lat="46.71887" lon="-1.67407">
        <ele>52</ele>
        <time>2018-03-09T03:07:02Z</time>
      </trkpt>
      <trkpt lat="46.71866" lon="-1.67389">
        <ele>53</ele>
        <time>2018-03-09T03:08:02Z</time>
      </trkpt>
      <trkpt lat="46.71834" lon="-1.6736">
        <ele>54</ele>
        <time>2018-03-09T03:09:02Z</time>
      </trkpt>
      <trkpt lat="46.71814" lon="-1.67342">
        <ele>53</ele>
        <time>2018-03-09T03:10:02Z</time>
      </trkpt>
      <trkpt lat="46.71814" lon="-1.67342">
        <ele>53</ele>
        <time>2018-03-09T03:11:02Z</time>
      </trkpt>
      <trkpt lat="46.71806" lon="-1.67335">
        <ele>53</ele>
        <time>2018-03-09T03:12:02Z</time>
      </trkpt>
      <trkpt lat="46.71774" lon="-1.67307">
        <ele>51</ele>
        <time>2018-03-09T03:13:02Z</time>
      </trkpt>
      <trkpt lat="46.7173" lon="-1.67268">
        <ele>49</ele>
        <time>2018-03-09T03:14:02Z</time>
      </trkpt>
      <trkpt lat="46.71693" lon="-1.67236">
        <ele>47</ele>
        <time>2018-03-09T03:15:02Z</time>
      </trkpt>
      <trkpt lat="46.71655" lon="-1.67203">
        <ele>47</ele>
        <time>2018-03-09T03:16:02Z</time>
      </trkpt>
      <trkpt lat="46.71636" lon="-1.67187">
        <ele>47</ele>
        <time>2018-03-09T03:17:02Z</time>
      </trkpt>
      <trkpt lat="46.71607" lon="-1.67162">
        <ele>48</ele>
        <time>2018-03-09T03:18:02Z</time>
      </trkpt>
      <trkpt lat="46.71571" lon="-1.67129">
        <ele>49</ele>
        <time>2018-03-09T03:19:02Z</time>
      </trkpt>
      <trkpt lat="46.71535" lon="-1.67099">
        <ele>50</ele>
        <time>2018-03-09T03:20:02Z</time>
      </trkpt>
      <trkpt lat="46.715" lon="-1.67068">
        <ele>50</ele>
        <time>2018-03-09T03:21:02Z</time>
      </trkpt>
      <trkpt lat="46.71475" lon="-1.67048">
        <ele>51</ele>
        <time>2018-03-09T03:22:02Z</time>
      </trkpt>
      <trkpt lat="46.71455" lon="-1.67031">
        <ele>51</ele>
        <time>2018-03-09T03:23:02Z</time>
      </trkpt>
      <trkpt lat="46.71373" lon="-1.66964">
        <ele>49</ele>
        <time>2018-03-09T03:24:02Z</time>
      </trkpt>
      <trkpt lat="46.71314" lon="-1.66917">
        <ele>46</ele>
        <time>2018-03-09T03:25:02Z</time>
      </trkpt>
      <trkpt lat="46.71233" lon="-1.66852">
        <ele>42</ele>
        <time>2018-03-09T03:26:02Z</time>
      </trkpt>
      <trkpt lat="46.71204" lon="-1.66829">
        <ele>41</ele>
        <time>2018-03-09T03:27:02Z</time>
      </trkpt>
      <trkpt lat="46.7118" lon="-1.6681">
        <ele>40</ele>
        <time>2018-03-09T03:28:02Z</time>
      </trkpt>
      <trkpt lat="46.71163" lon="-1.66796">
        <ele>40</ele>
        <time>2018-03-09T03:29:02Z</time>
      </trkpt>
      <trkpt lat="46.71149" lon="-1.66785">
        <ele>40</ele>
        <time>2018-03-09T03:30:02Z</time>
      </trkpt>
      <trkpt lat="46.71007" lon="-1.6667">
        <ele>39</ele>
        <time>2018-03-09T03:31:02Z</time>
      </trkpt>
      <trkpt lat="46.70957" lon="-1.6663">
        <ele>39</ele>
        <time>2018-03-09T03:32:02Z</time>
      </trkpt>
      <trkpt lat="46.70928" lon="-1.66607">
        <ele>39</ele>
        <time>2018-03-09T03:33:02Z</time>
      </trkpt>
      <trkpt lat="46.70898" lon="-1.66583">
        <ele>40</ele>
        <time>2018-03-09T03:34:02Z</time>
      </trkpt>
      <trkpt lat="46.70886" lon="-1.66574">
        <ele>40</ele>
        <time>2018-03-09T03:35:02Z</time>
      </trkpt>
      <trkpt lat="46.70868" lon="-1.6656">
        <ele>40</ele>
        <time>2018-03-09T03:36:02Z</time>
      </trkpt>
      <trkpt lat="46.70635" lon="-1.66383">
        <ele>42</ele>
        <time>2018-03-09T03:37:02Z</time>
      </trkpt>
      <trkpt lat="46.70625" lon="-1.66376">
        <ele>42</ele>
        <time>2018-03-09T03:38:02Z</time>
      </trkpt>
      <trkpt lat="46.70596" lon="-1.66354">
        <ele>42</ele>
        <time>2018-03-09T03:39:02Z</time>
      </trkpt>
      <trkpt lat="46.70567" lon="-1.66333">
        <ele>43</ele>
        <time>2018-03-09T03:40:02Z</time>
      </trkpt>
      <trkpt lat="46.70549" lon="-1.6632">
        <ele>43</ele>
        <time>2018-03-09T03:41:02Z</time>
      </trkpt>
      <trkpt lat="46.70523" lon="-1.66298">
        <ele>42</ele>
        <time>2018-03-09T03:42:02Z</time>
      </trkpt>
      <trkpt lat="46.70514" lon="-1.66287">
        <ele>42</ele>
        <time>2018-03-09T03:43:02Z</time>
      </trkpt>
      <trkpt lat="46.70498" lon="-1.66268">
        <ele>41</ele>
        <time>2018-03-09T03:44:02Z</time>
      </trkpt>
      <trkpt lat="46.70474" lon="-1.66237">
        <ele>41</ele>
        <time>2018-03-09T03:45:02Z</time>
      </trkpt>
      <trkpt lat="46.70459" lon="-1.66216">
        <ele>40</ele>
        <time>2018-03-09T03:46:02Z</time>
      </trkpt>
      <trkpt lat="46.70444" lon="-1.66194">
        <ele>40</ele>
        <time>2018-03-09T03:47:02Z</time>
      </trkpt>
      <trkpt lat="46.70436" lon="-1.66182">
        <ele>39</ele>
        <time>2018-03-09T03:48:02Z</time>
      </trkpt>
      <trkpt lat="46.70413" lon="-1.66146">
        <ele>39</ele>
        <time>2018-03-09T03:49:02Z</time>
      </trkpt>
      <trkpt lat="46.7039" lon="-1.66107">
        <ele>38</ele>
        <time>2018-03-09T03:50:02Z</time>
      </trkpt>
      <trkpt lat="46.70343" lon="-1.66031">
        <ele>38</ele>
        <time>2018-03-09T03:51:02Z</time>
      </trkpt>
      <trkpt lat="46.70319" lon="-1.65993">
        <ele>38</ele>
        <time>2018-03-09T03:52:02Z</time>
      </trkpt>
      <trkpt lat="46.70296" lon="-1.65955">
        <ele>38</ele>
        <time>2018-03-09T03:53:02Z</time>
      </trkpt>
      <trkpt lat="46.7028" lon="-1.65929">
        <ele>39</ele>
        <time>2018-03-09T03:54:02Z</time>
      </trkpt>
      <trkpt lat="46.70256" lon="-1.65892">
        <ele>40</ele>
        <time>2018-03-09T03:55:02Z</time>
      </trkpt>
      <trkpt lat="46.70241" lon="-1.65868">
        <ele>41</ele>
        <time>2018-03-09T03:56:02Z</time>
      </trkpt>
      <trkpt lat="46.70226" lon="-1.65845">
        <ele>41</ele>
        <time>2018-03-09T03:57:02Z</time>
      </trkpt>
      <trkpt lat="46.70218" lon="-1.65832">
        <ele>42</ele>
        <time>2018-03-09T03:58:02Z</time>
      </trkpt>
      <trkpt lat="46.7021" lon="-1.6582">
        <ele>42</ele>
        <time>2018-03-09T03:59:02Z</time>
      </trkpt>
      <trkpt lat="46.70188" lon="-1.65785">
        <ele>43</ele>
        <time>2018-03-09T04:00:02Z</time>
      </trkpt>
      <trkpt lat="46.70167" lon="-1.65751">
        <ele>43</ele>
        <time>2018-03-09T04:01:02Z</time>
      </trkpt>
      <trkpt lat="46.70157" lon="-1.65738">
        <ele>43</ele>
        <time>2018-03-09T04:02:02Z</time>
      </trkpt>
      <trkpt lat="46.70157" lon="-1.65738">
        <ele>43</ele>
        <time>2018-03-09T04:03:02Z</time>
      </trkpt>
      <trkpt lat="46.70153" lon="-1.65742">
        <ele>43</ele>
        <time>2018-03-09T04:04:02Z</time>
      </trkpt>
      <trkpt lat="46.70147" lon="-1.6575">
        <ele>43</ele>
        <time>2018-03-09T04:05:02Z</time>
      </trkpt>
      <trkpt lat="46.70137" lon="-1.65761">
        <ele>44</ele>
        <time>2018-03-09T04:06:02Z</time>
      </trkpt>
      <trkpt lat="46.70127" lon="-1.65773">
        <ele>44</ele>
        <time>2018-03-09T04:07:02Z</time>
      </trkpt>
      <trkpt lat="46.70114" lon="-1.65788">
        <ele>45</ele>
        <time>2018-03-09T04:08:02Z</time>
      </trkpt>
      <trkpt lat="46.70102" lon="-1.65803">
        <ele>45</ele>
        <time>2018-03-09T04:09:02Z</time>
      </trkpt>
      <trkpt lat="46.70088" lon="-1.6582">
        <ele>46</ele>
        <time>2018-03-09T04:10:02Z</time>
      </trkpt>
      <trkpt lat="46.70078" lon="-1.65831">
        <ele>46</ele>
        <time>2018-03-09T04:11:02Z</time>
      </trkpt>
      <trkpt lat="46.70068" lon="-1.65843">
        <ele>46</ele>
        <time>2018-03-09T04:12:02Z</time>
      </trkpt>
      <trkpt lat="46.70057" lon="-1.65856">
        <ele>46</ele>
        <time>2018-03-09T04:13:02Z</time>
      </trkpt>
      <trkpt lat="46.7004" lon="-1.65877">
        <ele>47</ele>
        <time>2018-03-09T04:14:02Z</time>
      </trkpt>
      <trkpt lat="46.70022" lon="-1.65898">
        <ele>47</ele>
        <time>2018-03-09T04:15:02Z</time>
      </trkpt>
      <trkpt lat="46.70004" lon="-1.6592">
        <ele>47</ele>
        <time>2018-03-09T04:16:02Z</time>
      </trkpt>
      <trkpt lat="46.69991" lon="-1.65934">
        <ele>47</ele>
        <time>2018-03-09T04:17:02Z</time>
      </trkpt>
      <trkpt lat="46.69972" lon="-1.65957">
        <ele>46</ele>
        <time>2018-03-09T04:18:02Z</time>
      </trkpt>
      <trkpt lat="46.69952" lon="-1.65981">
        <ele>46</ele>
        <time>2018-03-09T04:19:02Z</time>
      </trkpt>
      <trkpt lat="46.69925" lon="-1.66014">
        <ele>46</ele>
        <time>2018-03-09T04:20:02Z</time>
      </trkpt>
      <trkpt lat="46.69909" lon="-1.66031">
        <ele>46</ele>
        <time>2018-03-09T04:21:02Z</time>
      </trkpt>
      <trkpt lat="46.69903" lon="-1.66039">
        <ele>46</ele>
        <time>2018-03-09T04:22:02Z</time>
      </trkpt>
      <trkpt lat="46.69889" lon="-1.66056">
        <ele>46</ele>
        <time>2018-03-09T04:23:02Z</time>
      </trkpt>
      <trkpt lat="46.69867" lon="-1.66083">
        <ele>46</ele>
        <time>2018-03-09T04:24:02Z</time>
      </trkpt>
      <trkpt lat="46.69844" lon="-1.6611">
        <ele>46</ele>
        <time>2018-03-09T04:25:02Z</time>
      </trkpt>
      <trkpt lat="46.69823" lon="-1.66135">
        <ele>46</ele>
        <time>2018-03-09T04:26:02Z</time>
      </trkpt>
      <trkpt lat="46.69812" lon="-1.66148">
        <ele>46</ele>
        <time>2018-03-09T04:27:02Z</time>
      </trkpt>
      <trkpt lat="46.69801" lon="-1.66161">
        <ele>45</ele>
        <time>2018-03-09T04:28:02Z</time>
      </trkpt>
      <trkpt lat="46.69779" lon="-1.66187">
        <ele>45</ele>
        <time>2018-03-09T04:29:02Z</time>
      </trkpt>
      <trkpt lat="46.69765" lon="-1.66204">
        <ele>44</ele>
        <time>2018-03-09T04:30:02Z</time>
      </trkpt>
      <trkpt lat="46.69743" lon="-1.6623">
        <ele>44</ele>
        <time>2018-03-09T04:31:02Z</time>
      </trkpt>
      <trkpt lat="46.69729" lon="-1.66247">
        <ele>43</ele>
        <time>2018-03-09T04:32:02Z</time>
      </trkpt>
      <trkpt lat="46.69714" lon="-1.66264">
        <ele>43</ele>
        <time>2018-03-09T04:33:02Z</time>
      </trkpt>
      <trkpt lat="46.69707" lon="-1.66273">
        <ele>43</ele>
        <time>2018-03-09T04:34:02Z</time>
      </trkpt>
      <trkpt lat="46.69699" lon="-1.66282">
        <ele>43</ele>
        <time>2018-03-09T04:35:02Z</time>
      </trkpt>
      <trkpt lat="46.69686" lon="-1.66298">
        <ele>43</ele>
        <time>2018-03-09T04:36:02Z</time>
      </trkpt>
      <trkpt lat="46.69666" lon="-1.66322">
        <ele>43</ele>
        <time>2018-03-09T04:37:02Z</time>
      </trkpt>
      <trkpt lat="46.69648" lon="-1.66343">
        <ele>42</ele>
        <time>2018-03-09T04:38:02Z</time>
      </trkpt>
      <trkpt lat="46.69629" lon="-1.66364">
        <ele>41</ele>
        <time>2018-03-09T04:39:02Z</time>
      </trkpt>
      <trkpt lat="46.6962" lon="-1.6637">
        <ele>40</ele>
        <time>2018-03-09T04:40:02Z</time>
      </trkpt>
      <trkpt lat="46.69617" lon="-1.66372">
        <ele>40</ele>
        <time>2018-03-09T04:41:02Z</time>
      </trkpt>
      <trkpt lat="46.69613" lon="-1.66375">
        <ele>40</ele>
        <time>2018-03-09T04:42:02Z</time>
      </trkpt>
      <trkpt lat="46.69606" lon="-1.66378">
        <ele>39</ele>
        <time>2018-03-09T04:43:02Z</time>
      </trkpt>
      <trkpt lat="46.69601" lon="-1.66381">
        <ele>39</ele>
        <time>2018-03-09T04:44:02Z</time>
      </trkpt>
      <trkpt lat="46.69594" lon="-1.66382">
        <ele>38</ele>
        <time>2018-03-09T04:45:02Z</time>
      </trkpt>
      <trkpt lat="46.69587" lon="-1.66383">
        <ele>38</ele>
        <time>2018-03-09T04:46:02Z</time>
      </trkpt>
      <trkpt lat="46.6958" lon="-1.66384">
        <ele>38</ele>
        <time>2018-03-09T04:47:02Z</time>
      </trkpt>
      <trkpt lat="46.69563" lon="-1.66383">
        <ele>37</ele>
        <time>2018-03-09T04:48:02Z</time>
      </trkpt>
      <trkpt lat="46.69542" lon="-1.66382">
        <ele>37</ele>
        <time>2018-03-09T04:49:02Z</time>
      </trkpt>
      <trkpt lat="46.69514" lon="-1.6638">
        <ele>36</ele>
        <time>2018-03-09T04:50:02Z</time>
      </trkpt>
      <trkpt lat="46.69468" lon="-1.66378">
        <ele>35</ele>
        <time>2018-03-09T04:51:02Z</time>
      </trkpt>
      <trkpt lat="46.69405" lon="-1.66375">
        <ele>35</ele>
        <time>2018-03-09T04:52:02Z</time>
      </trkpt>
      <trkpt lat="46.69391" lon="-1.66375">
        <ele>34</ele>
        <time>2018-03-09T04:53:02Z</time>
      </trkpt>
      <trkpt lat="46.69387" lon="-1.66374">
        <ele>34</ele>
        <time>2018-03-09T04:54:02Z</time>
      </trkpt>
      <trkpt lat="46.69376" lon="-1.66375">
        <ele>34</ele>
        <time>2018-03-09T04:55:02Z</time>
      </trkpt>
      <trkpt lat="46.69367" lon="-1.66375">
        <ele>34</ele>
        <time>2018-03-09T04:56:02Z</time>
      </trkpt>
      <trkpt lat="46.69357" lon="-1.66377">
        <ele>34</ele>
        <time>2018-03-09T04:57:02Z</time>
      </trkpt>
      <trkpt lat="46.69348" lon="-1.66378">
        <ele>33</ele>
        <time>2018-03-09T04:58:02Z</time>
      </trkpt>
      <trkpt lat="46.69333" lon="-1.66382">
        <ele>33</ele>
        <time>2018-03-09T04:59:02Z</time>
      </trkpt>
      <trkpt lat="46.69315" lon="-1.66386">
        <ele>33</ele>
        <time>2018-03-09T05:00:02Z</time>
      </trkpt>
      <trkpt lat="46.69305" lon="-1.66387">
        <ele>32</ele>
        <time>2018-03-09T05:01:02Z</time>
      </trkpt>
      <trkpt lat="46.69294" lon="-1.66388">
        <ele>32</ele>
        <time>2018-03-09T05:02:02Z</time>
      </trkpt>
      <trkpt lat="46.69284" lon="-1.66389">
        <ele>32</ele>
        <time>2018-03-09T05:03:02Z</time>
      </trkpt>
      <trkpt lat="46.69276" lon="-1.66388">
        <ele>31</ele>
        <time>2018-03-09T05:04:02Z</time>
      </trkpt>
      <trkpt lat="46.69267" lon="-1.66387">
        <ele>31</ele>
        <time>2018-03-09T05:05:02Z</time>
      </trkpt>
      <trkpt lat="46.69257" lon="-1.66385">
        <ele>31</ele>
        <time>2018-03-09T05:06:02Z</time>
      </trkpt>
      <trkpt lat="46.69248" lon="-1.66383">
        <ele>30</ele>
        <time>2018-03-09T05:07:02Z</time>
      </trkpt>
      <trkpt lat="46.69241" lon="-1.6638">
        <ele>30</ele>
        <time>2018-03-09T05:08:02Z</time>
      </trkpt>
      <trkpt lat="46.69233" lon="-1.66377">
        <ele>30</ele>
        <time>2018-03-09T05:09:02Z</time>
      </trkpt>
      <trkpt lat="46.69225" lon="-1.66373">
        <ele>30</ele>
        <time>2018-03-09T05:10:02Z</time>
      </trkpt>
      <trkpt lat="46.69209" lon="-1.66362">
        <ele>29</ele>
        <time>2018-03-09T05:11:02Z</time>
      </trkpt>
      <trkpt lat="46.6917" lon="-1.66333">
        <ele>28</ele>
        <time>2018-03-09T05:12:02Z</time>
      </trkpt>
      <trkpt lat="46.69151" lon="-1.6632">
        <ele>27</ele>
        <time>2018-03-09T05:13:02Z</time>
      </trkpt>
      <trkpt lat="46.69139" lon="-1.66313">
        <ele>26</ele>
        <time>2018-03-09T05:14:02Z</time>
      </trkpt>
      <trkpt lat="46.69131" lon="-1.6631">
        <ele>25</ele>
        <time>2018-03-09T05:15:02Z</time>
      </trkpt>
      <trkpt lat="46.69123" lon="-1.66309">
        <ele>25</ele>
        <time>2018-03-09T05:16:02Z</time>
      </trkpt>
      <trkpt lat="46.69113" lon="-1.66309">
        <ele>24</ele>
        <time>2018-03-09T05:17:02Z</time>
      </trkpt>
      <trkpt lat="46.69103" lon="-1.6631">
        <ele>23</ele>
        <time>2018-03-09T05:18:02Z</time>
      </trkpt>
      <trkpt lat="46.69094" lon="-1.66312">
        <ele>23</ele>
        <time>2018-03-09T05:19:02Z</time>
      </trkpt>
      <trkpt lat="46.69083" lon="-1.66317">
        <ele>22</ele>
        <time>2018-03-09T05:20:02Z</time>
      </trkpt>
      <trkpt lat="46.6907" lon="-1.66322">
        <ele>22</ele>
        <time>2018-03-09T05:21:02Z</time>
      </trkpt>
      <trkpt lat="46.69067" lon="-1.66323">
        <ele>22</ele>
        <time>2018-03-09T05:22:02Z</time>
      </trkpt>
      <trkpt lat="46.69053" lon="-1.6633">
        <ele>22</ele>
        <time>2018-03-09T05:23:02Z</time>
      </trkpt>
      <trkpt lat="46.69042" lon="-1.66336">
        <ele>22</ele>
        <time>2018-03-09T05:24:02Z</time>
      </trkpt>
      <trkpt lat="46.69027" lon="-1.66346">
        <ele>22</ele>
        <time>2018-03-09T05:25:02Z</time>
      </trkpt>
      <trkpt lat="46.69024" lon="-1.66348">
        <ele>22</ele>
        <time>2018-03-09T05:26:02Z</time>
      </trkpt>
      <trkpt lat="46.69019" lon="-1.66353">
        <ele>22</ele>
        <time>2018-03-09T05:27:02Z</time>
      </trkpt>
      <trkpt lat="46.69013" lon="-1.66362">
        <ele>22</ele>
        <time>2018-03-09T05:28:02Z</time>
      </trkpt>
      <trkpt lat="46.69008" lon="-1.66371">
        <ele>22</ele>
        <time>2018-03-09T05:29:02Z</time>
      </trkpt>
      <trkpt lat="46.69004" lon="-1.66378">
        <ele>22</ele>
        <time>2018-03-09T05:30:02Z</time>
      </trkpt>
      <trkpt lat="46.68991" lon="-1.66405">
        <ele>22</ele>
        <time>2018-03-09T05:31:02Z</time>
      </trkpt>
      <trkpt lat="46.68988" lon="-1.66413">
        <ele>23</ele>
        <time>2018-03-09T05:32:02Z</time>
      </trkpt>
      <trkpt lat="46.68965" lon="-1.66464">
        <ele>23</ele>
        <time>2018-03-09T05:33:02Z</time>
      </trkpt>
      <trkpt lat="46.68952" lon="-1.66497">
        <ele>23</ele>
        <time>2018-03-09T05:34:02Z</time>
      </trkpt>
      <trkpt lat="46.6894" lon="-1.66523">
        <ele>24</ele>
        <time>2018-03-09T05:35:02Z</time>
      </trkpt>
      <trkpt lat="46.68931" lon="-1.66545">
        <ele>24</ele>
        <time>2018-03-09T05:36:02Z</time>
      </trkpt>
      <trkpt lat="46.68925" lon="-1.66556">
        <ele>24</ele>
        <time>2018-03-09T05:37:02Z</time>
      </trkpt>
      <trkpt lat="46.68918" lon="-1.66569">
        <ele>25</ele>
        <time>2018-03-09T05:38:02Z</time>
      </trkpt>
      <trkpt lat="46.68912" lon="-1.6658">
        <ele>25</ele>
        <time>2018-03-09T05:39:02Z</time>
      </trkpt>
      <trkpt lat="46.68903" lon="-1.66593">
        <ele>26</ele>
        <time>2018-03-09T05:40:02Z</time>
      </trkpt>
      <trkpt lat="46.68896" lon="-1.66602">
        <ele>26</ele>
        <time>2018-03-09T05:41:02Z</time>
      </trkpt>
      <trkpt lat="46.68889" lon="-1.6661">
        <ele>27</ele>
        <time>2018-03-09T05:42:02Z</time>
      </trkpt>
      <trkpt lat="46.68881" lon="-1.66618">
        <ele>27</ele>
        <time>2018-03-09T05:43:02Z</time>
      </trkpt>
      <trkpt lat="46.68873" lon="-1.66626">
        <ele>28</ele>
        <time>2018-03-09T05:44:02Z</time>
      </trkpt>
      <trkpt lat="46.6887" lon="-1.66628">
        <ele>28</ele>
        <time>2018-03-09T05:45:02Z</time>
      </trkpt>
      <trkpt lat="46.68865" lon="-1.66633">
        <ele>28</ele>
        <time>2018-03-09T05:46:02Z</time>
      </trkpt>
      <trkpt lat="46.68854" lon="-1.66642">
        <ele>29</ele>
        <time>2018-03-09T05:47:02Z</time>
      </trkpt>
      <trkpt lat="46.68799" lon="-1.66684">
        <ele>31</ele>
        <time>2018-03-09T05:48:02Z</time>
      </trkpt>
      <trkpt lat="46.68781" lon="-1.66699">
        <ele>32</ele>
        <time>2018-03-09T05:49:02Z</time>
      </trkpt>
      <trkpt lat="46.6871" lon="-1.66756">
        <ele>35</ele>
        <time>2018-03-09T05:50:02Z</time>
      </trkpt>
      <trkpt lat="46.68655" lon="-1.66801">
        <ele>35</ele>
        <time>2018-03-09T05:51:02Z</time>
      </trkpt>
      <trkpt lat="46.68638" lon="-1.66814">
        <ele>35</ele>
        <time>2018-03-09T05:52:02Z</time>
      </trkpt>
      <trkpt lat="46.68584" lon="-1.66854">
        <ele>35</ele>
        <time>2018-03-09T05:53:02Z</time>
      </trkpt>
      <trkpt lat="46.68582" lon="-1.66862">
        <ele>35</ele>
        <time>2018-03-09T05:54:02Z</time>
      </trkpt>
      <trkpt lat="46.68577" lon="-1.66869">
        <ele>35</ele>
        <time>2018-03-09T05:55:02Z</time>
      </trkpt>
      <trkpt lat="46.68563" lon="-1.66881">
        <ele>35</ele>
        <time>2018-03-09T05:56:02Z</time>
      </trkpt>
      <trkpt lat="46.68538" lon="-1.66901">
        <ele>35</ele>
        <time>2018-03-09T05:57:02Z</time>
      </trkpt>
      <trkpt lat="46.68512" lon="-1.66921">
        <ele>36</ele>
        <time>2018-03-09T05:58:02Z</time>
      </trkpt>
      <trkpt lat="46.68471" lon="-1.66954">
        <ele>34</ele>
        <time>2018-03-09T05:59:02Z</time>
      </trkpt>
      <trkpt lat="46.68459" lon="-1.66965">
        <ele>34</ele>
        <time>2018-03-09T06:00:02Z</time>
      </trkpt>
      <trkpt lat="46.68442" lon="-1.66981">
        <ele>34</ele>
        <time>2018-03-09T06:01:02Z</time>
      </trkpt>
      <trkpt lat="46.68426" lon="-1.67002">
        <ele>33</ele>
        <time>2018-03-09T06:02:02Z</time>
      </trkpt>
      <trkpt lat="46.68406" lon="-1.67034">
        <ele>34</ele>
        <time>2018-03-09T06:03:02Z</time>
      </trkpt>
      <trkpt lat="46.68387" lon="-1.67066">
        <ele>35</ele>
        <time>2018-03-09T06:04:02Z</time>
      </trkpt>
      <trkpt lat="46.68373" lon="-1.67091">
        <ele>36</ele>
        <time>2018-03-09T06:05:02Z</time>
      </trkpt>
      <trkpt lat="46.68354" lon="-1.67122">
        <ele>36</ele>
        <time>2018-03-09T06:06:02Z</time>
      </trkpt>
      <trkpt lat="46.68339" lon="-1.67147">
        <ele>37</ele>
        <time>2018-03-09T06:07:02Z</time>
      </trkpt>
      <trkpt lat="46.68324" lon="-1.67172">
        <ele>37</ele>
        <time>2018-03-09T06:08:02Z</time>
      </trkpt>
      <trkpt lat="46.68314" lon="-1.67188">
        <ele>37</ele>
        <time>2018-03-09T06:09:02Z</time>
      </trkpt>
      <trkpt lat="46.68305" lon="-1.67205">
        <ele>36</ele>
        <time>2018-03-09T06:10:02Z</time>
      </trkpt>
      <trkpt lat="46.6829" lon="-1.67229">
        <ele>36</ele>
        <time>2018-03-09T06:11:02Z</time>
      </trkpt>
      <trkpt lat="46.68275" lon="-1.67253">
        <ele>35</ele>
        <time>2018-03-09T06:12:02Z</time>
      </trkpt>
      <trkpt lat="46.68265" lon="-1.67269">
        <ele>35</ele>
        <time>2018-03-09T06:13:02Z</time>
      </trkpt>
      <trkpt lat="46.68256" lon="-1.67284">
        <ele>35</ele>
        <time>2018-03-09T06:14:02Z</time>
      </trkpt>
      <trkpt lat="46.68251" lon="-1.67292">
        <ele>35</ele>
        <time>2018-03-09T06:15:02Z</time>
      </trkpt>
      <trkpt lat="46.68242" lon="-1.67308">
        <ele>35</ele>
        <time>2018-03-09T06:16:02Z</time>
      </trkpt>
      <trkpt lat="46.68233" lon="-1.67323">
        <ele>35</ele>
        <time>2018-03-09T06:17:02Z</time>
      </trkpt>
      <trkpt lat="46.68215" lon="-1.67355">
        <ele>35</ele>
        <time>2018-03-09T06:18:02Z</time>
      </trkpt>
      <trkpt lat="46.68207" lon="-1.67371">
        <ele>34</ele>
        <time>2018-03-09T06:19:02Z</time>
      </trkpt>
      <trkpt lat="46.68203" lon="-1.67379">
        <ele>34</ele>
        <time>2018-03-09T06:20:02Z</time>
      </trkpt>
      <trkpt lat="46.682" lon="-1.67388">
        <ele>34</ele>
        <time>2018-03-09T06:21:02Z</time>
      </trkpt>
      <trkpt lat="46.68196" lon="-1.67396">
        <ele>34</ele>
        <time>2018-03-09T06:22:02Z</time>
      </trkpt>
      <trkpt lat="46.68194" lon="-1.67405">
        <ele>34</ele>
        <time>2018-03-09T06:23:02Z</time>
      </trkpt>
      <trkpt lat="46.68189" lon="-1.67422">
        <ele>34</ele>
        <time>2018-03-09T06:24:02Z</time>
      </trkpt>
      <trkpt lat="46.68187" lon="-1.67433">
        <ele>33</ele>
        <time>2018-03-09T06:25:02Z</time>
      </trkpt>
      <trkpt lat="46.68184" lon="-1.67443">
        <ele>33</ele>
        <time>2018-03-09T06:26:02Z</time>
      </trkpt>
      <trkpt lat="46.68181" lon="-1.67469">
        <ele>32</ele>
        <time>2018-03-09T06:27:02Z</time>
      </trkpt>
      <trkpt lat="46.6818" lon="-1.6748">
        <ele>31</ele>
        <time>2018-03-09T06:28:02Z</time>
      </trkpt>
      <trkpt lat="46.68178" lon="-1.67489">
        <ele>31</ele>
        <time>2018-03-09T06:29:02Z</time>
      </trkpt>
      <trkpt lat="46.68176" lon="-1.67509">
        <ele>30</ele>
        <time>2018-03-09T06:30:02Z</time>
      </trkpt>
      <trkpt lat="46.68172" lon="-1.67539">
        <ele>29</ele>
        <time>2018-03-09T06:31:02Z</time>
      </trkpt>
      <trkpt lat="46.68168" lon="-1.67571">
        <ele>27</ele>
        <time>2018-03-09T06:32:02Z</time>
      </trkpt>
      <trkpt lat="46.68165" lon="-1.67591">
        <ele>27</ele>
        <time>2018-03-09T06:33:02Z</time>
      </trkpt>
      <trkpt lat="46.6816" lon="-1.67623">
        <ele>26</ele>
        <time>2018-03-09T06:34:02Z</time>
      </trkpt>
      <trkpt lat="46.68157" lon="-1.67644">
        <ele>25</ele>
        <time>2018-03-09T06:35:02Z</time>
      </trkpt>
      <trkpt lat="46.68152" lon="-1.67687">
        <ele>24</ele>
        <time>2018-03-09T06:36:02Z</time>
      </trkpt>
      <trkpt lat="46.68146" lon="-1.67733">
        <ele>25</ele>
        <time>2018-03-09T06:37:02Z</time>
      </trkpt>
      <trkpt lat="46.6814" lon="-1.67777">
        <ele>25</ele>
        <time>2018-03-09T06:38:02Z</time>
      </trkpt>
      <trkpt lat="46.68135" lon="-1.67818">
        <ele>25</ele>
        <time>2018-03-09T06:39:02Z</time>
      </trkpt>
      <trkpt lat="46.68132" lon="-1.67837">
        <ele>25</ele>
        <time>2018-03-09T06:40:02Z</time>
      </trkpt>
      <trkpt lat="46.6813" lon="-1.67846">
        <ele>25</ele>
        <time>2018-03-09T06:41:02Z</time>
      </trkpt>
      <trkpt lat="46.68129" lon="-1.67854">
        <ele>26</ele>
        <time>2018-03-09T06:42:02Z</time>
      </trkpt>
      <trkpt lat="46.68126" lon="-1.67861">
        <ele>26</ele>
        <time>2018-03-09T06:43:02Z</time>
      </trkpt>
      <trkpt lat="46.68123" lon="-1.67867">
        <ele>26</ele>
        <time>2018-03-09T06:44:02Z</time>
      </trkpt>
      <trkpt lat="46.68121" lon="-1.67872">
        <ele>26</ele>
        <time>2018-03-09T06:45:02Z</time>
      </trkpt>
      <trkpt lat="46.6811" lon="-1.67882">
        <ele>26</ele>
        <time>2018-03-09T06:46:02Z</time>
      </trkpt>
      <trkpt lat="46.68107" lon="-1.67883">
        <ele>26</ele>
        <time>2018-03-09T06:47:02Z</time>
      </trkpt>
      <trkpt lat="46.68097" lon="-1.67885">
        <ele>27</ele>
        <time>2018-03-09T06:48:02Z</time>
      </trkpt>
      <trkpt lat="46.6808" lon="-1.67885">
        <ele>27</ele>
        <time>2018-03-09T06:49:02Z</time>
      </trkpt>
      <trkpt lat="46.68062" lon="-1.67881">
        <ele>28</ele>
        <time>2018-03-09T06:50:02Z</time>
      </trkpt>
      <trkpt lat="46.68036" lon="-1.6787">
        <ele>29</ele>
        <time>2018-03-09T06:51:02Z</time>
      </trkpt>
      <trkpt lat="46.68012" lon="-1.67859">
        <ele>30</ele>
        <time>2018-03-09T06:52:02Z</time>
      </trkpt>
      <trkpt lat="46.67982" lon="-1.67844">
        <ele>31</ele>
        <time>2018-03-09T06:53:02Z</time>
      </trkpt>
      <trkpt lat="46.67959" lon="-1.67833">
        <ele>31</ele>
        <time>2018-03-09T06:54:02Z</time>
      </trkpt>
      <trkpt lat="46.67954" lon="-1.6783">
        <ele>30</ele>
        <time>2018-03-09T06:55:02Z</time>
      </trkpt>
      <trkpt lat="46.67943" lon="-1.67824">
        <ele>30</ele>
        <time>2018-03-09T06:56:02Z</time>
      </trkpt>
      <trkpt lat="46.67925" lon="-1.67815">
        <ele>30</ele>
        <time>2018-03-09T06:57:02Z</time>
      </trkpt>
      <trkpt lat="46.67907" lon="-1.67808">
        <ele>30</ele>
        <time>2018-03-09T06:58:02Z</time>
      </trkpt>
      <trkpt lat="46.67889" lon="-1.67801">
        <ele>31</ele>
        <time>2018-03-09T06:59:02Z</time>
      </trkpt>
      <trkpt lat="46.67876" lon="-1.67799">
        <ele>31</ele>
        <time>2018-03-09T07:00:02Z</time>
      </trkpt>
      <trkpt lat="46.67864" lon="-1.67797">
        <ele>31</ele>
        <time>2018-03-09T07:01:02Z</time>
      </trkpt>
      <trkpt lat="46.67846" lon="-1.67799">
        <ele>32</ele>
        <time>2018-03-09T07:02:02Z</time>
      </trkpt>
      <trkpt lat="46.67834" lon="-1.67801">
        <ele>32</ele>
        <time>2018-03-09T07:03:02Z</time>
      </trkpt>
      <trkpt lat="46.67807" lon="-1.67808">
        <ele>32</ele>
        <time>2018-03-09T07:04:02Z</time>
      </trkpt>
      <trkpt lat="46.67789" lon="-1.67812">
        <ele>32</ele>
        <time>2018-03-09T07:05:02Z</time>
      </trkpt>
      <trkpt lat="46.67778" lon="-1.67815">
        <ele>32</ele>
        <time>2018-03-09T07:06:02Z</time>
      </trkpt>
      <trkpt lat="46.67773" lon="-1.67815">
        <ele>32</ele>
        <time>2018-03-09T07:07:02Z</time>
      </trkpt>
      <trkpt lat="46.67754" lon="-1.67816">
        <ele>32</ele>
        <time>2018-03-09T07:08:02Z</time>
      </trkpt>
      <trkpt lat="46.67729" lon="-1.67816">
        <ele>32</ele>
        <time>2018-03-09T07:09:02Z</time>
      </trkpt>
      <trkpt lat="46.67707" lon="-1.67815">
        <ele>33</ele>
        <time>2018-03-09T07:10:02Z</time>
      </trkpt>
      <trkpt lat="46.6769" lon="-1.67816">
        <ele>33</ele>
        <time>2018-03-09T07:11:02Z</time>
      </trkpt>
      <trkpt lat="46.67673" lon="-1.67819">
        <ele>34</ele>
        <time>2018-03-09T07:12:02Z</time>
      </trkpt>
      <trkpt lat="46.67658" lon="-1.67827">
        <ele>35</ele>
        <time>2018-03-09T07:13:02Z</time>
      </trkpt>
      <trkpt lat="46.67634" lon="-1.67839">
        <ele>36</ele>
        <time>2018-03-09T07:14:02Z</time>
      </trkpt>
      <trkpt lat="46.67634" lon="-1.67839">
        <ele>36</ele>
        <time>2018-03-09T07:15:02Z</time>
      </trkpt>
      <trkpt lat="46.67636" lon="-1.67849">
        <ele>36</ele>
        <time>2018-03-09T07:16:02Z</time>
      </trkpt>
      <trkpt lat="46.6764" lon="-1.67875">
        <ele>36</ele>
        <time>2018-03-09T07:17:02Z</time>
      </trkpt>
      <trkpt lat="46.6764" lon="-1.67875">
        <ele>36</ele>
        <time>2018-03-09T07:18:02Z</time>
      </trkpt>
      <trkpt lat="46.67629" lon="-1.67893">
        <ele>36</ele>
        <time>2018-03-09T07:19:02Z</time>
      </trkpt>
      <trkpt lat="46.67615" lon="-1.67914">
        <ele>37</ele>
        <time>2018-03-09T07:20:02Z</time>
      </trkpt>
      <trkpt lat="46.67601" lon="-1.67934">
        <ele>38</ele>
        <time>2018-03-09T07:21:02Z</time>
      </trkpt>
      <trkpt lat="46.6759" lon="-1.6795">
        <ele>38</ele>
        <time>2018-03-09T07:22:02Z</time>
      </trkpt>
      <trkpt lat="46.6758" lon="-1.67962">
        <ele>39</ele>
        <time>2018-03-09T07:23:02Z</time>
      </trkpt>
      <trkpt lat="46.67571" lon="-1.67971">
        <ele>39</ele>
        <time>2018-03-09T07:24:02Z</time>
      </trkpt>
      <trkpt lat="46.67562" lon="-1.67978">
        <ele>39</ele>
        <time>2018-03-09T07:25:02Z</time>
      </trkpt>
      <trkpt lat="46.67554" lon="-1.67985">
        <ele>39</ele>
        <time>2018-03-09T07:26:02Z</time>
      </trkpt>
      <trkpt lat="46.6754" lon="-1.67996">
        <ele>40</ele>
        <time>2018-03-09T07:27:02Z</time>
      </trkpt>
      <trkpt lat="46.67524" lon="-1.68006">
        <ele>41</ele>
        <time>2018-03-09T07:28:02Z</time>
      </trkpt>
      <trkpt lat="46.67512" lon="-1.68014">
        <ele>41</ele>
        <time>2018-03-09T07:29:02Z</time>
      </trkpt>
      <trkpt lat="46.67498" lon="-1.68021">
        <ele>42</ele>
        <time>2018-03-09T07:30:02Z</time>
      </trkpt>
      <trkpt lat="46.67491" lon="-1.68025">
        <ele>42</ele>
        <time>2018-03-09T07:31:02Z</time>
      </trkpt>
      <trkpt lat="46.67484" lon="-1.68028">
        <ele>42</ele>
        <time>2018-03-09T07:32:02Z</time>
      </trkpt>
      <trkpt lat="46.67479" lon="-1.6803">
        <ele>42</ele>
        <time>2018-03-09T07:33:02Z</time>
      </trkpt>
      <trkpt lat="46.67477" lon="-1.6803">
        <ele>42</ele>
        <time>2018-03-09T07:34:02Z</time>
      </trkpt>
      <trkpt lat="46.67456" lon="-1.68038">
        <ele>42</ele>
        <time>2018-03-09T07:35:02Z</time>
      </trkpt>
      <trkpt lat="46.67438" lon="-1.68041">
        <ele>42</ele>
        <time>2018-03-09T07:36:02Z</time>
      </trkpt>
      <trkpt lat="46.67413" lon="-1.68046">
        <ele>42</ele>
        <time>2018-03-09T07:37:02Z</time>
      </trkpt>
      <trkpt lat="46.67394" lon="-1.6805">
        <ele>42</ele>
        <time>2018-03-09T07:38:02Z</time>
      </trkpt>
      <trkpt lat="46.67365" lon="-1.68056">
        <ele>42</ele>
        <time>2018-03-09T07:39:02Z</time>
      </trkpt>
      <trkpt lat="46.67342" lon="-1.68061">
        <ele>42</ele>
        <time>2018-03-09T07:40:02Z</time>
      </trkpt>
      <trkpt lat="46.67324" lon="-1.68064">
        <ele>43</ele>
        <time>2018-03-09T07:41:02Z</time>
      </trkpt>
      <trkpt lat="46.67304" lon="-1.68068">
        <ele>43</ele>
        <time>2018-03-09T07:42:02Z</time>
      </trkpt>
      <trkpt lat="46.67284" lon="-1.68072">
        <ele>43</ele>
        <time>2018-03-09T07:43:02Z</time>
      </trkpt>
      <trkpt lat="46.67262" lon="-1.68076">
        <ele>44</ele>
        <time>2018-03-09T07:44:02Z</time>
      </trkpt>
      <trkpt lat="46.6726" lon="-1.68076">
        <ele>44</ele>
        <time>2018-03-09T07:45:02Z</time>
      </trkpt>
      <trkpt lat="46.67251" lon="-1.68077">
        <ele>44</ele>
        <time>2018-03-09T07:46:02Z</time>
      </trkpt>
      <trkpt lat="46.67235" lon="-1.6808">
        <ele>44</ele>
        <time>2018-03-09T07:47:02Z</time>
      </trkpt>
      <trkpt lat="46.67228" lon="-1.68083">
        <ele>43</ele>
        <time>2018-03-09T07:48:02Z</time>
      </trkpt>
      <trkpt lat="46.67223" lon="-1.68084">
        <ele>43</ele>
        <time>2018-03-09T07:49:02Z</time>
      </trkpt>
      <trkpt lat="46.67218" lon="-1.68085">
        <ele>43</ele>
        <time>2018-03-09T07:50:02Z</time>
      </trkpt>
      <trkpt lat="46.67173" lon="-1.68095">
        <ele>42</ele>
        <time>2018-03-09T07:51:02Z</time>
      </trkpt>
      <trkpt lat="46.67167" lon="-1.68098">
        <ele>42</ele>
        <time>2018-03-09T07:52:02Z</time>
      </trkpt>
      <trkpt lat="46.67158" lon="-1.68101">
        <ele>42</ele>
        <time>2018-03-09T07:53:02Z</time>
      </trkpt>
      <trkpt lat="46.67144" lon="-1.68106">
        <ele>42</ele>
        <time>2018-03-09T07:54:02Z</time>
      </trkpt>
      <trkpt lat="46.67121" lon="-1.68114">
        <ele>43</ele>
        <time>2018-03-09T07:55:02Z</time>
      </trkpt>
      <trkpt lat="46.67091" lon="-1.68125">
        <ele>43</ele>
        <time>2018-03-09T07:56:02Z</time>
      </trkpt>
      <trkpt lat="46.67068" lon="-1.68133">
        <ele>43</ele>
        <time>2018-03-09T07:57:02Z</time>
      </trkpt>
      <trkpt lat="46.67044" lon="-1.68142">
        <ele>43</ele>
        <time>2018-03-09T07:58:02Z</time>
      </trkpt>
      <trkpt lat="46.67031" lon="-1.68146">
        <ele>44</ele>
        <time>2018-03-09T07:59:02Z</time>
      </trkpt>
      <trkpt lat="46.67022" lon="-1.6815">
        <ele>44</ele>
        <time>2018-03-09T08:00:02Z</time>
      </trkpt>
      <trkpt lat="46.67003" lon="-1.68156">
        <ele>44</ele>
        <time>2018-03-09T08:01:02Z</time>
      </trkpt>
      <trkpt lat="46.6698" lon="-1.68163">
        <ele>44</ele>
        <time>2018-03-09T08:02:02Z</time>
      </trkpt>
      <trkpt lat="46.66965" lon="-1.68168">
        <ele>44</ele>
        <time>2018-03-09T08:03:02Z</time>
      </trkpt>
      <trkpt lat="46.66943" lon="-1.68174">
        <ele>43</ele>
        <time>2018-03-09T08:04:02Z</time>
      </trkpt>
      <trkpt lat="46.66923" lon="-1.68181">
        <ele>43</ele>
        <time>2018-03-09T08:05:02Z</time>
      </trkpt>
      <trkpt lat="46.66909" lon="-1.68185">
        <ele>43</ele>
        <time>2018-03-09T08:06:02Z</time>
      </trkpt>
      <trkpt lat="46.66901" lon="-1.68186">
        <ele>43</ele>
        <time>2018-03-09T08:07:02Z</time>
      </trkpt>
      <trkpt lat="46.66892" lon="-1.6819">
        <ele>43</ele>
        <time>2018-03-09T08:08:02Z</time>
      </trkpt>
      <trkpt lat="46.66884" lon="-1.68192">
        <ele>43</ele>
        <time>2018-03-09T08:09:02Z</time>
      </trkpt>
      <trkpt lat="46.66867" lon="-1.68197">
        <ele>43</ele>
        <time>2018-03-09T08:10:02Z</time>
      </trkpt>
      <trkpt lat="46.66834" lon="-1.68208">
        <ele>43</ele>
        <time>2018-03-09T08:11:02Z</time>
      </trkpt>
      <trkpt lat="46.66808" lon="-1.68215">
        <ele>44</ele>
        <time>2018-03-09T08:12:02Z</time>
      </trkpt>
      <trkpt lat="46.66781" lon="-1.68222">
        <ele>45</ele>
        <time>2018-03-09T08:13:02Z</time>
      </trkpt>
      <trkpt lat="46.66742" lon="-1.68235">
        <ele>46</ele>
        <time>2018-03-09T08:14:02Z</time>
      </trkpt>
      <trkpt lat="46.66686" lon="-1.68251">
        <ele>47</ele>
        <time>2018-03-09T08:15:02Z</time>
      </trkpt>
      <trkpt lat="46.66657" lon="-1.6826">
        <ele>48</ele>
        <time>2018-03-09T08:16:02Z</time>
      </trkpt>
      <trkpt lat="46.6663" lon="-1.68268">
        <ele>48</ele>
        <time>2018-03-09T08:17:02Z</time>
      </trkpt>
      <trkpt lat="46.66617" lon="-1.68272">
        <ele>49</ele>
        <time>2018-03-09T08:18:02Z</time>
      </trkpt>
      <trkpt lat="46.66611" lon="-1.68273">
        <ele>49</ele>
        <time>2018-03-09T08:19:02Z</time>
      </trkpt>
      <trkpt lat="46.66602" lon="-1.68273">
        <ele>49</ele>
        <time>2018-03-09T08:20:02Z</time>
      </trkpt>
      <trkpt lat="46.66594" lon="-1.68275">
        <ele>49</ele>
        <time>2018-03-09T08:21:02Z</time>
      </trkpt>
      <trkpt lat="46.66576" lon="-1.68277">
        <ele>50</ele>
        <time>2018-03-09T08:22:02Z</time>
      </trkpt>
      <trkpt lat="46.66555" lon="-1.68279">
        <ele>50</ele>
        <time>2018-03-09T08:23:02Z</time>
      </trkpt>
      <trkpt lat="46.66529" lon="-1.68281">
        <ele>50</ele>
        <time>2018-03-09T08:24:02Z</time>
      </trkpt>
      <trkpt lat="46.66493" lon="-1.68284">
        <ele>50</ele>
        <time>2018-03-09T08:25:02Z</time>
      </trkpt>
      <trkpt lat="46.66468" lon="-1.68286">
        <ele>51</ele>
        <time>2018-03-09T08:26:02Z</time>
      </trkpt>
      <trkpt lat="46.66403" lon="-1.68294">
        <ele>51</ele>
        <time>2018-03-09T08:27:02Z</time>
      </trkpt>
      <trkpt lat="46.66386" lon="-1.68299">
        <ele>51</ele>
        <time>2018-03-09T08:28:02Z</time>
      </trkpt>
      <trkpt lat="46.66371" lon="-1.68306">
        <ele>51</ele>
        <time>2018-03-09T08:29:02Z</time>
      </trkpt>
      <trkpt lat="46.66356" lon="-1.68317">
        <ele>51</ele>
        <time>2018-03-09T08:30:02Z</time>
      </trkpt>
      <trkpt lat="46.66346" lon="-1.68325">
        <ele>52</ele>
        <time>2018-03-09T08:31:02Z</time>
      </trkpt>
      <trkpt lat="46.66339" lon="-1.68331">
        <ele>52</ele>
        <time>2018-03-09T08:32:02Z</time>
      </trkpt>
      <trkpt lat="46.66327" lon="-1.68341">
        <ele>52</ele>
        <time>2018-03-09T08:33:02Z</time>
      </trkpt>
      <trkpt lat="46.66314" lon="-1.68358">
        <ele>52</ele>
        <time>2018-03-09T08:34:02Z</time>
      </trkpt>
      <trkpt lat="46.66267" lon="-1.68422">
        <ele>52</ele>
        <time>2018-03-09T08:35:02Z</time>
      </trkpt>
      <trkpt lat="46.66264" lon="-1.68426">
        <ele>52</ele>
        <time>2018-03-09T08:36:02Z</time>
      </trkpt>
      <trkpt lat="46.66259" lon="-1.68434">
        <ele>52</ele>
        <time>2018-03-09T08:37:02Z</time>
      </trkpt>
      <trkpt lat="46.66242" lon="-1.68457">
        <ele>52</ele>
        <time>2018-03-09T08:38:02Z</time>
      </trkpt>
      <trkpt lat="46.66231" lon="-1.68473">
        <ele>52</ele>
        <time>2018-03-09T08:39:02Z</time>
      </trkpt>
      <trkpt lat="46.66219" lon="-1.68489">
        <ele>51</ele>
        <time>2018-03-09T08:40:02Z</time>
      </trkpt>
      <trkpt lat="46.66208" lon="-1.68505">
        <ele>52</ele>
        <time>2018-03-09T08:41:02Z</time>
      </trkpt>
      <trkpt lat="46.6619" lon="-1.6853">
        <ele>52</ele>
        <time>2018-03-09T08:42:02Z</time>
      </trkpt>
      <trkpt lat="46.66178" lon="-1.68547">
        <ele>53</ele>
        <time>2018-03-09T08:43:02Z</time>
      </trkpt>
      <trkpt lat="46.66166" lon="-1.68565">
        <ele>53</ele>
        <time>2018-03-09T08:44:02Z</time>
      </trkpt>
      <trkpt lat="46.66154" lon="-1.68582">
        <ele>53</ele>
        <time>2018-03-09T08:45:02Z</time>
      </trkpt>
      <trkpt lat="46.66141" lon="-1.68599">
        <ele>52</ele>
        <time>2018-03-09T08:46:02Z</time>
      </trkpt>
      <trkpt lat="46.66135" lon="-1.68607">
        <ele>52</ele>
        <time>2018-03-09T08:47:02Z</time>
      </trkpt>
      <trkpt lat="46.66128" lon="-1.68617">
        <ele>52</ele>
        <time>2018-03-09T08:48:02Z</time>
      </trkpt>
      <trkpt lat="46.6607" lon="-1.687">
        <ele>52</ele>
        <time>2018-03-09T08:49:02Z</time>
      </trkpt>
      <trkpt lat="46.66057" lon="-1.68719">
        <ele>53</ele>
        <time>2018-03-09T08:50:02Z</time>
      </trkpt>
      <trkpt lat="46.6604" lon="-1.68744">
        <ele>53</ele>
        <time>2018-03-09T08:51:02Z</time>
      </trkpt>
      <trkpt lat="46.66013" lon="-1.68783">
        <ele>55</ele>
        <time>2018-03-09T08:52:02Z</time>
      </trkpt>
      <trkpt lat="46.65985" lon="-1.68821">
        <ele>55</ele>
        <time>2018-03-09T08:53:02Z</time>
      </trkpt>
      <trkpt lat="46.65957" lon="-1.68862">
        <ele>55</ele>
        <time>2018-03-09T08:54:02Z</time>
      </trkpt>
      <trkpt lat="46.65932" lon="-1.68898">
        <ele>55</ele>
        <time>2018-03-09T08:55:02Z</time>
      </trkpt>
      <trkpt lat="46.6589" lon="-1.68957">
        <ele>54</ele>
        <time>2018-03-09T08:56:02Z</time>
      </trkpt>
      <trkpt lat="46.65884" lon="-1.68965">
        <ele>53</ele>
        <time>2018-03-09T08:57:02Z</time>
      </trkpt>
      <trkpt lat="46.65878" lon="-1.68974">
        <ele>53</ele>
        <time>2018-03-09T08:58:02Z</time>
      </trkpt>
      <trkpt lat="46.65867" lon="-1.68991">
        <ele>52</ele>
        <time>2018-03-09T08:59:02Z</time>
      </trkpt>
      <trkpt lat="46.6585" lon="-1.69016">
        <ele>51</ele>
        <time>2018-03-09T09:00:02Z</time>
      </trkpt>
      <trkpt lat="46.65839" lon="-1.69035">
        <ele>51</ele>
        <time>2018-03-09T09:01:02Z</time>
      </trkpt>
      <trkpt lat="46.65832" lon="-1.69047">
        <ele>50</ele>
        <time>2018-03-09T09:02:02Z</time>
      </trkpt>
      <trkpt lat="46.65825" lon="-1.69064">
        <ele>50</ele>
        <time>2018-03-09T09:03:02Z</time>
      </trkpt>
      <trkpt lat="46.65805" lon="-1.69118">
        <ele>48</ele>
        <time>2018-03-09T09:04:02Z</time>
      </trkpt>
      <trkpt lat="46.65775" lon="-1.692">
        <ele>46</ele>
        <time>2018-03-09T09:05:02Z</time>
      </trkpt>
      <trkpt lat="46.65742" lon="-1.69293">
        <ele>46</ele>
        <time>2018-03-09T09:06:02Z</time>
      </trkpt>
      <trkpt lat="46.65714" lon="-1.69369">
        <ele>46</ele>
        <time>2018-03-09T09:07:02Z</time>
      </trkpt>
      <trkpt lat="46.65692" lon="-1.69428">
        <ele>47</ele>
        <time>2018-03-09T09:08:02Z</time>
      </trkpt>
      <trkpt lat="46.65658" lon="-1.6952">
        <ele>48</ele>
        <time>2018-03-09T09:09:02Z</time>
      </trkpt>
      <trkpt lat="46.65625" lon="-1.6961">
        <ele>49</ele>
        <time>2018-03-09T09:10:02Z</time>
      </trkpt>
      <trkpt lat="46.65612" lon="-1.69644">
        <ele>50</ele>
        <time>2018-03-09T09:11:02Z</time>
      </trkpt>
      <trkpt lat="46.65598" lon="-1.69682">
        <ele>51</ele>
        <time>2018-03-09T09:12:02Z</time>
      </trkpt>
      <trkpt lat="46.65586" lon="-1.69713">
        <ele>51</ele>
        <time>2018-03-09T09:13:02Z</time>
      </trkpt>
      <trkpt lat="46.65581" lon="-1.69725">
        <ele>52</ele>
        <time>2018-03-09T09:14:02Z</time>
      </trkpt>
      <trkpt lat="46.65568" lon="-1.69761">
        <ele>52</ele>
        <time>2018-03-09T09:15:02Z</time>
      </trkpt>
      <trkpt lat="46.65558" lon="-1.69789">
        <ele>53</ele>
        <time>2018-03-09T09:16:02Z</time>
      </trkpt>
      <trkpt lat="46.65536" lon="-1.69847">
        <ele>55</ele>
        <time>2018-03-09T09:17:02Z</time>
      </trkpt>
      <trkpt lat="46.65518" lon="-1.69897">
        <ele>57</ele>
        <time>2018-03-09T09:18:02Z</time>
      </trkpt>
      <trkpt lat="46.65494" lon="-1.69961">
        <ele>57</ele>
        <time>2018-03-09T09:19:02Z</time>
      </trkpt>
      <trkpt lat="46.65485" lon="-1.6999">
        <ele>56</ele>
        <time>2018-03-09T09:20:02Z</time>
      </trkpt>
      <trkpt lat="46.65481" lon="-1.70001">
        <ele>56</ele>
        <time>2018-03-09T09:21:02Z</time>
      </trkpt>
      <trkpt lat="46.65475" lon="-1.70026">
        <ele>55</ele>
        <time>2018-03-09T09:22:02Z</time>
      </trkpt>
      <trkpt lat="46.65472" lon="-1.70044">
        <ele>54</ele>
        <time>2018-03-09T09:23:02Z</time>
      </trkpt>
      <trkpt lat="46.65469" lon="-1.70061">
        <ele>54</ele>
        <time>2018-03-09T09:24:02Z</time>
      </trkpt>
      <trkpt lat="46.65465" lon="-1.70086">
        <ele>53</ele>
        <time>2018-03-09T09:25:02Z</time>
      </trkpt>
      <trkpt lat="46.6546" lon="-1.70123">
        <ele>51</ele>
        <time>2018-03-09T09:26:02Z</time>
      </trkpt>
      <trkpt lat="46.65456" lon="-1.70153">
        <ele>50</ele>
        <time>2018-03-09T09:27:02Z</time>
      </trkpt>
      <trkpt lat="46.65453" lon="-1.70174">
        <ele>48</ele>
        <time>2018-03-09T09:28:02Z</time>
      </trkpt>
      <trkpt lat="46.65451" lon="-1.70181">
        <ele>48</ele>
        <time>2018-03-09T09:29:02Z</time>
      </trkpt>
      <trkpt lat="46.65449" lon="-1.70189">
        <ele>47</ele>
        <time>2018-03-09T09:30:02Z</time>
      </trkpt>
      <trkpt lat="46.65447" lon="-1.70194">
        <ele>47</ele>
        <time>2018-03-09T09:31:02Z</time>
      </trkpt>
      <trkpt lat="46.65443" lon="-1.70204">
        <ele>46</ele>
        <time>2018-03-09T09:32:02Z</time>
      </trkpt>
      <trkpt lat="46.65439" lon="-1.7021">
        <ele>46</ele>
        <time>2018-03-09T09:33:02Z</time>
      </trkpt>
      <trkpt lat="46.65434" lon="-1.70217">
        <ele>45</ele>
        <time>2018-03-09T09:34:02Z</time>
      </trkpt>
      <trkpt lat="46.65423" lon="-1.70229">
        <ele>44</ele>
        <time>2018-03-09T09:35:02Z</time>
      </trkpt>
      <trkpt lat="46.65414" lon="-1.70236">
        <ele>43</ele>
        <time>2018-03-09T09:36:02Z</time>
      </trkpt>
      <trkpt lat="46.65397" lon="-1.70248">
        <ele>41</ele>
        <time>2018-03-09T09:37:02Z</time>
      </trkpt>
      <trkpt lat="46.65374" lon="-1.70264">
        <ele>39</ele>
        <time>2018-03-09T09:38:02Z</time>
      </trkpt>
      <trkpt lat="46.65349" lon="-1.70279">
        <ele>36</ele>
        <time>2018-03-09T09:39:02Z</time>
      </trkpt>
      <trkpt lat="46.65339" lon="-1.70285">
        <ele>36</ele>
        <time>2018-03-09T09:40:02Z</time>
      </trkpt>
      <trkpt lat="46.65325" lon="-1.70293">
        <ele>35</ele>
        <time>2018-03-09T09:41:02Z</time>
      </trkpt>
      <trkpt lat="46.65305" lon="-1.70304">
        <ele>35</ele>
        <time>2018-03-09T09:42:02Z</time>
      </trkpt>
      <trkpt lat="46.65297" lon="-1.70309">
        <ele>34</ele>
        <time>2018-03-09T09:43:02Z</time>
      </trkpt>
      <trkpt lat="46.65284" lon="-1.70315">
        <ele>34</ele>
        <time>2018-03-09T09:44:02Z</time>
      </trkpt>
      <trkpt lat="46.65269" lon="-1.70321">
        <ele>34</ele>
        <time>2018-03-09T09:45:02Z</time>
      </trkpt>
      <trkpt lat="46.65243" lon="-1.70326">
        <ele>34</ele>
        <time>2018-03-09T09:46:02Z</time>
      </trkpt>
      <trkpt lat="46.6522" lon="-1.7033">
        <ele>35</ele>
        <time>2018-03-09T09:47:02Z</time>
      </trkpt>
      <trkpt lat="46.65187" lon="-1.70335">
        <ele>35</ele>
        <time>2018-03-09T09:48:02Z</time>
      </trkpt>
      <trkpt lat="46.65148" lon="-1.70342">
        <ele>36</ele>
        <time>2018-03-09T09:49:02Z</time>
      </trkpt>
      <trkpt lat="46.65109" lon="-1.70349">
        <ele>37</ele>
        <time>2018-03-09T09:50:02Z</time>
      </trkpt>
      <trkpt lat="46.6508" lon="-1.70353">
        <ele>37</ele>
        <time>2018-03-09T09:51:02Z</time>
      </trkpt>
      <trkpt lat="46.65071" lon="-1.70356">
        <ele>38</ele>
        <time>2018-03-09T09:52:02Z</time>
      </trkpt>
      <trkpt lat="46.65031" lon="-1.70363">
        <ele>39</ele>
        <time>2018-03-09T09:53:02Z</time>
      </trkpt>
      <trkpt lat="46.64994" lon="-1.7037">
        <ele>41</ele>
        <time>2018-03-09T09:54:02Z</time>
      </trkpt>
      <trkpt lat="46.64977" lon="-1.70373">
        <ele>41</ele>
        <time>2018-03-09T09:55:02Z</time>
      </trkpt>
      <trkpt lat="46.64949" lon="-1.70378">
        <ele>41</ele>
        <time>2018-03-09T09:56:02Z</time>
      </trkpt>
      <trkpt lat="46.64929" lon="-1.70382">
        <ele>42</ele>
        <time>2018-03-09T09:57:02Z</time>
      </trkpt>
      <trkpt lat="46.64916" lon="-1.70385">
        <ele>42</ele>
        <time>2018-03-09T09:58:02Z</time>
      </trkpt>
      <trkpt lat="46.64912" lon="-1.70385">
        <ele>42</ele>
        <time>2018-03-09T09:59:02Z</time>
      </trkpt>
      <trkpt lat="46.64901" lon="-1.70387">
        <ele>42</ele>
        <time>2018-03-09T10:00:02Z</time>
      </trkpt>
      <trkpt lat="46.64893" lon="-1.70389">
        <ele>43</ele>
        <time>2018-03-09T10:01:02Z</time>
      </trkpt>
      <trkpt lat="46.64883" lon="-1.70393">
        <ele>43</ele>
        <time>2018-03-09T10:02:02Z</time>
      </trkpt>
      <trkpt lat="46.64873" lon="-1.70396">
        <ele>43</ele>
        <time>2018-03-09T10:03:02Z</time>
      </trkpt>
      <trkpt lat="46.6486" lon="-1.70402">
        <ele>44</ele>
        <time>2018-03-09T10:04:02Z</time>
      </trkpt>
      <trkpt lat="46.64848" lon="-1.70407">
        <ele>44</ele>
        <time>2018-03-09T10:05:02Z</time>
      </trkpt>
      <trkpt lat="46.64838" lon="-1.70411">
        <ele>45</ele>
        <time>2018-03-09T10:06:02Z</time>
      </trkpt>
      <trkpt lat="46.64809" lon="-1.70423">
        <ele>46</ele>
        <time>2018-03-09T10:07:02Z</time>
      </trkpt>
      <trkpt lat="46.64785" lon="-1.70433">
        <ele>47</ele>
        <time>2018-03-09T10:08:02Z</time>
      </trkpt>
      <trkpt lat="46.64765" lon="-1.70441">
        <ele>48</ele>
        <time>2018-03-09T10:09:02Z</time>
      </trkpt>
      <trkpt lat="46.64746" lon="-1.70449">
        <ele>48</ele>
        <time>2018-03-09T10:10:02Z</time>
      </trkpt>
      <trkpt lat="46.64715" lon="-1.70469">
        <ele>50</ele>
        <time>2018-03-09T10:11:02Z</time>
      </trkpt>
      <trkpt lat="46.64712" lon="-1.70472">
        <ele>50</ele>
        <time>2018-03-09T10:12:02Z</time>
      </trkpt>
      <trkpt lat="46.64705" lon="-1.70479">
        <ele>50</ele>
        <time>2018-03-09T10:13:02Z</time>
      </trkpt>
      <trkpt lat="46.64692" lon="-1.70489">
        <ele>51</ele>
        <time>2018-03-09T10:14:02Z</time>
      </trkpt>
      <trkpt lat="46.6469" lon="-1.70491">
        <ele>51</ele>
        <time>2018-03-09T10:15:02Z</time>
      </trkpt>
      <trkpt lat="46.64677" lon="-1.70502">
        <ele>51</ele>
        <time>2018-03-09T10:16:02Z</time>
      </trkpt>
      <trkpt lat="46.64661" lon="-1.70514">
        <ele>52</ele>
        <time>2018-03-09T10:17:02Z</time>
      </trkpt>
      <trkpt lat="46.64655" lon="-1.70519">
        <ele>52</ele>
        <time>2018-03-09T10:18:02Z</time>
      </trkpt>
      <trkpt lat="46.64644" lon="-1.70528">
        <ele>53</ele>
        <time>2018-03-09T10:19:02Z</time>
      </trkpt>
      <trkpt lat="46.64635" lon="-1.70535">
        <ele>53</ele>
        <time>2018-03-09T10:20:02Z</time>
      </trkpt>
      <trkpt lat="46.64629" lon="-1.7054">
        <ele>53</ele>
        <time>2018-03-09T10:21:02Z</time>
      </trkpt>
      <trkpt lat="46.64607" lon="-1.70563">
        <ele>54</ele>
        <time>2018-03-09T10:22:02Z</time>
      </trkpt>
      <trkpt lat="46.64605" lon="-1.70566">
        <ele>54</ele>
        <time>2018-03-09T10:23:02Z</time>
      </trkpt>
      <trkpt lat="46.64576" lon="-1.70597">
        <ele>55</ele>
        <time>2018-03-09T10:24:02Z</time>
      </trkpt>
      <trkpt lat="46.64568" lon="-1.70606">
        <ele>56</ele>
        <time>2018-03-09T10:25:02Z</time>
      </trkpt>
      <trkpt lat="46.64558" lon="-1.70614">
        <ele>56</ele>
        <time>2018-03-09T10:26:02Z</time>
      </trkpt>
      <trkpt lat="46.6455" lon="-1.70619">
        <ele>57</ele>
        <time>2018-03-09T10:27:02Z</time>
      </trkpt>
      <trkpt lat="46.6454" lon="-1.70626">
        <ele>57</ele>
        <time>2018-03-09T10:28:02Z</time>
      </trkpt>
      <trkpt lat="46.6453" lon="-1.70631">
        <ele>58</ele>
        <time>2018-03-09T10:29:02Z</time>
      </trkpt>
      <trkpt lat="46.64521" lon="-1.70636">
        <ele>58</ele>
        <time>2018-03-09T10:30:02Z</time>
      </trkpt>
      <trkpt lat="46.64503" lon="-1.70647">
        <ele>59</ele>
        <time>2018-03-09T10:31:02Z</time>
      </trkpt>
      <trkpt lat="46.64487" lon="-1.70656">
        <ele>59</ele>
        <time>2018-03-09T10:32:02Z</time>
      </trkpt>
      <trkpt lat="46.64471" lon="-1.70667">
        <ele>59</ele>
        <time>2018-03-09T10:33:02Z</time>
      </trkpt>
      <trkpt lat="46.6446" lon="-1.70675">
        <ele>59</ele>
        <time>2018-03-09T10:34:02Z</time>
      </trkpt>
      <trkpt lat="46.64448" lon="-1.70684">
        <ele>59</ele>
        <time>2018-03-09T10:35:02Z</time>
      </trkpt>
      <trkpt lat="46.64441" lon="-1.70691">
        <ele>59</ele>
        <time>2018-03-09T10:36:02Z</time>
      </trkpt>
      <trkpt lat="46.64436" lon="-1.70696">
        <ele>59</ele>
        <time>2018-03-09T10:37:02Z</time>
      </trkpt>
      <trkpt lat="46.64426" lon="-1.7071">
        <ele>59</ele>
        <time>2018-03-09T10:38:02Z</time>
      </trkpt>
      <trkpt lat="46.64404" lon="-1.70744">
        <ele>60</ele>
        <time>2018-03-09T10:39:02Z</time>
      </trkpt>
      <trkpt lat="46.6438" lon="-1.70785">
        <ele>60</ele>
        <time>2018-03-09T10:40:02Z</time>
      </trkpt>
      <trkpt lat="46.6436" lon="-1.70818">
        <ele>59</ele>
        <time>2018-03-09T10:41:02Z</time>
      </trkpt>
      <trkpt lat="46.6435" lon="-1.70831">
        <ele>60</ele>
        <time>2018-03-09T10:42:02Z</time>
      </trkpt>
      <trkpt lat="46.64343" lon="-1.70839">
        <ele>60</ele>
        <time>2018-03-09T10:43:02Z</time>
      </trkpt>
      <trkpt lat="46.64335" lon="-1.70844">
        <ele>60</ele>
        <time>2018-03-09T10:44:02Z</time>
      </trkpt>
      <trkpt lat="46.64316" lon="-1.70855">
        <ele>59</ele>
        <time>2018-03-09T10:45:02Z</time>
      </trkpt>
      <trkpt lat="46.64305" lon="-1.70862">
        <ele>59</ele>
        <time>2018-03-09T10:46:02Z</time>
      </trkpt>
      <trkpt lat="46.64279" lon="-1.7088">
        <ele>58</ele>
        <time>2018-03-09T10:47:02Z</time>
      </trkpt>
      <trkpt lat="46.64249" lon="-1.70905">
        <ele>59</ele>
        <time>2018-03-09T10:48:02Z</time>
      </trkpt>
      <trkpt lat="46.64221" lon="-1.70931">
        <ele>59</ele>
        <time>2018-03-09T10:49:02Z</time>
      </trkpt>
      <trkpt lat="46.64211" lon="-1.7094">
        <ele>59</ele>
        <time>2018-03-09T10:50:02Z</time>
      </trkpt>
      <trkpt lat="46.64206" lon="-1.70945">
        <ele>59</ele>
        <time>2018-03-09T10:51:02Z</time>
      </trkpt>
      <trkpt lat="46.64198" lon="-1.70953">
        <ele>59</ele>
        <time>2018-03-09T10:52:02Z</time>
      </trkpt>
      <trkpt lat="46.64189" lon="-1.70963">
        <ele>59</ele>
        <time>2018-03-09T10:53:02Z</time>
      </trkpt>
      <trkpt lat="46.64177" lon="-1.70976">
        <ele>60</ele>
        <time>2018-03-09T10:54:02Z</time>
      </trkpt>
      <trkpt lat="46.64122" lon="-1.71041">
        <ele>59</ele>
        <time>2018-03-09T10:55:02Z</time>
      </trkpt>
      <trkpt lat="46.64115" lon="-1.71049">
        <ele>59</ele>
        <time>2018-03-09T10:56:02Z</time>
      </trkpt>
      <trkpt lat="46.64102" lon="-1.71064">
        <ele>59</ele>
        <time>2018-03-09T10:57:02Z</time>
      </trkpt>
      <trkpt lat="46.64087" lon="-1.71082">
        <ele>58</ele>
        <time>2018-03-09T10:58:02Z</time>
      </trkpt>
      <trkpt lat="46.64042" lon="-1.71134">
        <ele>57</ele>
        <time>2018-03-09T10:59:02Z</time>
      </trkpt>
      <trkpt lat="46.64034" lon="-1.71142">
        <ele>57</ele>
        <time>2018-03-09T11:00:02Z</time>
      </trkpt>
      <trkpt lat="46.64024" lon="-1.71152">
        <ele>57</ele>
        <time>2018-03-09T11:01:02Z</time>
      </trkpt>
      <trkpt lat="46.64024" lon="-1.71152">
        <ele>57</ele>
        <time>2018-03-09T11:02:02Z</time>
      </trkpt>
      <trkpt lat="46.64043" lon="-1.71189">
        <ele>57</ele>
        <time>2018-03-09T11:03:02Z</time>
      </trkpt>
      <trkpt lat="46.64056" lon="-1.71214">
        <ele>57</ele>
        <time>2018-03-09T11:04:02Z</time>
      </trkpt>
      <trkpt lat="46.64059" lon="-1.71221">
        <ele>57</ele>
        <time>2018-03-09T11:05:02Z</time>
      </trkpt>
      <trkpt lat="46.64062" lon="-1.71228">
        <ele>57</ele>
        <time>2018-03-09T11:06:02Z</time>
      </trkpt>
      <trkpt lat="46.64064" lon="-1.71233">
        <ele>57</ele>
        <time>2018-03-09T11:07:02Z</time>
      </trkpt>
      <trkpt lat="46.64064" lon="-1.71239">
        <ele>57</ele>
        <time>2018-03-09T11:08:02Z</time>
      </trkpt>
      <trkpt lat="46.64064" lon="-1.71254">
        <ele>57</ele>
        <time>2018-03-09T11:09:02Z</time>
      </trkpt>
      <trkpt lat="46.64061" lon="-1.71278">
        <ele>58</ele>
        <time>2018-03-09T11:10:02Z</time>
      </trkpt>
      <trkpt lat="46.64059" lon="-1.71295">
        <ele>58</ele>
        <time>2018-03-09T11:11:02Z</time>
      </trkpt>
      <trkpt lat="46.64057" lon="-1.71319">
        <ele>59</ele>
        <time>2018-03-09T11:12:02Z</time>
      </trkpt>
      <trkpt lat="46.64055" lon="-1.71334">
        <ele>59</ele>
        <time>2018-03-09T11:13:02Z</time>
      </trkpt>
      <trkpt lat="46.64053" lon="-1.71355">
        <ele>59</ele>
        <time>2018-03-09T11:14:02Z</time>
      </trkpt>
      <trkpt lat="46.64052" lon="-1.71356">
        <ele>59</ele>
        <time>2018-03-09T11:15:02Z</time>
      </trkpt>
      <trkpt lat="46.64052" lon="-1.7136">
        <ele>59</ele>
        <time>2018-03-09T11:16:02Z</time>
      </trkpt>
      <trkpt lat="46.64052" lon="-1.71362">
        <ele>59</ele>
        <time>2018-03-09T11:17:02Z</time>
      </trkpt>
      <trkpt lat="46.64049" lon="-1.71392">
        <ele>59</ele>
        <time>2018-03-09T11:18:02Z</time>
      </trkpt>
      <trkpt lat="46.64048" lon="-1.71403">
        <ele>59</ele>
        <time>2018-03-09T11:19:02Z</time>
      </trkpt>
      <trkpt lat="46.64048" lon="-1.71407">
        <ele>59</ele>
        <time>2018-03-09T11:20:02Z</time>
      </trkpt>
      <trkpt lat="46.6405" lon="-1.7142">
        <ele>59</ele>
        <time>2018-03-09T11:21:02Z</time>
      </trkpt>
      <trkpt lat="46.64051" lon="-1.71425">
        <ele>59</ele>
        <time>2018-03-09T11:22:02Z</time>
      </trkpt>
      <trkpt lat="46.64054" lon="-1.71435">
        <ele>59</ele>
        <time>2018-03-09T11:23:02Z</time>
      </trkpt>
      <trkpt lat="46.64057" lon="-1.71443">
        <ele>58</ele>
        <time>2018-03-09T11:24:02Z</time>
      </trkpt>
      <trkpt lat="46.64064" lon="-1.71458">
        <ele>58</ele>
        <time>2018-03-09T11:25:02Z</time>
      </trkpt>
      <trkpt lat="46.64068" lon="-1.71467">
        <ele>58</ele>
        <time>2018-03-09T11:26:02Z</time>
      </trkpt>
      <trkpt lat="46.64081" lon="-1.71491">
        <ele>57</ele>
        <time>2018-03-09T11:27:02Z</time>
      </trkpt>
      <trkpt lat="46.64089" lon="-1.7151">
        <ele>57</ele>
        <time>2018-03-09T11:28:02Z</time>
      </trkpt>
      <trkpt lat="46.64092" lon="-1.71525">
        <ele>57</ele>
        <time>2018-03-09T11:29:02Z</time>
      </trkpt>
      <trkpt lat="46.64092" lon="-1.71525">
        <ele>57</ele>
        <time>2018-03-09T11:30:02Z</time>
      </trkpt>
      <trkpt lat="46.641" lon="-1.71521">
        <ele>57</ele>
        <time>2018-03-09T11:31:02Z</time>
      </trkpt>
      <trkpt lat="46.64116" lon="-1.71515">
        <ele>57</ele>
        <time>2018-03-09T11:32:02Z</time>
      </trkpt>
      <trkpt lat="46.64124" lon="-1.71513">
        <ele>57</ele>
        <time>2018-03-09T11:33:02Z</time>
      </trkpt>
      <trkpt lat="46.64129" lon="-1.71512">
        <ele>57</ele>
        <time>2018-03-09T11:34:02Z</time>
      </trkpt>
      <trkpt lat="46.64135" lon="-1.71511">
        <ele>57</ele>
        <time>2018-03-09T11:35:02Z</time>
      </trkpt>
      <trkpt lat="46.64145" lon="-1.71512">
        <ele>57</ele>
        <time>2018-03-09T11:36:02Z</time>
      </trkpt>
      <trkpt lat="46.64182" lon="-1.71514">
        <ele>56</ele>
        <time>2018-03-09T11:37:02Z</time>
      </trkpt>
      <trkpt lat="46.64202" lon="-1.71514">
        <ele>56</ele>
        <time>2018-03-09T11:38:02Z</time>
      </trkpt>
      <trkpt lat="46.64204" lon="-1.71514">
        <ele>56</ele>
        <time>2018-03-09T11:39:02Z</time>
      </trkpt>
      <trkpt lat="46.64224" lon="-1.71514">
        <ele>55</ele>
        <time>2018-03-09T11:40:02Z</time>
      </trkpt>
      <trkpt lat="46.64262" lon="-1.71516">
        <ele>54</ele>
        <time>2018-03-09T11:41:02Z</time>
      </trkpt>
      <trkpt lat="46.64305" lon="-1.71518">
        <ele>52</ele>
        <time>2018-03-09T11:42:02Z</time>
      </trkpt>
      <trkpt lat="46.64315" lon="-1.71518">
        <ele>52</ele>
        <time>2018-03-09T11:43:02Z</time>
      </trkpt>
      <trkpt lat="46.64334" lon="-1.71519">
        <ele>51</ele>
        <time>2018-03-09T11:44:02Z</time>
      </trkpt>
      <trkpt lat="46.64362" lon="-1.7152">
        <ele>52</ele>
        <time>2018-03-09T11:45:02Z</time>
      </trkpt>
      <trkpt lat="46.64387" lon="-1.71521">
        <ele>52</ele>
        <time>2018-03-09T11:46:02Z</time>
      </trkpt>
      <trkpt lat="46.64397" lon="-1.71522">
        <ele>52</ele>
        <time>2018-03-09T11:47:02Z</time>
      </trkpt>
      <trkpt lat="46.64397" lon="-1.71522">
        <ele>52</ele>
        <time>2018-03-09T11:48:02Z</time>
      </trkpt>
      <trkpt lat="46.64404" lon="-1.71589">
        <ele>53</ele>
        <time>2018-03-09T11:49:02Z</time>
      </trkpt>
      <trkpt lat="46.64405" lon="-1.71606">
        <ele>53</ele>
        <time>2018-03-09T11:50:02Z</time>
      </trkpt>
      <trkpt lat="46.6441" lon="-1.71649">
        <ele>55</ele>
        <time>2018-03-09T11:51:02Z</time>
      </trkpt>
      <trkpt lat="46.64413" lon="-1.71677">
        <ele>55</ele>
        <time>2018-03-09T11:52:02Z</time>
      </trkpt>
      <trkpt lat="46.64418" lon="-1.71712">
        <ele>56</ele>
        <time>2018-03-09T11:53:02Z</time>
      </trkpt>
      <trkpt lat="46.6442" lon="-1.71724">
        <ele>56</ele>
        <time>2018-03-09T11:54:02Z</time>
      </trkpt>
      <trkpt lat="46.64422" lon="-1.71734">
        <ele>56</ele>
        <time>2018-03-09T11:55:02Z</time>
      </trkpt>
      <trkpt lat="46.64424" lon="-1.71742">
        <ele>56</ele>
        <time>2018-03-09T11:56:02Z</time>
      </trkpt>
      <trkpt lat="46.64428" lon="-1.71755">
        <ele>56</ele>
        <time>2018-03-09T11:57:02Z</time>
      </trkpt>
      <trkpt lat="46.64431" lon="-1.71761">
        <ele>56</ele>
        <time>2018-03-09T11:58:02Z</time>
      </trkpt>
      <trkpt lat="46.64435" lon="-1.7177">
        <ele>56</ele>
        <time>2018-03-09T11:59:02Z</time>
      </trkpt>
      <trkpt lat="46.64441" lon="-1.71783">
        <ele>56</ele>
        <time>2018-03-09T12:00:02Z</time>
      </trkpt>
      <trkpt lat="46.64449" lon="-1.71799">
        <ele>56</ele>
        <time>2018-03-09T12:01:02Z</time>
      </trkpt>
      <trkpt lat="46.64456" lon="-1.71815">
        <ele>56</ele>
        <time>2018-03-09T12:02:02Z</time>
      </trkpt>
      <trkpt lat="46.64457" lon="-1.71818">
        <ele>56</ele>
        <time>2018-03-09T12:03:02Z</time>
      </trkpt>
      <trkpt lat="46.64463" lon="-1.71834">
        <ele>56</ele>
        <time>2018-03-09T12:04:02Z</time>
      </trkpt>
      <trkpt lat="46.64467" lon="-1.71846">
        <ele>57</ele>
        <time>2018-03-09T12:05:02Z</time>
      </trkpt>
      <trkpt lat="46.64471" lon="-1.71863">
        <ele>57</ele>
        <time>2018-03-09T12:06:02Z</time>
      </trkpt>
      <trkpt lat="46.64478" lon="-1.71891">
        <ele>57</ele>
        <time>2018-03-09T12:07:02Z</time>
      </trkpt>
      <trkpt lat="46.64484" lon="-1.71921">
        <ele>57</ele>
        <time>2018-03-09T12:08:02Z</time>
      </trkpt>
      <trkpt lat="46.64484" lon="-1.71923">
        <ele>57</ele>
        <time>2018-03-09T12:09:02Z</time>
      </trkpt>
      <trkpt lat="46.6449" lon="-1.71955">
        <ele>57</ele>
        <time>2018-03-09T12:10:02Z</time>
      </trkpt>
      <trkpt lat="46.64493" lon="-1.71979">
        <ele>57</ele>
        <time>2018-03-09T12:11:02Z</time>
      </trkpt>
      <trkpt lat="46.64498" lon="-1.72014">
        <ele>57</ele>
        <time>2018-03-09T12:12:02Z</time>
      </trkpt>
      <trkpt lat="46.64502" lon="-1.7205">
        <ele>57</ele>
        <time>2018-03-09T12:13:02Z</time>
      </trkpt>
      <trkpt lat="46.64504" lon="-1.72083">
        <ele>57</ele>
        <time>2018-03-09T12:14:02Z</time>
      </trkpt>
      <trkpt lat="46.64507" lon="-1.72123">
        <ele>57</ele>
        <time>2018-03-09T12:15:02Z</time>
      </trkpt>
      <trkpt lat="46.6451" lon="-1.7216">
        <ele>58</ele>
        <time>2018-03-09T12:16:02Z</time>
      </trkpt>
      <trkpt lat="46.64511" lon="-1.72163">
        <ele>58</ele>
        <time>2018-03-09T12:17:02Z</time>
      </trkpt>
      <trkpt lat="46.64512" lon="-1.72175">
        <ele>58</ele>
        <time>2018-03-09T12:18:02Z</time>
      </trkpt>
      <trkpt lat="46.64514" lon="-1.72199">
        <ele>58</ele>
        <time>2018-03-09T12:19:02Z</time>
      </trkpt>
      <trkpt lat="46.64518" lon="-1.72235">
        <ele>59</ele>
        <time>2018-03-09T12:20:02Z</time>
      </trkpt>
      <trkpt lat="46.64523" lon="-1.72277">
        <ele>59</ele>
        <time>2018-03-09T12:21:02Z</time>
      </trkpt>
      <trkpt lat="46.64523" lon="-1.72279">
        <ele>59</ele>
        <time>2018-03-09T12:22:02Z</time>
      </trkpt>
      <trkpt lat="46.64529" lon="-1.72327">
        <ele>59</ele>
        <time>2018-03-09T12:23:02Z</time>
      </trkpt>
      <trkpt lat="46.64529" lon="-1.72327">
        <ele>59</ele>
        <time>2018-03-09T12:24:02Z</time>
      </trkpt>
      <trkpt lat="46.64534" lon="-1.72366">
        <ele>59</ele>
        <time>2018-03-09T12:25:02Z</time>
      </trkpt>
      <trkpt lat="46.64539" lon="-1.72405">
        <ele>58</ele>
        <time>2018-03-09T12:26:02Z</time>
      </trkpt>
      <trkpt lat="46.64544" lon="-1.72437">
        <ele>58</ele>
        <time>2018-03-09T12:27:02Z</time>
      </trkpt>
      <trkpt lat="46.64547" lon="-1.72462">
        <ele>58</ele>
        <time>2018-03-09T12:28:02Z</time>
      </trkpt>
      <trkpt lat="46.64548" lon="-1.72463">
        <ele>58</ele>
        <time>2018-03-09T12:29:02Z</time>
      </trkpt>
      <trkpt lat="46.64553" lon="-1.72488">
        <ele>58</ele>
        <time>2018-03-09T12:30:02Z</time>
      </trkpt>
      <trkpt lat="46.64561" lon="-1.72518">
        <ele>59</ele>
        <time>2018-03-09T12:31:02Z</time>
      </trkpt>
      <trkpt lat="46.64572" lon="-1.72555">
        <ele>59</ele>
        <time>2018-03-09T12:32:02Z</time>
      </trkpt>
      <trkpt lat="46.64581" lon="-1.72583">
        <ele>59</ele>
        <time>2018-03-09T12:33:02Z</time>
      </trkpt>
      <trkpt lat="46.64593" lon="-1.72615">
        <ele>59</ele>
        <time>2018-03-09T12:34:02Z</time>
      </trkpt>
      <trkpt lat="46.64599" lon="-1.7263">
        <ele>59</ele>
        <time>2018-03-09T12:35:02Z</time>
      </trkpt>
      <trkpt lat="46.64602" lon="-1.72637">
        <ele>59</ele>
        <time>2018-03-09T12:36:02Z</time>
      </trkpt>
      <trkpt lat="46.64611" lon="-1.72664">
        <ele>59</ele>
        <time>2018-03-09T12:37:02Z</time>
      </trkpt>
      <trkpt lat="46.64613" lon="-1.72671">
        <ele>59</ele>
        <time>2018-03-09T12:38:02Z</time>
      </trkpt>
      <trkpt lat="46.64614" lon="-1.72678">
        <ele>59</ele>
        <time>2018-03-09T12:39:02Z</time>
      </trkpt>
      <trkpt lat="46.64616" lon="-1.72687">
        <ele>58</ele>
        <time>2018-03-09T12:40:02Z</time>
      </trkpt>
      <trkpt lat="46.64617" lon="-1.72696">
        <ele>58</ele>
        <time>2018-03-09T12:41:02Z</time>
      </trkpt>
      <trkpt lat="46.64619" lon="-1.72709">
        <ele>58</ele>
        <time>2018-03-09T12:42:02Z</time>
      </trkpt>
      <trkpt lat="46.64622" lon="-1.72744">
        <ele>58</ele>
        <time>2018-03-09T12:43:02Z</time>
      </trkpt>
      <trkpt lat="46.64626" lon="-1.72794">
        <ele>58</ele>
        <time>2018-03-09T12:44:02Z</time>
      </trkpt>
      <trkpt lat="46.64629" lon="-1.72836">
        <ele>58</ele>
        <time>2018-03-09T12:45:02Z</time>
      </trkpt>
      <trkpt lat="46.64631" lon="-1.7287">
        <ele>58</ele>
        <time>2018-03-09T12:46:02Z</time>
      </trkpt>
      <trkpt lat="46.64633" lon="-1.72894">
        <ele>58</ele>
        <time>2018-03-09T12:47:02Z</time>
      </trkpt>
      <trkpt lat="46.64635" lon="-1.7291">
        <ele>58</ele>
        <time>2018-03-09T12:48:02Z</time>
      </trkpt>
      <trkpt lat="46.64637" lon="-1.7292">
        <ele>58</ele>
        <time>2018-03-09T12:49:02Z</time>
      </trkpt>
      <trkpt lat="46.64639" lon="-1.72927">
        <ele>58</ele>
        <time>2018-03-09T12:50:02Z</time>
      </trkpt>
      <trkpt lat="46.64642" lon="-1.72936">
        <ele>58</ele>
        <time>2018-03-09T12:51:02Z</time>
      </trkpt>
      <trkpt lat="46.64646" lon="-1.72948">
        <ele>58</ele>
        <time>2018-03-09T12:52:02Z</time>
      </trkpt>
      <trkpt lat="46.64651" lon="-1.72959">
        <ele>58</ele>
        <time>2018-03-09T12:53:02Z</time>
      </trkpt>
      <trkpt lat="46.64661" lon="-1.72982">
        <ele>58</ele>
        <time>2018-03-09T12:54:02Z</time>
      </trkpt>
      <trkpt lat="46.64676" lon="-1.73011">
        <ele>58</ele>
        <time>2018-03-09T12:55:02Z</time>
      </trkpt>
      <trkpt lat="46.64681" lon="-1.73022">
        <ele>57</ele>
        <time>2018-03-09T12:56:02Z</time>
      </trkpt>
      <trkpt lat="46.64691" lon="-1.73042">
        <ele>57</ele>
        <time>2018-03-09T12:57:02Z</time>
      </trkpt>
      <trkpt lat="46.64704" lon="-1.73071">
        <ele>57</ele>
        <time>2018-03-09T12:58:02Z</time>
      </trkpt>
      <trkpt lat="46.64718" lon="-1.73098">
        <ele>57</ele>
        <time>2018-03-09T12:59:02Z</time>
      </trkpt>
      <trkpt lat="46.64723" lon="-1.73109">
        <ele>57</ele>
        <time>2018-03-09T13:00:02Z</time>
      </trkpt>
      <trkpt lat="46.64731" lon="-1.73126">
        <ele>58</ele>
        <time>2018-03-09T13:01:02Z</time>
      </trkpt>
      <trkpt lat="46.6475" lon="-1.73169">
        <ele>58</ele>
        <time>2018-03-09T13:02:02Z</time>
      </trkpt>
      <trkpt lat="46.64773" lon="-1.73221">
        <ele>57</ele>
        <time>2018-03-09T13:03:02Z</time>
      </trkpt>
      <trkpt lat="46.64776" lon="-1.73225">
        <ele>57</ele>
        <time>2018-03-09T13:04:02Z</time>
      </trkpt>
      <trkpt lat="46.648" lon="-1.73275">
        <ele>56</ele>
        <time>2018-03-09T13:05:02Z</time>
      </trkpt>
      <trkpt lat="46.64816" lon="-1.73307">
        <ele>55</ele>
        <time>2018-03-09T13:06:02Z</time>
      </trkpt>
      <trkpt lat="46.64826" lon="-1.73327">
        <ele>55</ele>
        <time>2018-03-09T13:07:02Z</time>
      </trkpt>
      <trkpt lat="46.64835" lon="-1.73343">
        <ele>55</ele>
        <time>2018-03-09T13:08:02Z</time>
      </trkpt>
      <trkpt lat="46.64857" lon="-1.73384">
        <ele>56</ele>
        <time>2018-03-09T13:09:02Z</time>
      </trkpt>
      <trkpt lat="46.64878" lon="-1.73422">
        <ele>56</ele>
        <time>2018-03-09T13:10:02Z</time>
      </trkpt>
      <trkpt lat="46.64879" lon="-1.73423">
        <ele>56</ele>
        <time>2018-03-09T13:11:02Z</time>
      </trkpt>
      <trkpt lat="46.64879" lon="-1.73423">
        <ele>56</ele>
        <time>2018-03-09T13:12:02Z</time>
      </trkpt>
      <trkpt lat="46.64891" lon="-1.73442">
        <ele>56</ele>
        <time>2018-03-09T13:13:02Z</time>
      </trkpt>
      <trkpt lat="46.64908" lon="-1.73471">
        <ele>55</ele>
        <time>2018-03-09T13:14:02Z</time>
      </trkpt>
      <trkpt lat="46.64935" lon="-1.73517">
        <ele>55</ele>
        <time>2018-03-09T13:15:02Z</time>
      </trkpt>
      <trkpt lat="46.64946" lon="-1.73536">
        <ele>55</ele>
        <time>2018-03-09T13:16:02Z</time>
      </trkpt>
      <trkpt lat="46.64959" lon="-1.73555">
        <ele>55</ele>
        <time>2018-03-09T13:17:02Z</time>
      </trkpt>
      <trkpt lat="46.64967" lon="-1.73565">
        <ele>55</ele>
        <time>2018-03-09T13:18:02Z</time>
      </trkpt>
      <trkpt lat="46.64997" lon="-1.73597">
        <ele>55</ele>
        <time>2018-03-09T13:19:02Z</time>
      </trkpt>
      <trkpt lat="46.65016" lon="-1.73618">
        <ele>55</ele>
        <time>2018-03-09T13:20:02Z</time>
      </trkpt>
      <trkpt lat="46.65028" lon="-1.73632">
        <ele>55</ele>
        <time>2018-03-09T13:21:02Z</time>
      </trkpt>
      <trkpt lat="46.6504" lon="-1.73647">
        <ele>55</ele>
        <time>2018-03-09T13:22:02Z</time>
      </trkpt>
      <trkpt lat="46.65049" lon="-1.7366">
        <ele>54</ele>
        <time>2018-03-09T13:23:02Z</time>
      </trkpt>
      <trkpt lat="46.65062" lon="-1.73677">
        <ele>54</ele>
        <time>2018-03-09T13:24:02Z</time>
      </trkpt>
      <trkpt lat="46.65083" lon="-1.73705">
        <ele>54</ele>
        <time>2018-03-09T13:25:02Z</time>
      </trkpt>
      <trkpt lat="46.651" lon="-1.73728">
        <ele>55</ele>
        <time>2018-03-09T13:26:02Z</time>
      </trkpt>
      <trkpt lat="46.65106" lon="-1.73734">
        <ele>55</ele>
        <time>2018-03-09T13:27:02Z</time>
      </trkpt>
      <trkpt lat="46.65134" lon="-1.73765">
        <ele>55</ele>
        <time>2018-03-09T13:28:02Z</time>
      </trkpt>
      <trkpt lat="46.65146" lon="-1.73777">
        <ele>55</ele>
        <time>2018-03-09T13:29:02Z</time>
      </trkpt>
      <trkpt lat="46.6516" lon="-1.73793">
        <ele>55</ele>
        <time>2018-03-09T13:30:02Z</time>
      </trkpt>
      <trkpt lat="46.65188" lon="-1.73827">
        <ele>55</ele>
        <time>2018-03-09T13:31:02Z</time>
      </trkpt>
      <trkpt lat="46.65221" lon="-1.73866">
        <ele>54</ele>
        <time>2018-03-09T13:32:02Z</time>
      </trkpt>
      <trkpt lat="46.65225" lon="-1.7387">
        <ele>54</ele>
        <time>2018-03-09T13:33:02Z</time>
      </trkpt>
      <trkpt lat="46.65254" lon="-1.73903">
        <ele>53</ele>
        <time>2018-03-09T13:34:02Z</time>
      </trkpt>
      <trkpt lat="46.65256" lon="-1.73904">
        <ele>53</ele>
        <time>2018-03-09T13:35:02Z</time>
      </trkpt>
      <trkpt lat="46.65273" lon="-1.73923">
        <ele>53</ele>
        <time>2018-03-09T13:36:02Z</time>
      </trkpt>
      <trkpt lat="46.65283" lon="-1.73934">
        <ele>53</ele>
        <time>2018-03-09T13:37:02Z</time>
      </trkpt>
      <trkpt lat="46.65295" lon="-1.73949">
        <ele>53</ele>
        <time>2018-03-09T13:38:02Z</time>
      </trkpt>
      <trkpt lat="46.65306" lon="-1.73963">
        <ele>54</ele>
        <time>2018-03-09T13:39:02Z</time>
      </trkpt>
      <trkpt lat="46.65321" lon="-1.73986">
        <ele>54</ele>
        <time>2018-03-09T13:40:02Z</time>
      </trkpt>
      <trkpt lat="46.65331" lon="-1.74002">
        <ele>54</ele>
        <time>2018-03-09T13:41:02Z</time>
      </trkpt>
      <trkpt lat="46.65343" lon="-1.74021">
        <ele>54</ele>
        <time>2018-03-09T13:42:02Z</time>
      </trkpt>
      <trkpt lat="46.65348" lon="-1.74029">
        <ele>54</ele>
        <time>2018-03-09T13:43:02Z</time>
      </trkpt>
      <trkpt lat="46.65368" lon="-1.74059">
        <ele>54</ele>
        <time>2018-03-09T13:44:02Z</time>
      </trkpt>
      <trkpt lat="46.65381" lon="-1.74079">
        <ele>54</ele>
        <time>2018-03-09T13:45:02Z</time>
      </trkpt>
      <trkpt lat="46.65395" lon="-1.741">
        <ele>54</ele>
        <time>2018-03-09T13:46:02Z</time>
      </trkpt>
      <trkpt lat="46.65402" lon="-1.74111">
        <ele>55</ele>
        <time>2018-03-09T13:47:02Z</time>
      </trkpt>
      <trkpt lat="46.65405" lon="-1.74116">
        <ele>55</ele>
        <time>2018-03-09T13:48:02Z</time>
      </trkpt>
      <trkpt lat="46.65419" lon="-1.74142">
        <ele>55</ele>
        <time>2018-03-09T13:49:02Z</time>
      </trkpt>
      <trkpt lat="46.65443" lon="-1.74187">
        <ele>54</ele>
        <time>2018-03-09T13:50:02Z</time>
      </trkpt>
      <trkpt lat="46.65464" lon="-1.74227">
        <ele>54</ele>
        <time>2018-03-09T13:51:02Z</time>
      </trkpt>
      <trkpt lat="46.65484" lon="-1.74266">
        <ele>53</ele>
        <time>2018-03-09T13:52:02Z</time>
      </trkpt>
      <trkpt lat="46.65488" lon="-1.74273">
        <ele>53</ele>
        <time>2018-03-09T13:53:02Z</time>
      </trkpt>
      <trkpt lat="46.65494" lon="-1.74282">
        <ele>53</ele>
        <time>2018-03-09T13:54:02Z</time>
      </trkpt>
      <trkpt lat="46.655" lon="-1.74292">
        <ele>53</ele>
        <time>2018-03-09T13:55:02Z</time>
      </trkpt>
      <trkpt lat="46.65512" lon="-1.7431">
        <ele>53</ele>
        <time>2018-03-09T13:56:02Z</time>
      </trkpt>
      <trkpt lat="46.65517" lon="-1.74319">
        <ele>53</ele>
        <time>2018-03-09T13:57:02Z</time>
      </trkpt>
      <trkpt lat="46.65522" lon="-1.74324">
        <ele>53</ele>
        <time>2018-03-09T13:58:02Z</time>
      </trkpt>
      <trkpt lat="46.65524" lon="-1.74328">
        <ele>53</ele>
        <time>2018-03-09T13:59:02Z</time>
      </trkpt>
      <trkpt lat="46.65528" lon="-1.74332">
        <ele>53</ele>
        <time>2018-03-09T14:00:02Z</time>
      </trkpt>
      <trkpt lat="46.65539" lon="-1.74342">
        <ele>53</ele>
        <time>2018-03-09T14:01:02Z</time>
      </trkpt>
      <trkpt lat="46.65542" lon="-1.74345">
        <ele>53</ele>
        <time>2018-03-09T14:02:02Z</time>
      </trkpt>
      <trkpt lat="46.65544" lon="-1.74347">
        <ele>53</ele>
        <time>2018-03-09T14:03:02Z</time>
      </trkpt>
      <trkpt lat="46.65574" lon="-1.74368">
        <ele>53</ele>
        <time>2018-03-09T14:04:02Z</time>
      </trkpt>
      <trkpt lat="46.65576" lon="-1.74369">
        <ele>53</ele>
        <time>2018-03-09T14:05:02Z</time>
      </trkpt>
      <trkpt lat="46.65608" lon="-1.7439">
        <ele>51</ele>
        <time>2018-03-09T14:06:02Z</time>
      </trkpt>
      <trkpt lat="46.65608" lon="-1.7439">
        <ele>51</ele>
        <time>2018-03-09T14:07:02Z</time>
      </trkpt>
      <trkpt lat="46.65646" lon="-1.74417">
        <ele>50</ele>
        <time>2018-03-09T14:08:02Z</time>
      </trkpt>
      <trkpt lat="46.65679" lon="-1.7444">
        <ele>48</ele>
        <time>2018-03-09T14:09:02Z</time>
      </trkpt>
      <trkpt lat="46.65683" lon="-1.74443">
        <ele>48</ele>
        <time>2018-03-09T14:10:02Z</time>
      </trkpt>
      <trkpt lat="46.65712" lon="-1.74463">
        <ele>47</ele>
        <time>2018-03-09T14:11:02Z</time>
      </trkpt>
      <trkpt lat="46.65731" lon="-1.74478">
        <ele>47</ele>
        <time>2018-03-09T14:12:02Z</time>
      </trkpt>
      <trkpt lat="46.65735" lon="-1.74481">
        <ele>47</ele>
        <time>2018-03-09T14:13:02Z</time>
      </trkpt>
      <trkpt lat="46.65741" lon="-1.74484">
        <ele>47</ele>
        <time>2018-03-09T14:14:02Z</time>
      </trkpt>
      <trkpt lat="46.65748" lon="-1.7449">
        <ele>47</ele>
        <time>2018-03-09T14:15:02Z</time>
      </trkpt>
      <trkpt lat="46.65752" lon="-1.74493">
        <ele>47</ele>
        <time>2018-03-09T14:16:02Z</time>
      </trkpt>
      <trkpt lat="46.65756" lon="-1.74497">
        <ele>47</ele>
        <time>2018-03-09T14:17:02Z</time>
      </trkpt>
      <trkpt lat="46.65764" lon="-1.74505">
        <ele>46</ele>
        <time>2018-03-09T14:18:02Z</time>
      </trkpt>
      <trkpt lat="46.65772" lon="-1.74512">
        <ele>46</ele>
        <time>2018-03-09T14:19:02Z</time>
      </trkpt>
      <trkpt lat="46.65777" lon="-1.74517">
        <ele>46</ele>
        <time>2018-03-09T14:20:02Z</time>
      </trkpt>
      <trkpt lat="46.65781" lon="-1.74522">
        <ele>45</ele>
        <time>2018-03-09T14:21:02Z</time>
      </trkpt>
      <trkpt lat="46.65786" lon="-1.74528">
        <ele>45</ele>
        <time>2018-03-09T14:22:02Z</time>
      </trkpt>
      <trkpt lat="46.6579" lon="-1.74533">
        <ele>45</ele>
        <time>2018-03-09T14:23:02Z</time>
      </trkpt>
      <trkpt lat="46.65796" lon="-1.74542">
        <ele>45</ele>
        <time>2018-03-09T14:24:02Z</time>
      </trkpt>
      <trkpt lat="46.65799" lon="-1.74547">
        <ele>45</ele>
        <time>2018-03-09T14:25:02Z</time>
      </trkpt>
      <trkpt lat="46.65802" lon="-1.74551">
        <ele>45</ele>
        <time>2018-03-09T14:26:02Z</time>
      </trkpt>
      <trkpt lat="46.65808" lon="-1.74561">
        <ele>45</ele>
        <time>2018-03-09T14:27:02Z</time>
      </trkpt>
      <trkpt lat="46.65814" lon="-1.7457">
        <ele>44</ele>
        <time>2018-03-09T14:28:02Z</time>
      </trkpt>
      <trkpt lat="46.65825" lon="-1.74588">
        <ele>44</ele>
        <time>2018-03-09T14:29:02Z</time>
      </trkpt>
      <trkpt lat="46.6583" lon="-1.74597">
        <ele>44</ele>
        <time>2018-03-09T14:30:02Z</time>
      </trkpt>
      <trkpt lat="46.65847" lon="-1.74625">
        <ele>43</ele>
        <time>2018-03-09T14:31:02Z</time>
      </trkpt>
      <trkpt lat="46.6586" lon="-1.74649">
        <ele>42</ele>
        <time>2018-03-09T14:32:02Z</time>
      </trkpt>
      <trkpt lat="46.6587" lon="-1.74664">
        <ele>41</ele>
        <time>2018-03-09T14:33:02Z</time>
      </trkpt>
      <trkpt lat="46.65876" lon="-1.74672">
        <ele>41</ele>
        <time>2018-03-09T14:34:02Z</time>
      </trkpt>
      <trkpt lat="46.65884" lon="-1.74682">
        <ele>40</ele>
        <time>2018-03-09T14:35:02Z</time>
      </trkpt>
      <trkpt lat="46.65893" lon="-1.74694">
        <ele>40</ele>
        <time>2018-03-09T14:36:02Z</time>
      </trkpt>
      <trkpt lat="46.65899" lon="-1.74701">
        <ele>39</ele>
        <time>2018-03-09T14:37:02Z</time>
      </trkpt>
      <trkpt lat="46.65905" lon="-1.74707">
        <ele>39</ele>
        <time>2018-03-09T14:38:02Z</time>
      </trkpt>
      <trkpt lat="46.65917" lon="-1.74719">
        <ele>38</ele>
        <time>2018-03-09T14:39:02Z</time>
      </trkpt>
      <trkpt lat="46.65934" lon="-1.74734">
        <ele>37</ele>
        <time>2018-03-09T14:40:02Z</time>
      </trkpt>
      <trkpt lat="46.65942" lon="-1.74741">
        <ele>36</ele>
        <time>2018-03-09T14:41:02Z</time>
      </trkpt>
      <trkpt lat="46.65952" lon="-1.74748">
        <ele>36</ele>
        <time>2018-03-09T14:42:02Z</time>
      </trkpt>
      <trkpt lat="46.65961" lon="-1.74753">
        <ele>35</ele>
        <time>2018-03-09T14:43:02Z</time>
      </trkpt>
      <trkpt lat="46.65978" lon="-1.74761">
        <ele>33</ele>
        <time>2018-03-09T14:44:02Z</time>
      </trkpt>
      <trkpt lat="46.65994" lon="-1.74768">
        <ele>31</ele>
        <time>2018-03-09T14:45:02Z</time>
      </trkpt>
      <trkpt lat="46.66019" lon="-1.74779">
        <ele>29</ele>
        <time>2018-03-09T14:46:02Z</time>
      </trkpt>
      <trkpt lat="46.66039" lon="-1.74789">
        <ele>27</ele>
        <time>2018-03-09T14:47:02Z</time>
      </trkpt>
      <trkpt lat="46.66049" lon="-1.74794">
        <ele>27</ele>
        <time>2018-03-09T14:48:02Z</time>
      </trkpt>
      <trkpt lat="46.66059" lon="-1.74798">
        <ele>26</ele>
        <time>2018-03-09T14:49:02Z</time>
      </trkpt>
      <trkpt lat="46.66079" lon="-1.74808">
        <ele>25</ele>
        <time>2018-03-09T14:50:02Z</time>
      </trkpt>
      <trkpt lat="46.66082" lon="-1.7481">
        <ele>25</ele>
        <time>2018-03-09T14:51:02Z</time>
      </trkpt>
      <trkpt lat="46.66102" lon="-1.74817">
        <ele>24</ele>
        <time>2018-03-09T14:52:02Z</time>
      </trkpt>
      <trkpt lat="46.66133" lon="-1.74826">
        <ele>22</ele>
        <time>2018-03-09T14:53:02Z</time>
      </trkpt>
      <trkpt lat="46.66154" lon="-1.74831">
        <ele>21</ele>
        <time>2018-03-09T14:54:02Z</time>
      </trkpt>
      <trkpt lat="46.66157" lon="-1.74827">
        <ele>20</ele>
        <time>2018-03-09T14:55:02Z</time>
      </trkpt>
      <trkpt lat="46.6616" lon="-1.74825">
        <ele>20</ele>
        <time>2018-03-09T14:56:02Z</time>
      </trkpt>
      <trkpt lat="46.66161" lon="-1.74824">
        <ele>20</ele>
        <time>2018-03-09T14:57:02Z</time>
      </trkpt>
      <trkpt lat="46.6619" lon="-1.74816">
        <ele>18</ele>
        <time>2018-03-09T14:58:02Z</time>
      </trkpt>
      <trkpt lat="46.6619" lon="-1.74816">
        <ele>18</ele>
        <time>2018-03-09T14:59:02Z</time>
      </trkpt>
      <trkpt lat="46.66192" lon="-1.74828">
        <ele>18</ele>
        <time>2018-03-09T15:00:02Z</time>
      </trkpt>
      <trkpt lat="46.66188" lon="-1.74854">
        <ele>18</ele>
        <time>2018-03-09T15:01:02Z</time>
      </trkpt>
      <trkpt lat="46.66194" lon="-1.74866">
        <ele>18</ele>
        <time>2018-03-09T15:02:02Z</time>
      </trkpt>
      <trkpt lat="46.66198" lon="-1.74881">
        <ele>18</ele>
        <time>2018-03-09T15:03:02Z</time>
      </trkpt>
      <trkpt lat="46.66209" lon="-1.74917">
        <ele>17</ele>
        <time>2018-03-09T15:04:02Z</time>
      </trkpt>
      <trkpt lat="46.66209" lon="-1.74918">
        <ele>17</ele>
        <time>2018-03-09T15:05:02Z</time>
      </trkpt>
      <trkpt lat="46.6621" lon="-1.7492">
        <ele>17</ele>
        <time>2018-03-09T15:06:02Z</time>
      </trkpt>
      <trkpt lat="46.6621" lon="-1.74922">
        <ele>17</ele>
        <time>2018-03-09T15:07:02Z</time>
      </trkpt>
      <trkpt lat="46.6621" lon="-1.74924">
        <ele>17</ele>
        <time>2018-03-09T15:08:02Z</time>
      </trkpt>
      <trkpt lat="46.6621" lon="-1.74928">
        <ele>17</ele>
        <time>2018-03-09T15:09:02Z</time>
      </trkpt>
      <trkpt lat="46.6621" lon="-1.74935">
        <ele>16</ele>
        <time>2018-03-09T15:10:02Z</time>
      </trkpt>
      <trkpt lat="46.66209" lon="-1.74939">
        <ele>16</ele>
        <time>2018-03-09T15:11:02Z</time>
      </trkpt>
      <trkpt lat="46.66209" lon="-1.74942">
        <ele>16</ele>
        <time>2018-03-09T15:12:02Z</time>
      </trkpt>
      <trkpt lat="46.66208" lon="-1.74945">
        <ele>16</ele>
        <time>2018-03-09T15:13:02Z</time>
      </trkpt>
      <trkpt lat="46.66207" lon="-1.74949">
        <ele>16</ele>
        <time>2018-03-09T15:14:02Z</time>
      </trkpt>
      <trkpt lat="46.66206" lon="-1.74952">
        <ele>16</ele>
        <time>2018-03-09T15:15:02Z</time>
      </trkpt>
      <trkpt lat="46.66204" lon="-1.74956">
        <ele>16</ele>
        <time>2018-03-09T15:16:02Z</time>
      </trkpt>
      <trkpt lat="46.66202" lon="-1.74961">
        <ele>16</ele>
        <time>2018-03-09T15:17:02Z</time>
      </trkpt>
      <trkpt lat="46.662" lon="-1.74967">
        <ele>16</ele>
        <time>2018-03-09T15:18:02Z</time>
      </trkpt>
      <trkpt lat="46.66197" lon="-1.74972">
        <ele>16</ele>
        <time>2018-03-09T15:19:02Z</time>
      </trkpt>
      <trkpt lat="46.66194" lon="-1.74977">
        <ele>16</ele>
        <time>2018-03-09T15:20:02Z</time>
      </trkpt>
      <trkpt lat="46.66183" lon="-1.74997">
        <ele>16</ele>
        <time>2018-03-09T15:21:02Z</time>
      </trkpt>
      <trkpt lat="46.6617" lon="-1.75019">
        <ele>15</ele>
        <time>2018-03-09T15:22:02Z</time>
      </trkpt>
      <trkpt lat="46.66157" lon="-1.7504">
        <ele>15</ele>
        <time>2018-03-09T15:23:02Z</time>
      </trkpt>
      <trkpt lat="46.66147" lon="-1.75058">
        <ele>14</ele>
        <time>2018-03-09T15:24:02Z</time>
      </trkpt>
      <trkpt lat="46.6611" lon="-1.75122">
        <ele>13</ele>
        <time>2018-03-09T15:25:02Z</time>
      </trkpt>
      <trkpt lat="46.66073" lon="-1.75183">
        <ele>12</ele>
        <time>2018-03-09T15:26:02Z</time>
      </trkpt>
      <trkpt lat="46.66069" lon="-1.7519">
        <ele>13</ele>
        <time>2018-03-09T15:27:02Z</time>
      </trkpt>
      <trkpt lat="46.66065" lon="-1.75197">
        <ele>13</ele>
        <time>2018-03-09T15:28:02Z</time>
      </trkpt>
      <trkpt lat="46.66032" lon="-1.75257">
        <ele>15</ele>
        <time>2018-03-09T15:29:02Z</time>
      </trkpt>
      <trkpt lat="46.66012" lon="-1.75292">
        <ele>16</ele>
        <time>2018-03-09T15:30:02Z</time>
      </trkpt>
      <trkpt lat="46.6601" lon="-1.75297">
        <ele>15</ele>
        <time>2018-03-09T15:31:02Z</time>
      </trkpt>
      <trkpt lat="46.66008" lon="-1.75302">
        <ele>15</ele>
        <time>2018-03-09T15:32:02Z</time>
      </trkpt>
      <trkpt lat="46.66007" lon="-1.75308">
        <ele>15</ele>
        <time>2018-03-09T15:33:02Z</time>
      </trkpt>
      <trkpt lat="46.66006" lon="-1.75314">
        <ele>15</ele>
        <time>2018-03-09T15:34:02Z</time>
      </trkpt>
      <trkpt lat="46.66007" lon="-1.75321">
        <ele>16</ele>
        <time>2018-03-09T15:35:02Z</time>
      </trkpt>
      <trkpt lat="46.66007" lon="-1.75326">
        <ele>16</ele>
        <time>2018-03-09T15:36:02Z</time>
      </trkpt>
      <trkpt lat="46.66008" lon="-1.75331">
        <ele>16</ele>
        <time>2018-03-09T15:37:02Z</time>
      </trkpt>
      <trkpt lat="46.6601" lon="-1.75336">
        <ele>16</ele>
        <time>2018-03-09T15:38:02Z</time>
      </trkpt>
      <trkpt lat="46.66011" lon="-1.7534">
        <ele>16</ele>
        <time>2018-03-09T15:39:02Z</time>
      </trkpt>
      <trkpt lat="46.66014" lon="-1.75343">
        <ele>16</ele>
        <time>2018-03-09T15:40:02Z</time>
      </trkpt>
      <trkpt lat="46.66018" lon="-1.75349">
        <ele>16</ele>
        <time>2018-03-09T15:41:02Z</time>
      </trkpt>
      <trkpt lat="46.66024" lon="-1.75353">
        <ele>17</ele>
        <time>2018-03-09T15:42:02Z</time>
      </trkpt>
      <trkpt lat="46.66028" lon="-1.75355">
        <ele>17</ele>
        <time>2018-03-09T15:43:02Z</time>
      </trkpt>
      <trkpt lat="46.66032" lon="-1.75357">
        <ele>17</ele>
        <time>2018-03-09T15:44:02Z</time>
      </trkpt>
      <trkpt lat="46.66037" lon="-1.75359">
        <ele>17</ele>
        <time>2018-03-09T15:45:02Z</time>
      </trkpt>
      <trkpt lat="46.66068" lon="-1.75366">
        <ele>20</ele>
        <time>2018-03-09T15:46:02Z</time>
      </trkpt>
      <trkpt lat="46.66083" lon="-1.75369">
        <ele>21</ele>
        <time>2018-03-09T15:47:02Z</time>
      </trkpt>
      <trkpt lat="46.66093" lon="-1.75372">
        <ele>22</ele>
        <time>2018-03-09T15:48:02Z</time>
      </trkpt>
      <trkpt lat="46.66105" lon="-1.75375">
        <ele>23</ele>
        <time>2018-03-09T15:49:02Z</time>
      </trkpt>
      <trkpt lat="46.66129" lon="-1.75381">
        <ele>24</ele>
        <time>2018-03-09T15:50:02Z</time>
      </trkpt>
      <trkpt lat="46.66148" lon="-1.75385">
        <ele>26</ele>
        <time>2018-03-09T15:51:02Z</time>
      </trkpt>
      <trkpt lat="46.66153" lon="-1.75386">
        <ele>26</ele>
        <time>2018-03-09T15:52:02Z</time>
      </trkpt>
      <trkpt lat="46.66157" lon="-1.75387">
        <ele>26</ele>
        <time>2018-03-09T15:53:02Z</time>
      </trkpt>
      <trkpt lat="46.66175" lon="-1.75389">
        <ele>27</ele>
        <time>2018-03-09T15:54:02Z</time>
      </trkpt>
      <trkpt lat="46.66205" lon="-1.75391">
        <ele>28</ele>
        <time>2018-03-09T15:55:02Z</time>
      </trkpt>
      <trkpt lat="46.66221" lon="-1.75392">
        <ele>28</ele>
        <time>2018-03-09T15:56:02Z</time>
      </trkpt>
      <trkpt lat="46.66249" lon="-1.75393">
        <ele>29</ele>
        <time>2018-03-09T15:57:02Z</time>
      </trkpt>
      <trkpt lat="46.66276" lon="-1.75393">
        <ele>29</ele>
        <time>2018-03-09T15:58:02Z</time>
      </trkpt>
      <trkpt lat="46.66281" lon="-1.75393">
        <ele>29</ele>
        <time>2018-03-09T15:59:02Z</time>
      </trkpt>
      <trkpt lat="46.66292" lon="-1.75394">
        <ele>29</ele>
        <time>2018-03-09T16:00:02Z</time>
      </trkpt>
      <trkpt lat="46.663" lon="-1.75394">
        <ele>30</ele>
        <time>2018-03-09T16:01:02Z</time>
      </trkpt>
      <trkpt lat="46.66305" lon="-1.75395">
        <ele>30</ele>
        <time>2018-03-09T16:02:02Z</time>
      </trkpt>
      <trkpt lat="46.66312" lon="-1.75396">
        <ele>30</ele>
        <time>2018-03-09T16:03:02Z</time>
      </trkpt>
      <trkpt lat="46.66317" lon="-1.75397">
        <ele>30</ele>
        <time>2018-03-09T16:04:02Z</time>
      </trkpt>
      <trkpt lat="46.66321" lon="-1.75399">
        <ele>30</ele>
        <time>2018-03-09T16:05:02Z</time>
      </trkpt>
      <trkpt lat="46.66325" lon="-1.754">
        <ele>30</ele>
        <time>2018-03-09T16:06:02Z</time>
      </trkpt>
      <trkpt lat="46.66326" lon="-1.75402">
        <ele>31</ele>
        <time>2018-03-09T16:07:02Z</time>
      </trkpt>
      <trkpt lat="46.66329" lon="-1.75404">
        <ele>31</ele>
        <time>2018-03-09T16:08:02Z</time>
      </trkpt>
      <trkpt lat="46.66332" lon="-1.75406">
        <ele>31</ele>
        <time>2018-03-09T16:09:02Z</time>
      </trkpt>
      <trkpt lat="46.66334" lon="-1.75411">
        <ele>32</ele>
        <time>2018-03-09T16:10:02Z</time>
      </trkpt>
      <trkpt lat="46.66337" lon="-1.75416">
        <ele>32</ele>
        <time>2018-03-09T16:11:02Z</time>
      </trkpt>
      <trkpt lat="46.6634" lon="-1.75423">
        <ele>32</ele>
        <time>2018-03-09T16:12:02Z</time>
      </trkpt>
      <trkpt lat="46.66345" lon="-1.75432">
        <ele>31</ele>
        <time>2018-03-09T16:13:02Z</time>
      </trkpt>
      <trkpt lat="46.66349" lon="-1.75437">
        <ele>31</ele>
        <time>2018-03-09T16:14:02Z</time>
      </trkpt>
      <trkpt lat="46.66351" lon="-1.7544">
        <ele>31</ele>
        <time>2018-03-09T16:15:02Z</time>
      </trkpt>
      <trkpt lat="46.66357" lon="-1.75446">
        <ele>31</ele>
        <time>2018-03-09T16:16:02Z</time>
      </trkpt>
      <trkpt lat="46.66364" lon="-1.75451">
        <ele>31</ele>
        <time>2018-03-09T16:17:02Z</time>
      </trkpt>
      <trkpt lat="46.66371" lon="-1.75455">
        <ele>31</ele>
        <time>2018-03-09T16:18:02Z</time>
      </trkpt>
      <trkpt lat="46.66379" lon="-1.75459">
        <ele>32</ele>
        <time>2018-03-09T16:19:02Z</time>
      </trkpt>
      <trkpt lat="46.66386" lon="-1.75462">
        <ele>32</ele>
        <time>2018-03-09T16:20:02Z</time>
      </trkpt>
      <trkpt lat="46.66401" lon="-1.75468">
        <ele>33</ele>
        <time>2018-03-09T16:21:02Z</time>
      </trkpt>
      <trkpt lat="46.66401" lon="-1.75468">
        <ele>33</ele>
        <time>2018-03-09T16:22:02Z</time>
      </trkpt>
      <trkpt lat="46.66407" lon="-1.7547">
        <ele>33</ele>
        <time>2018-03-09T16:23:02Z</time>
      </trkpt>
      <trkpt lat="46.66413" lon="-1.75471">
        <ele>34</ele>
        <time>2018-03-09T16:24:02Z</time>
      </trkpt>
      <trkpt lat="46.6642" lon="-1.75473">
        <ele>34</ele>
        <time>2018-03-09T16:25:02Z</time>
      </trkpt>
      <trkpt lat="46.66427" lon="-1.75474">
        <ele>35</ele>
        <time>2018-03-09T16:26:02Z</time>
      </trkpt>
      <trkpt lat="46.66432" lon="-1.75475">
        <ele>36</ele>
        <time>2018-03-09T16:27:02Z</time>
      </trkpt>
      <trkpt lat="46.66439" lon="-1.75477">
        <ele>37</ele>
        <time>2018-03-09T16:28:02Z</time>
      </trkpt>
      <trkpt lat="46.6645" lon="-1.75476">
        <ele>38</ele>
        <time>2018-03-09T16:29:02Z</time>
      </trkpt>
      <trkpt lat="46.66458" lon="-1.75475">
        <ele>39</ele>
        <time>2018-03-09T16:30:02Z</time>
      </trkpt>
      <trkpt lat="46.66471" lon="-1.75473">
        <ele>41</ele>
        <time>2018-03-09T16:31:02Z</time>
      </trkpt>
      <trkpt lat="46.66484" lon="-1.7547">
        <ele>43</ele>
        <time>2018-03-09T16:32:02Z</time>
      </trkpt>
      <trkpt lat="46.66494" lon="-1.75467">
        <ele>44</ele>
        <time>2018-03-09T16:33:02Z</time>
      </trkpt>
      <trkpt lat="46.66503" lon="-1.75465">
        <ele>45</ele>
        <time>2018-03-09T16:34:02Z</time>
      </trkpt>
      <trkpt lat="46.66511" lon="-1.75463">
        <ele>46</ele>
        <time>2018-03-09T16:35:02Z</time>
      </trkpt>
      <trkpt lat="46.66521" lon="-1.75462">
        <ele>47</ele>
        <time>2018-03-09T16:36:02Z</time>
      </trkpt>
      <trkpt lat="46.66531" lon="-1.75462">
        <ele>47</ele>
        <time>2018-03-09T16:37:02Z</time>
      </trkpt>
      <trkpt lat="46.6654" lon="-1.75463">
        <ele>48</ele>
        <time>2018-03-09T16:38:02Z</time>
      </trkpt>
      <trkpt lat="46.66548" lon="-1.75464">
        <ele>48</ele>
        <time>2018-03-09T16:39:02Z</time>
      </trkpt>
      <trkpt lat="46.66555" lon="-1.75466">
        <ele>48</ele>
        <time>2018-03-09T16:40:02Z</time>
      </trkpt>
      <trkpt lat="46.66562" lon="-1.75468">
        <ele>49</ele>
        <time>2018-03-09T16:41:02Z</time>
      </trkpt>
      <trkpt lat="46.66571" lon="-1.75472">
        <ele>49</ele>
        <time>2018-03-09T16:42:02Z</time>
      </trkpt>
      <trkpt lat="46.66577" lon="-1.75476">
        <ele>50</ele>
        <time>2018-03-09T16:43:02Z</time>
      </trkpt>
      <trkpt lat="46.66592" lon="-1.75484">
        <ele>50</ele>
        <time>2018-03-09T16:44:02Z</time>
      </trkpt>
      <trkpt lat="46.666" lon="-1.75488">
        <ele>50</ele>
        <time>2018-03-09T16:45:02Z</time>
      </trkpt>
      <trkpt lat="46.66606" lon="-1.75491">
        <ele>50</ele>
        <time>2018-03-09T16:46:02Z</time>
      </trkpt>
      <trkpt lat="46.66615" lon="-1.75493">
        <ele>50</ele>
        <time>2018-03-09T16:47:02Z</time>
      </trkpt>
      <trkpt lat="46.66623" lon="-1.75493">
        <ele>50</ele>
        <time>2018-03-09T16:48:02Z</time>
      </trkpt>
      <trkpt lat="46.6663" lon="-1.75492">
        <ele>50</ele>
        <time>2018-03-09T16:49:02Z</time>
      </trkpt>
      <trkpt lat="46.66651" lon="-1.75488">
        <ele>50</ele>
        <time>2018-03-09T16:50:02Z</time>
      </trkpt>
      <trkpt lat="46.66669" lon="-1.75485">
        <ele>50</ele>
        <time>2018-03-09T16:51:02Z</time>
      </trkpt>
      <trkpt lat="46.66678" lon="-1.75484">
        <ele>49</ele>
        <time>2018-03-09T16:52:02Z</time>
      </trkpt>
      <trkpt lat="46.66686" lon="-1.75483">
        <ele>49</ele>
        <time>2018-03-09T16:53:02Z</time>
      </trkpt>
      <trkpt lat="46.66698" lon="-1.75484">
        <ele>48</ele>
        <time>2018-03-09T16:54:02Z</time>
      </trkpt>
      <trkpt lat="46.66715" lon="-1.75487">
        <ele>48</ele>
        <time>2018-03-09T16:55:02Z</time>
      </trkpt>
      <trkpt lat="46.66737" lon="-1.75493">
        <ele>47</ele>
        <time>2018-03-09T16:56:02Z</time>
      </trkpt>
      <trkpt lat="46.6676" lon="-1.75499">
        <ele>46</ele>
        <time>2018-03-09T16:57:02Z</time>
      </trkpt>
      <trkpt lat="46.66775" lon="-1.75504">
        <ele>46</ele>
        <time>2018-03-09T16:58:02Z</time>
      </trkpt>
      <trkpt lat="46.66786" lon="-1.75508">
        <ele>46</ele>
        <time>2018-03-09T16:59:02Z</time>
      </trkpt>
      <trkpt lat="46.66797" lon="-1.75513">
        <ele>45</ele>
        <time>2018-03-09T17:00:02Z</time>
      </trkpt>
      <trkpt lat="46.66803" lon="-1.75517">
        <ele>45</ele>
        <time>2018-03-09T17:01:02Z</time>
      </trkpt>
      <trkpt lat="46.66808" lon="-1.75521">
        <ele>45</ele>
        <time>2018-03-09T17:02:02Z</time>
      </trkpt>
      <trkpt lat="46.66819" lon="-1.7553">
        <ele>45</ele>
        <time>2018-03-09T17:03:02Z</time>
      </trkpt>
      <trkpt lat="46.66831" lon="-1.75542">
        <ele>45</ele>
        <time>2018-03-09T17:04:02Z</time>
      </trkpt>
      <trkpt lat="46.66839" lon="-1.75552">
        <ele>45</ele>
        <time>2018-03-09T17:05:02Z</time>
      </trkpt>
      <trkpt lat="46.66854" lon="-1.75568">
        <ele>46</ele>
        <time>2018-03-09T17:06:02Z</time>
      </trkpt>
      <trkpt lat="46.66859" lon="-1.75573">
        <ele>46</ele>
        <time>2018-03-09T17:07:02Z</time>
      </trkpt>
      <trkpt lat="46.66864" lon="-1.75578">
        <ele>47</ele>
        <time>2018-03-09T17:08:02Z</time>
      </trkpt>
      <trkpt lat="46.66872" lon="-1.75583">
        <ele>47</ele>
        <time>2018-03-09T17:09:02Z</time>
      </trkpt>
      <trkpt lat="46.66876" lon="-1.75587">
        <ele>47</ele>
        <time>2018-03-09T17:10:02Z</time>
      </trkpt>
      <trkpt lat="46.66879" lon="-1.75589">
        <ele>47</ele>
        <time>2018-03-09T17:11:02Z</time>
      </trkpt>
      <trkpt lat="46.66884" lon="-1.75591">
        <ele>47</ele>
        <time>2018-03-09T17:12:02Z</time>
      </trkpt>
      <trkpt lat="46.6689" lon="-1.75594">
        <ele>47</ele>
        <time>2018-03-09T17:13:02Z</time>
      </trkpt>
      <trkpt lat="46.66895" lon="-1.75596">
        <ele>47</ele>
        <time>2018-03-09T17:14:02Z</time>
      </trkpt>
      <trkpt lat="46.669" lon="-1.75598">
        <ele>47</ele>
        <time>2018-03-09T17:15:02Z</time>
      </trkpt>
      <trkpt lat="46.66911" lon="-1.75601">
        <ele>47</ele>
        <time>2018-03-09T17:16:02Z</time>
      </trkpt>
      <trkpt lat="46.66921" lon="-1.75604">
        <ele>48</ele>
        <time>2018-03-09T17:17:02Z</time>
      </trkpt>
      <trkpt lat="46.66934" lon="-1.75606">
        <ele>48</ele>
        <time>2018-03-09T17:18:02Z</time>
      </trkpt>
      <trkpt lat="46.6696" lon="-1.75611">
        <ele>48</ele>
        <time>2018-03-09T17:19:02Z</time>
      </trkpt>
      <trkpt lat="46.66973" lon="-1.75615">
        <ele>48</ele>
        <time>2018-03-09T17:20:02Z</time>
      </trkpt>
      <trkpt lat="46.66978" lon="-1.75616">
        <ele>48</ele>
        <time>2018-03-09T17:21:02Z</time>
      </trkpt>
      <trkpt lat="46.66981" lon="-1.75618">
        <ele>48</ele>
        <time>2018-03-09T17:22:02Z</time>
      </trkpt>
      <trkpt lat="46.66993" lon="-1.75625">
        <ele>49</ele>
        <time>2018-03-09T17:23:02Z</time>
      </trkpt>
      <trkpt lat="46.66994" lon="-1.75627">
        <ele>49</ele>
        <time>2018-03-09T17:24:02Z</time>
      </trkpt>
      <trkpt lat="46.66996" lon="-1.75628">
        <ele>49</ele>
        <time>2018-03-09T17:25:02Z</time>
      </trkpt>
      <trkpt lat="46.66998" lon="-1.75631">
        <ele>49</ele>
        <time>2018-03-09T17:26:02Z</time>
      </trkpt>
      <trkpt lat="46.67001" lon="-1.75635">
        <ele>49</ele>
        <time>2018-03-09T17:27:02Z</time>
      </trkpt>
      <trkpt lat="46.67004" lon="-1.7564">
        <ele>50</ele>
        <time>2018-03-09T17:28:02Z</time>
      </trkpt>
      <trkpt lat="46.67008" lon="-1.75646">
        <ele>50</ele>
        <time>2018-03-09T17:29:02Z</time>
      </trkpt>
      <trkpt lat="46.6701" lon="-1.75651">
        <ele>50</ele>
        <time>2018-03-09T17:30:02Z</time>
      </trkpt>
      <trkpt lat="46.67013" lon="-1.75658">
        <ele>50</ele>
        <time>2018-03-09T17:31:02Z</time>
      </trkpt>
      <trkpt lat="46.67015" lon="-1.75662">
        <ele>50</ele>
        <time>2018-03-09T17:32:02Z</time>
      </trkpt>
      <trkpt lat="46.67017" lon="-1.75667">
        <ele>51</ele>
        <time>2018-03-09T17:33:02Z</time>
      </trkpt>
      <trkpt lat="46.67018" lon="-1.75673">
        <ele>51</ele>
        <time>2018-03-09T17:34:02Z</time>
      </trkpt>
      <trkpt lat="46.67021" lon="-1.75683">
        <ele>51</ele>
        <time>2018-03-09T17:35:02Z</time>
      </trkpt>
      <trkpt lat="46.67023" lon="-1.7569">
        <ele>51</ele>
        <time>2018-03-09T17:36:02Z</time>
      </trkpt>
      <trkpt lat="46.67026" lon="-1.75699">
        <ele>51</ele>
        <time>2018-03-09T17:37:02Z</time>
      </trkpt>
      <trkpt lat="46.67036" lon="-1.75731">
        <ele>51</ele>
        <time>2018-03-09T17:38:02Z</time>
      </trkpt>
      <trkpt lat="46.67037" lon="-1.75737">
        <ele>51</ele>
        <time>2018-03-09T17:39:02Z</time>
      </trkpt>
      <trkpt lat="46.67048" lon="-1.75765">
        <ele>51</ele>
        <time>2018-03-09T17:40:02Z</time>
      </trkpt>
      <trkpt lat="46.67053" lon="-1.75777">
        <ele>51</ele>
        <time>2018-03-09T17:41:02Z</time>
      </trkpt>
      <trkpt lat="46.67055" lon="-1.75783">
        <ele>51</ele>
        <time>2018-03-09T17:42:02Z</time>
      </trkpt>
      <trkpt lat="46.67057" lon="-1.7579">
        <ele>51</ele>
        <time>2018-03-09T17:43:02Z</time>
      </trkpt>
      <trkpt lat="46.67058" lon="-1.75795">
        <ele>51</ele>
        <time>2018-03-09T17:44:02Z</time>
      </trkpt>
      <trkpt lat="46.67059" lon="-1.75797">
        <ele>51</ele>
        <time>2018-03-09T17:45:02Z</time>
      </trkpt>
      <trkpt lat="46.6706" lon="-1.758">
        <ele>51</ele>
        <time>2018-03-09T17:46:02Z</time>
      </trkpt>
      <trkpt lat="46.6706" lon="-1.75803">
        <ele>51</ele>
        <time>2018-03-09T17:47:02Z</time>
      </trkpt>
      <trkpt lat="46.67061" lon="-1.75808">
        <ele>51</ele>
        <time>2018-03-09T17:48:02Z</time>
      </trkpt>
      <trkpt lat="46.67063" lon="-1.75815">
        <ele>51</ele>
        <time>2018-03-09T17:49:02Z</time>
      </trkpt>
      <trkpt lat="46.67065" lon="-1.75828">
        <ele>51</ele>
        <time>2018-03-09T17:50:02Z</time>
      </trkpt>
      <trkpt lat="46.67067" lon="-1.75837">
        <ele>51</ele>
        <time>2018-03-09T17:51:02Z</time>
      </trkpt>
      <trkpt lat="46.67069" lon="-1.75843">
        <ele>51</ele>
        <time>2018-03-09T17:52:02Z</time>
      </trkpt>
      <trkpt lat="46.6707" lon="-1.75846">
        <ele>51</ele>
        <time>2018-03-09T17:53:02Z</time>
      </trkpt>
      <trkpt lat="46.67073" lon="-1.75856">
        <ele>51</ele>
        <time>2018-03-09T17:54:02Z</time>
      </trkpt>
      <trkpt lat="46.67081" lon="-1.75878">
        <ele>51</ele>
        <time>2018-03-09T17:55:02Z</time>
      </trkpt>
      <trkpt lat="46.67084" lon="-1.75884">
        <ele>51</ele>
        <time>2018-03-09T17:56:02Z</time>
      </trkpt>
      <trkpt lat="46.67104" lon="-1.75932">
        <ele>51</ele>
        <time>2018-03-09T17:57:02Z</time>
      </trkpt>
      <trkpt lat="46.67109" lon="-1.75944">
        <ele>52</ele>
        <time>2018-03-09T17:58:02Z</time>
      </trkpt>
      <trkpt lat="46.67112" lon="-1.75949">
        <ele>52</ele>
        <time>2018-03-09T17:59:02Z</time>
      </trkpt>
      <trkpt lat="46.67114" lon="-1.75952">
        <ele>52</ele>
        <time>2018-03-09T18:00:02Z</time>
      </trkpt>
      <trkpt lat="46.67117" lon="-1.75955">
        <ele>52</ele>
        <time>2018-03-09T18:01:02Z</time>
      </trkpt>
      <trkpt lat="46.6712" lon="-1.75958">
        <ele>52</ele>
        <time>2018-03-09T18:02:02Z</time>
      </trkpt>
      <trkpt lat="46.67123" lon="-1.7596">
        <ele>52</ele>
        <time>2018-03-09T18:03:02Z</time>
      </trkpt>
      <trkpt lat="46.67127" lon="-1.75962">
        <ele>52</ele>
        <time>2018-03-09T18:04:02Z</time>
      </trkpt>
      <trkpt lat="46.67132" lon="-1.75964">
        <ele>52</ele>
        <time>2018-03-09T18:05:02Z</time>
      </trkpt>
      <trkpt lat="46.67137" lon="-1.75963">
        <ele>52</ele>
        <time>2018-03-09T18:06:02Z</time>
      </trkpt>
      <trkpt lat="46.67141" lon="-1.75963">
        <ele>52</ele>
        <time>2018-03-09T18:07:02Z</time>
      </trkpt>
      <trkpt lat="46.67148" lon="-1.7596">
        <ele>52</ele>
        <time>2018-03-09T18:08:02Z</time>
      </trkpt>
      <trkpt lat="46.67154" lon="-1.75957">
        <ele>52</ele>
        <time>2018-03-09T18:09:02Z</time>
      </trkpt>
      <trkpt lat="46.67171" lon="-1.75946">
        <ele>51</ele>
        <time>2018-03-09T18:10:02Z</time>
      </trkpt>
      <trkpt lat="46.67193" lon="-1.75932">
        <ele>51</ele>
        <time>2018-03-09T18:11:02Z</time>
      </trkpt>
      <trkpt lat="46.67229" lon="-1.75909">
        <ele>51</ele>
        <time>2018-03-09T18:12:02Z</time>
      </trkpt>
      <trkpt lat="46.67263" lon="-1.75887">
        <ele>51</ele>
        <time>2018-03-09T18:13:02Z</time>
      </trkpt>
      <trkpt lat="46.67279" lon="-1.75877">
        <ele>52</ele>
        <time>2018-03-09T18:14:02Z</time>
      </trkpt>
      <trkpt lat="46.67281" lon="-1.75872">
        <ele>52</ele>
        <time>2018-03-09T18:15:02Z</time>
      </trkpt>
      <trkpt lat="46.67296" lon="-1.75864">
        <ele>52</ele>
        <time>2018-03-09T18:16:02Z</time>
      </trkpt>
      <trkpt lat="46.67296" lon="-1.75864">
        <ele>52</ele>
        <time>2018-03-09T18:17:02Z</time>
      </trkpt>
      <trkpt lat="46.67303" lon="-1.75862">
        <ele>52</ele>
        <time>2018-03-09T18:18:02Z</time>
      </trkpt>
      <trkpt lat="46.67304" lon="-1.75869">
        <ele>52</ele>
        <time>2018-03-09T18:19:02Z</time>
      </trkpt>
      <trkpt lat="46.67304" lon="-1.75875">
        <ele>52</ele>
        <time>2018-03-09T18:20:02Z</time>
      </trkpt>
      <trkpt lat="46.67301" lon="-1.75912">
        <ele>52</ele>
        <time>2018-03-09T18:21:02Z</time>
      </trkpt>
      <trkpt lat="46.67298" lon="-1.75924">
        <ele>52</ele>
        <time>2018-03-09T18:22:02Z</time>
      </trkpt>
      <trkpt lat="46.67295" lon="-1.75945">
        <ele>52</ele>
        <time>2018-03-09T18:23:02Z</time>
      </trkpt>
      <trkpt lat="46.67292" lon="-1.75975">
        <ele>52</ele>
        <time>2018-03-09T18:24:02Z</time>
      </trkpt>
      <trkpt lat="46.67289" lon="-1.76008">
        <ele>52</ele>
        <time>2018-03-09T18:25:02Z</time>
      </trkpt>
      <trkpt lat="46.67285" lon="-1.76045">
        <ele>52</ele>
        <time>2018-03-09T18:26:02Z</time>
      </trkpt>
      <trkpt lat="46.67281" lon="-1.7608">
        <ele>52</ele>
        <time>2018-03-09T18:27:02Z</time>
      </trkpt>
      <trkpt lat="46.67277" lon="-1.76114">
        <ele>52</ele>
        <time>2018-03-09T18:28:02Z</time>
      </trkpt>
      <trkpt lat="46.67274" lon="-1.76138">
        <ele>52</ele>
        <time>2018-03-09T18:29:02Z</time>
      </trkpt>
      <trkpt lat="46.67272" lon="-1.76156">
        <ele>52</ele>
        <time>2018-03-09T18:30:02Z</time>
      </trkpt>
      <trkpt lat="46.6727" lon="-1.76168">
        <ele>52</ele>
        <time>2018-03-09T18:31:02Z</time>
      </trkpt>
      <trkpt lat="46.67269" lon="-1.76175">
        <ele>52</ele>
        <time>2018-03-09T18:32:02Z</time>
      </trkpt>
      <trkpt lat="46.67267" lon="-1.76183">
        <ele>52</ele>
        <time>2018-03-09T18:33:02Z</time>
      </trkpt>
      <trkpt lat="46.67262" lon="-1.76199">
        <ele>52</ele>
        <time>2018-03-09T18:34:02Z</time>
      </trkpt>
      <trkpt lat="46.67255" lon="-1.76217">
        <ele>51</ele>
        <time>2018-03-09T18:35:02Z</time>
      </trkpt>
      <trkpt lat="46.67249" lon="-1.76231">
        <ele>51</ele>
        <time>2018-03-09T18:36:02Z</time>
      </trkpt>
      <trkpt lat="46.67244" lon="-1.76243">
        <ele>51</ele>
        <time>2018-03-09T18:37:02Z</time>
      </trkpt>
      <trkpt lat="46.67234" lon="-1.76268">
        <ele>51</ele>
        <time>2018-03-09T18:38:02Z</time>
      </trkpt>
      <trkpt lat="46.67226" lon="-1.76284">
        <ele>51</ele>
        <time>2018-03-09T18:39:02Z</time>
      </trkpt>
      <trkpt lat="46.67214" lon="-1.76309">
        <ele>51</ele>
        <time>2018-03-09T18:40:02Z</time>
      </trkpt>
      <trkpt lat="46.67207" lon="-1.76324">
        <ele>51</ele>
        <time>2018-03-09T18:41:02Z</time>
      </trkpt>
      <trkpt lat="46.672" lon="-1.76338">
        <ele>51</ele>
        <time>2018-03-09T18:42:02Z</time>
      </trkpt>
      <trkpt lat="46.67187" lon="-1.76364">
        <ele>51</ele>
        <time>2018-03-09T18:43:02Z</time>
      </trkpt>
      <trkpt lat="46.67184" lon="-1.76371">
        <ele>51</ele>
        <time>2018-03-09T18:44:02Z</time>
      </trkpt>
      <trkpt lat="46.67182" lon="-1.76374">
        <ele>51</ele>
        <time>2018-03-09T18:45:02Z</time>
      </trkpt>
      <trkpt lat="46.6718" lon="-1.7638">
        <ele>51</ele>
        <time>2018-03-09T18:46:02Z</time>
      </trkpt>
      <trkpt lat="46.67176" lon="-1.76389">
        <ele>51</ele>
        <time>2018-03-09T18:47:02Z</time>
      </trkpt>
      <trkpt lat="46.67171" lon="-1.76406">
        <ele>50</ele>
        <time>2018-03-09T18:48:02Z</time>
      </trkpt>
      <trkpt lat="46.67166" lon="-1.76425">
        <ele>50</ele>
        <time>2018-03-09T18:49:02Z</time>
      </trkpt>
      <trkpt lat="46.6715" lon="-1.76484">
        <ele>50</ele>
        <time>2018-03-09T18:50:02Z</time>
      </trkpt>
      <trkpt lat="46.6714" lon="-1.76523">
        <ele>50</ele>
        <time>2018-03-09T18:51:02Z</time>
      </trkpt>
      <trkpt lat="46.67133" lon="-1.76546">
        <ele>50</ele>
        <time>2018-03-09T18:52:02Z</time>
      </trkpt>
      <trkpt lat="46.6713" lon="-1.7656">
        <ele>50</ele>
        <time>2018-03-09T18:53:02Z</time>
      </trkpt>
      <trkpt lat="46.67126" lon="-1.76576">
        <ele>50</ele>
        <time>2018-03-09T18:54:02Z</time>
      </trkpt>
      <trkpt lat="46.67125" lon="-1.76581">
        <ele>50</ele>
        <time>2018-03-09T18:55:02Z</time>
      </trkpt>
      <trkpt lat="46.67123" lon="-1.76589">
        <ele>50</ele>
        <time>2018-03-09T18:56:02Z</time>
      </trkpt>
      <trkpt lat="46.67121" lon="-1.76598">
        <ele>50</ele>
        <time>2018-03-09T18:57:02Z</time>
      </trkpt>
      <trkpt lat="46.67121" lon="-1.76604">
        <ele>50</ele>
        <time>2018-03-09T18:58:02Z</time>
      </trkpt>
      <trkpt lat="46.67119" lon="-1.76618">
        <ele>51</ele>
        <time>2018-03-09T18:59:02Z</time>
      </trkpt>
      <trkpt lat="46.67117" lon="-1.7664">
        <ele>51</ele>
        <time>2018-03-09T19:00:02Z</time>
      </trkpt>
      <trkpt lat="46.67115" lon="-1.76663">
        <ele>51</ele>
        <time>2018-03-09T19:01:02Z</time>
      </trkpt>
      <trkpt lat="46.67114" lon="-1.76683">
        <ele>51</ele>
        <time>2018-03-09T19:02:02Z</time>
      </trkpt>
      <trkpt lat="46.67112" lon="-1.76704">
        <ele>52</ele>
        <time>2018-03-09T19:03:02Z</time>
      </trkpt>
      <trkpt lat="46.6711" lon="-1.76721">
        <ele>52</ele>
        <time>2018-03-09T19:04:02Z</time>
      </trkpt>
      <trkpt lat="46.67109" lon="-1.76734">
        <ele>52</ele>
        <time>2018-03-09T19:05:02Z</time>
      </trkpt>
      <trkpt lat="46.67108" lon="-1.76743">
        <ele>52</ele>
        <time>2018-03-09T19:06:02Z</time>
      </trkpt>
      <trkpt lat="46.67107" lon="-1.76753">
        <ele>52</ele>
        <time>2018-03-09T19:07:02Z</time>
      </trkpt>
      <trkpt lat="46.67104" lon="-1.76764">
        <ele>52</ele>
        <time>2018-03-09T19:08:02Z</time>
      </trkpt>
      <trkpt lat="46.67103" lon="-1.76772">
        <ele>52</ele>
        <time>2018-03-09T19:09:02Z</time>
      </trkpt>
      <trkpt lat="46.67095" lon="-1.76807">
        <ele>52</ele>
        <time>2018-03-09T19:10:02Z</time>
      </trkpt>
      <trkpt lat="46.67084" lon="-1.76857">
        <ele>52</ele>
        <time>2018-03-09T19:11:02Z</time>
      </trkpt>
      <trkpt lat="46.67075" lon="-1.76904">
        <ele>52</ele>
        <time>2018-03-09T19:12:02Z</time>
      </trkpt>
      <trkpt lat="46.67073" lon="-1.76914">
        <ele>52</ele>
        <time>2018-03-09T19:13:02Z</time>
      </trkpt>
      <trkpt lat="46.6707" lon="-1.76927">
        <ele>52</ele>
        <time>2018-03-09T19:14:02Z</time>
      </trkpt>
      <trkpt lat="46.67067" lon="-1.76944">
        <ele>52</ele>
        <time>2018-03-09T19:15:02Z</time>
      </trkpt>
      <trkpt lat="46.67061" lon="-1.7699">
        <ele>52</ele>
        <time>2018-03-09T19:16:02Z</time>
      </trkpt>
      <trkpt lat="46.67055" lon="-1.77029">
        <ele>51</ele>
        <time>2018-03-09T19:17:02Z</time>
      </trkpt>
      <trkpt lat="46.67053" lon="-1.77046">
        <ele>51</ele>
        <time>2018-03-09T19:18:02Z</time>
      </trkpt>
      <trkpt lat="46.67052" lon="-1.77057">
        <ele>51</ele>
        <time>2018-03-09T19:19:02Z</time>
      </trkpt>
      <trkpt lat="46.6705" lon="-1.77066">
        <ele>51</ele>
        <time>2018-03-09T19:20:02Z</time>
      </trkpt>
      <trkpt lat="46.6705" lon="-1.77071">
        <ele>51</ele>
        <time>2018-03-09T19:21:02Z</time>
      </trkpt>
      <trkpt lat="46.67048" lon="-1.77084">
        <ele>51</ele>
        <time>2018-03-09T19:22:02Z</time>
      </trkpt>
      <trkpt lat="46.67044" lon="-1.77105">
        <ele>50</ele>
        <time>2018-03-09T19:23:02Z</time>
      </trkpt>
      <trkpt lat="46.67038" lon="-1.77144">
        <ele>50</ele>
        <time>2018-03-09T19:24:02Z</time>
      </trkpt>
      <trkpt lat="46.6703" lon="-1.77186">
        <ele>49</ele>
        <time>2018-03-09T19:25:02Z</time>
      </trkpt>
      <trkpt lat="46.67021" lon="-1.77237">
        <ele>49</ele>
        <time>2018-03-09T19:26:02Z</time>
      </trkpt>
      <trkpt lat="46.67015" lon="-1.77269">
        <ele>49</ele>
        <time>2018-03-09T19:27:02Z</time>
      </trkpt>
      <trkpt lat="46.6701" lon="-1.77298">
        <ele>48</ele>
        <time>2018-03-09T19:28:02Z</time>
      </trkpt>
      <trkpt lat="46.67008" lon="-1.77312">
        <ele>48</ele>
        <time>2018-03-09T19:29:02Z</time>
      </trkpt>
      <trkpt lat="46.67005" lon="-1.77325">
        <ele>48</ele>
        <time>2018-03-09T19:30:02Z</time>
      </trkpt>
      <trkpt lat="46.67001" lon="-1.77341">
        <ele>48</ele>
        <time>2018-03-09T19:31:02Z</time>
      </trkpt>
      <trkpt lat="46.66994" lon="-1.77369">
        <ele>47</ele>
        <time>2018-03-09T19:32:02Z</time>
      </trkpt>
      <trkpt lat="46.66988" lon="-1.77391">
        <ele>47</ele>
        <time>2018-03-09T19:33:02Z</time>
      </trkpt>
      <trkpt lat="46.6698" lon="-1.77417">
        <ele>47</ele>
        <time>2018-03-09T19:34:02Z</time>
      </trkpt>
      <trkpt lat="46.66971" lon="-1.77451">
        <ele>47</ele>
        <time>2018-03-09T19:35:02Z</time>
      </trkpt>
      <trkpt lat="46.66967" lon="-1.77465">
        <ele>47</ele>
        <time>2018-03-09T19:36:02Z</time>
      </trkpt>
      <trkpt lat="46.66964" lon="-1.77476">
        <ele>47</ele>
        <time>2018-03-09T19:37:02Z</time>
      </trkpt>
      <trkpt lat="46.66962" lon="-1.77484">
        <ele>47</ele>
        <time>2018-03-09T19:38:02Z</time>
      </trkpt>
      <trkpt lat="46.6696" lon="-1.77493">
        <ele>47</ele>
        <time>2018-03-09T19:39:02Z</time>
      </trkpt>
      <trkpt lat="46.66958" lon="-1.77501">
        <ele>47</ele>
        <time>2018-03-09T19:40:02Z</time>
      </trkpt>
      <trkpt lat="46.66957" lon="-1.7751">
        <ele>47</ele>
        <time>2018-03-09T19:41:02Z</time>
      </trkpt>
      <trkpt lat="46.66957" lon="-1.77515">
        <ele>47</ele>
        <time>2018-03-09T19:42:02Z</time>
      </trkpt>
      <trkpt lat="46.66957" lon="-1.7752">
        <ele>47</ele>
        <time>2018-03-09T19:43:02Z</time>
      </trkpt>
      <trkpt lat="46.66957" lon="-1.77528">
        <ele>47</ele>
        <time>2018-03-09T19:44:02Z</time>
      </trkpt>
      <trkpt lat="46.66958" lon="-1.77537">
        <ele>47</ele>
        <time>2018-03-09T19:45:02Z</time>
      </trkpt>
      <trkpt lat="46.66959" lon="-1.77544">
        <ele>46</ele>
        <time>2018-03-09T19:46:02Z</time>
      </trkpt>
      <trkpt lat="46.6696" lon="-1.77551">
        <ele>46</ele>
        <time>2018-03-09T19:47:02Z</time>
      </trkpt>
      <trkpt lat="46.66962" lon="-1.77558">
        <ele>46</ele>
        <time>2018-03-09T19:48:02Z</time>
      </trkpt>
      <trkpt lat="46.66971" lon="-1.77577">
        <ele>46</ele>
        <time>2018-03-09T19:49:02Z</time>
      </trkpt>
      <trkpt lat="46.66984" lon="-1.77605">
        <ele>46</ele>
        <time>2018-03-09T19:50:02Z</time>
      </trkpt>
      <trkpt lat="46.66998" lon="-1.77631">
        <ele>45</ele>
        <time>2018-03-09T19:51:02Z</time>
      </trkpt>
      <trkpt lat="46.67016" lon="-1.77669">
        <ele>45</ele>
        <time>2018-03-09T19:52:02Z</time>
      </trkpt>
      <trkpt lat="46.67033" lon="-1.77706">
        <ele>45</ele>
        <time>2018-03-09T19:53:02Z</time>
      </trkpt>
      <trkpt lat="46.67054" lon="-1.7775">
        <ele>44</ele>
        <time>2018-03-09T19:54:02Z</time>
      </trkpt>
      <trkpt lat="46.67055" lon="-1.77752">
        <ele>44</ele>
        <time>2018-03-09T19:55:02Z</time>
      </trkpt>
      <trkpt lat="46.6706" lon="-1.77764">
        <ele>44</ele>
        <time>2018-03-09T19:56:02Z</time>
      </trkpt>
      <trkpt lat="46.67069" lon="-1.77781">
        <ele>44</ele>
        <time>2018-03-09T19:57:02Z</time>
      </trkpt>
      <trkpt lat="46.67095" lon="-1.77835">
        <ele>43</ele>
        <time>2018-03-09T19:58:02Z</time>
      </trkpt>
      <trkpt lat="46.67116" lon="-1.77878">
        <ele>43</ele>
        <time>2018-03-09T19:59:02Z</time>
      </trkpt>
      <trkpt lat="46.67132" lon="-1.77911">
        <ele>43</ele>
        <time>2018-03-09T20:00:02Z</time>
      </trkpt>
      <trkpt lat="46.6714" lon="-1.77931">
        <ele>42</ele>
        <time>2018-03-09T20:01:02Z</time>
      </trkpt>
      <trkpt lat="46.67147" lon="-1.77951">
        <ele>42</ele>
        <time>2018-03-09T20:02:02Z</time>
      </trkpt>
      <trkpt lat="46.67152" lon="-1.77971">
        <ele>42</ele>
        <time>2018-03-09T20:03:02Z</time>
      </trkpt>
      <trkpt lat="46.67154" lon="-1.77993">
        <ele>41</ele>
        <time>2018-03-09T20:04:02Z</time>
      </trkpt>
      <trkpt lat="46.67155" lon="-1.78015">
        <ele>41</ele>
        <time>2018-03-09T20:05:02Z</time>
      </trkpt>
      <trkpt lat="46.67155" lon="-1.78038">
        <ele>41</ele>
        <time>2018-03-09T20:06:02Z</time>
      </trkpt>
      <trkpt lat="46.67157" lon="-1.7806">
        <ele>41</ele>
        <time>2018-03-09T20:07:02Z</time>
      </trkpt>
      <trkpt lat="46.67158" lon="-1.78077">
        <ele>41</ele>
        <time>2018-03-09T20:08:02Z</time>
      </trkpt>
      <trkpt lat="46.67161" lon="-1.78106">
        <ele>41</ele>
        <time>2018-03-09T20:09:02Z</time>
      </trkpt>
      <trkpt lat="46.67165" lon="-1.78136">
        <ele>40</ele>
        <time>2018-03-09T20:10:02Z</time>
      </trkpt>
      <trkpt lat="46.67169" lon="-1.78158">
        <ele>40</ele>
        <time>2018-03-09T20:11:02Z</time>
      </trkpt>
      <trkpt lat="46.67172" lon="-1.78177">
        <ele>40</ele>
        <time>2018-03-09T20:12:02Z</time>
      </trkpt>
      <trkpt lat="46.67174" lon="-1.78185">
        <ele>40</ele>
        <time>2018-03-09T20:13:02Z</time>
      </trkpt>
      <trkpt lat="46.67176" lon="-1.78192">
        <ele>39</ele>
        <time>2018-03-09T20:14:02Z</time>
      </trkpt>
      <trkpt lat="46.67181" lon="-1.78202">
        <ele>39</ele>
        <time>2018-03-09T20:15:02Z</time>
      </trkpt>
      <trkpt lat="46.67186" lon="-1.78212">
        <ele>39</ele>
        <time>2018-03-09T20:16:02Z</time>
      </trkpt>
      <trkpt lat="46.67196" lon="-1.78221">
        <ele>39</ele>
        <time>2018-03-09T20:17:02Z</time>
      </trkpt>
      <trkpt lat="46.67201" lon="-1.78226">
        <ele>38</ele>
        <time>2018-03-09T20:18:02Z</time>
      </trkpt>
      <trkpt lat="46.67208" lon="-1.7823">
        <ele>38</ele>
        <time>2018-03-09T20:19:02Z</time>
      </trkpt>
      <trkpt lat="46.67221" lon="-1.78237">
        <ele>38</ele>
        <time>2018-03-09T20:20:02Z</time>
      </trkpt>
      <trkpt lat="46.67251" lon="-1.78249">
        <ele>37</ele>
        <time>2018-03-09T20:21:02Z</time>
      </trkpt>
      <trkpt lat="46.67273" lon="-1.78259">
        <ele>37</ele>
        <time>2018-03-09T20:22:02Z</time>
      </trkpt>
      <trkpt lat="46.67307" lon="-1.78274">
        <ele>37</ele>
        <time>2018-03-09T20:23:02Z</time>
      </trkpt>
      <trkpt lat="46.67315" lon="-1.78278">
        <ele>37</ele>
        <time>2018-03-09T20:24:02Z</time>
      </trkpt>
      <trkpt lat="46.67324" lon="-1.78284">
        <ele>37</ele>
        <time>2018-03-09T20:25:02Z</time>
      </trkpt>
      <trkpt lat="46.6733" lon="-1.78289">
        <ele>37</ele>
        <time>2018-03-09T20:26:02Z</time>
      </trkpt>
      <trkpt lat="46.67336" lon="-1.78294">
        <ele>37</ele>
        <time>2018-03-09T20:27:02Z</time>
      </trkpt>
      <trkpt lat="46.67341" lon="-1.78301">
        <ele>37</ele>
        <time>2018-03-09T20:28:02Z</time>
      </trkpt>
      <trkpt lat="46.67347" lon="-1.78309">
        <ele>37</ele>
        <time>2018-03-09T20:29:02Z</time>
      </trkpt>
      <trkpt lat="46.67351" lon="-1.78317">
        <ele>37</ele>
        <time>2018-03-09T20:30:02Z</time>
      </trkpt>
      <trkpt lat="46.67355" lon="-1.78325">
        <ele>37</ele>
        <time>2018-03-09T20:31:02Z</time>
      </trkpt>
      <trkpt lat="46.67362" lon="-1.78345">
        <ele>37</ele>
        <time>2018-03-09T20:32:02Z</time>
      </trkpt>
      <trkpt lat="46.67368" lon="-1.78363">
        <ele>37</ele>
        <time>2018-03-09T20:33:02Z</time>
      </trkpt>
      <trkpt lat="46.67373" lon="-1.78382">
        <ele>37</ele>
        <time>2018-03-09T20:34:02Z</time>
      </trkpt>
      <trkpt lat="46.67379" lon="-1.78401">
        <ele>37</ele>
        <time>2018-03-09T20:35:02Z</time>
      </trkpt>
      <trkpt lat="46.67389" lon="-1.78426">
        <ele>37</ele>
        <time>2018-03-09T20:36:02Z</time>
      </trkpt>
      <trkpt lat="46.67402" lon="-1.78457">
        <ele>37</ele>
        <time>2018-03-09T20:37:02Z</time>
      </trkpt>
      <trkpt lat="46.6741" lon="-1.78476">
        <ele>36</ele>
        <time>2018-03-09T20:38:02Z</time>
      </trkpt>
      <trkpt lat="46.67421" lon="-1.78499">
        <ele>36</ele>
        <time>2018-03-09T20:39:02Z</time>
      </trkpt>
      <trkpt lat="46.67431" lon="-1.78524">
        <ele>36</ele>
        <time>2018-03-09T20:40:02Z</time>
      </trkpt>
      <trkpt lat="46.67437" lon="-1.78527">
        <ele>36</ele>
        <time>2018-03-09T20:41:02Z</time>
      </trkpt>
      <trkpt lat="46.67446" lon="-1.78538">
        <ele>36</ele>
        <time>2018-03-09T20:42:02Z</time>
      </trkpt>
      <trkpt lat="46.67451" lon="-1.78547">
        <ele>36</ele>
        <time>2018-03-09T20:43:02Z</time>
      </trkpt>
      <trkpt lat="46.67451" lon="-1.78547">
        <ele>36</ele>
        <time>2018-03-09T20:44:02Z</time>
      </trkpt>
      <trkpt lat="46.67466" lon="-1.78526">
        <ele>36</ele>
        <time>2018-03-09T20:45:02Z</time>
      </trkpt>
      <trkpt lat="46.67492" lon="-1.78492">
        <ele>36</ele>
        <time>2018-03-09T20:46:02Z</time>
      </trkpt>
      <trkpt lat="46.67526" lon="-1.78446">
        <ele>38</ele>
        <time>2018-03-09T20:47:02Z</time>
      </trkpt>
      <trkpt lat="46.67553" lon="-1.78408">
        <ele>39</ele>
        <time>2018-03-09T20:48:02Z</time>
      </trkpt>
      <trkpt lat="46.67586" lon="-1.78364">
        <ele>40</ele>
        <time>2018-03-09T20:49:02Z</time>
      </trkpt>
      <trkpt lat="46.6762" lon="-1.78317">
        <ele>41</ele>
        <time>2018-03-09T20:50:02Z</time>
      </trkpt>
      <trkpt lat="46.67664" lon="-1.78259">
        <ele>42</ele>
        <time>2018-03-09T20:51:02Z</time>
      </trkpt>
      <trkpt lat="46.67694" lon="-1.78218">
        <ele>42</ele>
        <time>2018-03-09T20:52:02Z</time>
      </trkpt>
      <trkpt lat="46.67715" lon="-1.7819">
        <ele>43</ele>
        <time>2018-03-09T20:53:02Z</time>
      </trkpt>
      <trkpt lat="46.67728" lon="-1.78173">
        <ele>43</ele>
        <time>2018-03-09T20:54:02Z</time>
      </trkpt>
      <trkpt lat="46.67753" lon="-1.78138">
        <ele>44</ele>
        <time>2018-03-09T20:55:02Z</time>
      </trkpt>
      <trkpt lat="46.67773" lon="-1.78109">
        <ele>44</ele>
        <time>2018-03-09T20:56:02Z</time>
      </trkpt>
      <trkpt lat="46.67796" lon="-1.7808">
        <ele>44</ele>
        <time>2018-03-09T20:57:02Z</time>
      </trkpt>
      <trkpt lat="46.67821" lon="-1.78044">
        <ele>45</ele>
        <time>2018-03-09T20:58:02Z</time>
      </trkpt>
      <trkpt lat="46.67845" lon="-1.78011">
        <ele>45</ele>
        <time>2018-03-09T20:59:02Z</time>
      </trkpt>
      <trkpt lat="46.67852" lon="-1.78001">
        <ele>45</ele>
        <time>2018-03-09T21:00:02Z</time>
      </trkpt>
      <trkpt lat="46.67874" lon="-1.77973">
        <ele>46</ele>
        <time>2018-03-09T21:01:02Z</time>
      </trkpt>
      <trkpt lat="46.67895" lon="-1.77943">
        <ele>46</ele>
        <time>2018-03-09T21:02:02Z</time>
      </trkpt>
      <trkpt lat="46.67917" lon="-1.77914">
        <ele>47</ele>
        <time>2018-03-09T21:03:02Z</time>
      </trkpt>
      <trkpt lat="46.67939" lon="-1.77884">
        <ele>47</ele>
        <time>2018-03-09T21:04:02Z</time>
      </trkpt>
      <trkpt lat="46.67964" lon="-1.77851">
        <ele>48</ele>
        <time>2018-03-09T21:05:02Z</time>
      </trkpt>
      <trkpt lat="46.67988" lon="-1.77817">
        <ele>49</ele>
        <time>2018-03-09T21:06:02Z</time>
      </trkpt>
      <trkpt lat="46.68012" lon="-1.77785">
        <ele>49</ele>
        <time>2018-03-09T21:07:02Z</time>
      </trkpt>
      <trkpt lat="46.68046" lon="-1.77739">
        <ele>49</ele>
        <time>2018-03-09T21:08:02Z</time>
      </trkpt>
      <trkpt lat="46.68063" lon="-1.77717">
        <ele>49</ele>
        <time>2018-03-09T21:09:02Z</time>
      </trkpt>
      <trkpt lat="46.68081" lon="-1.77694">
        <ele>49</ele>
        <time>2018-03-09T21:10:02Z</time>
      </trkpt>
      <trkpt lat="46.68098" lon="-1.77671">
        <ele>50</ele>
        <time>2018-03-09T21:11:02Z</time>
      </trkpt>
      <trkpt lat="46.68112" lon="-1.77655">
        <ele>50</ele>
        <time>2018-03-09T21:12:02Z</time>
      </trkpt>
      <trkpt lat="46.68125" lon="-1.77641">
        <ele>50</ele>
        <time>2018-03-09T21:13:02Z</time>
      </trkpt>
      <trkpt lat="46.6814" lon="-1.77627">
        <ele>50</ele>
        <time>2018-03-09T21:14:02Z</time>
      </trkpt>
      <trkpt lat="46.68155" lon="-1.77615">
        <ele>50</ele>
        <time>2018-03-09T21:15:02Z</time>
      </trkpt>
      <trkpt lat="46.68193" lon="-1.77584">
        <ele>50</ele>
        <time>2018-03-09T21:16:02Z</time>
      </trkpt>
      <trkpt lat="46.68229" lon="-1.77556">
        <ele>51</ele>
        <time>2018-03-09T21:17:02Z</time>
      </trkpt>
      <trkpt lat="46.68269" lon="-1.77524">
        <ele>51</ele>
        <time>2018-03-09T21:18:02Z</time>
      </trkpt>
      <trkpt lat="46.68299" lon="-1.775">
        <ele>51</ele>
        <time>2018-03-09T21:19:02Z</time>
      </trkpt>
      <trkpt lat="46.68317" lon="-1.77486">
        <ele>51</ele>
        <time>2018-03-09T21:20:02Z</time>
      </trkpt>
      <trkpt lat="46.68335" lon="-1.77471">
        <ele>52</ele>
        <time>2018-03-09T21:21:02Z</time>
      </trkpt>
      <trkpt lat="46.68357" lon="-1.77453">
        <ele>52</ele>
        <time>2018-03-09T21:22:02Z</time>
      </trkpt>
      <trkpt lat="46.68372" lon="-1.77439">
        <ele>52</ele>
        <time>2018-03-09T21:23:02Z</time>
      </trkpt>
      <trkpt lat="46.68389" lon="-1.77423">
        <ele>52</ele>
        <time>2018-03-09T21:24:02Z</time>
      </trkpt>
      <trkpt lat="46.68404" lon="-1.77409">
        <ele>52</ele>
        <time>2018-03-09T21:25:02Z</time>
      </trkpt>
      <trkpt lat="46.68424" lon="-1.77386">
        <ele>53</ele>
        <time>2018-03-09T21:26:02Z</time>
      </trkpt>
      <trkpt lat="46.68442" lon="-1.77365">
        <ele>54</ele>
        <time>2018-03-09T21:27:02Z</time>
      </trkpt>
      <trkpt lat="46.6846" lon="-1.77344">
        <ele>54</ele>
        <time>2018-03-09T21:28:02Z</time>
      </trkpt>
      <trkpt lat="46.68486" lon="-1.77314">
        <ele>55</ele>
        <time>2018-03-09T21:29:02Z</time>
      </trkpt>
      <trkpt lat="46.68511" lon="-1.77283">
        <ele>56</ele>
        <time>2018-03-09T21:30:02Z</time>
      </trkpt>
      <trkpt lat="46.68544" lon="-1.77245">
        <ele>57</ele>
        <time>2018-03-09T21:31:02Z</time>
      </trkpt>
      <trkpt lat="46.68572" lon="-1.7721">
        <ele>57</ele>
        <time>2018-03-09T21:32:02Z</time>
      </trkpt>
      <trkpt lat="46.68597" lon="-1.77181">
        <ele>57</ele>
        <time>2018-03-09T21:33:02Z</time>
      </trkpt>
      <trkpt lat="46.68715" lon="-1.77046">
        <ele>56</ele>
        <time>2018-03-09T21:34:02Z</time>
      </trkpt>
      <trkpt lat="46.688" lon="-1.76944">
        <ele>54</ele>
        <time>2018-03-09T21:35:02Z</time>
      </trkpt>
      <trkpt lat="46.688" lon="-1.76943">
        <ele>54</ele>
        <time>2018-03-09T21:36:02Z</time>
      </trkpt>
      <trkpt lat="46.68799" lon="-1.76943">
        <ele>54</ele>
        <time>2018-03-09T21:37:02Z</time>
      </trkpt>
      <trkpt lat="46.68799" lon="-1.76942">
        <ele>54</ele>
        <time>2018-03-09T21:38:02Z</time>
      </trkpt>
      <trkpt lat="46.68799" lon="-1.76941">
        <ele>54</ele>
        <time>2018-03-09T21:39:02Z</time>
      </trkpt>
      <trkpt lat="46.68799" lon="-1.7694">
        <ele>54</ele>
        <time>2018-03-09T21:40:02Z</time>
      </trkpt>
      <trkpt lat="46.68798" lon="-1.76939">
        <ele>54</ele>
        <time>2018-03-09T21:41:02Z</time>
      </trkpt>
      <trkpt lat="46.68798" lon="-1.76938">
        <ele>54</ele>
        <time>2018-03-09T21:42:02Z</time>
      </trkpt>
      <trkpt lat="46.68798" lon="-1.76937">
        <ele>54</ele>
        <time>2018-03-09T21:43:02Z</time>
      </trkpt>
      <trkpt lat="46.68798" lon="-1.76936">
        <ele>54</ele>
        <time>2018-03-09T21:44:02Z</time>
      </trkpt>
      <trkpt lat="46.68798" lon="-1.76935">
        <ele>54</ele>
        <time>2018-03-09T21:45:02Z</time>
      </trkpt>
      <trkpt lat="46.68799" lon="-1.76935">
        <ele>54</ele>
        <time>2018-03-09T21:46:02Z</time>
      </trkpt>
      <trkpt lat="46.68799" lon="-1.76934">
        <ele>54</ele>
        <time>2018-03-09T21:47:02Z</time>
      </trkpt>
      <trkpt lat="46.68799" lon="-1.76933">
        <ele>54</ele>
        <time>2018-03-09T21:48:02Z</time>
      </trkpt>
      <trkpt lat="46.68799" lon="-1.76932">
        <ele>54</ele>
        <time>2018-03-09T21:49:02Z</time>
      </trkpt>
      <trkpt lat="46.68799" lon="-1.76931">
        <ele>54</ele>
        <time>2018-03-09T21:50:02Z</time>
      </trkpt>
      <trkpt lat="46.688" lon="-1.76931">
        <ele>54</ele>
        <time>2018-03-09T21:51:02Z</time>
      </trkpt>
      <trkpt lat="46.688" lon="-1.7693">
        <ele>54</ele>
        <time>2018-03-09T21:52:02Z</time>
      </trkpt>
      <trkpt lat="46.688" lon="-1.76929">
        <ele>54</ele>
        <time>2018-03-09T21:53:02Z</time>
      </trkpt>
      <trkpt lat="46.68801" lon="-1.76929">
        <ele>54</ele>
        <time>2018-03-09T21:54:02Z</time>
      </trkpt>
      <trkpt lat="46.68801" lon="-1.76928">
        <ele>54</ele>
        <time>2018-03-09T21:55:02Z</time>
      </trkpt>
      <trkpt lat="46.68802" lon="-1.76928">
        <ele>54</ele>
        <time>2018-03-09T21:56:02Z</time>
      </trkpt>
      <trkpt lat="46.68802" lon="-1.76927">
        <ele>54</ele>
        <time>2018-03-09T21:57:02Z</time>
      </trkpt>
      <trkpt lat="46.68803" lon="-1.76927">
        <ele>54</ele>
        <time>2018-03-09T21:58:02Z</time>
      </trkpt>
      <trkpt lat="46.68804" lon="-1.76927">
        <ele>54</ele>
        <time>2018-03-09T21:59:02Z</time>
      </trkpt>
      <trkpt lat="46.68804" lon="-1.76926">
        <ele>54</ele>
        <time>2018-03-09T22:00:02Z</time>
      </trkpt>
      <trkpt lat="46.68805" lon="-1.76926">
        <ele>54</ele>
        <time>2018-03-09T22:01:02Z</time>
      </trkpt>
      <trkpt lat="46.68806" lon="-1.76926">
        <ele>54</ele>
        <time>2018-03-09T22:02:02Z</time>
      </trkpt>
      <trkpt lat="46.68807" lon="-1.76926">
        <ele>54</ele>
        <time>2018-03-09T22:03:02Z</time>
      </trkpt>
      <trkpt lat="46.68808" lon="-1.76926">
        <ele>54</ele>
        <time>2018-03-09T22:04:02Z</time>
      </trkpt>
      <trkpt lat="46.68808" lon="-1.76927">
        <ele>54</ele>
        <time>2018-03-09T22:05:02Z</time>
      </trkpt>
      <trkpt lat="46.68809" lon="-1.76927">
        <ele>54</ele>
        <time>2018-03-09T22:06:02Z</time>
      </trkpt>
      <trkpt lat="46.6881" lon="-1.76928">
        <ele>54</ele>
        <time>2018-03-09T22:07:02Z</time>
      </trkpt>
      <trkpt lat="46.68811" lon="-1.76929">
        <ele>54</ele>
        <time>2018-03-09T22:08:02Z</time>
      </trkpt>
      <trkpt lat="46.68811" lon="-1.7693">
        <ele>54</ele>
        <time>2018-03-09T22:09:02Z</time>
      </trkpt>
      <trkpt lat="46.68812" lon="-1.7693">
        <ele>54</ele>
        <time>2018-03-09T22:10:02Z</time>
      </trkpt>
      <trkpt lat="46.68812" lon="-1.76931">
        <ele>54</ele>
        <time>2018-03-09T22:11:02Z</time>
      </trkpt>
      <trkpt lat="46.68812" lon="-1.76932">
        <ele>54</ele>
        <time>2018-03-09T22:12:02Z</time>
      </trkpt>
      <trkpt lat="46.68813" lon="-1.76932">
        <ele>54</ele>
        <time>2018-03-09T22:13:02Z</time>
      </trkpt>
      <trkpt lat="46.68864" lon="-1.76891">
        <ele>54</ele>
        <time>2018-03-09T22:14:02Z</time>
      </trkpt>
      <trkpt lat="46.68864" lon="-1.7689">
        <ele>54</ele>
        <time>2018-03-09T22:15:02Z</time>
      </trkpt>
      <trkpt lat="46.68864" lon="-1.76889">
        <ele>54</ele>
        <time>2018-03-09T22:16:02Z</time>
      </trkpt>
      <trkpt lat="46.68863" lon="-1.76889">
        <ele>54</ele>
        <time>2018-03-09T22:17:02Z</time>
      </trkpt>
      <trkpt lat="46.68863" lon="-1.76888">
        <ele>54</ele>
        <time>2018-03-09T22:18:02Z</time>
      </trkpt>
      <trkpt lat="46.68863" lon="-1.76887">
        <ele>54</ele>
        <time>2018-03-09T22:19:02Z</time>
      </trkpt>
      <trkpt lat="46.68863" lon="-1.76886">
        <ele>54</ele>
        <time>2018-03-09T22:20:02Z</time>
      </trkpt>
      <trkpt lat="46.68863" lon="-1.76885">
        <ele>54</ele>
        <time>2018-03-09T22:21:02Z</time>
      </trkpt>
      <trkpt lat="46.68863" lon="-1.76884">
        <ele>54</ele>
        <time>2018-03-09T22:22:02Z</time>
      </trkpt>
      <trkpt lat="46.68863" lon="-1.76883">
        <ele>54</ele>
        <time>2018-03-09T22:23:02Z</time>
      </trkpt>
      <trkpt lat="46.68864" lon="-1.76882">
        <ele>54</ele>
        <time>2018-03-09T22:24:02Z</time>
      </trkpt>
      <trkpt lat="46.68864" lon="-1.76881">
        <ele>54</ele>
        <time>2018-03-09T22:25:02Z</time>
      </trkpt>
      <trkpt lat="46.68864" lon="-1.7688">
        <ele>54</ele>
        <time>2018-03-09T22:26:02Z</time>
      </trkpt>
      <trkpt lat="46.68865" lon="-1.76879">
        <ele>54</ele>
        <time>2018-03-09T22:27:02Z</time>
      </trkpt>
      <trkpt lat="46.68865" lon="-1.76878">
        <ele>54</ele>
        <time>2018-03-09T22:28:02Z</time>
      </trkpt>
      <trkpt lat="46.68866" lon="-1.76878">
        <ele>54</ele>
        <time>2018-03-09T22:29:02Z</time>
      </trkpt>
      <trkpt lat="46.68866" lon="-1.76877">
        <ele>54</ele>
        <time>2018-03-09T22:30:02Z</time>
      </trkpt>
      <trkpt lat="46.68867" lon="-1.76877">
        <ele>54</ele>
        <time>2018-03-09T22:31:02Z</time>
      </trkpt>
      <trkpt lat="46.68867" lon="-1.76876">
        <ele>54</ele>
        <time>2018-03-09T22:32:02Z</time>
      </trkpt>
      <trkpt lat="46.68868" lon="-1.76875">
        <ele>54</ele>
        <time>2018-03-09T22:33:02Z</time>
      </trkpt>
      <trkpt lat="46.68869" lon="-1.76875">
        <ele>54</ele>
        <time>2018-03-09T22:34:02Z</time>
      </trkpt>
      <trkpt lat="46.68869" lon="-1.76874">
        <ele>54</ele>
        <time>2018-03-09T22:35:02Z</time>
      </trkpt>
      <trkpt lat="46.6887" lon="-1.76874">
        <ele>54</ele>
        <time>2018-03-09T22:36:02Z</time>
      </trkpt>
      <trkpt lat="46.68871" lon="-1.76874">
        <ele>54</ele>
        <time>2018-03-09T22:37:02Z</time>
      </trkpt>
      <trkpt lat="46.68872" lon="-1.76874">
        <ele>54</ele>
        <time>2018-03-09T22:38:02Z</time>
      </trkpt>
      <trkpt lat="46.68873" lon="-1.76874">
        <ele>54</ele>
        <time>2018-03-09T22:39:02Z</time>
      </trkpt>
      <trkpt lat="46.68874" lon="-1.76874">
        <ele>54</ele>
        <time>2018-03-09T22:40:02Z</time>
      </trkpt>
      <trkpt lat="46.68874" lon="-1.76875">
        <ele>54</ele>
        <time>2018-03-09T22:41:02Z</time>
      </trkpt>
      <trkpt lat="46.68875" lon="-1.76875">
        <ele>54</ele>
        <time>2018-03-09T22:42:02Z</time>
      </trkpt>
      <trkpt lat="46.68875" lon="-1.76876">
        <ele>54</ele>
        <time>2018-03-09T22:43:02Z</time>
      </trkpt>
      <trkpt lat="46.68876" lon="-1.76876">
        <ele>54</ele>
        <time>2018-03-09T22:44:02Z</time>
      </trkpt>
      <trkpt lat="46.68876" lon="-1.76877">
        <ele>54</ele>
        <time>2018-03-09T22:45:02Z</time>
      </trkpt>
      <trkpt lat="46.68877" lon="-1.76877">
        <ele>54</ele>
        <time>2018-03-09T22:46:02Z</time>
      </trkpt>
      <trkpt lat="46.68877" lon="-1.76878">
        <ele>54</ele>
        <time>2018-03-09T22:47:02Z</time>
      </trkpt>
      <trkpt lat="46.68878" lon="-1.76879">
        <ele>54</ele>
        <time>2018-03-09T22:48:02Z</time>
      </trkpt>
      <trkpt lat="46.68891" lon="-1.76866">
        <ele>54</ele>
        <time>2018-03-09T22:49:02Z</time>
      </trkpt>
      <trkpt lat="46.68893" lon="-1.76863">
        <ele>54</ele>
        <time>2018-03-09T22:50:02Z</time>
      </trkpt>
      <trkpt lat="46.68913" lon="-1.76842">
        <ele>54</ele>
        <time>2018-03-09T22:51:02Z</time>
      </trkpt>
      <trkpt lat="46.68946" lon="-1.76813">
        <ele>54</ele>
        <time>2018-03-09T22:52:02Z</time>
      </trkpt>
      <trkpt lat="46.68964" lon="-1.76796">
        <ele>55</ele>
        <time>2018-03-09T22:53:02Z</time>
      </trkpt>
      <trkpt lat="46.68992" lon="-1.76782">
        <ele>56</ele>
        <time>2018-03-09T22:54:02Z</time>
      </trkpt>
      <trkpt lat="46.69024" lon="-1.76766">
        <ele>56</ele>
        <time>2018-03-09T22:55:02Z</time>
      </trkpt>
      <trkpt lat="46.69031" lon="-1.76763">
        <ele>56</ele>
        <time>2018-03-09T22:56:02Z</time>
      </trkpt>
      <trkpt lat="46.69039" lon="-1.76759">
        <ele>56</ele>
        <time>2018-03-09T22:57:02Z</time>
      </trkpt>
      <trkpt lat="46.6905" lon="-1.76753">
        <ele>56</ele>
        <time>2018-03-09T22:58:02Z</time>
      </trkpt>
      <trkpt lat="46.69064" lon="-1.76747">
        <ele>55</ele>
        <time>2018-03-09T22:59:02Z</time>
      </trkpt>
      <trkpt lat="46.69069" lon="-1.76744">
        <ele>55</ele>
        <time>2018-03-09T23:00:02Z</time>
      </trkpt>
      <trkpt lat="46.69079" lon="-1.76741">
        <ele>55</ele>
        <time>2018-03-09T23:01:02Z</time>
      </trkpt>
      <trkpt lat="46.69083" lon="-1.7674">
        <ele>55</ele>
        <time>2018-03-09T23:02:02Z</time>
      </trkpt>
      <trkpt lat="46.69097" lon="-1.76737">
        <ele>55</ele>
        <time>2018-03-09T23:03:02Z</time>
      </trkpt>
      <trkpt lat="46.69113" lon="-1.76734">
        <ele>55</ele>
        <time>2018-03-09T23:04:02Z</time>
      </trkpt>
      <trkpt lat="46.69132" lon="-1.76732">
        <ele>55</ele>
        <time>2018-03-09T23:05:02Z</time>
      </trkpt>
      <trkpt lat="46.69139" lon="-1.76731">
        <ele>55</ele>
        <time>2018-03-09T23:06:02Z</time>
      </trkpt>
      <trkpt lat="46.69143" lon="-1.7673">
        <ele>55</ele>
        <time>2018-03-09T23:07:02Z</time>
      </trkpt>
      <trkpt lat="46.69151" lon="-1.76728">
        <ele>54</ele>
        <time>2018-03-09T23:08:02Z</time>
      </trkpt>
      <trkpt lat="46.69162" lon="-1.76726">
        <ele>54</ele>
        <time>2018-03-09T23:09:02Z</time>
      </trkpt>
      <trkpt lat="46.69166" lon="-1.76724">
        <ele>54</ele>
        <time>2018-03-09T23:10:02Z</time>
      </trkpt>
      <trkpt lat="46.69178" lon="-1.7672">
        <ele>54</ele>
        <time>2018-03-09T23:11:02Z</time>
      </trkpt>
      <trkpt lat="46.69182" lon="-1.76719">
        <ele>54</ele>
        <time>2018-03-09T23:12:02Z</time>
      </trkpt>
      <trkpt lat="46.69195" lon="-1.76713">
        <ele>54</ele>
        <time>2018-03-09T23:13:02Z</time>
      </trkpt>
      <trkpt lat="46.69212" lon="-1.76706">
        <ele>53</ele>
        <time>2018-03-09T23:14:02Z</time>
      </trkpt>
      <trkpt lat="46.69228" lon="-1.76697">
        <ele>53</ele>
        <time>2018-03-09T23:15:02Z</time>
      </trkpt>
      <trkpt lat="46.6925" lon="-1.76686">
        <ele>53</ele>
        <time>2018-03-09T23:16:02Z</time>
      </trkpt>
      <trkpt lat="46.69272" lon="-1.76675">
        <ele>52</ele>
        <time>2018-03-09T23:17:02Z</time>
      </trkpt>
      <trkpt lat="46.69301" lon="-1.7666">
        <ele>52</ele>
        <time>2018-03-09T23:18:02Z</time>
      </trkpt>
      <trkpt lat="46.69319" lon="-1.76651">
        <ele>51</ele>
        <time>2018-03-09T23:19:02Z</time>
      </trkpt>
      <trkpt lat="46.69338" lon="-1.76641">
        <ele>51</ele>
        <time>2018-03-09T23:20:02Z</time>
      </trkpt>
      <trkpt lat="46.69346" lon="-1.76637">
        <ele>51</ele>
        <time>2018-03-09T23:21:02Z</time>
      </trkpt>
      <trkpt lat="46.6937" lon="-1.76624">
        <ele>50</ele>
        <time>2018-03-09T23:22:02Z</time>
      </trkpt>
      <trkpt lat="46.69385" lon="-1.76617">
        <ele>50</ele>
        <time>2018-03-09T23:23:02Z</time>
      </trkpt>
      <trkpt lat="46.69404" lon="-1.76606">
        <ele>49</ele>
        <time>2018-03-09T23:24:02Z</time>
      </trkpt>
      <trkpt lat="46.69412" lon="-1.766">
        <ele>49</ele>
        <time>2018-03-09T23:25:02Z</time>
      </trkpt>
      <trkpt lat="46.69419" lon="-1.76595">
        <ele>49</ele>
        <time>2018-03-09T23:26:02Z</time>
      </trkpt>
      <trkpt lat="46.69424" lon="-1.76591">
        <ele>49</ele>
        <time>2018-03-09T23:27:02Z</time>
      </trkpt>
      <trkpt lat="46.69436" lon="-1.76583">
        <ele>48</ele>
        <time>2018-03-09T23:28:02Z</time>
      </trkpt>
      <trkpt lat="46.69438" lon="-1.76581">
        <ele>48</ele>
        <time>2018-03-09T23:29:02Z</time>
      </trkpt>
      <trkpt lat="46.69441" lon="-1.76578">
        <ele>48</ele>
        <time>2018-03-09T23:30:02Z</time>
      </trkpt>
      <trkpt lat="46.69451" lon="-1.7657">
        <ele>48</ele>
        <time>2018-03-09T23:31:02Z</time>
      </trkpt>
      <trkpt lat="46.69464" lon="-1.76557">
        <ele>47</ele>
        <time>2018-03-09T23:32:02Z</time>
      </trkpt>
      <trkpt lat="46.6948" lon="-1.76543">
        <ele>47</ele>
        <time>2018-03-09T23:33:02Z</time>
      </trkpt>
      <trkpt lat="46.69496" lon="-1.76528">
        <ele>46</ele>
        <time>2018-03-09T23:34:02Z</time>
      </trkpt>
      <trkpt lat="46.69509" lon="-1.76516">
        <ele>46</ele>
        <time>2018-03-09T23:35:02Z</time>
      </trkpt>
      <trkpt lat="46.69524" lon="-1.76501">
        <ele>45</ele>
        <time>2018-03-09T23:36:02Z</time>
      </trkpt>
      <trkpt lat="46.69539" lon="-1.76488">
        <ele>44</ele>
        <time>2018-03-09T23:37:02Z</time>
      </trkpt>
      <trkpt lat="46.69552" lon="-1.76476">
        <ele>43</ele>
        <time>2018-03-09T23:38:02Z</time>
      </trkpt>
      <trkpt lat="46.69557" lon="-1.76471">
        <ele>42</ele>
        <time>2018-03-09T23:39:02Z</time>
      </trkpt>
      <trkpt lat="46.69579" lon="-1.76447">
        <ele>40</ele>
        <time>2018-03-09T23:40:02Z</time>
      </trkpt>
      <trkpt lat="46.69581" lon="-1.76444">
        <ele>40</ele>
        <time>2018-03-09T23:41:02Z</time>
      </trkpt>
      <trkpt lat="46.69594" lon="-1.76433">
        <ele>39</ele>
        <time>2018-03-09T23:42:02Z</time>
      </trkpt>
      <trkpt lat="46.69604" lon="-1.76425">
        <ele>38</ele>
        <time>2018-03-09T23:43:02Z</time>
      </trkpt>
      <trkpt lat="46.69605" lon="-1.76424">
        <ele>38</ele>
        <time>2018-03-09T23:44:02Z</time>
      </trkpt>
      <trkpt lat="46.69618" lon="-1.76414">
        <ele>38</ele>
        <time>2018-03-09T23:45:02Z</time>
      </trkpt>
      <trkpt lat="46.6963" lon="-1.76405">
        <ele>37</ele>
        <time>2018-03-09T23:46:02Z</time>
      </trkpt>
      <trkpt lat="46.69638" lon="-1.764">
        <ele>37</ele>
        <time>2018-03-09T23:47:02Z</time>
      </trkpt>
      <trkpt lat="46.69642" lon="-1.76397">
        <ele>37</ele>
        <time>2018-03-09T23:48:02Z</time>
      </trkpt>
      <trkpt lat="46.69652" lon="-1.76389">
        <ele>37</ele>
        <time>2018-03-09T23:49:02Z</time>
      </trkpt>
      <trkpt lat="46.69659" lon="-1.76384">
        <ele>36</ele>
        <time>2018-03-09T23:50:02Z</time>
      </trkpt>
      <trkpt lat="46.69663" lon="-1.7638">
        <ele>36</ele>
        <time>2018-03-09T23:51:02Z</time>
      </trkpt>
      <trkpt lat="46.69666" lon="-1.76379">
        <ele>36</ele>
        <time>2018-03-09T23:52:02Z</time>
      </trkpt>
      <trkpt lat="46.69681" lon="-1.76368">
        <ele>37</ele>
        <time>2018-03-09T23:53:02Z</time>
      </trkpt>
      <trkpt lat="46.69696" lon="-1.76359">
        <ele>38</ele>
        <time>2018-03-09T23:54:02Z</time>
      </trkpt>
      <trkpt lat="46.69708" lon="-1.76351">
        <ele>39</ele>
        <time>2018-03-09T23:55:02Z</time>
      </trkpt>
      <trkpt lat="46.69719" lon="-1.76346">
        <ele>40</ele>
        <time>2018-03-09T23:56:02Z</time>
      </trkpt>
      <trkpt lat="46.6973" lon="-1.76345">
        <ele>40</ele>
        <time>2018-03-09T23:57:02Z</time>
      </trkpt>
      <trkpt lat="46.6973" lon="-1.76345">
        <ele>40</ele>
        <time>2018-03-09T23:58:02Z</time>
      </trkpt>
      <trkpt lat="46.6973" lon="-1.76344">
        <ele>40</ele>
        <time>2018-03-09T23:59:02Z</time>
      </trkpt>
      <trkpt lat="46.6973" lon="-1.76343">
        <ele>40</ele>
        <time>2018-03-10T00:00:02Z</time>
      </trkpt>
      <trkpt lat="46.6973" lon="-1.76342">
        <ele>40</ele>
        <time>2018-03-10T00:01:02Z</time>
      </trkpt>
      <trkpt lat="46.69731" lon="-1.76341">
        <ele>41</ele>
        <time>2018-03-10T00:02:02Z</time>
      </trkpt>
      <trkpt lat="46.69731" lon="-1.7634">
        <ele>41</ele>
        <time>2018-03-10T00:03:02Z</time>
      </trkpt>
      <trkpt lat="46.69732" lon="-1.76339">
        <ele>41</ele>
        <time>2018-03-10T00:04:02Z</time>
      </trkpt>
      <trkpt lat="46.69732" lon="-1.76338">
        <ele>41</ele>
        <time>2018-03-10T00:05:02Z</time>
      </trkpt>
      <trkpt lat="46.69733" lon="-1.76338">
        <ele>41</ele>
        <time>2018-03-10T00:06:02Z</time>
      </trkpt>
      <trkpt lat="46.69733" lon="-1.76337">
        <ele>41</ele>
        <time>2018-03-10T00:07:02Z</time>
      </trkpt>
      <trkpt lat="46.69734" lon="-1.76337">
        <ele>41</ele>
        <time>2018-03-10T00:08:02Z</time>
      </trkpt>
      <trkpt lat="46.69735" lon="-1.76336">
        <ele>41</ele>
        <time>2018-03-10T00:09:02Z</time>
      </trkpt>
      <trkpt lat="46.69736" lon="-1.76336">
        <ele>41</ele>
        <time>2018-03-10T00:10:02Z</time>
      </trkpt>
      <trkpt lat="46.69737" lon="-1.76336">
        <ele>41</ele>
        <time>2018-03-10T00:11:02Z</time>
      </trkpt>
      <trkpt lat="46.69738" lon="-1.76336">
        <ele>41</ele>
        <time>2018-03-10T00:12:02Z</time>
      </trkpt>
      <trkpt lat="46.69739" lon="-1.76336">
        <ele>41</ele>
        <time>2018-03-10T00:13:02Z</time>
      </trkpt>
      <trkpt lat="46.69742" lon="-1.76322">
        <ele>42</ele>
        <time>2018-03-10T00:14:02Z</time>
      </trkpt>
      <trkpt lat="46.69743" lon="-1.76301">
        <ele>42</ele>
        <time>2018-03-10T00:15:02Z</time>
      </trkpt>
      <trkpt lat="46.69745" lon="-1.76282">
        <ele>42</ele>
        <time>2018-03-10T00:16:02Z</time>
      </trkpt>
      <trkpt lat="46.69746" lon="-1.76271">
        <ele>42</ele>
        <time>2018-03-10T00:17:02Z</time>
      </trkpt>
      <trkpt lat="46.69746" lon="-1.76266">
        <ele>43</ele>
        <time>2018-03-10T00:18:02Z</time>
      </trkpt>
      <trkpt lat="46.6975" lon="-1.76245">
        <ele>43</ele>
        <time>2018-03-10T00:19:02Z</time>
      </trkpt>
      <trkpt lat="46.69753" lon="-1.76235">
        <ele>44</ele>
        <time>2018-03-10T00:20:02Z</time>
      </trkpt>
      <trkpt lat="46.69756" lon="-1.76225">
        <ele>45</ele>
        <time>2018-03-10T00:21:02Z</time>
      </trkpt>
      <trkpt lat="46.69759" lon="-1.76206">
        <ele>46</ele>
        <time>2018-03-10T00:22:02Z</time>
      </trkpt>
      <trkpt lat="46.69761" lon="-1.76192">
        <ele>47</ele>
        <time>2018-03-10T00:23:02Z</time>
      </trkpt>
      <trkpt lat="46.6976" lon="-1.76174">
        <ele>49</ele>
        <time>2018-03-10T00:24:02Z</time>
      </trkpt>
      <trkpt lat="46.69759" lon="-1.76164">
        <ele>49</ele>
        <time>2018-03-10T00:25:02Z</time>
      </trkpt>
      <trkpt lat="46.69758" lon="-1.76148">
        <ele>49</ele>
        <time>2018-03-10T00:26:02Z</time>
      </trkpt>
      <trkpt lat="46.69758" lon="-1.76148">
        <ele>49</ele>
        <time>2018-03-10T00:27:02Z</time>
      </trkpt>
      <trkpt lat="46.69773" lon="-1.76141">
        <ele>49</ele>
        <time>2018-03-10T00:28:02Z</time>
      </trkpt>
      <trkpt lat="46.69787" lon="-1.76136">
        <ele>49</ele>
        <time>2018-03-10T00:29:02Z</time>
      </trkpt>
      <trkpt lat="46.69808" lon="-1.76126">
        <ele>49</ele>
        <time>2018-03-10T00:30:02Z</time>
      </trkpt>
      <trkpt lat="46.69817" lon="-1.76124">
        <ele>49</ele>
        <time>2018-03-10T00:31:02Z</time>
      </trkpt>
      <trkpt lat="46.69826" lon="-1.76121">
        <ele>49</ele>
        <time>2018-03-10T00:32:02Z</time>
      </trkpt>
      <trkpt lat="46.6983" lon="-1.7612">
        <ele>49</ele>
        <time>2018-03-10T00:33:02Z</time>
      </trkpt>
      <trkpt lat="46.69838" lon="-1.76119">
        <ele>49</ele>
        <time>2018-03-10T00:34:02Z</time>
      </trkpt>
      <trkpt lat="46.69842" lon="-1.76118">
        <ele>49</ele>
        <time>2018-03-10T00:35:02Z</time>
      </trkpt>
      <trkpt lat="46.69857" lon="-1.76118">
        <ele>49</ele>
        <time>2018-03-10T00:36:02Z</time>
      </trkpt>
      <trkpt lat="46.69867" lon="-1.7612">
        <ele>49</ele>
        <time>2018-03-10T00:37:02Z</time>
      </trkpt>
      <trkpt lat="46.69873" lon="-1.76122">
        <ele>49</ele>
        <time>2018-03-10T00:38:02Z</time>
      </trkpt>
      <trkpt lat="46.69877" lon="-1.76122">
        <ele>48</ele>
        <time>2018-03-10T00:39:02Z</time>
      </trkpt>
      <trkpt lat="46.69892" lon="-1.76123">
        <ele>48</ele>
        <time>2018-03-10T00:40:02Z</time>
      </trkpt>
      <trkpt lat="46.69904" lon="-1.7612">
        <ele>48</ele>
        <time>2018-03-10T00:41:02Z</time>
      </trkpt>
      <trkpt lat="46.6993" lon="-1.76112">
        <ele>48</ele>
        <time>2018-03-10T00:42:02Z</time>
      </trkpt>
      <trkpt lat="46.69958" lon="-1.76101">
        <ele>48</ele>
        <time>2018-03-10T00:43:02Z</time>
      </trkpt>
      <trkpt lat="46.69971" lon="-1.76096">
        <ele>49</ele>
        <time>2018-03-10T00:44:02Z</time>
      </trkpt>
      <trkpt lat="46.70005" lon="-1.76083">
        <ele>49</ele>
        <time>2018-03-10T00:45:02Z</time>
      </trkpt>
      <trkpt lat="46.70033" lon="-1.76073">
        <ele>49</ele>
        <time>2018-03-10T00:46:02Z</time>
      </trkpt>
      <trkpt lat="46.70079" lon="-1.76054">
        <ele>49</ele>
        <time>2018-03-10T00:47:02Z</time>
      </trkpt>
      <trkpt lat="46.70099" lon="-1.76044">
        <ele>50</ele>
        <time>2018-03-10T00:48:02Z</time>
      </trkpt>
      <trkpt lat="46.70099" lon="-1.76044">
        <ele>50</ele>
        <time>2018-03-10T00:49:02Z</time>
      </trkpt>
      <trkpt lat="46.70107" lon="-1.76055">
        <ele>50</ele>
        <time>2018-03-10T00:50:02Z</time>
      </trkpt>
      <trkpt lat="46.70126" lon="-1.7607">
        <ele>50</ele>
        <time>2018-03-10T00:51:02Z</time>
      </trkpt>
      <trkpt lat="46.70148" lon="-1.76089">
        <ele>51</ele>
        <time>2018-03-10T00:52:02Z</time>
      </trkpt>
      <trkpt lat="46.70149" lon="-1.76089">
        <ele>51</ele>
        <time>2018-03-10T00:53:02Z</time>
      </trkpt>
      <trkpt lat="46.70167" lon="-1.76105">
        <ele>51</ele>
        <time>2018-03-10T00:54:02Z</time>
      </trkpt>
      <trkpt lat="46.70185" lon="-1.76121">
        <ele>52</ele>
        <time>2018-03-10T00:55:02Z</time>
      </trkpt>
      <trkpt lat="46.70203" lon="-1.76137">
        <ele>52</ele>
        <time>2018-03-10T00:56:02Z</time>
      </trkpt>
      <trkpt lat="46.70229" lon="-1.76159">
        <ele>52</ele>
        <time>2018-03-10T00:57:02Z</time>
      </trkpt>
      <trkpt lat="46.70245" lon="-1.76173">
        <ele>52</ele>
        <time>2018-03-10T00:58:02Z</time>
      </trkpt>
      <trkpt lat="46.70258" lon="-1.76186">
        <ele>52</ele>
        <time>2018-03-10T00:59:02Z</time>
      </trkpt>
      <trkpt lat="46.70301" lon="-1.76223">
        <ele>53</ele>
        <time>2018-03-10T01:00:02Z</time>
      </trkpt>
      <trkpt lat="46.70337" lon="-1.76254">
        <ele>53</ele>
        <time>2018-03-10T01:01:02Z</time>
      </trkpt>
      <trkpt lat="46.7037" lon="-1.76285">
        <ele>53</ele>
        <time>2018-03-10T01:02:02Z</time>
      </trkpt>
      <trkpt lat="46.70397" lon="-1.76307">
        <ele>53</ele>
        <time>2018-03-10T01:03:02Z</time>
      </trkpt>
      <trkpt lat="46.704" lon="-1.76309">
        <ele>53</ele>
        <time>2018-03-10T01:04:02Z</time>
      </trkpt>
      <trkpt lat="46.70425" lon="-1.76332">
        <ele>52</ele>
        <time>2018-03-10T01:05:02Z</time>
      </trkpt>
      <trkpt lat="46.70455" lon="-1.7636">
        <ele>52</ele>
        <time>2018-03-10T01:06:02Z</time>
      </trkpt>
      <trkpt lat="46.70463" lon="-1.76366">
        <ele>52</ele>
        <time>2018-03-10T01:07:02Z</time>
      </trkpt>
      <trkpt lat="46.70482" lon="-1.76383">
        <ele>52</ele>
        <time>2018-03-10T01:08:02Z</time>
      </trkpt>
      <trkpt lat="46.70528" lon="-1.76424">
        <ele>52</ele>
        <time>2018-03-10T01:09:02Z</time>
      </trkpt>
      <trkpt lat="46.70571" lon="-1.76462">
        <ele>53</ele>
        <time>2018-03-10T01:10:02Z</time>
      </trkpt>
      <trkpt lat="46.70574" lon="-1.76464">
        <ele>53</ele>
        <time>2018-03-10T01:11:02Z</time>
      </trkpt>
      <trkpt lat="46.70596" lon="-1.76485">
        <ele>53</ele>
        <time>2018-03-10T01:12:02Z</time>
      </trkpt>
      <trkpt lat="46.7063" lon="-1.76514">
        <ele>53</ele>
        <time>2018-03-10T01:13:02Z</time>
      </trkpt>
      <trkpt lat="46.70662" lon="-1.76543">
        <ele>54</ele>
        <time>2018-03-10T01:14:02Z</time>
      </trkpt>
      <trkpt lat="46.70689" lon="-1.76566">
        <ele>54</ele>
        <time>2018-03-10T01:15:02Z</time>
      </trkpt>
      <trkpt lat="46.70714" lon="-1.76587">
        <ele>53</ele>
        <time>2018-03-10T01:16:02Z</time>
      </trkpt>
      <trkpt lat="46.7073" lon="-1.76602">
        <ele>53</ele>
        <time>2018-03-10T01:17:02Z</time>
      </trkpt>
      <trkpt lat="46.70742" lon="-1.76613">
        <ele>53</ele>
        <time>2018-03-10T01:18:02Z</time>
      </trkpt>
      <trkpt lat="46.7077" lon="-1.76638">
        <ele>53</ele>
        <time>2018-03-10T01:19:02Z</time>
      </trkpt>
      <trkpt lat="46.70791" lon="-1.76657">
        <ele>53</ele>
        <time>2018-03-10T01:20:02Z</time>
      </trkpt>
      <trkpt lat="46.70805" lon="-1.76671">
        <ele>52</ele>
        <time>2018-03-10T01:21:02Z</time>
      </trkpt>
      <trkpt lat="46.70822" lon="-1.76689">
        <ele>52</ele>
        <time>2018-03-10T01:22:02Z</time>
      </trkpt>
      <trkpt lat="46.70839" lon="-1.7671">
        <ele>51</ele>
        <time>2018-03-10T01:23:02Z</time>
      </trkpt>
      <trkpt lat="46.70863" lon="-1.76741">
        <ele>51</ele>
        <time>2018-03-10T01:24:02Z</time>
      </trkpt>
      <trkpt lat="46.70888" lon="-1.76773">
        <ele>51</ele>
        <time>2018-03-10T01:25:02Z</time>
      </trkpt>
      <trkpt lat="46.70913" lon="-1.76805">
        <ele>51</ele>
        <time>2018-03-10T01:26:02Z</time>
      </trkpt>
      <trkpt lat="46.70938" lon="-1.76838">
        <ele>51</ele>
        <time>2018-03-10T01:27:02Z</time>
      </trkpt>
      <trkpt lat="46.70968" lon="-1.76877">
        <ele>50</ele>
        <time>2018-03-10T01:28:02Z</time>
      </trkpt>
      <trkpt lat="46.7099" lon="-1.76906">
        <ele>50</ele>
        <time>2018-03-10T01:29:02Z</time>
      </trkpt>
      <trkpt lat="46.71028" lon="-1.76954">
        <ele>50</ele>
        <time>2018-03-10T01:30:02Z</time>
      </trkpt>
      <trkpt lat="46.71062" lon="-1.76998">
        <ele>51</ele>
        <time>2018-03-10T01:31:02Z</time>
      </trkpt>
      <trkpt lat="46.71097" lon="-1.77044">
        <ele>52</ele>
        <time>2018-03-10T01:32:02Z</time>
      </trkpt>
      <trkpt lat="46.71168" lon="-1.77136">
        <ele>52</ele>
        <time>2018-03-10T01:33:02Z</time>
      </trkpt>
      <trkpt lat="46.71224" lon="-1.77209">
        <ele>50</ele>
        <time>2018-03-10T01:34:02Z</time>
      </trkpt>
      <trkpt lat="46.71241" lon="-1.77232">
        <ele>49</ele>
        <time>2018-03-10T01:35:02Z</time>
      </trkpt>
      <trkpt lat="46.71252" lon="-1.77249">
        <ele>49</ele>
        <time>2018-03-10T01:36:02Z</time>
      </trkpt>
      <trkpt lat="46.71273" lon="-1.77286">
        <ele>48</ele>
        <time>2018-03-10T01:37:02Z</time>
      </trkpt>
      <trkpt lat="46.71295" lon="-1.77326">
        <ele>48</ele>
        <time>2018-03-10T01:38:02Z</time>
      </trkpt>
      <trkpt lat="46.71327" lon="-1.77382">
        <ele>47</ele>
        <time>2018-03-10T01:39:02Z</time>
      </trkpt>
      <trkpt lat="46.71358" lon="-1.77439">
        <ele>46</ele>
        <time>2018-03-10T01:40:02Z</time>
      </trkpt>
      <trkpt lat="46.71368" lon="-1.77455">
        <ele>46</ele>
        <time>2018-03-10T01:41:02Z</time>
      </trkpt>
      <trkpt lat="46.71374" lon="-1.77464">
        <ele>46</ele>
        <time>2018-03-10T01:42:02Z</time>
      </trkpt>
      <trkpt lat="46.71379" lon="-1.77472">
        <ele>46</ele>
        <time>2018-03-10T01:43:02Z</time>
      </trkpt>
      <trkpt lat="46.71388" lon="-1.77489">
        <ele>46</ele>
        <time>2018-03-10T01:44:02Z</time>
      </trkpt>
      <trkpt lat="46.71406" lon="-1.77511">
        <ele>46</ele>
        <time>2018-03-10T01:45:02Z</time>
      </trkpt>
      <trkpt lat="46.71429" lon="-1.77536">
        <ele>46</ele>
        <time>2018-03-10T01:46:02Z</time>
      </trkpt>
      <trkpt lat="46.71463" lon="-1.7757">
        <ele>46</ele>
        <time>2018-03-10T01:47:02Z</time>
      </trkpt>
      <trkpt lat="46.71505" lon="-1.77612">
        <ele>45</ele>
        <time>2018-03-10T01:48:02Z</time>
      </trkpt>
      <trkpt lat="46.71521" lon="-1.77627">
        <ele>45</ele>
        <time>2018-03-10T01:49:02Z</time>
      </trkpt>
      <trkpt lat="46.71574" lon="-1.7768">
        <ele>44</ele>
        <time>2018-03-10T01:50:02Z</time>
      </trkpt>
      <trkpt lat="46.71629" lon="-1.77734">
        <ele>43</ele>
        <time>2018-03-10T01:51:02Z</time>
      </trkpt>
      <trkpt lat="46.71663" lon="-1.77768">
        <ele>43</ele>
        <time>2018-03-10T01:52:02Z</time>
      </trkpt>
      <trkpt lat="46.71702" lon="-1.77808">
        <ele>43</ele>
        <time>2018-03-10T01:53:02Z</time>
      </trkpt>
      <trkpt lat="46.71709" lon="-1.77814">
        <ele>43</ele>
        <time>2018-03-10T01:54:02Z</time>
      </trkpt>
      <trkpt lat="46.71718" lon="-1.77822">
        <ele>43</ele>
        <time>2018-03-10T01:55:02Z</time>
      </trkpt>
      <trkpt lat="46.71726" lon="-1.77828">
        <ele>43</ele>
        <time>2018-03-10T01:56:02Z</time>
      </trkpt>
      <trkpt lat="46.71733" lon="-1.77835">
        <ele>43</ele>
        <time>2018-03-10T01:57:02Z</time>
      </trkpt>
      <trkpt lat="46.71741" lon="-1.77841">
        <ele>43</ele>
        <time>2018-03-10T01:58:02Z</time>
      </trkpt>
      <trkpt lat="46.71747" lon="-1.77844">
        <ele>43</ele>
        <time>2018-03-10T01:59:02Z</time>
      </trkpt>
      <trkpt lat="46.71753" lon="-1.77848">
        <ele>43</ele>
        <time>2018-03-10T02:00:02Z</time>
      </trkpt>
      <trkpt lat="46.71763" lon="-1.77853">
        <ele>43</ele>
        <time>2018-03-10T02:01:02Z</time>
      </trkpt>
      <trkpt lat="46.71774" lon="-1.77858">
        <ele>43</ele>
        <time>2018-03-10T02:02:02Z</time>
      </trkpt>
      <trkpt lat="46.71786" lon="-1.77863">
        <ele>43</ele>
        <time>2018-03-10T02:03:02Z</time>
      </trkpt>
      <trkpt lat="46.71802" lon="-1.77869">
        <ele>43</ele>
        <time>2018-03-10T02:04:02Z</time>
      </trkpt>
      <trkpt lat="46.71837" lon="-1.77881">
        <ele>43</ele>
        <time>2018-03-10T02:05:02Z</time>
      </trkpt>
      <trkpt lat="46.71883" lon="-1.77896">
        <ele>43</ele>
        <time>2018-03-10T02:06:02Z</time>
      </trkpt>
      <trkpt lat="46.71924" lon="-1.7791">
        <ele>43</ele>
        <time>2018-03-10T02:07:02Z</time>
      </trkpt>
      <trkpt lat="46.71976" lon="-1.77927">
        <ele>41</ele>
        <time>2018-03-10T02:08:02Z</time>
      </trkpt>
      <trkpt lat="46.72031" lon="-1.77946">
        <ele>41</ele>
        <time>2018-03-10T02:09:02Z</time>
      </trkpt>
      <trkpt lat="46.72085" lon="-1.77964">
        <ele>41</ele>
        <time>2018-03-10T02:10:02Z</time>
      </trkpt>
      <trkpt lat="46.7214" lon="-1.77982">
        <ele>41</ele>
        <time>2018-03-10T02:11:02Z</time>
      </trkpt>
      <trkpt lat="46.72151" lon="-1.77985">
        <ele>40</ele>
        <time>2018-03-10T02:12:02Z</time>
      </trkpt>
      <trkpt lat="46.72161" lon="-1.77989">
        <ele>40</ele>
        <time>2018-03-10T02:13:02Z</time>
      </trkpt>
      <trkpt lat="46.7217" lon="-1.77992">
        <ele>40</ele>
        <time>2018-03-10T02:14:02Z</time>
      </trkpt>
      <trkpt lat="46.72178" lon="-1.77996">
        <ele>40</ele>
        <time>2018-03-10T02:15:02Z</time>
      </trkpt>
      <trkpt lat="46.72186" lon="-1.77999">
        <ele>40</ele>
        <time>2018-03-10T02:16:02Z</time>
      </trkpt>
      <trkpt lat="46.72193" lon="-1.78003">
        <ele>40</ele>
        <time>2018-03-10T02:17:02Z</time>
      </trkpt>
      <trkpt lat="46.72201" lon="-1.78008">
        <ele>40</ele>
        <time>2018-03-10T02:18:02Z</time>
      </trkpt>
      <trkpt lat="46.72208" lon="-1.78012">
        <ele>40</ele>
        <time>2018-03-10T02:19:02Z</time>
      </trkpt>
      <trkpt lat="46.72216" lon="-1.78017">
        <ele>40</ele>
        <time>2018-03-10T02:20:02Z</time>
      </trkpt>
      <trkpt lat="46.72224" lon="-1.78023">
        <ele>40</ele>
        <time>2018-03-10T02:21:02Z</time>
      </trkpt>
      <trkpt lat="46.72231" lon="-1.78028">
        <ele>40</ele>
        <time>2018-03-10T02:22:02Z</time>
      </trkpt>
      <trkpt lat="46.72243" lon="-1.78038">
        <ele>40</ele>
        <time>2018-03-10T02:23:02Z</time>
      </trkpt>
      <trkpt lat="46.7227" lon="-1.78064">
        <ele>40</ele>
        <time>2018-03-10T02:24:02Z</time>
      </trkpt>
      <trkpt lat="46.72311" lon="-1.781">
        <ele>39</ele>
        <time>2018-03-10T02:25:02Z</time>
      </trkpt>
      <trkpt lat="46.72328" lon="-1.78116">
        <ele>39</ele>
        <time>2018-03-10T02:26:02Z</time>
      </trkpt>
      <trkpt lat="46.72345" lon="-1.78133">
        <ele>39</ele>
        <time>2018-03-10T02:27:02Z</time>
      </trkpt>
      <trkpt lat="46.72362" lon="-1.78149">
        <ele>39</ele>
        <time>2018-03-10T02:28:02Z</time>
      </trkpt>
      <trkpt lat="46.72371" lon="-1.78157">
        <ele>39</ele>
        <time>2018-03-10T02:29:02Z</time>
      </trkpt>
      <trkpt lat="46.7238" lon="-1.78166">
        <ele>40</ele>
        <time>2018-03-10T02:30:02Z</time>
      </trkpt>
      <trkpt lat="46.72389" lon="-1.78174">
        <ele>40</ele>
        <time>2018-03-10T02:31:02Z</time>
      </trkpt>
      <trkpt lat="46.72397" lon="-1.78181">
        <ele>40</ele>
        <time>2018-03-10T02:32:02Z</time>
      </trkpt>
      <trkpt lat="46.72407" lon="-1.78189">
        <ele>40</ele>
        <time>2018-03-10T02:33:02Z</time>
      </trkpt>
      <trkpt lat="46.72416" lon="-1.78196">
        <ele>40</ele>
        <time>2018-03-10T02:34:02Z</time>
      </trkpt>
      <trkpt lat="46.72425" lon="-1.78203">
        <ele>40</ele>
        <time>2018-03-10T02:35:02Z</time>
      </trkpt>
      <trkpt lat="46.72444" lon="-1.78215">
        <ele>39</ele>
        <time>2018-03-10T02:36:02Z</time>
      </trkpt>
      <trkpt lat="46.72464" lon="-1.78226">
        <ele>39</ele>
        <time>2018-03-10T02:37:02Z</time>
      </trkpt>
      <trkpt lat="46.72494" lon="-1.78242">
        <ele>39</ele>
        <time>2018-03-10T02:38:02Z</time>
      </trkpt>
      <trkpt lat="46.72514" lon="-1.78253">
        <ele>39</ele>
        <time>2018-03-10T02:39:02Z</time>
      </trkpt>
      <trkpt lat="46.72544" lon="-1.78269">
        <ele>38</ele>
        <time>2018-03-10T02:40:02Z</time>
      </trkpt>
      <trkpt lat="46.72605" lon="-1.78301">
        <ele>37</ele>
        <time>2018-03-10T02:41:02Z</time>
      </trkpt>
      <trkpt lat="46.72699" lon="-1.78352">
        <ele>35</ele>
        <time>2018-03-10T02:42:02Z</time>
      </trkpt>
      <trkpt lat="46.72756" lon="-1.78382">
        <ele>34</ele>
        <time>2018-03-10T02:43:02Z</time>
      </trkpt>
      <trkpt lat="46.72804" lon="-1.78406">
        <ele>34</ele>
        <time>2018-03-10T02:44:02Z</time>
      </trkpt>
      <trkpt lat="46.72851" lon="-1.78431">
        <ele>34</ele>
        <time>2018-03-10T02:45:02Z</time>
      </trkpt>
      <trkpt lat="46.72898" lon="-1.78456">
        <ele>33</ele>
        <time>2018-03-10T02:46:02Z</time>
      </trkpt>
      <trkpt lat="46.72925" lon="-1.7847">
        <ele>33</ele>
        <time>2018-03-10T02:47:02Z</time>
      </trkpt>
      <trkpt lat="46.72976" lon="-1.78497">
        <ele>33</ele>
        <time>2018-03-10T02:48:02Z</time>
      </trkpt>
      <trkpt lat="46.72987" lon="-1.78503">
        <ele>33</ele>
        <time>2018-03-10T02:49:02Z</time>
      </trkpt>
      <trkpt lat="46.73038" lon="-1.78529">
        <ele>31</ele>
        <time>2018-03-10T02:50:02Z</time>
      </trkpt>
      <trkpt lat="46.73069" lon="-1.78546">
        <ele>30</ele>
        <time>2018-03-10T02:51:02Z</time>
      </trkpt>
      <trkpt lat="46.73085" lon="-1.78556">
        <ele>30</ele>
        <time>2018-03-10T02:52:02Z</time>
      </trkpt>
      <trkpt lat="46.73094" lon="-1.78561">
        <ele>29</ele>
        <time>2018-03-10T02:53:02Z</time>
      </trkpt>
      <trkpt lat="46.73103" lon="-1.78568">
        <ele>29</ele>
        <time>2018-03-10T02:54:02Z</time>
      </trkpt>
      <trkpt lat="46.73112" lon="-1.78575">
        <ele>29</ele>
        <time>2018-03-10T02:55:02Z</time>
      </trkpt>
      <trkpt lat="46.73123" lon="-1.78584">
        <ele>29</ele>
        <time>2018-03-10T02:56:02Z</time>
      </trkpt>
      <trkpt lat="46.7314" lon="-1.78601">
        <ele>29</ele>
        <time>2018-03-10T02:57:02Z</time>
      </trkpt>
      <trkpt lat="46.73148" lon="-1.7861">
        <ele>29</ele>
        <time>2018-03-10T02:58:02Z</time>
      </trkpt>
      <trkpt lat="46.73168" lon="-1.78636">
        <ele>29</ele>
        <time>2018-03-10T02:59:02Z</time>
      </trkpt>
      <trkpt lat="46.73196" lon="-1.78675">
        <ele>28</ele>
        <time>2018-03-10T03:00:02Z</time>
      </trkpt>
      <trkpt lat="46.73209" lon="-1.78693">
        <ele>28</ele>
        <time>2018-03-10T03:01:02Z</time>
      </trkpt>
      <trkpt lat="46.73214" lon="-1.78699">
        <ele>27</ele>
        <time>2018-03-10T03:02:02Z</time>
      </trkpt>
      <trkpt lat="46.73227" lon="-1.78715">
        <ele>27</ele>
        <time>2018-03-10T03:03:02Z</time>
      </trkpt>
      <trkpt lat="46.73236" lon="-1.78725">
        <ele>27</ele>
        <time>2018-03-10T03:04:02Z</time>
      </trkpt>
      <trkpt lat="46.73246" lon="-1.78735">
        <ele>26</ele>
        <time>2018-03-10T03:05:02Z</time>
      </trkpt>
      <trkpt lat="46.73255" lon="-1.78741">
        <ele>26</ele>
        <time>2018-03-10T03:06:02Z</time>
      </trkpt>
      <trkpt lat="46.73266" lon="-1.78751">
        <ele>26</ele>
        <time>2018-03-10T03:07:02Z</time>
      </trkpt>
      <trkpt lat="46.73274" lon="-1.78757">
        <ele>26</ele>
        <time>2018-03-10T03:08:02Z</time>
      </trkpt>
      <trkpt lat="46.73293" lon="-1.78771">
        <ele>25</ele>
        <time>2018-03-10T03:09:02Z</time>
      </trkpt>
      <trkpt lat="46.73315" lon="-1.78784">
        <ele>25</ele>
        <time>2018-03-10T03:10:02Z</time>
      </trkpt>
      <trkpt lat="46.73367" lon="-1.78814">
        <ele>24</ele>
        <time>2018-03-10T03:11:02Z</time>
      </trkpt>
      <trkpt lat="46.73399" lon="-1.78833">
        <ele>23</ele>
        <time>2018-03-10T03:12:02Z</time>
      </trkpt>
      <trkpt lat="46.73424" lon="-1.78846">
        <ele>23</ele>
        <time>2018-03-10T03:13:02Z</time>
      </trkpt>
      <trkpt lat="46.73485" lon="-1.78881">
        <ele>21</ele>
        <time>2018-03-10T03:14:02Z</time>
      </trkpt>
      <trkpt lat="46.73546" lon="-1.78917">
        <ele>18</ele>
        <time>2018-03-10T03:15:02Z</time>
      </trkpt>
      <trkpt lat="46.73613" lon="-1.78956">
        <ele>16</ele>
        <time>2018-03-10T03:16:02Z</time>
      </trkpt>
      <trkpt lat="46.73661" lon="-1.78983">
        <ele>15</ele>
        <time>2018-03-10T03:17:02Z</time>
      </trkpt>
      <trkpt lat="46.73693" lon="-1.79002">
        <ele>15</ele>
        <time>2018-03-10T03:18:02Z</time>
      </trkpt>
      <trkpt lat="46.73734" lon="-1.79025">
        <ele>15</ele>
        <time>2018-03-10T03:19:02Z</time>
      </trkpt>
      <trkpt lat="46.73785" lon="-1.79055">
        <ele>16</ele>
        <time>2018-03-10T03:20:02Z</time>
      </trkpt>
      <trkpt lat="46.73838" lon="-1.79085">
        <ele>19</ele>
        <time>2018-03-10T03:21:02Z</time>
      </trkpt>
      <trkpt lat="46.73882" lon="-1.79111">
        <ele>20</ele>
        <time>2018-03-10T03:22:02Z</time>
      </trkpt>
      <trkpt lat="46.73901" lon="-1.79122">
        <ele>20</ele>
        <time>2018-03-10T03:23:02Z</time>
      </trkpt>
      <trkpt lat="46.73923" lon="-1.79134">
        <ele>21</ele>
        <time>2018-03-10T03:24:02Z</time>
      </trkpt>
      <trkpt lat="46.73937" lon="-1.79142">
        <ele>21</ele>
        <time>2018-03-10T03:25:02Z</time>
      </trkpt>
      <trkpt lat="46.73958" lon="-1.79151">
        <ele>22</ele>
        <time>2018-03-10T03:26:02Z</time>
      </trkpt>
      <trkpt lat="46.73974" lon="-1.79158">
        <ele>22</ele>
        <time>2018-03-10T03:27:02Z</time>
      </trkpt>
      <trkpt lat="46.73988" lon="-1.79165">
        <ele>23</ele>
        <time>2018-03-10T03:28:02Z</time>
      </trkpt>
      <trkpt lat="46.74001" lon="-1.7917">
        <ele>23</ele>
        <time>2018-03-10T03:29:02Z</time>
      </trkpt>
      <trkpt lat="46.74021" lon="-1.79176">
        <ele>23</ele>
        <time>2018-03-10T03:30:02Z</time>
      </trkpt>
      <trkpt lat="46.74023" lon="-1.79177">
        <ele>23</ele>
        <time>2018-03-10T03:31:02Z</time>
      </trkpt>
      <trkpt lat="46.74025" lon="-1.79178">
        <ele>23</ele>
        <time>2018-03-10T03:32:02Z</time>
      </trkpt>
      <trkpt lat="46.74035" lon="-1.79181">
        <ele>23</ele>
        <time>2018-03-10T03:33:02Z</time>
      </trkpt>
      <trkpt lat="46.74042" lon="-1.79183">
        <ele>23</ele>
        <time>2018-03-10T03:34:02Z</time>
      </trkpt>
      <trkpt lat="46.74063" lon="-1.7919">
        <ele>23</ele>
        <time>2018-03-10T03:35:02Z</time>
      </trkpt>
      <trkpt lat="46.74113" lon="-1.79206">
        <ele>24</ele>
        <time>2018-03-10T03:36:02Z</time>
      </trkpt>
      <trkpt lat="46.74136" lon="-1.79214">
        <ele>24</ele>
        <time>2018-03-10T03:37:02Z</time>
      </trkpt>
      <trkpt lat="46.74168" lon="-1.79223">
        <ele>24</ele>
        <time>2018-03-10T03:38:02Z</time>
      </trkpt>
      <trkpt lat="46.74221" lon="-1.79241">
        <ele>24</ele>
        <time>2018-03-10T03:39:02Z</time>
      </trkpt>
      <trkpt lat="46.74255" lon="-1.79251">
        <ele>23</ele>
        <time>2018-03-10T03:40:02Z</time>
      </trkpt>
      <trkpt lat="46.74283" lon="-1.79259">
        <ele>22</ele>
        <time>2018-03-10T03:41:02Z</time>
      </trkpt>
      <trkpt lat="46.7434" lon="-1.79276">
        <ele>21</ele>
        <time>2018-03-10T03:42:02Z</time>
      </trkpt>
      <trkpt lat="46.74356" lon="-1.79281">
        <ele>20</ele>
        <time>2018-03-10T03:43:02Z</time>
      </trkpt>
      <trkpt lat="46.74367" lon="-1.79285">
        <ele>20</ele>
        <time>2018-03-10T03:44:02Z</time>
      </trkpt>
      <trkpt lat="46.74378" lon="-1.79289">
        <ele>19</ele>
        <time>2018-03-10T03:45:02Z</time>
      </trkpt>
      <trkpt lat="46.74387" lon="-1.79294">
        <ele>19</ele>
        <time>2018-03-10T03:46:02Z</time>
      </trkpt>
      <trkpt lat="46.74396" lon="-1.79299">
        <ele>19</ele>
        <time>2018-03-10T03:47:02Z</time>
      </trkpt>
      <trkpt lat="46.74405" lon="-1.79304">
        <ele>19</ele>
        <time>2018-03-10T03:48:02Z</time>
      </trkpt>
      <trkpt lat="46.74416" lon="-1.79313">
        <ele>19</ele>
        <time>2018-03-10T03:49:02Z</time>
      </trkpt>
      <trkpt lat="46.7442" lon="-1.79317">
        <ele>19</ele>
        <time>2018-03-10T03:50:02Z</time>
      </trkpt>
      <trkpt lat="46.74423" lon="-1.7932">
        <ele>18</ele>
        <time>2018-03-10T03:51:02Z</time>
      </trkpt>
      <trkpt lat="46.74426" lon="-1.79323">
        <ele>18</ele>
        <time>2018-03-10T03:52:02Z</time>
      </trkpt>
      <trkpt lat="46.74439" lon="-1.79337">
        <ele>18</ele>
        <time>2018-03-10T03:53:02Z</time>
      </trkpt>
      <trkpt lat="46.74452" lon="-1.79353">
        <ele>18</ele>
        <time>2018-03-10T03:54:02Z</time>
      </trkpt>
      <trkpt lat="46.74469" lon="-1.79377">
        <ele>17</ele>
        <time>2018-03-10T03:55:02Z</time>
      </trkpt>
      <trkpt lat="46.7449" lon="-1.79409">
        <ele>17</ele>
        <time>2018-03-10T03:56:02Z</time>
      </trkpt>
      <trkpt lat="46.74528" lon="-1.79473">
        <ele>16</ele>
        <time>2018-03-10T03:57:02Z</time>
      </trkpt>
      <trkpt lat="46.74548" lon="-1.79503">
        <ele>15</ele>
        <time>2018-03-10T03:58:02Z</time>
      </trkpt>
      <trkpt lat="46.74552" lon="-1.7951">
        <ele>15</ele>
        <time>2018-03-10T03:59:02Z</time>
      </trkpt>
      <trkpt lat="46.74552" lon="-1.7951">
        <ele>15</ele>
        <time>2018-03-10T04:00:02Z</time>
      </trkpt>
      <trkpt lat="46.74557" lon="-1.79518">
        <ele>15</ele>
        <time>2018-03-10T04:01:02Z</time>
      </trkpt>
      <trkpt lat="46.74562" lon="-1.79524">
        <ele>15</ele>
        <time>2018-03-10T04:02:02Z</time>
      </trkpt>
      <trkpt lat="46.74561" lon="-1.79537">
        <ele>15</ele>
        <time>2018-03-10T04:03:02Z</time>
      </trkpt>
      <trkpt lat="46.74558" lon="-1.79546">
        <ele>15</ele>
        <time>2018-03-10T04:04:02Z</time>
      </trkpt>
      <trkpt lat="46.74559" lon="-1.79553">
        <ele>15</ele>
        <time>2018-03-10T04:05:02Z</time>
      </trkpt>
      <trkpt lat="46.74561" lon="-1.7956">
        <ele>15</ele>
        <time>2018-03-10T04:06:02Z</time>
      </trkpt>
      <trkpt lat="46.74562" lon="-1.79564">
        <ele>15</ele>
        <time>2018-03-10T04:07:02Z</time>
      </trkpt>
      <trkpt lat="46.74566" lon="-1.79571">
        <ele>15</ele>
        <time>2018-03-10T04:08:02Z</time>
      </trkpt>
      <trkpt lat="46.74571" lon="-1.79584">
        <ele>15</ele>
        <time>2018-03-10T04:09:02Z</time>
      </trkpt>
      <trkpt lat="46.74574" lon="-1.79591">
        <ele>15</ele>
        <time>2018-03-10T04:10:02Z</time>
      </trkpt>
      <trkpt lat="46.74577" lon="-1.79599">
        <ele>15</ele>
        <time>2018-03-10T04:11:02Z</time>
      </trkpt>
      <trkpt lat="46.7458" lon="-1.79609">
        <ele>15</ele>
        <time>2018-03-10T04:12:02Z</time>
      </trkpt>
      <trkpt lat="46.74582" lon="-1.79617">
        <ele>15</ele>
        <time>2018-03-10T04:13:02Z</time>
      </trkpt>
      <trkpt lat="46.74587" lon="-1.79644">
        <ele>16</ele>
        <time>2018-03-10T04:14:02Z</time>
      </trkpt>
      <trkpt lat="46.74595" lon="-1.79697">
        <ele>16</ele>
        <time>2018-03-10T04:15:02Z</time>
      </trkpt>
      <trkpt lat="46.74603" lon="-1.79744">
        <ele>15</ele>
        <time>2018-03-10T04:16:02Z</time>
      </trkpt>
      <trkpt lat="46.74607" lon="-1.79767">
        <ele>15</ele>
        <time>2018-03-10T04:17:02Z</time>
      </trkpt>
      <trkpt lat="46.74612" lon="-1.79796">
        <ele>15</ele>
        <time>2018-03-10T04:18:02Z</time>
      </trkpt>
      <trkpt lat="46.74619" lon="-1.79836">
        <ele>15</ele>
        <time>2018-03-10T04:19:02Z</time>
      </trkpt>
      <trkpt lat="46.74621" lon="-1.79854">
        <ele>15</ele>
        <time>2018-03-10T04:20:02Z</time>
      </trkpt>
      <trkpt lat="46.74621" lon="-1.79856">
        <ele>15</ele>
        <time>2018-03-10T04:21:02Z</time>
      </trkpt>
      <trkpt lat="46.74621" lon="-1.79869">
        <ele>15</ele>
        <time>2018-03-10T04:22:02Z</time>
      </trkpt>
      <trkpt lat="46.74621" lon="-1.79889">
        <ele>15</ele>
        <time>2018-03-10T04:23:02Z</time>
      </trkpt>
      <trkpt lat="46.74618" lon="-1.79939">
        <ele>15</ele>
        <time>2018-03-10T04:24:02Z</time>
      </trkpt>
      <trkpt lat="46.74613" lon="-1.80001">
        <ele>16</ele>
        <time>2018-03-10T04:25:02Z</time>
      </trkpt>
      <trkpt lat="46.74608" lon="-1.80068">
        <ele>17</ele>
        <time>2018-03-10T04:26:02Z</time>
      </trkpt>
      <trkpt lat="46.74606" lon="-1.80097">
        <ele>17</ele>
        <time>2018-03-10T04:27:02Z</time>
      </trkpt>
      <trkpt lat="46.74603" lon="-1.80116">
        <ele>17</ele>
        <time>2018-03-10T04:28:02Z</time>
      </trkpt>
      <trkpt lat="46.74601" lon="-1.80134">
        <ele>17</ele>
        <time>2018-03-10T04:29:02Z</time>
      </trkpt>
      <trkpt lat="46.74599" lon="-1.80149">
        <ele>17</ele>
        <time>2018-03-10T04:30:02Z</time>
      </trkpt>
      <trkpt lat="46.74598" lon="-1.80155">
        <ele>17</ele>
        <time>2018-03-10T04:31:02Z</time>
      </trkpt>
      <trkpt lat="46.74594" lon="-1.8017">
        <ele>17</ele>
        <time>2018-03-10T04:32:02Z</time>
      </trkpt>
      <trkpt lat="46.74591" lon="-1.80184">
        <ele>17</ele>
        <time>2018-03-10T04:33:02Z</time>
      </trkpt>
      <trkpt lat="46.74587" lon="-1.80197">
        <ele>17</ele>
        <time>2018-03-10T04:34:02Z</time>
      </trkpt>
      <trkpt lat="46.74582" lon="-1.80208">
        <ele>18</ele>
        <time>2018-03-10T04:35:02Z</time>
      </trkpt>
      <trkpt lat="46.74576" lon="-1.80223">
        <ele>18</ele>
        <time>2018-03-10T04:36:02Z</time>
      </trkpt>
      <trkpt lat="46.74569" lon="-1.80237">
        <ele>18</ele>
        <time>2018-03-10T04:37:02Z</time>
      </trkpt>
      <trkpt lat="46.74557" lon="-1.80255">
        <ele>18</ele>
        <time>2018-03-10T04:38:02Z</time>
      </trkpt>
      <trkpt lat="46.7454" lon="-1.80281">
        <ele>18</ele>
        <time>2018-03-10T04:39:02Z</time>
      </trkpt>
      <trkpt lat="46.74516" lon="-1.80316">
        <ele>18</ele>
        <time>2018-03-10T04:40:02Z</time>
      </trkpt>
      <trkpt lat="46.74508" lon="-1.80327">
        <ele>18</ele>
        <time>2018-03-10T04:41:02Z</time>
      </trkpt>
      <trkpt lat="46.7448" lon="-1.80369">
        <ele>19</ele>
        <time>2018-03-10T04:42:02Z</time>
      </trkpt>
      <trkpt lat="46.7445" lon="-1.80413">
        <ele>20</ele>
        <time>2018-03-10T04:43:02Z</time>
      </trkpt>
      <trkpt lat="46.74446" lon="-1.80418">
        <ele>20</ele>
        <time>2018-03-10T04:44:02Z</time>
      </trkpt>
      <trkpt lat="46.74401" lon="-1.80483">
        <ele>20</ele>
        <time>2018-03-10T04:45:02Z</time>
      </trkpt>
      <trkpt lat="46.7435" lon="-1.80557">
        <ele>20</ele>
        <time>2018-03-10T04:46:02Z</time>
      </trkpt>
      <trkpt lat="46.74303" lon="-1.80624">
        <ele>19</ele>
        <time>2018-03-10T04:47:02Z</time>
      </trkpt>
      <trkpt lat="46.74295" lon="-1.80636">
        <ele>19</ele>
        <time>2018-03-10T04:48:02Z</time>
      </trkpt>
      <trkpt lat="46.74281" lon="-1.80656">
        <ele>19</ele>
        <time>2018-03-10T04:49:02Z</time>
      </trkpt>
      <trkpt lat="46.74254" lon="-1.80694">
        <ele>19</ele>
        <time>2018-03-10T04:50:02Z</time>
      </trkpt>
      <trkpt lat="46.74233" lon="-1.80727">
        <ele>19</ele>
        <time>2018-03-10T04:51:02Z</time>
      </trkpt>
      <trkpt lat="46.74226" lon="-1.8074">
        <ele>19</ele>
        <time>2018-03-10T04:52:02Z</time>
      </trkpt>
      <trkpt lat="46.7422" lon="-1.80751">
        <ele>19</ele>
        <time>2018-03-10T04:53:02Z</time>
      </trkpt>
      <trkpt lat="46.74215" lon="-1.80761">
        <ele>19</ele>
        <time>2018-03-10T04:54:02Z</time>
      </trkpt>
      <trkpt lat="46.7421" lon="-1.80775">
        <ele>20</ele>
        <time>2018-03-10T04:55:02Z</time>
      </trkpt>
      <trkpt lat="46.74204" lon="-1.80789">
        <ele>20</ele>
        <time>2018-03-10T04:56:02Z</time>
      </trkpt>
      <trkpt lat="46.74198" lon="-1.80806">
        <ele>20</ele>
        <time>2018-03-10T04:57:02Z</time>
      </trkpt>
      <trkpt lat="46.74191" lon="-1.80825">
        <ele>20</ele>
        <time>2018-03-10T04:58:02Z</time>
      </trkpt>
      <trkpt lat="46.74185" lon="-1.80851">
        <ele>21</ele>
        <time>2018-03-10T04:59:02Z</time>
      </trkpt>
      <trkpt lat="46.74183" lon="-1.8086">
        <ele>21</ele>
        <time>2018-03-10T05:00:02Z</time>
      </trkpt>
      <trkpt lat="46.74182" lon="-1.80866">
        <ele>21</ele>
        <time>2018-03-10T05:01:02Z</time>
      </trkpt>
      <trkpt lat="46.7417" lon="-1.80911">
        <ele>21</ele>
        <time>2018-03-10T05:02:02Z</time>
      </trkpt>
      <trkpt lat="46.74158" lon="-1.8096">
        <ele>21</ele>
        <time>2018-03-10T05:03:02Z</time>
      </trkpt>
      <trkpt lat="46.74145" lon="-1.81014">
        <ele>21</ele>
        <time>2018-03-10T05:04:02Z</time>
      </trkpt>
      <trkpt lat="46.74133" lon="-1.81068">
        <ele>22</ele>
        <time>2018-03-10T05:05:02Z</time>
      </trkpt>
      <trkpt lat="46.74123" lon="-1.8111">
        <ele>22</ele>
        <time>2018-03-10T05:06:02Z</time>
      </trkpt>
      <trkpt lat="46.74112" lon="-1.8116">
        <ele>22</ele>
        <time>2018-03-10T05:07:02Z</time>
      </trkpt>
      <trkpt lat="46.74099" lon="-1.81217">
        <ele>22</ele>
        <time>2018-03-10T05:08:02Z</time>
      </trkpt>
      <trkpt lat="46.7409" lon="-1.81255">
        <ele>23</ele>
        <time>2018-03-10T05:09:02Z</time>
      </trkpt>
      <trkpt lat="46.74084" lon="-1.8128">
        <ele>23</ele>
        <time>2018-03-10T05:10:02Z</time>
      </trkpt>
      <trkpt lat="46.74078" lon="-1.81305">
        <ele>23</ele>
        <time>2018-03-10T05:11:02Z</time>
      </trkpt>
      <trkpt lat="46.74074" lon="-1.8132">
        <ele>23</ele>
        <time>2018-03-10T05:12:02Z</time>
      </trkpt>
      <trkpt lat="46.74072" lon="-1.81333">
        <ele>23</ele>
        <time>2018-03-10T05:13:02Z</time>
      </trkpt>
      <trkpt lat="46.7407" lon="-1.81348">
        <ele>23</ele>
        <time>2018-03-10T05:14:02Z</time>
      </trkpt>
      <trkpt lat="46.74069" lon="-1.81362">
        <ele>23</ele>
        <time>2018-03-10T05:15:02Z</time>
      </trkpt>
      <trkpt lat="46.74068" lon="-1.81377">
        <ele>23</ele>
        <time>2018-03-10T05:16:02Z</time>
      </trkpt>
      <trkpt lat="46.74068" lon="-1.81396">
        <ele>22</ele>
        <time>2018-03-10T05:17:02Z</time>
      </trkpt>
      <trkpt lat="46.74069" lon="-1.81428">
        <ele>22</ele>
        <time>2018-03-10T05:18:02Z</time>
      </trkpt>
      <trkpt lat="46.74075" lon="-1.8158">
        <ele>21</ele>
        <time>2018-03-10T05:19:02Z</time>
      </trkpt>
      <trkpt lat="46.7408" lon="-1.81702">
        <ele>20</ele>
        <time>2018-03-10T05:20:02Z</time>
      </trkpt>
      <trkpt lat="46.74083" lon="-1.81811">
        <ele>18</ele>
        <time>2018-03-10T05:21:02Z</time>
      </trkpt>
      <trkpt lat="46.74083" lon="-1.81834">
        <ele>18</ele>
        <time>2018-03-10T05:22:02Z</time>
      </trkpt>
      <trkpt lat="46.74084" lon="-1.81849">
        <ele>18</ele>
        <time>2018-03-10T05:23:02Z</time>
      </trkpt>
      <trkpt lat="46.74085" lon="-1.81863">
        <ele>17</ele>
        <time>2018-03-10T05:24:02Z</time>
      </trkpt>
      <trkpt lat="46.74086" lon="-1.81876">
        <ele>17</ele>
        <time>2018-03-10T05:25:02Z</time>
      </trkpt>
      <trkpt lat="46.74089" lon="-1.81896">
        <ele>16</ele>
        <time>2018-03-10T05:26:02Z</time>
      </trkpt>
      <trkpt lat="46.74092" lon="-1.81917">
        <ele>16</ele>
        <time>2018-03-10T05:27:02Z</time>
      </trkpt>
      <trkpt lat="46.74096" lon="-1.81936">
        <ele>16</ele>
        <time>2018-03-10T05:28:02Z</time>
      </trkpt>
      <trkpt lat="46.74099" lon="-1.81956">
        <ele>16</ele>
        <time>2018-03-10T05:29:02Z</time>
      </trkpt>
      <trkpt lat="46.74109" lon="-1.8201">
        <ele>16</ele>
        <time>2018-03-10T05:30:02Z</time>
      </trkpt>
      <trkpt lat="46.74113" lon="-1.82032">
        <ele>16</ele>
        <time>2018-03-10T05:31:02Z</time>
      </trkpt>
      <trkpt lat="46.74115" lon="-1.82049">
        <ele>16</ele>
        <time>2018-03-10T05:32:02Z</time>
      </trkpt>
      <trkpt lat="46.74116" lon="-1.82065">
        <ele>16</ele>
        <time>2018-03-10T05:33:02Z</time>
      </trkpt>
      <trkpt lat="46.74115" lon="-1.82078">
        <ele>16</ele>
        <time>2018-03-10T05:34:02Z</time>
      </trkpt>
      <trkpt lat="46.74114" lon="-1.82089">
        <ele>16</ele>
        <time>2018-03-10T05:35:02Z</time>
      </trkpt>
      <trkpt lat="46.74114" lon="-1.82089">
        <ele>16</ele>
        <time>2018-03-10T05:36:02Z</time>
      </trkpt>
      <trkpt lat="46.74115" lon="-1.8209">
        <ele>16</ele>
        <time>2018-03-10T05:37:02Z</time>
      </trkpt>
      <trkpt lat="46.74116" lon="-1.82091">
        <ele>16</ele>
        <time>2018-03-10T05:38:02Z</time>
      </trkpt>
      <trkpt lat="46.74117" lon="-1.82093">
        <ele>16</ele>
        <time>2018-03-10T05:39:02Z</time>
      </trkpt>
      <trkpt lat="46.74118" lon="-1.82094">
        <ele>16</ele>
        <time>2018-03-10T05:40:02Z</time>
      </trkpt>
      <trkpt lat="46.74118" lon="-1.82096">
        <ele>16</ele>
        <time>2018-03-10T05:41:02Z</time>
      </trkpt>
      <trkpt lat="46.74118" lon="-1.82098">
        <ele>16</ele>
        <time>2018-03-10T05:42:02Z</time>
      </trkpt>
      <trkpt lat="46.74117" lon="-1.82101">
        <ele>16</ele>
        <time>2018-03-10T05:43:02Z</time>
      </trkpt>
      <trkpt lat="46.74117" lon="-1.82102">
        <ele>16</ele>
        <time>2018-03-10T05:44:02Z</time>
      </trkpt>
      <trkpt lat="46.74116" lon="-1.82104">
        <ele>16</ele>
        <time>2018-03-10T05:45:02Z</time>
      </trkpt>
      <trkpt lat="46.74115" lon="-1.82105">
        <ele>16</ele>
        <time>2018-03-10T05:46:02Z</time>
      </trkpt>
      <trkpt lat="46.74114" lon="-1.82106">
        <ele>16</ele>
        <time>2018-03-10T05:47:02Z</time>
      </trkpt>
      <trkpt lat="46.74113" lon="-1.82107">
        <ele>16</ele>
        <time>2018-03-10T05:48:02Z</time>
      </trkpt>
      <trkpt lat="46.74111" lon="-1.82107">
        <ele>16</ele>
        <time>2018-03-10T05:49:02Z</time>
      </trkpt>
      <trkpt lat="46.7411" lon="-1.82106">
        <ele>16</ele>
        <time>2018-03-10T05:50:02Z</time>
      </trkpt>
      <trkpt lat="46.74109" lon="-1.82105">
        <ele>16</ele>
        <time>2018-03-10T05:51:02Z</time>
      </trkpt>
      <trkpt lat="46.74108" lon="-1.82104">
        <ele>16</ele>
        <time>2018-03-10T05:52:02Z</time>
      </trkpt>
      <trkpt lat="46.74107" lon="-1.82102">
        <ele>16</ele>
        <time>2018-03-10T05:53:02Z</time>
      </trkpt>
      <trkpt lat="46.74104" lon="-1.82105">
        <ele>17</ele>
        <time>2018-03-10T05:54:02Z</time>
      </trkpt>
      <trkpt lat="46.74099" lon="-1.82108">
        <ele>17</ele>
        <time>2018-03-10T05:55:02Z</time>
      </trkpt>
      <trkpt lat="46.74094" lon="-1.8211">
        <ele>17</ele>
        <time>2018-03-10T05:56:02Z</time>
      </trkpt>
      <trkpt lat="46.74078" lon="-1.82118">
        <ele>17</ele>
        <time>2018-03-10T05:57:02Z</time>
      </trkpt>
      <trkpt lat="46.74074" lon="-1.82121">
        <ele>17</ele>
        <time>2018-03-10T05:58:02Z</time>
      </trkpt>
      <trkpt lat="46.74057" lon="-1.8213">
        <ele>17</ele>
        <time>2018-03-10T05:59:02Z</time>
      </trkpt>
      <trkpt lat="46.74033" lon="-1.82145">
        <ele>17</ele>
        <time>2018-03-10T06:00:02Z</time>
      </trkpt>
      <trkpt lat="46.74029" lon="-1.82148">
        <ele>17</ele>
        <time>2018-03-10T06:01:02Z</time>
      </trkpt>
      <trkpt lat="46.74019" lon="-1.82154">
        <ele>17</ele>
        <time>2018-03-10T06:02:02Z</time>
      </trkpt>
      <trkpt lat="46.74012" lon="-1.8216">
        <ele>17</ele>
        <time>2018-03-10T06:03:02Z</time>
      </trkpt>
      <trkpt lat="46.74009" lon="-1.82164">
        <ele>17</ele>
        <time>2018-03-10T06:04:02Z</time>
      </trkpt>
      <trkpt lat="46.74007" lon="-1.82171">
        <ele>17</ele>
        <time>2018-03-10T06:05:02Z</time>
      </trkpt>
      <trkpt lat="46.73997" lon="-1.82214">
        <ele>16</ele>
        <time>2018-03-10T06:06:02Z</time>
      </trkpt>
      <trkpt lat="46.73986" lon="-1.82257">
        <ele>16</ele>
        <time>2018-03-10T06:07:02Z</time>
      </trkpt>
      <trkpt lat="46.73982" lon="-1.82273">
        <ele>15</ele>
        <time>2018-03-10T06:08:02Z</time>
      </trkpt>
      <trkpt lat="46.73978" lon="-1.82285">
        <ele>15</ele>
        <time>2018-03-10T06:09:02Z</time>
      </trkpt>
      <trkpt lat="46.73974" lon="-1.82298">
        <ele>15</ele>
        <time>2018-03-10T06:10:02Z</time>
      </trkpt>
      <trkpt lat="46.73972" lon="-1.82302">
        <ele>15</ele>
        <time>2018-03-10T06:11:02Z</time>
      </trkpt>
      <trkpt lat="46.73971" lon="-1.82307">
        <ele>15</ele>
        <time>2018-03-10T06:12:02Z</time>
      </trkpt>
      <trkpt lat="46.7397" lon="-1.82309">
        <ele>15</ele>
        <time>2018-03-10T06:13:02Z</time>
      </trkpt>
      <trkpt lat="46.73968" lon="-1.82314">
        <ele>15</ele>
        <time>2018-03-10T06:14:02Z</time>
      </trkpt>
      <trkpt lat="46.73966" lon="-1.82319">
        <ele>14</ele>
        <time>2018-03-10T06:15:02Z</time>
      </trkpt>
      <trkpt lat="46.73964" lon="-1.82325">
        <ele>14</ele>
        <time>2018-03-10T06:16:02Z</time>
      </trkpt>
      <trkpt lat="46.73964" lon="-1.82325">
        <ele>14</ele>
        <time>2018-03-10T06:17:02Z</time>
      </trkpt>
      <trkpt lat="46.73964" lon="-1.82326">
        <ele>14</ele>
        <time>2018-03-10T06:18:02Z</time>
      </trkpt>
      <trkpt lat="46.73964" lon="-1.82329">
        <ele>14</ele>
        <time>2018-03-10T06:19:02Z</time>
      </trkpt>
      <trkpt lat="46.73964" lon="-1.82332">
        <ele>14</ele>
        <time>2018-03-10T06:20:02Z</time>
      </trkpt>
      <trkpt lat="46.73963" lon="-1.82335">
        <ele>14</ele>
        <time>2018-03-10T06:21:02Z</time>
      </trkpt>
      <trkpt lat="46.73962" lon="-1.82337">
        <ele>14</ele>
        <time>2018-03-10T06:22:02Z</time>
      </trkpt>
      <trkpt lat="46.73961" lon="-1.82339">
        <ele>14</ele>
        <time>2018-03-10T06:23:02Z</time>
      </trkpt>
      <trkpt lat="46.73959" lon="-1.8234">
        <ele>14</ele>
        <time>2018-03-10T06:24:02Z</time>
      </trkpt>
      <trkpt lat="46.73959" lon="-1.8235">
        <ele>14</ele>
        <time>2018-03-10T06:25:02Z</time>
      </trkpt>
      <trkpt lat="46.73958" lon="-1.82361">
        <ele>14</ele>
        <time>2018-03-10T06:26:02Z</time>
      </trkpt>
      <trkpt lat="46.73955" lon="-1.82374">
        <ele>13</ele>
        <time>2018-03-10T06:27:02Z</time>
      </trkpt>
      <trkpt lat="46.73951" lon="-1.82393">
        <ele>13</ele>
        <time>2018-03-10T06:28:02Z</time>
      </trkpt>
      <trkpt lat="46.73945" lon="-1.82415">
        <ele>13</ele>
        <time>2018-03-10T06:29:02Z</time>
      </trkpt>
      <trkpt lat="46.73936" lon="-1.82451">
        <ele>12</ele>
        <time>2018-03-10T06:30:02Z</time>
      </trkpt>
      <trkpt lat="46.73926" lon="-1.82489">
        <ele>11</ele>
        <time>2018-03-10T06:31:02Z</time>
      </trkpt>
      <trkpt lat="46.73911" lon="-1.82546">
        <ele>10</ele>
        <time>2018-03-10T06:32:02Z</time>
      </trkpt>
      <trkpt lat="46.73903" lon="-1.82577">
        <ele>9</ele>
        <time>2018-03-10T06:33:02Z</time>
      </trkpt>
      <trkpt lat="46.73897" lon="-1.82601">
        <ele>9</ele>
        <time>2018-03-10T06:34:02Z</time>
      </trkpt>
      <trkpt lat="46.73889" lon="-1.82629">
        <ele>10</ele>
        <time>2018-03-10T06:35:02Z</time>
      </trkpt>
      <trkpt lat="46.73878" lon="-1.82674">
        <ele>11</ele>
        <time>2018-03-10T06:36:02Z</time>
      </trkpt>
      <trkpt lat="46.7386" lon="-1.82741">
        <ele>12</ele>
        <time>2018-03-10T06:37:02Z</time>
      </trkpt>
      <trkpt lat="46.73848" lon="-1.82786">
        <ele>14</ele>
        <time>2018-03-10T06:38:02Z</time>
      </trkpt>
      <trkpt lat="46.73847" lon="-1.82788">
        <ele>14</ele>
        <time>2018-03-10T06:39:02Z</time>
      </trkpt>
      <trkpt lat="46.73839" lon="-1.82823">
        <ele>16</ele>
        <time>2018-03-10T06:40:02Z</time>
      </trkpt>
      <trkpt lat="46.73835" lon="-1.82839">
        <ele>16</ele>
        <time>2018-03-10T06:41:02Z</time>
      </trkpt>
      <trkpt lat="46.7383" lon="-1.82855">
        <ele>16</ele>
        <time>2018-03-10T06:42:02Z</time>
      </trkpt>
      <trkpt lat="46.73826" lon="-1.82869">
        <ele>17</ele>
        <time>2018-03-10T06:43:02Z</time>
      </trkpt>
      <trkpt lat="46.73822" lon="-1.82882">
        <ele>17</ele>
        <time>2018-03-10T06:44:02Z</time>
      </trkpt>
      <trkpt lat="46.73818" lon="-1.82893">
        <ele>17</ele>
        <time>2018-03-10T06:45:02Z</time>
      </trkpt>
      <trkpt lat="46.73814" lon="-1.82901">
        <ele>17</ele>
        <time>2018-03-10T06:46:02Z</time>
      </trkpt>
      <trkpt lat="46.73807" lon="-1.82914">
        <ele>17</ele>
        <time>2018-03-10T06:47:02Z</time>
      </trkpt>
      <trkpt lat="46.73799" lon="-1.82926">
        <ele>17</ele>
        <time>2018-03-10T06:48:02Z</time>
      </trkpt>
      <trkpt lat="46.73788" lon="-1.82939">
        <ele>18</ele>
        <time>2018-03-10T06:49:02Z</time>
      </trkpt>
      <trkpt lat="46.73776" lon="-1.82951">
        <ele>18</ele>
        <time>2018-03-10T06:50:02Z</time>
      </trkpt>
      <trkpt lat="46.73751" lon="-1.82972">
        <ele>19</ele>
        <time>2018-03-10T06:51:02Z</time>
      </trkpt>
      <trkpt lat="46.73715" lon="-1.83">
        <ele>20</ele>
        <time>2018-03-10T06:52:02Z</time>
      </trkpt>
      <trkpt lat="46.73676" lon="-1.83028">
        <ele>21</ele>
        <time>2018-03-10T06:53:02Z</time>
      </trkpt>
      <trkpt lat="46.73658" lon="-1.8304">
        <ele>21</ele>
        <time>2018-03-10T06:54:02Z</time>
      </trkpt>
      <trkpt lat="46.73647" lon="-1.83048">
        <ele>21</ele>
        <time>2018-03-10T06:55:02Z</time>
      </trkpt>
      <trkpt lat="46.73637" lon="-1.83058">
        <ele>21</ele>
        <time>2018-03-10T06:56:02Z</time>
      </trkpt>
      <trkpt lat="46.73632" lon="-1.83063">
        <ele>21</ele>
        <time>2018-03-10T06:57:02Z</time>
      </trkpt>
      <trkpt lat="46.73629" lon="-1.83067">
        <ele>21</ele>
        <time>2018-03-10T06:58:02Z</time>
      </trkpt>
      <trkpt lat="46.73622" lon="-1.83077">
        <ele>21</ele>
        <time>2018-03-10T06:59:02Z</time>
      </trkpt>
      <trkpt lat="46.73615" lon="-1.83087">
        <ele>20</ele>
        <time>2018-03-10T07:00:02Z</time>
      </trkpt>
      <trkpt lat="46.7361" lon="-1.83097">
        <ele>20</ele>
        <time>2018-03-10T07:01:02Z</time>
      </trkpt>
      <trkpt lat="46.73608" lon="-1.83101">
        <ele>20</ele>
        <time>2018-03-10T07:02:02Z</time>
      </trkpt>
      <trkpt lat="46.73603" lon="-1.83115">
        <ele>20</ele>
        <time>2018-03-10T07:03:02Z</time>
      </trkpt>
      <trkpt lat="46.73597" lon="-1.8313">
        <ele>20</ele>
        <time>2018-03-10T07:04:02Z</time>
      </trkpt>
      <trkpt lat="46.73594" lon="-1.83142">
        <ele>20</ele>
        <time>2018-03-10T07:05:02Z</time>
      </trkpt>
      <trkpt lat="46.73591" lon="-1.83152">
        <ele>20</ele>
        <time>2018-03-10T07:06:02Z</time>
      </trkpt>
      <trkpt lat="46.73586" lon="-1.83173">
        <ele>20</ele>
        <time>2018-03-10T07:07:02Z</time>
      </trkpt>
      <trkpt lat="46.73579" lon="-1.83201">
        <ele>20</ele>
        <time>2018-03-10T07:08:02Z</time>
      </trkpt>
      <trkpt lat="46.73578" lon="-1.83204">
        <ele>20</ele>
        <time>2018-03-10T07:09:02Z</time>
      </trkpt>
      <trkpt lat="46.73568" lon="-1.83245">
        <ele>21</ele>
        <time>2018-03-10T07:10:02Z</time>
      </trkpt>
      <trkpt lat="46.73563" lon="-1.83266">
        <ele>21</ele>
        <time>2018-03-10T07:11:02Z</time>
      </trkpt>
      <trkpt lat="46.7356" lon="-1.83276">
        <ele>21</ele>
        <time>2018-03-10T07:12:02Z</time>
      </trkpt>
      <trkpt lat="46.73559" lon="-1.83282">
        <ele>21</ele>
        <time>2018-03-10T07:13:02Z</time>
      </trkpt>
      <trkpt lat="46.73554" lon="-1.83296">
        <ele>21</ele>
        <time>2018-03-10T07:14:02Z</time>
      </trkpt>
      <trkpt lat="46.73548" lon="-1.83311">
        <ele>21</ele>
        <time>2018-03-10T07:15:02Z</time>
      </trkpt>
      <trkpt lat="46.7354" lon="-1.83328">
        <ele>21</ele>
        <time>2018-03-10T07:16:02Z</time>
      </trkpt>
      <trkpt lat="46.73532" lon="-1.83342">
        <ele>21</ele>
        <time>2018-03-10T07:17:02Z</time>
      </trkpt>
      <trkpt lat="46.73522" lon="-1.83358">
        <ele>21</ele>
        <time>2018-03-10T07:18:02Z</time>
      </trkpt>
      <trkpt lat="46.73478" lon="-1.83413">
        <ele>22</ele>
        <time>2018-03-10T07:19:02Z</time>
      </trkpt>
      <trkpt lat="46.73451" lon="-1.83447">
        <ele>22</ele>
        <time>2018-03-10T07:20:02Z</time>
      </trkpt>
      <trkpt lat="46.73438" lon="-1.83464">
        <ele>22</ele>
        <time>2018-03-10T07:21:02Z</time>
      </trkpt>
      <trkpt lat="46.73428" lon="-1.83479">
        <ele>22</ele>
        <time>2018-03-10T07:22:02Z</time>
      </trkpt>
      <trkpt lat="46.73422" lon="-1.83491">
        <ele>22</ele>
        <time>2018-03-10T07:23:02Z</time>
      </trkpt>
      <trkpt lat="46.73419" lon="-1.83496">
        <ele>22</ele>
        <time>2018-03-10T07:24:02Z</time>
      </trkpt>
      <trkpt lat="46.73413" lon="-1.83508">
        <ele>22</ele>
        <time>2018-03-10T07:25:02Z</time>
      </trkpt>
      <trkpt lat="46.73408" lon="-1.83521">
        <ele>22</ele>
        <time>2018-03-10T07:26:02Z</time>
      </trkpt>
      <trkpt lat="46.73404" lon="-1.83535">
        <ele>22</ele>
        <time>2018-03-10T07:27:02Z</time>
      </trkpt>
      <trkpt lat="46.73398" lon="-1.83555">
        <ele>21</ele>
        <time>2018-03-10T07:28:02Z</time>
      </trkpt>
      <trkpt lat="46.73395" lon="-1.83571">
        <ele>21</ele>
        <time>2018-03-10T07:29:02Z</time>
      </trkpt>
      <trkpt lat="46.73391" lon="-1.83594">
        <ele>21</ele>
        <time>2018-03-10T07:30:02Z</time>
      </trkpt>
      <trkpt lat="46.73391" lon="-1.83596">
        <ele>21</ele>
        <time>2018-03-10T07:31:02Z</time>
      </trkpt>
      <trkpt lat="46.73388" lon="-1.83618">
        <ele>21</ele>
        <time>2018-03-10T07:32:02Z</time>
      </trkpt>
      <trkpt lat="46.73387" lon="-1.83626">
        <ele>21</ele>
        <time>2018-03-10T07:33:02Z</time>
      </trkpt>
      <trkpt lat="46.73382" lon="-1.83667">
        <ele>21</ele>
        <time>2018-03-10T07:34:02Z</time>
      </trkpt>
      <trkpt lat="46.73375" lon="-1.8372">
        <ele>20</ele>
        <time>2018-03-10T07:35:02Z</time>
      </trkpt>
      <trkpt lat="46.73374" lon="-1.83726">
        <ele>20</ele>
        <time>2018-03-10T07:36:02Z</time>
      </trkpt>
      <trkpt lat="46.73368" lon="-1.83778">
        <ele>20</ele>
        <time>2018-03-10T07:37:02Z</time>
      </trkpt>
      <trkpt lat="46.73364" lon="-1.83811">
        <ele>20</ele>
        <time>2018-03-10T07:38:02Z</time>
      </trkpt>
      <trkpt lat="46.73361" lon="-1.83842">
        <ele>20</ele>
        <time>2018-03-10T07:39:02Z</time>
      </trkpt>
      <trkpt lat="46.7336" lon="-1.83867">
        <ele>20</ele>
        <time>2018-03-10T07:40:02Z</time>
      </trkpt>
      <trkpt lat="46.73359" lon="-1.8389">
        <ele>20</ele>
        <time>2018-03-10T07:41:02Z</time>
      </trkpt>
      <trkpt lat="46.73359" lon="-1.83933">
        <ele>20</ele>
        <time>2018-03-10T07:42:02Z</time>
      </trkpt>
      <trkpt lat="46.7336" lon="-1.83992">
        <ele>20</ele>
        <time>2018-03-10T07:43:02Z</time>
      </trkpt>
      <trkpt lat="46.73361" lon="-1.84068">
        <ele>21</ele>
        <time>2018-03-10T07:44:02Z</time>
      </trkpt>
      <trkpt lat="46.73362" lon="-1.84127">
        <ele>21</ele>
        <time>2018-03-10T07:45:02Z</time>
      </trkpt>
      <trkpt lat="46.73363" lon="-1.84201">
        <ele>21</ele>
        <time>2018-03-10T07:46:02Z</time>
      </trkpt>
      <trkpt lat="46.73363" lon="-1.84237">
        <ele>21</ele>
        <time>2018-03-10T07:47:02Z</time>
      </trkpt>
      <trkpt lat="46.73363" lon="-1.84257">
        <ele>21</ele>
        <time>2018-03-10T07:48:02Z</time>
      </trkpt>
      <trkpt lat="46.73363" lon="-1.8428">
        <ele>21</ele>
        <time>2018-03-10T07:49:02Z</time>
      </trkpt>
      <trkpt lat="46.73363" lon="-1.84294">
        <ele>20</ele>
        <time>2018-03-10T07:50:02Z</time>
      </trkpt>
      <trkpt lat="46.73362" lon="-1.8431">
        <ele>20</ele>
        <time>2018-03-10T07:51:02Z</time>
      </trkpt>
      <trkpt lat="46.73362" lon="-1.84325">
        <ele>20</ele>
        <time>2018-03-10T07:52:02Z</time>
      </trkpt>
      <trkpt lat="46.7336" lon="-1.84337">
        <ele>20</ele>
        <time>2018-03-10T07:53:02Z</time>
      </trkpt>
      <trkpt lat="46.73358" lon="-1.84353">
        <ele>20</ele>
        <time>2018-03-10T07:54:02Z</time>
      </trkpt>
      <trkpt lat="46.73356" lon="-1.84369">
        <ele>20</ele>
        <time>2018-03-10T07:55:02Z</time>
      </trkpt>
      <trkpt lat="46.73351" lon="-1.84399">
        <ele>19</ele>
        <time>2018-03-10T07:56:02Z</time>
      </trkpt>
      <trkpt lat="46.73346" lon="-1.84431">
        <ele>19</ele>
        <time>2018-03-10T07:57:02Z</time>
      </trkpt>
      <trkpt lat="46.73337" lon="-1.84483">
        <ele>20</ele>
        <time>2018-03-10T07:58:02Z</time>
      </trkpt>
      <trkpt lat="46.73324" lon="-1.84555">
        <ele>21</ele>
        <time>2018-03-10T07:59:02Z</time>
      </trkpt>
      <trkpt lat="46.73311" lon="-1.84629">
        <ele>21</ele>
        <time>2018-03-10T08:00:02Z</time>
      </trkpt>
      <trkpt lat="46.73306" lon="-1.84653">
        <ele>20</ele>
        <time>2018-03-10T08:01:02Z</time>
      </trkpt>
      <trkpt lat="46.73301" lon="-1.84673">
        <ele>20</ele>
        <time>2018-03-10T08:02:02Z</time>
      </trkpt>
      <trkpt lat="46.73296" lon="-1.84697">
        <ele>20</ele>
        <time>2018-03-10T08:03:02Z</time>
      </trkpt>
      <trkpt lat="46.7329" lon="-1.84716">
        <ele>19</ele>
        <time>2018-03-10T08:04:02Z</time>
      </trkpt>
      <trkpt lat="46.73281" lon="-1.84742">
        <ele>19</ele>
        <time>2018-03-10T08:05:02Z</time>
      </trkpt>
      <trkpt lat="46.73257" lon="-1.84813">
        <ele>20</ele>
        <time>2018-03-10T08:06:02Z</time>
      </trkpt>
      <trkpt lat="46.73232" lon="-1.84885">
        <ele>20</ele>
        <time>2018-03-10T08:07:02Z</time>
      </trkpt>
      <trkpt lat="46.73206" lon="-1.8496">
        <ele>19</ele>
        <time>2018-03-10T08:08:02Z</time>
      </trkpt>
      <trkpt lat="46.73182" lon="-1.85028">
        <ele>19</ele>
        <time>2018-03-10T08:09:02Z</time>
      </trkpt>
      <trkpt lat="46.73165" lon="-1.85077">
        <ele>18</ele>
        <time>2018-03-10T08:10:02Z</time>
      </trkpt>
      <trkpt lat="46.73153" lon="-1.85112">
        <ele>18</ele>
        <time>2018-03-10T08:11:02Z</time>
      </trkpt>
      <trkpt lat="46.73125" lon="-1.85192">
        <ele>17</ele>
        <time>2018-03-10T08:12:02Z</time>
      </trkpt>
      <trkpt lat="46.73106" lon="-1.85246">
        <ele>14</ele>
        <time>2018-03-10T08:13:02Z</time>
      </trkpt>
      <trkpt lat="46.73094" lon="-1.8528">
        <ele>13</ele>
        <time>2018-03-10T08:14:02Z</time>
      </trkpt>
      <trkpt lat="46.73076" lon="-1.85329">
        <ele>11</ele>
        <time>2018-03-10T08:15:02Z</time>
      </trkpt>
      <trkpt lat="46.73066" lon="-1.85362">
        <ele>11</ele>
        <time>2018-03-10T08:16:02Z</time>
      </trkpt>
      <trkpt lat="46.73059" lon="-1.85384">
        <ele>11</ele>
        <time>2018-03-10T08:17:02Z</time>
      </trkpt>
      <trkpt lat="46.73056" lon="-1.85399">
        <ele>11</ele>
        <time>2018-03-10T08:18:02Z</time>
      </trkpt>
      <trkpt lat="46.73054" lon="-1.85413">
        <ele>11</ele>
        <time>2018-03-10T08:19:02Z</time>
      </trkpt>
      <trkpt lat="46.73053" lon="-1.85427">
        <ele>11</ele>
        <time>2018-03-10T08:20:02Z</time>
      </trkpt>
      <trkpt lat="46.73051" lon="-1.85439">
        <ele>11</ele>
        <time>2018-03-10T08:21:02Z</time>
      </trkpt>
      <trkpt lat="46.73051" lon="-1.85456">
        <ele>12</ele>
        <time>2018-03-10T08:22:02Z</time>
      </trkpt>
      <trkpt lat="46.7305" lon="-1.85471">
        <ele>12</ele>
        <time>2018-03-10T08:23:02Z</time>
      </trkpt>
      <trkpt lat="46.73051" lon="-1.85486">
        <ele>12</ele>
        <time>2018-03-10T08:24:02Z</time>
      </trkpt>
      <trkpt lat="46.73051" lon="-1.85501">
        <ele>12</ele>
        <time>2018-03-10T08:25:02Z</time>
      </trkpt>
      <trkpt lat="46.73053" lon="-1.85515">
        <ele>12</ele>
        <time>2018-03-10T08:26:02Z</time>
      </trkpt>
      <trkpt lat="46.73055" lon="-1.85538">
        <ele>12</ele>
        <time>2018-03-10T08:27:02Z</time>
      </trkpt>
      <trkpt lat="46.73056" lon="-1.85546">
        <ele>12</ele>
        <time>2018-03-10T08:28:02Z</time>
      </trkpt>
      <trkpt lat="46.7306" lon="-1.85579">
        <ele>12</ele>
        <time>2018-03-10T08:29:02Z</time>
      </trkpt>
      <trkpt lat="46.73061" lon="-1.85588">
        <ele>12</ele>
        <time>2018-03-10T08:30:02Z</time>
      </trkpt>
      <trkpt lat="46.73067" lon="-1.85628">
        <ele>12</ele>
        <time>2018-03-10T08:31:02Z</time>
      </trkpt>
      <trkpt lat="46.73071" lon="-1.85665">
        <ele>11</ele>
        <time>2018-03-10T08:32:02Z</time>
      </trkpt>
      <trkpt lat="46.73075" lon="-1.85694">
        <ele>12</ele>
        <time>2018-03-10T08:33:02Z</time>
      </trkpt>
      <trkpt lat="46.73079" lon="-1.85723">
        <ele>12</ele>
        <time>2018-03-10T08:34:02Z</time>
      </trkpt>
      <trkpt lat="46.73081" lon="-1.85738">
        <ele>12</ele>
        <time>2018-03-10T08:35:02Z</time>
      </trkpt>
      <trkpt lat="46.73084" lon="-1.85756">
        <ele>12</ele>
        <time>2018-03-10T08:36:02Z</time>
      </trkpt>
      <trkpt lat="46.73087" lon="-1.85769">
        <ele>12</ele>
        <time>2018-03-10T08:37:02Z</time>
      </trkpt>
      <trkpt lat="46.7309" lon="-1.85791">
        <ele>11</ele>
        <time>2018-03-10T08:38:02Z</time>
      </trkpt>
      <trkpt lat="46.73101" lon="-1.85837">
        <ele>10</ele>
        <time>2018-03-10T08:39:02Z</time>
      </trkpt>
      <trkpt lat="46.73119" lon="-1.85908">
        <ele>10</ele>
        <time>2018-03-10T08:40:02Z</time>
      </trkpt>
      <trkpt lat="46.73131" lon="-1.85958">
        <ele>10</ele>
        <time>2018-03-10T08:41:02Z</time>
      </trkpt>
      <trkpt lat="46.73136" lon="-1.85988">
        <ele>11</ele>
        <time>2018-03-10T08:42:02Z</time>
      </trkpt>
      <trkpt lat="46.73139" lon="-1.86009">
        <ele>11</ele>
        <time>2018-03-10T08:43:02Z</time>
      </trkpt>
      <trkpt lat="46.73141" lon="-1.8603">
        <ele>11</ele>
        <time>2018-03-10T08:44:02Z</time>
      </trkpt>
      <trkpt lat="46.73142" lon="-1.86052">
        <ele>11</ele>
        <time>2018-03-10T08:45:02Z</time>
      </trkpt>
      <trkpt lat="46.73142" lon="-1.86074">
        <ele>11</ele>
        <time>2018-03-10T08:46:02Z</time>
      </trkpt>
      <trkpt lat="46.73142" lon="-1.86101">
        <ele>11</ele>
        <time>2018-03-10T08:47:02Z</time>
      </trkpt>
      <trkpt lat="46.73141" lon="-1.86123">
        <ele>11</ele>
        <time>2018-03-10T08:48:02Z</time>
      </trkpt>
      <trkpt lat="46.7314" lon="-1.86155">
        <ele>11</ele>
        <time>2018-03-10T08:49:02Z</time>
      </trkpt>
      <trkpt lat="46.73137" lon="-1.86284">
        <ele>10</ele>
        <time>2018-03-10T08:50:02Z</time>
      </trkpt>
      <trkpt lat="46.73136" lon="-1.86309">
        <ele>10</ele>
        <time>2018-03-10T08:51:02Z</time>
      </trkpt>
      <trkpt lat="46.73134" lon="-1.86386">
        <ele>9</ele>
        <time>2018-03-10T08:52:02Z</time>
      </trkpt>
      <trkpt lat="46.73133" lon="-1.86467">
        <ele>10</ele>
        <time>2018-03-10T08:53:02Z</time>
      </trkpt>
      <trkpt lat="46.73133" lon="-1.86486">
        <ele>10</ele>
        <time>2018-03-10T08:54:02Z</time>
      </trkpt>
      <trkpt lat="46.73133" lon="-1.8651">
        <ele>10</ele>
        <time>2018-03-10T08:55:02Z</time>
      </trkpt>
      <trkpt lat="46.73133" lon="-1.86528">
        <ele>11</ele>
        <time>2018-03-10T08:56:02Z</time>
      </trkpt>
      <trkpt lat="46.73135" lon="-1.86543">
        <ele>11</ele>
        <time>2018-03-10T08:57:02Z</time>
      </trkpt>
      <trkpt lat="46.73136" lon="-1.86555">
        <ele>11</ele>
        <time>2018-03-10T08:58:02Z</time>
      </trkpt>
      <trkpt lat="46.73139" lon="-1.86573">
        <ele>11</ele>
        <time>2018-03-10T08:59:02Z</time>
      </trkpt>
      <trkpt lat="46.73145" lon="-1.86608">
        <ele>10</ele>
        <time>2018-03-10T09:00:02Z</time>
      </trkpt>
      <trkpt lat="46.73154" lon="-1.86672">
        <ele>8</ele>
        <time>2018-03-10T09:01:02Z</time>
      </trkpt>
      <trkpt lat="46.73162" lon="-1.86716">
        <ele>7</ele>
        <time>2018-03-10T09:02:02Z</time>
      </trkpt>
      <trkpt lat="46.73167" lon="-1.86748">
        <ele>6</ele>
        <time>2018-03-10T09:03:02Z</time>
      </trkpt>
      <trkpt lat="46.7318" lon="-1.86831">
        <ele>7</ele>
        <time>2018-03-10T09:04:02Z</time>
      </trkpt>
      <trkpt lat="46.73191" lon="-1.86902">
        <ele>8</ele>
        <time>2018-03-10T09:05:02Z</time>
      </trkpt>
      <trkpt lat="46.73198" lon="-1.86945">
        <ele>8</ele>
        <time>2018-03-10T09:06:02Z</time>
      </trkpt>
      <trkpt lat="46.73202" lon="-1.86972">
        <ele>9</ele>
        <time>2018-03-10T09:07:02Z</time>
      </trkpt>
      <trkpt lat="46.73203" lon="-1.86984">
        <ele>9</ele>
        <time>2018-03-10T09:08:02Z</time>
      </trkpt>
      <trkpt lat="46.73204" lon="-1.87006">
        <ele>10</ele>
        <time>2018-03-10T09:09:02Z</time>
      </trkpt>
      <trkpt lat="46.73206" lon="-1.87034">
        <ele>10</ele>
        <time>2018-03-10T09:10:02Z</time>
      </trkpt>
      <trkpt lat="46.73208" lon="-1.87069">
        <ele>10</ele>
        <time>2018-03-10T09:11:02Z</time>
      </trkpt>
      <trkpt lat="46.7321" lon="-1.871">
        <ele>11</ele>
        <time>2018-03-10T09:12:02Z</time>
      </trkpt>
      <trkpt lat="46.73211" lon="-1.87109">
        <ele>11</ele>
        <time>2018-03-10T09:13:02Z</time>
      </trkpt>
      <trkpt lat="46.73212" lon="-1.87121">
        <ele>11</ele>
        <time>2018-03-10T09:14:02Z</time>
      </trkpt>
      <trkpt lat="46.73213" lon="-1.87129">
        <ele>11</ele>
        <time>2018-03-10T09:15:02Z</time>
      </trkpt>
      <trkpt lat="46.73214" lon="-1.87142">
        <ele>11</ele>
        <time>2018-03-10T09:16:02Z</time>
      </trkpt>
      <trkpt lat="46.73213" lon="-1.87152">
        <ele>11</ele>
        <time>2018-03-10T09:17:02Z</time>
      </trkpt>
      <trkpt lat="46.73213" lon="-1.87152">
        <ele>11</ele>
        <time>2018-03-10T09:18:02Z</time>
      </trkpt>
      <trkpt lat="46.73214" lon="-1.87152">
        <ele>11</ele>
        <time>2018-03-10T09:19:02Z</time>
      </trkpt>
      <trkpt lat="46.73214" lon="-1.87153">
        <ele>11</ele>
        <time>2018-03-10T09:20:02Z</time>
      </trkpt>
      <trkpt lat="46.73215" lon="-1.87154">
        <ele>11</ele>
        <time>2018-03-10T09:21:02Z</time>
      </trkpt>
      <trkpt lat="46.73215" lon="-1.87155">
        <ele>11</ele>
        <time>2018-03-10T09:22:02Z</time>
      </trkpt>
      <trkpt lat="46.73216" lon="-1.87156">
        <ele>11</ele>
        <time>2018-03-10T09:23:02Z</time>
      </trkpt>
      <trkpt lat="46.73216" lon="-1.87157">
        <ele>11</ele>
        <time>2018-03-10T09:24:02Z</time>
      </trkpt>
      <trkpt lat="46.73217" lon="-1.87158">
        <ele>11</ele>
        <time>2018-03-10T09:25:02Z</time>
      </trkpt>
      <trkpt lat="46.73217" lon="-1.87159">
        <ele>11</ele>
        <time>2018-03-10T09:26:02Z</time>
      </trkpt>
      <trkpt lat="46.73218" lon="-1.87162">
        <ele>11</ele>
        <time>2018-03-10T09:27:02Z</time>
      </trkpt>
      <trkpt lat="46.73219" lon="-1.87165">
        <ele>11</ele>
        <time>2018-03-10T09:28:02Z</time>
      </trkpt>
      <trkpt lat="46.7322" lon="-1.87168">
        <ele>11</ele>
        <time>2018-03-10T09:29:02Z</time>
      </trkpt>
      <trkpt lat="46.7322" lon="-1.87171">
        <ele>11</ele>
        <time>2018-03-10T09:30:02Z</time>
      </trkpt>
      <trkpt lat="46.7322" lon="-1.87174">
        <ele>11</ele>
        <time>2018-03-10T09:31:02Z</time>
      </trkpt>
      <trkpt lat="46.7322" lon="-1.87177">
        <ele>11</ele>
        <time>2018-03-10T09:32:02Z</time>
      </trkpt>
      <trkpt lat="46.7322" lon="-1.8718">
        <ele>11</ele>
        <time>2018-03-10T09:33:02Z</time>
      </trkpt>
      <trkpt lat="46.7322" lon="-1.87183">
        <ele>11</ele>
        <time>2018-03-10T09:34:02Z</time>
      </trkpt>
      <trkpt lat="46.73218" lon="-1.87188">
        <ele>11</ele>
        <time>2018-03-10T09:35:02Z</time>
      </trkpt>
      <trkpt lat="46.73217" lon="-1.87191">
        <ele>11</ele>
        <time>2018-03-10T09:36:02Z</time>
      </trkpt>
      <trkpt lat="46.73215" lon="-1.87193">
        <ele>11</ele>
        <time>2018-03-10T09:37:02Z</time>
      </trkpt>
      <trkpt lat="46.73214" lon="-1.87195">
        <ele>11</ele>
        <time>2018-03-10T09:38:02Z</time>
      </trkpt>
      <trkpt lat="46.73212" lon="-1.87197">
        <ele>11</ele>
        <time>2018-03-10T09:39:02Z</time>
      </trkpt>
      <trkpt lat="46.7321" lon="-1.87198">
        <ele>11</ele>
        <time>2018-03-10T09:40:02Z</time>
      </trkpt>
      <trkpt lat="46.73209" lon="-1.872">
        <ele>11</ele>
        <time>2018-03-10T09:41:02Z</time>
      </trkpt>
      <trkpt lat="46.73207" lon="-1.87201">
        <ele>11</ele>
        <time>2018-03-10T09:42:02Z</time>
      </trkpt>
      <trkpt lat="46.73205" lon="-1.87202">
        <ele>11</ele>
        <time>2018-03-10T09:43:02Z</time>
      </trkpt>
      <trkpt lat="46.73201" lon="-1.87202">
        <ele>12</ele>
        <time>2018-03-10T09:44:02Z</time>
      </trkpt>
      <trkpt lat="46.73198" lon="-1.87205">
        <ele>12</ele>
        <time>2018-03-10T09:45:02Z</time>
      </trkpt>
      <trkpt lat="46.73196" lon="-1.8721">
        <ele>12</ele>
        <time>2018-03-10T09:46:02Z</time>
      </trkpt>
      <trkpt lat="46.73193" lon="-1.87216">
        <ele>12</ele>
        <time>2018-03-10T09:47:02Z</time>
      </trkpt>
      <trkpt lat="46.7319" lon="-1.87223">
        <ele>12</ele>
        <time>2018-03-10T09:48:02Z</time>
      </trkpt>
      <trkpt lat="46.73187" lon="-1.87232">
        <ele>12</ele>
        <time>2018-03-10T09:49:02Z</time>
      </trkpt>
      <trkpt lat="46.73181" lon="-1.87246">
        <ele>12</ele>
        <time>2018-03-10T09:50:02Z</time>
      </trkpt>
      <trkpt lat="46.73176" lon="-1.87254">
        <ele>12</ele>
        <time>2018-03-10T09:51:02Z</time>
      </trkpt>
      <trkpt lat="46.73159" lon="-1.87307">
        <ele>12</ele>
        <time>2018-03-10T09:52:02Z</time>
      </trkpt>
      <trkpt lat="46.73132" lon="-1.87393">
        <ele>12</ele>
        <time>2018-03-10T09:53:02Z</time>
      </trkpt>
      <trkpt lat="46.73092" lon="-1.87524">
        <ele>11</ele>
        <time>2018-03-10T09:54:02Z</time>
      </trkpt>
      <trkpt lat="46.73084" lon="-1.87547">
        <ele>11</ele>
        <time>2018-03-10T09:55:02Z</time>
      </trkpt>
      <trkpt lat="46.73071" lon="-1.87591">
        <ele>11</ele>
        <time>2018-03-10T09:56:02Z</time>
      </trkpt>
      <trkpt lat="46.73069" lon="-1.87597">
        <ele>11</ele>
        <time>2018-03-10T09:57:02Z</time>
      </trkpt>
      <trkpt lat="46.73065" lon="-1.87612">
        <ele>11</ele>
        <time>2018-03-10T09:58:02Z</time>
      </trkpt>
      <trkpt lat="46.73054" lon="-1.87646">
        <ele>11</ele>
        <time>2018-03-10T09:59:02Z</time>
      </trkpt>
      <trkpt lat="46.73053" lon="-1.87652">
        <ele>11</ele>
        <time>2018-03-10T10:00:02Z</time>
      </trkpt>
      <trkpt lat="46.73035" lon="-1.87711">
        <ele>11</ele>
        <time>2018-03-10T10:01:02Z</time>
      </trkpt>
      <trkpt lat="46.73029" lon="-1.87731">
        <ele>11</ele>
        <time>2018-03-10T10:02:02Z</time>
      </trkpt>
      <trkpt lat="46.73023" lon="-1.87749">
        <ele>11</ele>
        <time>2018-03-10T10:03:02Z</time>
      </trkpt>
      <trkpt lat="46.73014" lon="-1.87779">
        <ele>11</ele>
        <time>2018-03-10T10:04:02Z</time>
      </trkpt>
      <trkpt lat="46.73004" lon="-1.87808">
        <ele>11</ele>
        <time>2018-03-10T10:05:02Z</time>
      </trkpt>
      <trkpt lat="46.73" lon="-1.87814">
        <ele>11</ele>
        <time>2018-03-10T10:06:02Z</time>
      </trkpt>
      <trkpt lat="46.7299" lon="-1.87843">
        <ele>11</ele>
        <time>2018-03-10T10:07:02Z</time>
      </trkpt>
      <trkpt lat="46.72982" lon="-1.87863">
        <ele>11</ele>
        <time>2018-03-10T10:08:02Z</time>
      </trkpt>
      <trkpt lat="46.72971" lon="-1.8789">
        <ele>11</ele>
        <time>2018-03-10T10:09:02Z</time>
      </trkpt>
      <trkpt lat="46.72957" lon="-1.87915">
        <ele>12</ele>
        <time>2018-03-10T10:10:02Z</time>
      </trkpt>
      <trkpt lat="46.72942" lon="-1.87939">
        <ele>12</ele>
        <time>2018-03-10T10:11:02Z</time>
      </trkpt>
      <trkpt lat="46.72931" lon="-1.87954">
        <ele>12</ele>
        <time>2018-03-10T10:12:02Z</time>
      </trkpt>
      <trkpt lat="46.72915" lon="-1.87978">
        <ele>12</ele>
        <time>2018-03-10T10:13:02Z</time>
      </trkpt>
      <trkpt lat="46.72903" lon="-1.87993">
        <ele>12</ele>
        <time>2018-03-10T10:14:02Z</time>
      </trkpt>
      <trkpt lat="46.72901" lon="-1.87996">
        <ele>12</ele>
        <time>2018-03-10T10:15:02Z</time>
      </trkpt>
      <trkpt lat="46.72877" lon="-1.88029">
        <ele>12</ele>
        <time>2018-03-10T10:16:02Z</time>
      </trkpt>
      <trkpt lat="46.72857" lon="-1.88056">
        <ele>12</ele>
        <time>2018-03-10T10:17:02Z</time>
      </trkpt>
      <trkpt lat="46.72845" lon="-1.88074">
        <ele>12</ele>
        <time>2018-03-10T10:18:02Z</time>
      </trkpt>
      <trkpt lat="46.72822" lon="-1.88105">
        <ele>12</ele>
        <time>2018-03-10T10:19:02Z</time>
      </trkpt>
      <trkpt lat="46.72797" lon="-1.88139">
        <ele>10</ele>
        <time>2018-03-10T10:20:02Z</time>
      </trkpt>
      <trkpt lat="46.7278" lon="-1.88165">
        <ele>9</ele>
        <time>2018-03-10T10:21:02Z</time>
      </trkpt>
      <trkpt lat="46.72774" lon="-1.88175">
        <ele>9</ele>
        <time>2018-03-10T10:22:02Z</time>
      </trkpt>
      <trkpt lat="46.72758" lon="-1.88205">
        <ele>8</ele>
        <time>2018-03-10T10:23:02Z</time>
      </trkpt>
      <trkpt lat="46.72753" lon="-1.88214">
        <ele>8</ele>
        <time>2018-03-10T10:24:02Z</time>
      </trkpt>
      <trkpt lat="46.72743" lon="-1.88234">
        <ele>8</ele>
        <time>2018-03-10T10:25:02Z</time>
      </trkpt>
      <trkpt lat="46.72729" lon="-1.88265">
        <ele>7</ele>
        <time>2018-03-10T10:26:02Z</time>
      </trkpt>
      <trkpt lat="46.72718" lon="-1.88298">
        <ele>6</ele>
        <time>2018-03-10T10:27:02Z</time>
      </trkpt>
      <trkpt lat="46.72708" lon="-1.88329">
        <ele>5</ele>
        <time>2018-03-10T10:28:02Z</time>
      </trkpt>
      <trkpt lat="46.72701" lon="-1.88354">
        <ele>5</ele>
        <time>2018-03-10T10:29:02Z</time>
      </trkpt>
      <trkpt lat="46.72694" lon="-1.88384">
        <ele>5</ele>
        <time>2018-03-10T10:30:02Z</time>
      </trkpt>
      <trkpt lat="46.72689" lon="-1.88405">
        <ele>5</ele>
        <time>2018-03-10T10:31:02Z</time>
      </trkpt>
      <trkpt lat="46.72688" lon="-1.88414">
        <ele>5</ele>
        <time>2018-03-10T10:32:02Z</time>
      </trkpt>
      <trkpt lat="46.72687" lon="-1.88419">
        <ele>5</ele>
        <time>2018-03-10T10:33:02Z</time>
      </trkpt>
      <trkpt lat="46.72686" lon="-1.88428">
        <ele>5</ele>
        <time>2018-03-10T10:34:02Z</time>
      </trkpt>
      <trkpt lat="46.72682" lon="-1.88474">
        <ele>4</ele>
        <time>2018-03-10T10:35:02Z</time>
      </trkpt>
      <trkpt lat="46.72678" lon="-1.88523">
        <ele>4</ele>
        <time>2018-03-10T10:36:02Z</time>
      </trkpt>
      <trkpt lat="46.72673" lon="-1.88584">
        <ele>5</ele>
        <time>2018-03-10T10:37:02Z</time>
      </trkpt>
      <trkpt lat="46.72669" lon="-1.88627">
        <ele>5</ele>
        <time>2018-03-10T10:38:02Z</time>
      </trkpt>
      <trkpt lat="46.72667" lon="-1.88649">
        <ele>6</ele>
        <time>2018-03-10T10:39:02Z</time>
      </trkpt>
      <trkpt lat="46.72657" lon="-1.88762">
        <ele>6</ele>
        <time>2018-03-10T10:40:02Z</time>
      </trkpt>
      <trkpt lat="46.7265" lon="-1.88821">
        <ele>6</ele>
        <time>2018-03-10T10:41:02Z</time>
      </trkpt>
      <trkpt lat="46.72641" lon="-1.88904">
        <ele>6</ele>
        <time>2018-03-10T10:42:02Z</time>
      </trkpt>
      <trkpt lat="46.72634" lon="-1.88962">
        <ele>6</ele>
        <time>2018-03-10T10:43:02Z</time>
      </trkpt>
      <trkpt lat="46.72624" lon="-1.89045">
        <ele>6</ele>
        <time>2018-03-10T10:44:02Z</time>
      </trkpt>
      <trkpt lat="46.72615" lon="-1.89119">
        <ele>6</ele>
        <time>2018-03-10T10:45:02Z</time>
      </trkpt>
      <trkpt lat="46.72611" lon="-1.89151">
        <ele>6</ele>
        <time>2018-03-10T10:46:02Z</time>
      </trkpt>
      <trkpt lat="46.72603" lon="-1.89203">
        <ele>6</ele>
        <time>2018-03-10T10:47:02Z</time>
      </trkpt>
      <trkpt lat="46.72595" lon="-1.89253">
        <ele>5</ele>
        <time>2018-03-10T10:48:02Z</time>
      </trkpt>
      <trkpt lat="46.72586" lon="-1.89297">
        <ele>5</ele>
        <time>2018-03-10T10:49:02Z</time>
      </trkpt>
      <trkpt lat="46.72578" lon="-1.89344">
        <ele>5</ele>
        <time>2018-03-10T10:50:02Z</time>
      </trkpt>
      <trkpt lat="46.72573" lon="-1.89367">
        <ele>5</ele>
        <time>2018-03-10T10:51:02Z</time>
      </trkpt>
      <trkpt lat="46.72573" lon="-1.89373">
        <ele>5</ele>
        <time>2018-03-10T10:52:02Z</time>
      </trkpt>
      <trkpt lat="46.72559" lon="-1.89419">
        <ele>4</ele>
        <time>2018-03-10T10:53:02Z</time>
      </trkpt>
      <trkpt lat="46.72558" lon="-1.89421">
        <ele>4</ele>
        <time>2018-03-10T10:54:02Z</time>
      </trkpt>
      <trkpt lat="46.72554" lon="-1.89428">
        <ele>4</ele>
        <time>2018-03-10T10:55:02Z</time>
      </trkpt>
      <trkpt lat="46.72545" lon="-1.89447">
        <ele>4</ele>
        <time>2018-03-10T10:56:02Z</time>
      </trkpt>
      <trkpt lat="46.72526" lon="-1.89486">
        <ele>4</ele>
        <time>2018-03-10T10:57:02Z</time>
      </trkpt>
      <trkpt lat="46.72523" lon="-1.89491">
        <ele>4</ele>
        <time>2018-03-10T10:58:02Z</time>
      </trkpt>
      <trkpt lat="46.72505" lon="-1.89518">
        <ele>4</ele>
        <time>2018-03-10T10:59:02Z</time>
      </trkpt>
      <trkpt lat="46.72502" lon="-1.89523">
        <ele>4</ele>
        <time>2018-03-10T11:00:02Z</time>
      </trkpt>
      <trkpt lat="46.72488" lon="-1.89543">
        <ele>4</ele>
        <time>2018-03-10T11:01:02Z</time>
      </trkpt>
      <trkpt lat="46.72488" lon="-1.89544">
        <ele>4</ele>
        <time>2018-03-10T11:02:02Z</time>
      </trkpt>
      <trkpt lat="46.72488" lon="-1.89545">
        <ele>4</ele>
        <time>2018-03-10T11:03:02Z</time>
      </trkpt>
      <trkpt lat="46.72488" lon="-1.89546">
        <ele>4</ele>
        <time>2018-03-10T11:04:02Z</time>
      </trkpt>
      <trkpt lat="46.72487" lon="-1.89546">
        <ele>4</ele>
        <time>2018-03-10T11:05:02Z</time>
      </trkpt>
      <trkpt lat="46.72487" lon="-1.89547">
        <ele>4</ele>
        <time>2018-03-10T11:06:02Z</time>
      </trkpt>
      <trkpt lat="46.72487" lon="-1.89548">
        <ele>4</ele>
        <time>2018-03-10T11:07:02Z</time>
      </trkpt>
      <trkpt lat="46.72486" lon="-1.89549">
        <ele>4</ele>
        <time>2018-03-10T11:08:02Z</time>
      </trkpt>
      <trkpt lat="46.72486" lon="-1.8955">
        <ele>4</ele>
        <time>2018-03-10T11:09:02Z</time>
      </trkpt>
      <trkpt lat="46.72485" lon="-1.8955">
        <ele>4</ele>
        <time>2018-03-10T11:10:02Z</time>
      </trkpt>
      <trkpt lat="46.72485" lon="-1.89551">
        <ele>4</ele>
        <time>2018-03-10T11:11:02Z</time>
      </trkpt>
      <trkpt lat="46.72484" lon="-1.89551">
        <ele>4</ele>
        <time>2018-03-10T11:12:02Z</time>
      </trkpt>
      <trkpt lat="46.72483" lon="-1.89552">
        <ele>4</ele>
        <time>2018-03-10T11:13:02Z</time>
      </trkpt>
      <trkpt lat="46.72482" lon="-1.89552">
        <ele>4</ele>
        <time>2018-03-10T11:14:02Z</time>
      </trkpt>
      <trkpt lat="46.7248" lon="-1.89555">
        <ele>4</ele>
        <time>2018-03-10T11:15:02Z</time>
      </trkpt>
      <trkpt lat="46.7247" lon="-1.8957">
        <ele>4</ele>
        <time>2018-03-10T11:16:02Z</time>
      </trkpt>
      <trkpt lat="46.72462" lon="-1.89583">
        <ele>4</ele>
        <time>2018-03-10T11:17:02Z</time>
      </trkpt>
      <trkpt lat="46.7246" lon="-1.89586">
        <ele>3</ele>
        <time>2018-03-10T11:18:02Z</time>
      </trkpt>
      <trkpt lat="46.72455" lon="-1.89591">
        <ele>3</ele>
        <time>2018-03-10T11:19:02Z</time>
      </trkpt>
      <trkpt lat="46.72442" lon="-1.89608">
        <ele>3</ele>
        <time>2018-03-10T11:20:02Z</time>
      </trkpt>
      <trkpt lat="46.72427" lon="-1.89625">
        <ele>3</ele>
        <time>2018-03-10T11:21:02Z</time>
      </trkpt>
      <trkpt lat="46.72424" lon="-1.89628">
        <ele>3</ele>
        <time>2018-03-10T11:22:02Z</time>
      </trkpt>
      <trkpt lat="46.72402" lon="-1.89652">
        <ele>3</ele>
        <time>2018-03-10T11:23:02Z</time>
      </trkpt>
      <trkpt lat="46.72372" lon="-1.89674">
        <ele>4</ele>
        <time>2018-03-10T11:24:02Z</time>
      </trkpt>
      <trkpt lat="46.72253" lon="-1.8977">
        <ele>7</ele>
        <time>2018-03-10T11:25:02Z</time>
      </trkpt>
      <trkpt lat="46.72225" lon="-1.89792">
        <ele>7</ele>
        <time>2018-03-10T11:26:02Z</time>
      </trkpt>
      <trkpt lat="46.72203" lon="-1.89809">
        <ele>8</ele>
        <time>2018-03-10T11:27:02Z</time>
      </trkpt>
      <trkpt lat="46.72178" lon="-1.8983">
        <ele>9</ele>
        <time>2018-03-10T11:28:02Z</time>
      </trkpt>
      <trkpt lat="46.72143" lon="-1.89859">
        <ele>9</ele>
        <time>2018-03-10T11:29:02Z</time>
      </trkpt>
      <trkpt lat="46.72119" lon="-1.89878">
        <ele>8</ele>
        <time>2018-03-10T11:30:02Z</time>
      </trkpt>
      <trkpt lat="46.72084" lon="-1.89908">
        <ele>7</ele>
        <time>2018-03-10T11:31:02Z</time>
      </trkpt>
      <trkpt lat="46.72056" lon="-1.8993">
        <ele>7</ele>
        <time>2018-03-10T11:32:02Z</time>
      </trkpt>
      <trkpt lat="46.72042" lon="-1.89942">
        <ele>7</ele>
        <time>2018-03-10T11:33:02Z</time>
      </trkpt>
      <trkpt lat="46.72037" lon="-1.89948">
        <ele>7</ele>
        <time>2018-03-10T11:34:02Z</time>
      </trkpt>
      <trkpt lat="46.72029" lon="-1.8996">
        <ele>7</ele>
        <time>2018-03-10T11:35:02Z</time>
      </trkpt>
      <trkpt lat="46.7202" lon="-1.89975">
        <ele>7</ele>
        <time>2018-03-10T11:36:02Z</time>
      </trkpt>
      <trkpt lat="46.72013" lon="-1.89987">
        <ele>6</ele>
        <time>2018-03-10T11:37:02Z</time>
      </trkpt>
      <trkpt lat="46.72002" lon="-1.90007">
        <ele>6</ele>
        <time>2018-03-10T11:38:02Z</time>
      </trkpt>
      <trkpt lat="46.7199" lon="-1.90031">
        <ele>6</ele>
        <time>2018-03-10T11:39:02Z</time>
      </trkpt>
      <trkpt lat="46.71979" lon="-1.9005">
        <ele>6</ele>
        <time>2018-03-10T11:40:02Z</time>
      </trkpt>
      <trkpt lat="46.71973" lon="-1.90062">
        <ele>6</ele>
        <time>2018-03-10T11:41:02Z</time>
      </trkpt>
      <trkpt lat="46.71968" lon="-1.9008">
        <ele>6</ele>
        <time>2018-03-10T11:42:02Z</time>
      </trkpt>
      <trkpt lat="46.71965" lon="-1.90106">
        <ele>6</ele>
        <time>2018-03-10T11:43:02Z</time>
      </trkpt>
      <trkpt lat="46.71962" lon="-1.90125">
        <ele>6</ele>
        <time>2018-03-10T11:44:02Z</time>
      </trkpt>
      <trkpt lat="46.71959" lon="-1.90153">
        <ele>6</ele>
        <time>2018-03-10T11:45:02Z</time>
      </trkpt>
      <trkpt lat="46.71958" lon="-1.90176">
        <ele>6</ele>
        <time>2018-03-10T11:46:02Z</time>
      </trkpt>
      <trkpt lat="46.71956" lon="-1.90191">
        <ele>6</ele>
        <time>2018-03-10T11:47:02Z</time>
      </trkpt>
      <trkpt lat="46.71953" lon="-1.90201">
        <ele>6</ele>
        <time>2018-03-10T11:48:02Z</time>
      </trkpt>
      <trkpt lat="46.71953" lon="-1.90203">
        <ele>6</ele>
        <time>2018-03-10T11:49:02Z</time>
      </trkpt>
      <trkpt lat="46.71949" lon="-1.90211">
        <ele>6</ele>
        <time>2018-03-10T11:50:02Z</time>
      </trkpt>
      <trkpt lat="46.71946" lon="-1.90218">
        <ele>6</ele>
        <time>2018-03-10T11:51:02Z</time>
      </trkpt>
      <trkpt lat="46.71941" lon="-1.90227">
        <ele>6</ele>
        <time>2018-03-10T11:52:02Z</time>
      </trkpt>
      <trkpt lat="46.71934" lon="-1.90235">
        <ele>6</ele>
        <time>2018-03-10T11:53:02Z</time>
      </trkpt>
      <trkpt lat="46.71927" lon="-1.9024">
        <ele>6</ele>
        <time>2018-03-10T11:54:02Z</time>
      </trkpt>
      <trkpt lat="46.71914" lon="-1.90248">
        <ele>6</ele>
        <time>2018-03-10T11:55:02Z</time>
      </trkpt>
      <trkpt lat="46.719" lon="-1.90254">
        <ele>7</ele>
        <time>2018-03-10T11:56:02Z</time>
      </trkpt>
      <trkpt lat="46.71896" lon="-1.90256">
        <ele>7</ele>
        <time>2018-03-10T11:57:02Z</time>
      </trkpt>
      <trkpt lat="46.7189" lon="-1.9026">
        <ele>7</ele>
        <time>2018-03-10T11:58:02Z</time>
      </trkpt>
      <trkpt lat="46.71886" lon="-1.90263">
        <ele>7</ele>
        <time>2018-03-10T11:59:02Z</time>
      </trkpt>
      <trkpt lat="46.71883" lon="-1.90267">
        <ele>7</ele>
        <time>2018-03-10T12:00:02Z</time>
      </trkpt>
      <trkpt lat="46.71879" lon="-1.90274">
        <ele>7</ele>
        <time>2018-03-10T12:01:02Z</time>
      </trkpt>
      <trkpt lat="46.71876" lon="-1.90283">
        <ele>7</ele>
        <time>2018-03-10T12:02:02Z</time>
      </trkpt>
      <trkpt lat="46.71872" lon="-1.90301">
        <ele>6</ele>
        <time>2018-03-10T12:03:02Z</time>
      </trkpt>
      <trkpt lat="46.71869" lon="-1.90308">
        <ele>6</ele>
        <time>2018-03-10T12:04:02Z</time>
      </trkpt>
      <trkpt lat="46.71865" lon="-1.90316">
        <ele>6</ele>
        <time>2018-03-10T12:05:02Z</time>
      </trkpt>
      <trkpt lat="46.71839" lon="-1.90349">
        <ele>6</ele>
        <time>2018-03-10T12:06:02Z</time>
      </trkpt>
      <trkpt lat="46.7179" lon="-1.90406">
        <ele>6</ele>
        <time>2018-03-10T12:07:02Z</time>
      </trkpt>
      <trkpt lat="46.71783" lon="-1.90415">
        <ele>6</ele>
        <time>2018-03-10T12:08:02Z</time>
      </trkpt>
      <trkpt lat="46.71764" lon="-1.90437">
        <ele>7</ele>
        <time>2018-03-10T12:09:02Z</time>
      </trkpt>
      <trkpt lat="46.71729" lon="-1.90479">
        <ele>7</ele>
        <time>2018-03-10T12:10:02Z</time>
      </trkpt>
      <trkpt lat="46.71702" lon="-1.90512">
        <ele>8</ele>
        <time>2018-03-10T12:11:02Z</time>
      </trkpt>
      <trkpt lat="46.71687" lon="-1.9053">
        <ele>8</ele>
        <time>2018-03-10T12:12:02Z</time>
      </trkpt>
      <trkpt lat="46.71673" lon="-1.90547">
        <ele>8</ele>
        <time>2018-03-10T12:13:02Z</time>
      </trkpt>
      <trkpt lat="46.71651" lon="-1.90574">
        <ele>9</ele>
        <time>2018-03-10T12:14:02Z</time>
      </trkpt>
      <trkpt lat="46.71615" lon="-1.90615">
        <ele>9</ele>
        <time>2018-03-10T12:15:02Z</time>
      </trkpt>
      <trkpt lat="46.71615" lon="-1.90616">
        <ele>9</ele>
        <time>2018-03-10T12:16:02Z</time>
      </trkpt>
      <trkpt lat="46.7161" lon="-1.90622">
        <ele>9</ele>
        <time>2018-03-10T12:17:02Z</time>
      </trkpt>
      <trkpt lat="46.71589" lon="-1.90649">
        <ele>9</ele>
        <time>2018-03-10T12:18:02Z</time>
      </trkpt>
      <trkpt lat="46.71557" lon="-1.90688">
        <ele>10</ele>
        <time>2018-03-10T12:19:02Z</time>
      </trkpt>
      <trkpt lat="46.71554" lon="-1.90691">
        <ele>10</ele>
        <time>2018-03-10T12:20:02Z</time>
      </trkpt>
      <trkpt lat="46.71544" lon="-1.90706">
        <ele>10</ele>
        <time>2018-03-10T12:21:02Z</time>
      </trkpt>
      <trkpt lat="46.71545" lon="-1.90706">
        <ele>10</ele>
        <time>2018-03-10T12:22:02Z</time>
      </trkpt>
      <trkpt lat="46.71545" lon="-1.90707">
        <ele>10</ele>
        <time>2018-03-10T12:23:02Z</time>
      </trkpt>
      <trkpt lat="46.71545" lon="-1.90708">
        <ele>10</ele>
        <time>2018-03-10T12:24:02Z</time>
      </trkpt>
      <trkpt lat="46.71546" lon="-1.90708">
        <ele>10</ele>
        <time>2018-03-10T12:25:02Z</time>
      </trkpt>
      <trkpt lat="46.71546" lon="-1.90709">
        <ele>10</ele>
        <time>2018-03-10T12:26:02Z</time>
      </trkpt>
      <trkpt lat="46.71546" lon="-1.9071">
        <ele>10</ele>
        <time>2018-03-10T12:27:02Z</time>
      </trkpt>
      <trkpt lat="46.71546" lon="-1.90711">
        <ele>10</ele>
        <time>2018-03-10T12:28:02Z</time>
      </trkpt>
      <trkpt lat="46.71546" lon="-1.90712">
        <ele>10</ele>
        <time>2018-03-10T12:29:02Z</time>
      </trkpt>
      <trkpt lat="46.71546" lon="-1.90713">
        <ele>10</ele>
        <time>2018-03-10T12:30:02Z</time>
      </trkpt>
      <trkpt lat="46.71546" lon="-1.90714">
        <ele>10</ele>
        <time>2018-03-10T12:31:02Z</time>
      </trkpt>
      <trkpt lat="46.71546" lon="-1.90715">
        <ele>10</ele>
        <time>2018-03-10T12:32:02Z</time>
      </trkpt>
      <trkpt lat="46.71546" lon="-1.90716">
        <ele>10</ele>
        <time>2018-03-10T12:33:02Z</time>
      </trkpt>
      <trkpt lat="46.71546" lon="-1.90717">
        <ele>10</ele>
        <time>2018-03-10T12:34:02Z</time>
      </trkpt>
      <trkpt lat="46.71545" lon="-1.90717">
        <ele>10</ele>
        <time>2018-03-10T12:35:02Z</time>
      </trkpt>
      <trkpt lat="46.71545" lon="-1.90718">
        <ele>10</ele>
        <time>2018-03-10T12:36:02Z</time>
      </trkpt>
      <trkpt lat="46.71545" lon="-1.90719">
        <ele>10</ele>
        <time>2018-03-10T12:37:02Z</time>
      </trkpt>
      <trkpt lat="46.71544" lon="-1.90719">
        <ele>10</ele>
        <time>2018-03-10T12:38:02Z</time>
      </trkpt>
      <trkpt lat="46.71544" lon="-1.9072">
        <ele>10</ele>
        <time>2018-03-10T12:39:02Z</time>
      </trkpt>
      <trkpt lat="46.71543" lon="-1.9072">
        <ele>10</ele>
        <time>2018-03-10T12:40:02Z</time>
      </trkpt>
      <trkpt lat="46.71542" lon="-1.9072">
        <ele>10</ele>
        <time>2018-03-10T12:41:02Z</time>
      </trkpt>
      <trkpt lat="46.71541" lon="-1.9072">
        <ele>10</ele>
        <time>2018-03-10T12:42:02Z</time>
      </trkpt>
      <trkpt lat="46.71541" lon="-1.90721">
        <ele>10</ele>
        <time>2018-03-10T12:43:02Z</time>
      </trkpt>
      <trkpt lat="46.71541" lon="-1.9072">
        <ele>10</ele>
        <time>2018-03-10T12:44:02Z</time>
      </trkpt>
      <trkpt lat="46.7154" lon="-1.9072">
        <ele>10</ele>
        <time>2018-03-10T12:45:02Z</time>
      </trkpt>
      <trkpt lat="46.71539" lon="-1.9072">
        <ele>10</ele>
        <time>2018-03-10T12:46:02Z</time>
      </trkpt>
      <trkpt lat="46.71538" lon="-1.9072">
        <ele>10</ele>
        <time>2018-03-10T12:47:02Z</time>
      </trkpt>
      <trkpt lat="46.71538" lon="-1.90719">
        <ele>10</ele>
        <time>2018-03-10T12:48:02Z</time>
      </trkpt>
      <trkpt lat="46.71537" lon="-1.90719">
        <ele>10</ele>
        <time>2018-03-10T12:49:02Z</time>
      </trkpt>
      <trkpt lat="46.71537" lon="-1.90718">
        <ele>10</ele>
        <time>2018-03-10T12:50:02Z</time>
      </trkpt>
      <trkpt lat="46.71537" lon="-1.90717">
        <ele>10</ele>
        <time>2018-03-10T12:51:02Z</time>
      </trkpt>
      <trkpt lat="46.71504" lon="-1.90753">
        <ele>11</ele>
        <time>2018-03-10T12:52:02Z</time>
      </trkpt>
      <trkpt lat="46.71468" lon="-1.90796">
        <ele>11</ele>
        <time>2018-03-10T12:53:02Z</time>
      </trkpt>
      <trkpt lat="46.71449" lon="-1.90818">
        <ele>12</ele>
        <time>2018-03-10T12:54:02Z</time>
      </trkpt>
      <trkpt lat="46.71439" lon="-1.9083">
        <ele>12</ele>
        <time>2018-03-10T12:55:02Z</time>
      </trkpt>
      <trkpt lat="46.71414" lon="-1.90862">
        <ele>13</ele>
        <time>2018-03-10T12:56:02Z</time>
      </trkpt>
      <trkpt lat="46.71394" lon="-1.90886">
        <ele>13</ele>
        <time>2018-03-10T12:57:02Z</time>
      </trkpt>
      <trkpt lat="46.71377" lon="-1.90906">
        <ele>13</ele>
        <time>2018-03-10T12:58:02Z</time>
      </trkpt>
      <trkpt lat="46.71372" lon="-1.90912">
        <ele>13</ele>
        <time>2018-03-10T12:59:02Z</time>
      </trkpt>
      <trkpt lat="46.71354" lon="-1.90933">
        <ele>12</ele>
        <time>2018-03-10T13:00:02Z</time>
      </trkpt>
      <trkpt lat="46.71332" lon="-1.90962">
        <ele>12</ele>
        <time>2018-03-10T13:01:02Z</time>
      </trkpt>
      <trkpt lat="46.7131" lon="-1.90988">
        <ele>12</ele>
        <time>2018-03-10T13:02:02Z</time>
      </trkpt>
      <trkpt lat="46.713" lon="-1.91004">
        <ele>12</ele>
        <time>2018-03-10T13:03:02Z</time>
      </trkpt>
      <trkpt lat="46.71289" lon="-1.9102">
        <ele>12</ele>
        <time>2018-03-10T13:04:02Z</time>
      </trkpt>
      <trkpt lat="46.71277" lon="-1.9104">
        <ele>12</ele>
        <time>2018-03-10T13:05:02Z</time>
      </trkpt>
      <trkpt lat="46.71264" lon="-1.91064">
        <ele>12</ele>
        <time>2018-03-10T13:06:02Z</time>
      </trkpt>
      <trkpt lat="46.71255" lon="-1.91084">
        <ele>12</ele>
        <time>2018-03-10T13:07:02Z</time>
      </trkpt>
      <trkpt lat="46.71244" lon="-1.91108">
        <ele>12</ele>
        <time>2018-03-10T13:08:02Z</time>
      </trkpt>
      <trkpt lat="46.71231" lon="-1.91139">
        <ele>11</ele>
        <time>2018-03-10T13:09:02Z</time>
      </trkpt>
      <trkpt lat="46.71227" lon="-1.91147">
        <ele>11</ele>
        <time>2018-03-10T13:10:02Z</time>
      </trkpt>
      <trkpt lat="46.71216" lon="-1.91174">
        <ele>11</ele>
        <time>2018-03-10T13:11:02Z</time>
      </trkpt>
      <trkpt lat="46.712" lon="-1.9121">
        <ele>11</ele>
        <time>2018-03-10T13:12:02Z</time>
      </trkpt>
      <trkpt lat="46.71185" lon="-1.91246">
        <ele>11</ele>
        <time>2018-03-10T13:13:02Z</time>
      </trkpt>
      <trkpt lat="46.71175" lon="-1.91271">
        <ele>11</ele>
        <time>2018-03-10T13:14:02Z</time>
      </trkpt>
      <trkpt lat="46.71164" lon="-1.91298">
        <ele>11</ele>
        <time>2018-03-10T13:15:02Z</time>
      </trkpt>
      <trkpt lat="46.71152" lon="-1.91328">
        <ele>12</ele>
        <time>2018-03-10T13:16:02Z</time>
      </trkpt>
      <trkpt lat="46.7115" lon="-1.91334">
        <ele>12</ele>
        <time>2018-03-10T13:17:02Z</time>
      </trkpt>
      <trkpt lat="46.71148" lon="-1.91339">
        <ele>12</ele>
        <time>2018-03-10T13:18:02Z</time>
      </trkpt>
      <trkpt lat="46.71136" lon="-1.91372">
        <ele>12</ele>
        <time>2018-03-10T13:19:02Z</time>
      </trkpt>
      <trkpt lat="46.71122" lon="-1.91407">
        <ele>13</ele>
        <time>2018-03-10T13:20:02Z</time>
      </trkpt>
      <trkpt lat="46.71113" lon="-1.91429">
        <ele>14</ele>
        <time>2018-03-10T13:21:02Z</time>
      </trkpt>
      <trkpt lat="46.71106" lon="-1.91442">
        <ele>14</ele>
        <time>2018-03-10T13:22:02Z</time>
      </trkpt>
      <trkpt lat="46.71103" lon="-1.91449">
        <ele>14</ele>
        <time>2018-03-10T13:23:02Z</time>
      </trkpt>
      <trkpt lat="46.71102" lon="-1.91452">
        <ele>14</ele>
        <time>2018-03-10T13:24:02Z</time>
      </trkpt>
      <trkpt lat="46.71099" lon="-1.91459">
        <ele>14</ele>
        <time>2018-03-10T13:25:02Z</time>
      </trkpt>
      <trkpt lat="46.71097" lon="-1.91462">
        <ele>15</ele>
        <time>2018-03-10T13:26:02Z</time>
      </trkpt>
      <trkpt lat="46.71096" lon="-1.91463">
        <ele>15</ele>
        <time>2018-03-10T13:27:02Z</time>
      </trkpt>
      <trkpt lat="46.71095" lon="-1.91465">
        <ele>15</ele>
        <time>2018-03-10T13:28:02Z</time>
      </trkpt>
      <trkpt lat="46.71085" lon="-1.91481">
        <ele>15</ele>
        <time>2018-03-10T13:29:02Z</time>
      </trkpt>
      <trkpt lat="46.7107" lon="-1.91503">
        <ele>15</ele>
        <time>2018-03-10T13:30:02Z</time>
      </trkpt>
      <trkpt lat="46.71064" lon="-1.91509">
        <ele>15</ele>
        <time>2018-03-10T13:31:02Z</time>
      </trkpt>
      <trkpt lat="46.71054" lon="-1.91523">
        <ele>16</ele>
        <time>2018-03-10T13:32:02Z</time>
      </trkpt>
      <trkpt lat="46.71042" lon="-1.91539">
        <ele>16</ele>
        <time>2018-03-10T13:33:02Z</time>
      </trkpt>
      <trkpt lat="46.71022" lon="-1.91567">
        <ele>16</ele>
        <time>2018-03-10T13:34:02Z</time>
      </trkpt>
      <trkpt lat="46.7102" lon="-1.9157">
        <ele>17</ele>
        <time>2018-03-10T13:35:02Z</time>
      </trkpt>
      <trkpt lat="46.71018" lon="-1.91572">
        <ele>17</ele>
        <time>2018-03-10T13:36:02Z</time>
      </trkpt>
      <trkpt lat="46.70999" lon="-1.91598">
        <ele>17</ele>
        <time>2018-03-10T13:37:02Z</time>
      </trkpt>
      <trkpt lat="46.70971" lon="-1.91634">
        <ele>17</ele>
        <time>2018-03-10T13:38:02Z</time>
      </trkpt>
      <trkpt lat="46.70954" lon="-1.91659">
        <ele>18</ele>
        <time>2018-03-10T13:39:02Z</time>
      </trkpt>
      <trkpt lat="46.70951" lon="-1.91664">
        <ele>18</ele>
        <time>2018-03-10T13:40:02Z</time>
      </trkpt>
      <trkpt lat="46.70946" lon="-1.91669">
        <ele>18</ele>
        <time>2018-03-10T13:41:02Z</time>
      </trkpt>
      <trkpt lat="46.70932" lon="-1.91688">
        <ele>18</ele>
        <time>2018-03-10T13:42:02Z</time>
      </trkpt>
      <trkpt lat="46.70913" lon="-1.91714">
        <ele>18</ele>
        <time>2018-03-10T13:43:02Z</time>
      </trkpt>
      <trkpt lat="46.70906" lon="-1.91724">
        <ele>18</ele>
        <time>2018-03-10T13:44:02Z</time>
      </trkpt>
      <trkpt lat="46.70906" lon="-1.91724">
        <ele>18</ele>
        <time>2018-03-10T13:45:02Z</time>
      </trkpt>
      <trkpt lat="46.70894" lon="-1.91739">
        <ele>18</ele>
        <time>2018-03-10T13:46:02Z</time>
      </trkpt>
      <trkpt lat="46.70883" lon="-1.91753">
        <ele>18</ele>
        <time>2018-03-10T13:47:02Z</time>
      </trkpt>
      <trkpt lat="46.7087" lon="-1.91769">
        <ele>19</ele>
        <time>2018-03-10T13:48:02Z</time>
      </trkpt>
      <trkpt lat="46.7087" lon="-1.9177">
        <ele>19</ele>
        <time>2018-03-10T13:49:02Z</time>
      </trkpt>
      <trkpt lat="46.7087" lon="-1.91771">
        <ele>19</ele>
        <time>2018-03-10T13:50:02Z</time>
      </trkpt>
      <trkpt lat="46.70871" lon="-1.91771">
        <ele>19</ele>
        <time>2018-03-10T13:51:02Z</time>
      </trkpt>
      <trkpt lat="46.70871" lon="-1.91772">
        <ele>19</ele>
        <time>2018-03-10T13:52:02Z</time>
      </trkpt>
      <trkpt lat="46.70871" lon="-1.91773">
        <ele>19</ele>
        <time>2018-03-10T13:53:02Z</time>
      </trkpt>
      <trkpt lat="46.70871" lon="-1.91774">
        <ele>19</ele>
        <time>2018-03-10T13:54:02Z</time>
      </trkpt>
      <trkpt lat="46.70871" lon="-1.91775">
        <ele>19</ele>
        <time>2018-03-10T13:55:02Z</time>
      </trkpt>
      <trkpt lat="46.70871" lon="-1.91776">
        <ele>19</ele>
        <time>2018-03-10T13:56:02Z</time>
      </trkpt>
      <trkpt lat="46.70871" lon="-1.91777">
        <ele>19</ele>
        <time>2018-03-10T13:57:02Z</time>
      </trkpt>
      <trkpt lat="46.70871" lon="-1.91778">
        <ele>19</ele>
        <time>2018-03-10T13:58:02Z</time>
      </trkpt>
      <trkpt lat="46.70871" lon="-1.91779">
        <ele>19</ele>
        <time>2018-03-10T13:59:02Z</time>
      </trkpt>
      <trkpt lat="46.7087" lon="-1.91779">
        <ele>19</ele>
        <time>2018-03-10T14:00:02Z</time>
      </trkpt>
      <trkpt lat="46.7087" lon="-1.9178">
        <ele>19</ele>
        <time>2018-03-10T14:01:02Z</time>
      </trkpt>
      <trkpt lat="46.7087" lon="-1.91781">
        <ele>19</ele>
        <time>2018-03-10T14:02:02Z</time>
      </trkpt>
      <trkpt lat="46.7087" lon="-1.91782">
        <ele>19</ele>
        <time>2018-03-10T14:03:02Z</time>
      </trkpt>
      <trkpt lat="46.70869" lon="-1.91782">
        <ele>19</ele>
        <time>2018-03-10T14:04:02Z</time>
      </trkpt>
      <trkpt lat="46.70869" lon="-1.91783">
        <ele>19</ele>
        <time>2018-03-10T14:05:02Z</time>
      </trkpt>
      <trkpt lat="46.70868" lon="-1.91784">
        <ele>19</ele>
        <time>2018-03-10T14:06:02Z</time>
      </trkpt>
      <trkpt lat="46.70868" lon="-1.91785">
        <ele>19</ele>
        <time>2018-03-10T14:07:02Z</time>
      </trkpt>
      <trkpt lat="46.70867" lon="-1.91785">
        <ele>19</ele>
        <time>2018-03-10T14:08:02Z</time>
      </trkpt>
      <trkpt lat="46.70866" lon="-1.91786">
        <ele>19</ele>
        <time>2018-03-10T14:09:02Z</time>
      </trkpt>
      <trkpt lat="46.70865" lon="-1.91786">
        <ele>19</ele>
        <time>2018-03-10T14:10:02Z</time>
      </trkpt>
      <trkpt lat="46.70864" lon="-1.91786">
        <ele>19</ele>
        <time>2018-03-10T14:11:02Z</time>
      </trkpt>
      <trkpt lat="46.70864" lon="-1.91787">
        <ele>19</ele>
        <time>2018-03-10T14:12:02Z</time>
      </trkpt>
      <trkpt lat="46.70863" lon="-1.91787">
        <ele>19</ele>
        <time>2018-03-10T14:13:02Z</time>
      </trkpt>
      <trkpt lat="46.70862" lon="-1.91787">
        <ele>19</ele>
        <time>2018-03-10T14:14:02Z</time>
      </trkpt>
      <trkpt lat="46.70861" lon="-1.91787">
        <ele>19</ele>
        <time>2018-03-10T14:15:02Z</time>
      </trkpt>
      <trkpt lat="46.70861" lon="-1.91786">
        <ele>19</ele>
        <time>2018-03-10T14:16:02Z</time>
      </trkpt>
      <trkpt lat="46.7086" lon="-1.91786">
        <ele>19</ele>
        <time>2018-03-10T14:17:02Z</time>
      </trkpt>
      <trkpt lat="46.70859" lon="-1.91786">
        <ele>19</ele>
        <time>2018-03-10T14:18:02Z</time>
      </trkpt>
      <trkpt lat="46.70859" lon="-1.91785">
        <ele>19</ele>
        <time>2018-03-10T14:19:02Z</time>
      </trkpt>
      <trkpt lat="46.70858" lon="-1.91785">
        <ele>19</ele>
        <time>2018-03-10T14:20:02Z</time>
      </trkpt>
      <trkpt lat="46.70858" lon="-1.91784">
        <ele>19</ele>
        <time>2018-03-10T14:21:02Z</time>
      </trkpt>
      <trkpt lat="46.70836" lon="-1.9181">
        <ele>20</ele>
        <time>2018-03-10T14:22:02Z</time>
      </trkpt>
      <trkpt lat="46.70799" lon="-1.91849">
        <ele>20</ele>
        <time>2018-03-10T14:23:02Z</time>
      </trkpt>
      <trkpt lat="46.70793" lon="-1.91854">
        <ele>20</ele>
        <time>2018-03-10T14:24:02Z</time>
      </trkpt>
      <trkpt lat="46.70789" lon="-1.91861">
        <ele>19</ele>
        <time>2018-03-10T14:25:02Z</time>
      </trkpt>
      <trkpt lat="46.70758" lon="-1.91893">
        <ele>19</ele>
        <time>2018-03-10T14:26:02Z</time>
      </trkpt>
      <trkpt lat="46.7073" lon="-1.91923">
        <ele>18</ele>
        <time>2018-03-10T14:27:02Z</time>
      </trkpt>
      <trkpt lat="46.70726" lon="-1.91928">
        <ele>19</ele>
        <time>2018-03-10T14:28:02Z</time>
      </trkpt>
      <trkpt lat="46.70721" lon="-1.9193">
        <ele>19</ele>
        <time>2018-03-10T14:29:02Z</time>
      </trkpt>
      <trkpt lat="46.70684" lon="-1.91967">
        <ele>19</ele>
        <time>2018-03-10T14:30:02Z</time>
      </trkpt>
      <trkpt lat="46.70677" lon="-1.91974">
        <ele>19</ele>
        <time>2018-03-10T14:31:02Z</time>
      </trkpt>
      <trkpt lat="46.70671" lon="-1.91985">
        <ele>19</ele>
        <time>2018-03-10T14:32:02Z</time>
      </trkpt>
      <trkpt lat="46.70655" lon="-1.92006">
        <ele>19</ele>
        <time>2018-03-10T14:33:02Z</time>
      </trkpt>
      <trkpt lat="46.70655" lon="-1.92006">
        <ele>19</ele>
        <time>2018-03-10T14:34:02Z</time>
      </trkpt>
      <trkpt lat="46.70655" lon="-1.92007">
        <ele>19</ele>
        <time>2018-03-10T14:35:02Z</time>
      </trkpt>
      <trkpt lat="46.70655" lon="-1.92008">
        <ele>19</ele>
        <time>2018-03-10T14:36:02Z</time>
      </trkpt>
      <trkpt lat="46.70655" lon="-1.92009">
        <ele>19</ele>
        <time>2018-03-10T14:37:02Z</time>
      </trkpt>
      <trkpt lat="46.70655" lon="-1.9201">
        <ele>19</ele>
        <time>2018-03-10T14:38:02Z</time>
      </trkpt>
      <trkpt lat="46.70655" lon="-1.92011">
        <ele>19</ele>
        <time>2018-03-10T14:39:02Z</time>
      </trkpt>
      <trkpt lat="46.70655" lon="-1.92012">
        <ele>19</ele>
        <time>2018-03-10T14:40:02Z</time>
      </trkpt>
      <trkpt lat="46.70655" lon="-1.92013">
        <ele>19</ele>
        <time>2018-03-10T14:41:02Z</time>
      </trkpt>
      <trkpt lat="46.70655" lon="-1.92014">
        <ele>19</ele>
        <time>2018-03-10T14:42:02Z</time>
      </trkpt>
      <trkpt lat="46.70655" lon="-1.92015">
        <ele>19</ele>
        <time>2018-03-10T14:43:02Z</time>
      </trkpt>
      <trkpt lat="46.70654" lon="-1.92015">
        <ele>19</ele>
        <time>2018-03-10T14:44:02Z</time>
      </trkpt>
      <trkpt lat="46.70654" lon="-1.92016">
        <ele>19</ele>
        <time>2018-03-10T14:45:02Z</time>
      </trkpt>
      <trkpt lat="46.70654" lon="-1.92017">
        <ele>19</ele>
        <time>2018-03-10T14:46:02Z</time>
      </trkpt>
      <trkpt lat="46.70654" lon="-1.92018">
        <ele>19</ele>
        <time>2018-03-10T14:47:02Z</time>
      </trkpt>
      <trkpt lat="46.70653" lon="-1.92019">
        <ele>19</ele>
        <time>2018-03-10T14:48:02Z</time>
      </trkpt>
      <trkpt lat="46.70653" lon="-1.9202">
        <ele>19</ele>
        <time>2018-03-10T14:49:02Z</time>
      </trkpt>
      <trkpt lat="46.70652" lon="-1.92021">
        <ele>19</ele>
        <time>2018-03-10T14:50:02Z</time>
      </trkpt>
      <trkpt lat="46.70652" lon="-1.92022">
        <ele>19</ele>
        <time>2018-03-10T14:51:02Z</time>
      </trkpt>
      <trkpt lat="46.70651" lon="-1.92022">
        <ele>19</ele>
        <time>2018-03-10T14:52:02Z</time>
      </trkpt>
      <trkpt lat="46.70651" lon="-1.92023">
        <ele>19</ele>
        <time>2018-03-10T14:53:02Z</time>
      </trkpt>
      <trkpt lat="46.7065" lon="-1.92023">
        <ele>19</ele>
        <time>2018-03-10T14:54:02Z</time>
      </trkpt>
      <trkpt lat="46.70649" lon="-1.92024">
        <ele>19</ele>
        <time>2018-03-10T14:55:02Z</time>
      </trkpt>
      <trkpt lat="46.70644" lon="-1.92039">
        <ele>19</ele>
        <time>2018-03-10T14:56:02Z</time>
      </trkpt>
      <trkpt lat="46.70642" lon="-1.9205">
        <ele>19</ele>
        <time>2018-03-10T14:57:02Z</time>
      </trkpt>
      <trkpt lat="46.70642" lon="-1.92056">
        <ele>19</ele>
        <time>2018-03-10T14:58:02Z</time>
      </trkpt>
      <trkpt lat="46.7064" lon="-1.92095">
        <ele>20</ele>
        <time>2018-03-10T14:59:02Z</time>
      </trkpt>
      <trkpt lat="46.7064" lon="-1.92109">
        <ele>20</ele>
        <time>2018-03-10T15:00:02Z</time>
      </trkpt>
      <trkpt lat="46.70639" lon="-1.92134">
        <ele>19</ele>
        <time>2018-03-10T15:01:02Z</time>
      </trkpt>
      <trkpt lat="46.70637" lon="-1.92186">
        <ele>19</ele>
        <time>2018-03-10T15:02:02Z</time>
      </trkpt>
      <trkpt lat="46.70634" lon="-1.92221">
        <ele>19</ele>
        <time>2018-03-10T15:03:02Z</time>
      </trkpt>
      <trkpt lat="46.70628" lon="-1.92248">
        <ele>20</ele>
        <time>2018-03-10T15:04:02Z</time>
      </trkpt>
      <trkpt lat="46.70619" lon="-1.92271">
        <ele>19</ele>
        <time>2018-03-10T15:05:02Z</time>
      </trkpt>
      <trkpt lat="46.7061" lon="-1.92289">
        <ele>19</ele>
        <time>2018-03-10T15:06:02Z</time>
      </trkpt>
      <trkpt lat="46.70602" lon="-1.92304">
        <ele>18</ele>
        <time>2018-03-10T15:07:02Z</time>
      </trkpt>
      <trkpt lat="46.70586" lon="-1.92327">
        <ele>18</ele>
        <time>2018-03-10T15:08:02Z</time>
      </trkpt>
      <trkpt lat="46.70582" lon="-1.92333">
        <ele>18</ele>
        <time>2018-03-10T15:09:02Z</time>
      </trkpt>
      <trkpt lat="46.70571" lon="-1.92356">
        <ele>17</ele>
        <time>2018-03-10T15:10:02Z</time>
      </trkpt>
      <trkpt lat="46.70562" lon="-1.92377">
        <ele>17</ele>
        <time>2018-03-10T15:11:02Z</time>
      </trkpt>
      <trkpt lat="46.70559" lon="-1.92387">
        <ele>16</ele>
        <time>2018-03-10T15:12:02Z</time>
      </trkpt>
      <trkpt lat="46.70555" lon="-1.92398">
        <ele>16</ele>
        <time>2018-03-10T15:13:02Z</time>
      </trkpt>
      <trkpt lat="46.70552" lon="-1.92414">
        <ele>16</ele>
        <time>2018-03-10T15:14:02Z</time>
      </trkpt>
      <trkpt lat="46.70546" lon="-1.92441">
        <ele>15</ele>
        <time>2018-03-10T15:15:02Z</time>
      </trkpt>
      <trkpt lat="46.70541" lon="-1.92464">
        <ele>15</ele>
        <time>2018-03-10T15:16:02Z</time>
      </trkpt>
      <trkpt lat="46.7054" lon="-1.92472">
        <ele>15</ele>
        <time>2018-03-10T15:17:02Z</time>
      </trkpt>
      <trkpt lat="46.70535" lon="-1.92496">
        <ele>14</ele>
        <time>2018-03-10T15:18:02Z</time>
      </trkpt>
      <trkpt lat="46.70534" lon="-1.925">
        <ele>14</ele>
        <time>2018-03-10T15:19:02Z</time>
      </trkpt>
      <trkpt lat="46.70533" lon="-1.92502">
        <ele>14</ele>
        <time>2018-03-10T15:20:02Z</time>
      </trkpt>
      <trkpt lat="46.70527" lon="-1.92538">
        <ele>13</ele>
        <time>2018-03-10T15:21:02Z</time>
      </trkpt>
      <trkpt lat="46.70523" lon="-1.92561">
        <ele>12</ele>
        <time>2018-03-10T15:22:02Z</time>
      </trkpt>
      <trkpt lat="46.70524" lon="-1.92565">
        <ele>12</ele>
        <time>2018-03-10T15:23:02Z</time>
      </trkpt>
      <trkpt lat="46.70525" lon="-1.92575">
        <ele>12</ele>
        <time>2018-03-10T15:24:02Z</time>
      </trkpt>
      <trkpt lat="46.70525" lon="-1.92582">
        <ele>12</ele>
        <time>2018-03-10T15:25:02Z</time>
      </trkpt>
      <trkpt lat="46.70525" lon="-1.92582">
        <ele>12</ele>
        <time>2018-03-10T15:26:02Z</time>
      </trkpt>
      <trkpt lat="46.70529" lon="-1.92587">
        <ele>12</ele>
        <time>2018-03-10T15:27:02Z</time>
      </trkpt>
      <trkpt lat="46.7053" lon="-1.92592">
        <ele>12</ele>
        <time>2018-03-10T15:28:02Z</time>
      </trkpt>
      <trkpt lat="46.70531" lon="-1.92598">
        <ele>12</ele>
        <time>2018-03-10T15:29:02Z</time>
      </trkpt>
      <trkpt lat="46.7053" lon="-1.92602">
        <ele>12</ele>
        <time>2018-03-10T15:30:02Z</time>
      </trkpt>
      <trkpt lat="46.70528" lon="-1.92606">
        <ele>12</ele>
        <time>2018-03-10T15:31:02Z</time>
      </trkpt>
      <trkpt lat="46.70527" lon="-1.92607">
        <ele>12</ele>
        <time>2018-03-10T15:32:02Z</time>
      </trkpt>
      <trkpt lat="46.70525" lon="-1.92609">
        <ele>12</ele>
        <time>2018-03-10T15:33:02Z</time>
      </trkpt>
      <trkpt lat="46.70523" lon="-1.92609">
        <ele>11</ele>
        <time>2018-03-10T15:34:02Z</time>
      </trkpt>
      <trkpt lat="46.70512" lon="-1.92624">
        <ele>11</ele>
        <time>2018-03-10T15:35:02Z</time>
      </trkpt>
      <trkpt lat="46.70507" lon="-1.92632">
        <ele>11</ele>
        <time>2018-03-10T15:36:02Z</time>
      </trkpt>
      <trkpt lat="46.70504" lon="-1.92634">
        <ele>11</ele>
        <time>2018-03-10T15:37:02Z</time>
      </trkpt>
      <trkpt lat="46.70499" lon="-1.9265">
        <ele>11</ele>
        <time>2018-03-10T15:38:02Z</time>
      </trkpt>
      <trkpt lat="46.70496" lon="-1.9267">
        <ele>11</ele>
        <time>2018-03-10T15:39:02Z</time>
      </trkpt>
      <trkpt lat="46.70489" lon="-1.92701">
        <ele>10</ele>
        <time>2018-03-10T15:40:02Z</time>
      </trkpt>
      <trkpt lat="46.70484" lon="-1.9273">
        <ele>9</ele>
        <time>2018-03-10T15:41:02Z</time>
      </trkpt>
      <trkpt lat="46.70482" lon="-1.92747">
        <ele>8</ele>
        <time>2018-03-10T15:42:02Z</time>
      </trkpt>
      <trkpt lat="46.70478" lon="-1.92796">
        <ele>8</ele>
        <time>2018-03-10T15:43:02Z</time>
      </trkpt>
      <trkpt lat="46.70475" lon="-1.92841">
        <ele>8</ele>
        <time>2018-03-10T15:44:02Z</time>
      </trkpt>
      <trkpt lat="46.70472" lon="-1.92898">
        <ele>8</ele>
        <time>2018-03-10T15:45:02Z</time>
      </trkpt>
      <trkpt lat="46.70468" lon="-1.92952">
        <ele>7</ele>
        <time>2018-03-10T15:46:02Z</time>
      </trkpt>
      <trkpt lat="46.70465" lon="-1.93009">
        <ele>6</ele>
        <time>2018-03-10T15:47:02Z</time>
      </trkpt>
      <trkpt lat="46.70462" lon="-1.93045">
        <ele>6</ele>
        <time>2018-03-10T15:48:02Z</time>
      </trkpt>
      <trkpt lat="46.70458" lon="-1.93108">
        <ele>5</ele>
        <time>2018-03-10T15:49:02Z</time>
      </trkpt>
      <trkpt lat="46.70455" lon="-1.93156">
        <ele>5</ele>
        <time>2018-03-10T15:50:02Z</time>
      </trkpt>
      <trkpt lat="46.70452" lon="-1.93209">
        <ele>4</ele>
        <time>2018-03-10T15:51:02Z</time>
      </trkpt>
      <trkpt lat="46.70449" lon="-1.93254">
        <ele>3</ele>
        <time>2018-03-10T15:52:02Z</time>
      </trkpt>
      <trkpt lat="46.70449" lon="-1.93267">
        <ele>3</ele>
        <time>2018-03-10T15:53:02Z</time>
      </trkpt>
      <trkpt lat="46.70449" lon="-1.93267">
        <ele>3</ele>
        <time>2018-03-10T15:54:02Z</time>
      </trkpt>
      <trkpt lat="46.70439" lon="-1.93265">
        <ele>3</ele>
        <time>2018-03-10T15:55:02Z</time>
      </trkpt>
      <trkpt lat="46.70429" lon="-1.93262">
        <ele>3</ele>
        <time>2018-03-10T15:56:02Z</time>
      </trkpt>
      <trkpt lat="46.70419" lon="-1.93258">
        <ele>3</ele>
        <time>2018-03-10T15:57:02Z</time>
      </trkpt>
      <trkpt lat="46.70398" lon="-1.93249">
        <ele>3</ele>
        <time>2018-03-10T15:58:02Z</time>
      </trkpt>
      <trkpt lat="46.70362" lon="-1.9324">
        <ele>2</ele>
        <time>2018-03-10T15:59:02Z</time>
      </trkpt>
      <trkpt lat="46.70328" lon="-1.93232">
        <ele>2</ele>
        <time>2018-03-10T16:00:02Z</time>
      </trkpt>
      <trkpt lat="46.70304" lon="-1.9323">
        <ele>2</ele>
        <time>2018-03-10T16:01:02Z</time>
      </trkpt>
      <trkpt lat="46.70304" lon="-1.9323">
        <ele>2</ele>
        <time>2018-03-10T16:02:02Z</time>
      </trkpt>
      <trkpt lat="46.70295" lon="-1.93245">
        <ele>2</ele>
        <time>2018-03-10T16:03:02Z</time>
      </trkpt>
      <trkpt lat="46.70288" lon="-1.93253">
        <ele>2</ele>
        <time>2018-03-10T16:04:02Z</time>
      </trkpt>
      <trkpt lat="46.7028" lon="-1.9326">
        <ele>2</ele>
        <time>2018-03-10T16:05:02Z</time>
      </trkpt>
      <trkpt lat="46.70276" lon="-1.93263">
        <ele>2</ele>
        <time>2018-03-10T16:06:02Z</time>
      </trkpt>
      <trkpt lat="46.70263" lon="-1.93271">
        <ele>2</ele>
        <time>2018-03-10T16:07:02Z</time>
      </trkpt>
      <trkpt lat="46.70251" lon="-1.9328">
        <ele>2</ele>
        <time>2018-03-10T16:08:02Z</time>
      </trkpt>
      <trkpt lat="46.70239" lon="-1.93295">
        <ele>2</ele>
        <time>2018-03-10T16:09:02Z</time>
      </trkpt>
      <trkpt lat="46.70224" lon="-1.9332">
        <ele>1</ele>
        <time>2018-03-10T16:10:02Z</time>
      </trkpt>
      <trkpt lat="46.70216" lon="-1.93332">
        <ele>1</ele>
        <time>2018-03-10T16:11:02Z</time>
      </trkpt>
      <trkpt lat="46.70211" lon="-1.9334">
        <ele>1</ele>
        <time>2018-03-10T16:12:02Z</time>
      </trkpt>
      <trkpt lat="46.70205" lon="-1.93347">
        <ele>1</ele>
        <time>2018-03-10T16:13:02Z</time>
      </trkpt>
      <trkpt lat="46.70194" lon="-1.93356">
        <ele>1</ele>
        <time>2018-03-10T16:14:02Z</time>
      </trkpt>
      <trkpt lat="46.70181" lon="-1.93366">
        <ele>2</ele>
        <time>2018-03-10T16:15:02Z</time>
      </trkpt>
      <trkpt lat="46.70173" lon="-1.93372">
        <ele>1</ele>
        <time>2018-03-10T16:16:02Z</time>
      </trkpt>
      <trkpt lat="46.7017" lon="-1.93374">
        <ele>1</ele>
        <time>2018-03-10T16:17:02Z</time>
      </trkpt>
      <trkpt lat="46.70166" lon="-1.9338">
        <ele>1</ele>
        <time>2018-03-10T16:18:02Z</time>
      </trkpt>
      <trkpt lat="46.70161" lon="-1.93382">
        <ele>1</ele>
        <time>2018-03-10T16:19:02Z</time>
      </trkpt>
      <trkpt lat="46.70152" lon="-1.93386">
        <ele>1</ele>
        <time>2018-03-10T16:20:02Z</time>
      </trkpt>
      <trkpt lat="46.70141" lon="-1.93391">
        <ele>1</ele>
        <time>2018-03-10T16:21:02Z</time>
      </trkpt>
      <trkpt lat="46.70141" lon="-1.93391">
        <ele>1</ele>
        <time>2018-03-10T16:22:02Z</time>
      </trkpt>
      <trkpt lat="46.70141" lon="-1.93393">
        <ele>1</ele>
        <time>2018-03-10T16:23:02Z</time>
      </trkpt>
      <trkpt lat="46.70141" lon="-1.93394">
        <ele>1</ele>
        <time>2018-03-10T16:24:02Z</time>
      </trkpt>
      <trkpt lat="46.70141" lon="-1.93395">
        <ele>1</ele>
        <time>2018-03-10T16:25:02Z</time>
      </trkpt>
      <trkpt lat="46.7014" lon="-1.93396">
        <ele>1</ele>
        <time>2018-03-10T16:26:02Z</time>
      </trkpt>
      <trkpt lat="46.7014" lon="-1.93397">
        <ele>1</ele>
        <time>2018-03-10T16:27:02Z</time>
      </trkpt>
      <trkpt lat="46.7014" lon="-1.93398">
        <ele>1</ele>
        <time>2018-03-10T16:28:02Z</time>
      </trkpt>
      <trkpt lat="46.70139" lon="-1.93399">
        <ele>1</ele>
        <time>2018-03-10T16:29:02Z</time>
      </trkpt>
      <trkpt lat="46.70139" lon="-1.93401">
        <ele>1</ele>
        <time>2018-03-10T16:30:02Z</time>
      </trkpt>
      <trkpt lat="46.70138" lon="-1.93402">
        <ele>1</ele>
        <time>2018-03-10T16:31:02Z</time>
      </trkpt>
      <trkpt lat="46.70138" lon="-1.93403">
        <ele>1</ele>
        <time>2018-03-10T16:32:02Z</time>
      </trkpt>
      <trkpt lat="46.70137" lon="-1.93403">
        <ele>1</ele>
        <time>2018-03-10T16:33:02Z</time>
      </trkpt>
      <trkpt lat="46.70136" lon="-1.93404">
        <ele>1</ele>
        <time>2018-03-10T16:34:02Z</time>
      </trkpt>
      <trkpt lat="46.70136" lon="-1.93405">
        <ele>1</ele>
        <time>2018-03-10T16:35:02Z</time>
      </trkpt>
      <trkpt lat="46.70135" lon="-1.93406">
        <ele>1</ele>
        <time>2018-03-10T16:36:02Z</time>
      </trkpt>
      <trkpt lat="46.70134" lon="-1.93406">
        <ele>1</ele>
        <time>2018-03-10T16:37:02Z</time>
      </trkpt>
      <trkpt lat="46.70133" lon="-1.93407">
        <ele>1</ele>
        <time>2018-03-10T16:38:02Z</time>
      </trkpt>
      <trkpt lat="46.70132" lon="-1.93408">
        <ele>1</ele>
        <time>2018-03-10T16:39:02Z</time>
      </trkpt>
      <trkpt lat="46.70131" lon="-1.93408">
        <ele>1</ele>
        <time>2018-03-10T16:40:02Z</time>
      </trkpt>
      <trkpt lat="46.7013" lon="-1.93409">
        <ele>1</ele>
        <time>2018-03-10T16:41:02Z</time>
      </trkpt>
      <trkpt lat="46.70129" lon="-1.93409">
        <ele>1</ele>
        <time>2018-03-10T16:42:02Z</time>
      </trkpt>
      <trkpt lat="46.70128" lon="-1.93409">
        <ele>1</ele>
        <time>2018-03-10T16:43:02Z</time>
      </trkpt>
      <trkpt lat="46.70127" lon="-1.93409">
        <ele>1</ele>
        <time>2018-03-10T16:44:02Z</time>
      </trkpt>
      <trkpt lat="46.70126" lon="-1.93409">
        <ele>1</ele>
        <time>2018-03-10T16:45:02Z</time>
      </trkpt>
      <trkpt lat="46.70125" lon="-1.93409">
        <ele>1</ele>
        <time>2018-03-10T16:46:02Z</time>
      </trkpt>
      <trkpt lat="46.70124" lon="-1.93408">
        <ele>2</ele>
        <time>2018-03-10T16:47:02Z</time>
      </trkpt>
      <trkpt lat="46.70123" lon="-1.93408">
        <ele>2</ele>
        <time>2018-03-10T16:48:02Z</time>
      </trkpt>
      <trkpt lat="46.70122" lon="-1.93407">
        <ele>2</ele>
        <time>2018-03-10T16:49:02Z</time>
      </trkpt>
      <trkpt lat="46.70121" lon="-1.93407">
        <ele>2</ele>
        <time>2018-03-10T16:50:02Z</time>
      </trkpt>
      <trkpt lat="46.7012" lon="-1.93406">
        <ele>2</ele>
        <time>2018-03-10T16:51:02Z</time>
      </trkpt>
      <trkpt lat="46.7012" lon="-1.93405">
        <ele>2</ele>
        <time>2018-03-10T16:52:02Z</time>
      </trkpt>
      <trkpt lat="46.70119" lon="-1.93405">
        <ele>2</ele>
        <time>2018-03-10T16:53:02Z</time>
      </trkpt>
      <trkpt lat="46.70107" lon="-1.93404">
        <ele>2</ele>
        <time>2018-03-10T16:54:02Z</time>
      </trkpt>
      <trkpt lat="46.701" lon="-1.93405">
        <ele>2</ele>
        <time>2018-03-10T16:55:02Z</time>
      </trkpt>
      <trkpt lat="46.70092" lon="-1.93406">
        <ele>2</ele>
        <time>2018-03-10T16:56:02Z</time>
      </trkpt>
      <trkpt lat="46.70088" lon="-1.93406">
        <ele>2</ele>
        <time>2018-03-10T16:57:02Z</time>
      </trkpt>
      <trkpt lat="46.70085" lon="-1.93405">
        <ele>2</ele>
        <time>2018-03-10T16:58:02Z</time>
      </trkpt>
      <trkpt lat="46.70083" lon="-1.93405">
        <ele>2</ele>
        <time>2018-03-10T16:59:02Z</time>
      </trkpt>
      <trkpt lat="46.70062" lon="-1.93405">
        <ele>2</ele>
        <time>2018-03-10T17:00:02Z</time>
      </trkpt>
      <trkpt lat="46.70062" lon="-1.93406">
        <ele>2</ele>
        <time>2018-03-10T17:01:02Z</time>
      </trkpt>
      <trkpt lat="46.70062" lon="-1.93407">
        <ele>2</ele>
        <time>2018-03-10T17:02:02Z</time>
      </trkpt>
      <trkpt lat="46.70062" lon="-1.93408">
        <ele>2</ele>
        <time>2018-03-10T17:03:02Z</time>
      </trkpt>
      <trkpt lat="46.70062" lon="-1.93409">
        <ele>2</ele>
        <time>2018-03-10T17:04:02Z</time>
      </trkpt>
      <trkpt lat="46.70062" lon="-1.9341">
        <ele>2</ele>
        <time>2018-03-10T17:05:02Z</time>
      </trkpt>
      <trkpt lat="46.70061" lon="-1.9341">
        <ele>2</ele>
        <time>2018-03-10T17:06:02Z</time>
      </trkpt>
      <trkpt lat="46.70061" lon="-1.93411">
        <ele>2</ele>
        <time>2018-03-10T17:07:02Z</time>
      </trkpt>
      <trkpt lat="46.7006" lon="-1.93411">
        <ele>2</ele>
        <time>2018-03-10T17:08:02Z</time>
      </trkpt>
      <trkpt lat="46.7006" lon="-1.93412">
        <ele>2</ele>
        <time>2018-03-10T17:09:02Z</time>
      </trkpt>
      <trkpt lat="46.70059" lon="-1.93412">
        <ele>2</ele>
        <time>2018-03-10T17:10:02Z</time>
      </trkpt>
      <trkpt lat="46.70059" lon="-1.93413">
        <ele>2</ele>
        <time>2018-03-10T17:11:02Z</time>
      </trkpt>
      <trkpt lat="46.70058" lon="-1.93413">
        <ele>2</ele>
        <time>2018-03-10T17:12:02Z</time>
      </trkpt>
      <trkpt lat="46.70057" lon="-1.93413">
        <ele>2</ele>
        <time>2018-03-10T17:13:02Z</time>
      </trkpt>
      <trkpt lat="46.70056" lon="-1.93413">
        <ele>2</ele>
        <time>2018-03-10T17:14:02Z</time>
      </trkpt>
      <trkpt lat="46.70055" lon="-1.93413">
        <ele>2</ele>
        <time>2018-03-10T17:15:02Z</time>
      </trkpt>
      <trkpt lat="46.70055" lon="-1.93412">
        <ele>2</ele>
        <time>2018-03-10T17:16:02Z</time>
      </trkpt>
      <trkpt lat="46.70054" lon="-1.93412">
        <ele>2</ele>
        <time>2018-03-10T17:17:02Z</time>
      </trkpt>
      <trkpt lat="46.70054" lon="-1.93411">
        <ele>2</ele>
        <time>2018-03-10T17:18:02Z</time>
      </trkpt>
      <trkpt lat="46.70053" lon="-1.93411">
        <ele>2</ele>
        <time>2018-03-10T17:19:02Z</time>
      </trkpt>
      <trkpt lat="46.70053" lon="-1.9341">
        <ele>2</ele>
        <time>2018-03-10T17:20:02Z</time>
      </trkpt>
      <trkpt lat="46.70053" lon="-1.93409">
        <ele>2</ele>
        <time>2018-03-10T17:21:02Z</time>
      </trkpt>
      <trkpt lat="46.70052" lon="-1.93409">
        <ele>2</ele>
        <time>2018-03-10T17:22:02Z</time>
      </trkpt>
      <trkpt lat="46.70052" lon="-1.93408">
        <ele>2</ele>
        <time>2018-03-10T17:23:02Z</time>
      </trkpt>
      <trkpt lat="46.70052" lon="-1.93407">
        <ele>2</ele>
        <time>2018-03-10T17:24:02Z</time>
      </trkpt>
      <trkpt lat="46.70052" lon="-1.93406">
        <ele>2</ele>
        <time>2018-03-10T17:25:02Z</time>
      </trkpt>
      <trkpt lat="46.70052" lon="-1.93405">
        <ele>2</ele>
        <time>2018-03-10T17:26:02Z</time>
      </trkpt>
      <trkpt lat="46.70046" lon="-1.93402">
        <ele>2</ele>
        <time>2018-03-10T17:27:02Z</time>
      </trkpt>
      <trkpt lat="46.70043" lon="-1.93401">
        <ele>2</ele>
        <time>2018-03-10T17:28:02Z</time>
      </trkpt>
      <trkpt lat="46.70041" lon="-1.934">
        <ele>2</ele>
        <time>2018-03-10T17:29:02Z</time>
      </trkpt>
      <trkpt lat="46.70038" lon="-1.93398">
        <ele>2</ele>
        <time>2018-03-10T17:30:02Z</time>
      </trkpt>
      <trkpt lat="46.70036" lon="-1.93397">
        <ele>2</ele>
        <time>2018-03-10T17:31:02Z</time>
      </trkpt>
      <trkpt lat="46.70033" lon="-1.93394">
        <ele>2</ele>
        <time>2018-03-10T17:32:02Z</time>
      </trkpt>
      <trkpt lat="46.7003" lon="-1.93391">
        <ele>3</ele>
        <time>2018-03-10T17:33:02Z</time>
      </trkpt>
      <trkpt lat="46.70028" lon="-1.93388">
        <ele>3</ele>
        <time>2018-03-10T17:34:02Z</time>
      </trkpt>
      <trkpt lat="46.70025" lon="-1.93386">
        <ele>3</ele>
        <time>2018-03-10T17:35:02Z</time>
      </trkpt>
      <trkpt lat="46.70023" lon="-1.93384">
        <ele>3</ele>
        <time>2018-03-10T17:36:02Z</time>
      </trkpt>
      <trkpt lat="46.7002" lon="-1.93382">
        <ele>3</ele>
        <time>2018-03-10T17:37:02Z</time>
      </trkpt>
      <trkpt lat="46.70015" lon="-1.9338">
        <ele>3</ele>
        <time>2018-03-10T17:38:02Z</time>
      </trkpt>
      <trkpt lat="46.70002" lon="-1.93375">
        <ele>3</ele>
        <time>2018-03-10T17:39:02Z</time>
      </trkpt>
      <trkpt lat="46.69987" lon="-1.93369">
        <ele>3</ele>
        <time>2018-03-10T17:40:02Z</time>
      </trkpt>
      <trkpt lat="46.69982" lon="-1.93367">
        <ele>3</ele>
        <time>2018-03-10T17:41:02Z</time>
      </trkpt>
      <trkpt lat="46.69979" lon="-1.93366">
        <ele>3</ele>
        <time>2018-03-10T17:42:02Z</time>
      </trkpt>
      <trkpt lat="46.69978" lon="-1.93366">
        <ele>3</ele>
        <time>2018-03-10T17:43:02Z</time>
      </trkpt>
      <trkpt lat="46.69976" lon="-1.93367">
        <ele>4</ele>
        <time>2018-03-10T17:44:02Z</time>
      </trkpt>
      <trkpt lat="46.69973" lon="-1.93367">
        <ele>4</ele>
        <time>2018-03-10T17:45:02Z</time>
      </trkpt>
      <trkpt lat="46.69969" lon="-1.9337">
        <ele>4</ele>
        <time>2018-03-10T17:46:02Z</time>
      </trkpt>
      <trkpt lat="46.69963" lon="-1.93373">
        <ele>4</ele>
        <time>2018-03-10T17:47:02Z</time>
      </trkpt>
      <trkpt lat="46.69958" lon="-1.93375">
        <ele>4</ele>
        <time>2018-03-10T17:48:02Z</time>
      </trkpt>
      <trkpt lat="46.69953" lon="-1.93377">
        <ele>4</ele>
        <time>2018-03-10T17:49:02Z</time>
      </trkpt>
      <trkpt lat="46.69949" lon="-1.93379">
        <ele>4</ele>
        <time>2018-03-10T17:50:02Z</time>
      </trkpt>
      <trkpt lat="46.69944" lon="-1.93381">
        <ele>4</ele>
        <time>2018-03-10T17:51:02Z</time>
      </trkpt>
      <trkpt lat="46.69935" lon="-1.93382">
        <ele>4</ele>
        <time>2018-03-10T17:52:02Z</time>
      </trkpt>
      <trkpt lat="46.69932" lon="-1.93382">
        <ele>4</ele>
        <time>2018-03-10T17:53:02Z</time>
      </trkpt>
    </trkseg>
  </trk>
</gpx>